<?xml version="1.0" encoding="UTF-8" standalone="no" ?>
<gpx xmlns="http://www.topografix.com/GPX/1/1" xmlns:xsi="http://www.w3.org/2001/XMLSchema-instance" xsi:schemaLocation="http://www.topografix.com/GPX/1/1 http://www.topografix.com/GPX/1/1/gpx.xsd" version="1.1" creator="VisuGPX - https://www.visugpx.com">
  <metadata>
    <name>Martre château </name>
  </metadata>
  <trk>
    <name><![CDATA[vélo route]]></name>
    <extensions>
      <line xmlns="http://www.topografix.com/GPX/gpx_style/0/2">
        <color>0000FF</color>
        <width>4</width>
      </line>
    </extensions>
    <trkseg>
      <trkpt lat="45.69297" lon="3.19424">
        <ele>334.6</ele>
        <time>2026-07-02T09:38:40.000Z</time>
      </trkpt>
      <trkpt lat="45.69295" lon="3.19429">
        <ele>334.8</ele>
        <time>2026-07-02T09:38:42.000Z</time>
      </trkpt>
      <trkpt lat="45.69292" lon="3.19433">
        <ele>334.8</ele>
        <time>2026-07-02T09:38:44.000Z</time>
      </trkpt>
      <trkpt lat="45.6929" lon="3.19436">
        <ele>334.8</ele>
        <time>2026-07-02T09:38:46.000Z</time>
      </trkpt>
      <trkpt lat="45.69289" lon="3.19438">
        <ele>334.8</ele>
        <time>2026-07-02T09:38:48.000Z</time>
      </trkpt>
      <trkpt lat="45.6929" lon="3.19442">
        <ele>334.8</ele>
        <time>2026-07-02T09:38:50.000Z</time>
      </trkpt>
      <trkpt lat="45.69293" lon="3.19447">
        <ele>334.8</ele>
        <time>2026-07-02T09:38:52.000Z</time>
      </trkpt>
      <trkpt lat="45.69298" lon="3.19452">
        <ele>334.6</ele>
        <time>2026-07-02T09:38:54.000Z</time>
      </trkpt>
      <trkpt lat="45.69304" lon="3.19457">
        <ele>334.4</ele>
        <time>2026-07-02T09:38:56.000Z</time>
      </trkpt>
      <trkpt lat="45.69311" lon="3.19462">
        <ele>334.2</ele>
        <time>2026-07-02T09:38:58.000Z</time>
      </trkpt>
      <trkpt lat="45.69317" lon="3.19467">
        <ele>334</ele>
        <time>2026-07-02T09:39:00.000Z</time>
      </trkpt>
      <trkpt lat="45.69324" lon="3.19472">
        <ele>333.8</ele>
        <time>2026-07-02T09:39:02.000Z</time>
      </trkpt>
      <trkpt lat="45.69331" lon="3.19476">
        <ele>333.8</ele>
        <time>2026-07-02T09:39:04.000Z</time>
      </trkpt>
      <trkpt lat="45.69338" lon="3.1948">
        <ele>333.6</ele>
        <time>2026-07-02T09:39:06.000Z</time>
      </trkpt>
      <trkpt lat="45.69343" lon="3.19486">
        <ele>333.6</ele>
        <time>2026-07-02T09:39:08.000Z</time>
      </trkpt>
      <trkpt lat="45.69349" lon="3.1949">
        <ele>333.6</ele>
        <time>2026-07-02T09:39:10.000Z</time>
      </trkpt>
      <trkpt lat="45.69354" lon="3.19493">
        <ele>333.6</ele>
        <time>2026-07-02T09:39:12.000Z</time>
      </trkpt>
      <trkpt lat="45.69359" lon="3.19494">
        <ele>333.6</ele>
        <time>2026-07-02T09:39:14.000Z</time>
      </trkpt>
      <trkpt lat="45.69364" lon="3.1949">
        <ele>333.6</ele>
        <time>2026-07-02T09:39:16.000Z</time>
      </trkpt>
      <trkpt lat="45.69369" lon="3.19483">
        <ele>333.6</ele>
        <time>2026-07-02T09:39:18.000Z</time>
      </trkpt>
      <trkpt lat="45.69372" lon="3.19475">
        <ele>333.6</ele>
        <time>2026-07-02T09:39:20.000Z</time>
      </trkpt>
      <trkpt lat="45.69376" lon="3.19466">
        <ele>333.8</ele>
        <time>2026-07-02T09:39:22.000Z</time>
      </trkpt>
      <trkpt lat="45.69381" lon="3.19458">
        <ele>333.8</ele>
        <time>2026-07-02T09:39:24.000Z</time>
      </trkpt>
      <trkpt lat="45.69385" lon="3.19448">
        <ele>334</ele>
        <time>2026-07-02T09:39:26.000Z</time>
      </trkpt>
      <trkpt lat="45.69389" lon="3.1944">
        <ele>334</ele>
        <time>2026-07-02T09:39:28.000Z</time>
      </trkpt>
      <trkpt lat="45.69393" lon="3.19431">
        <ele>334</ele>
        <time>2026-07-02T09:39:30.000Z</time>
      </trkpt>
      <trkpt lat="45.69398" lon="3.19423">
        <ele>334</ele>
        <time>2026-07-02T09:39:32.000Z</time>
      </trkpt>
      <trkpt lat="45.69402" lon="3.19413">
        <ele>334.2</ele>
        <time>2026-07-02T09:39:34.000Z</time>
      </trkpt>
      <trkpt lat="45.69406" lon="3.19404">
        <ele>334.2</ele>
        <time>2026-07-02T09:39:36.000Z</time>
      </trkpt>
      <trkpt lat="45.6941" lon="3.19395">
        <ele>334.4</ele>
        <time>2026-07-02T09:39:38.000Z</time>
      </trkpt>
      <trkpt lat="45.69414" lon="3.19386">
        <ele>334.6</ele>
        <time>2026-07-02T09:39:40.000Z</time>
      </trkpt>
      <trkpt lat="45.69418" lon="3.19377">
        <ele>334.6</ele>
        <time>2026-07-02T09:39:42.000Z</time>
      </trkpt>
      <trkpt lat="45.69422" lon="3.19368">
        <ele>334.8</ele>
        <time>2026-07-02T09:39:44.000Z</time>
      </trkpt>
      <trkpt lat="45.69425" lon="3.19359">
        <ele>335</ele>
        <time>2026-07-02T09:39:46.000Z</time>
      </trkpt>
      <trkpt lat="45.69429" lon="3.1935">
        <ele>335</ele>
        <time>2026-07-02T09:39:48.000Z</time>
      </trkpt>
      <trkpt lat="45.69434" lon="3.19343">
        <ele>335.2</ele>
        <time>2026-07-02T09:39:50.000Z</time>
      </trkpt>
      <trkpt lat="45.69441" lon="3.1934">
        <ele>335.2</ele>
        <time>2026-07-02T09:39:52.000Z</time>
      </trkpt>
      <trkpt lat="45.69448" lon="3.19343">
        <ele>335.4</ele>
        <time>2026-07-02T09:39:54.000Z</time>
      </trkpt>
      <trkpt lat="45.69455" lon="3.19348">
        <ele>335.4</ele>
        <time>2026-07-02T09:39:56.000Z</time>
      </trkpt>
      <trkpt lat="45.69463" lon="3.19353">
        <ele>335.6</ele>
        <time>2026-07-02T09:39:58.000Z</time>
      </trkpt>
      <trkpt lat="45.6947" lon="3.19358">
        <ele>335.6</ele>
        <time>2026-07-02T09:40:00.000Z</time>
      </trkpt>
      <trkpt lat="45.69478" lon="3.19363">
        <ele>335.4</ele>
        <time>2026-07-02T09:40:02.000Z</time>
      </trkpt>
      <trkpt lat="45.69486" lon="3.19369">
        <ele>335.4</ele>
        <time>2026-07-02T09:40:04.000Z</time>
      </trkpt>
      <trkpt lat="45.69494" lon="3.19374">
        <ele>335.2</ele>
        <time>2026-07-02T09:40:06.000Z</time>
      </trkpt>
      <trkpt lat="45.69502" lon="3.19379">
        <ele>335.2</ele>
        <time>2026-07-02T09:40:08.000Z</time>
      </trkpt>
      <trkpt lat="45.69511" lon="3.19384">
        <ele>335</ele>
        <time>2026-07-02T09:40:10.000Z</time>
      </trkpt>
      <trkpt lat="45.69519" lon="3.1939">
        <ele>335</ele>
        <time>2026-07-02T09:40:12.000Z</time>
      </trkpt>
      <trkpt lat="45.69528" lon="3.19395">
        <ele>334.8</ele>
        <time>2026-07-02T09:40:14.000Z</time>
      </trkpt>
      <trkpt lat="45.69536" lon="3.194">
        <ele>334.8</ele>
        <time>2026-07-02T09:40:16.000Z</time>
      </trkpt>
      <trkpt lat="45.69544" lon="3.19406">
        <ele>334.6</ele>
        <time>2026-07-02T09:40:18.000Z</time>
      </trkpt>
      <trkpt lat="45.69553" lon="3.19411">
        <ele>334.6</ele>
        <time>2026-07-02T09:40:20.000Z</time>
      </trkpt>
      <trkpt lat="45.69561" lon="3.19416">
        <ele>334.4</ele>
        <time>2026-07-02T09:40:22.000Z</time>
      </trkpt>
      <trkpt lat="45.69569" lon="3.19422">
        <ele>334.2</ele>
        <time>2026-07-02T09:40:24.000Z</time>
      </trkpt>
      <trkpt lat="45.69578" lon="3.19427">
        <ele>334.2</ele>
        <time>2026-07-02T09:40:26.000Z</time>
      </trkpt>
      <trkpt lat="45.69586" lon="3.19433">
        <ele>334</ele>
        <time>2026-07-02T09:40:28.000Z</time>
      </trkpt>
      <trkpt lat="45.69594" lon="3.19439">
        <ele>333.8</ele>
        <time>2026-07-02T09:40:30.000Z</time>
      </trkpt>
      <trkpt lat="45.69602" lon="3.19445">
        <ele>333.8</ele>
        <time>2026-07-02T09:40:32.000Z</time>
      </trkpt>
      <trkpt lat="45.69608" lon="3.19453">
        <ele>333.6</ele>
        <time>2026-07-02T09:40:34.000Z</time>
      </trkpt>
      <trkpt lat="45.69613" lon="3.19463">
        <ele>333.6</ele>
        <time>2026-07-02T09:40:36.000Z</time>
      </trkpt>
      <trkpt lat="45.69617" lon="3.19474">
        <ele>333.6</ele>
        <time>2026-07-02T09:40:38.000Z</time>
      </trkpt>
      <trkpt lat="45.69619" lon="3.19486">
        <ele>333.6</ele>
        <time>2026-07-02T09:40:40.000Z</time>
      </trkpt>
      <trkpt lat="45.6962" lon="3.19498">
        <ele>333.6</ele>
        <time>2026-07-02T09:40:42.000Z</time>
      </trkpt>
      <trkpt lat="45.69621" lon="3.1951">
        <ele>333.4</ele>
        <time>2026-07-02T09:40:44.000Z</time>
      </trkpt>
      <trkpt lat="45.69622" lon="3.19523">
        <ele>333.4</ele>
        <time>2026-07-02T09:40:46.000Z</time>
      </trkpt>
      <trkpt lat="45.69622" lon="3.19535">
        <ele>333.2</ele>
        <time>2026-07-02T09:40:48.000Z</time>
      </trkpt>
      <trkpt lat="45.69623" lon="3.19547">
        <ele>333</ele>
        <time>2026-07-02T09:40:50.000Z</time>
      </trkpt>
      <trkpt lat="45.69623" lon="3.19559">
        <ele>333</ele>
        <time>2026-07-02T09:40:52.000Z</time>
      </trkpt>
      <trkpt lat="45.69624" lon="3.19569">
        <ele>333</ele>
        <time>2026-07-02T09:40:54.000Z</time>
      </trkpt>
      <trkpt lat="45.69626" lon="3.1958">
        <ele>333</ele>
        <time>2026-07-02T09:40:56.000Z</time>
      </trkpt>
      <trkpt lat="45.69629" lon="3.1959">
        <ele>333</ele>
        <time>2026-07-02T09:40:58.000Z</time>
      </trkpt>
      <trkpt lat="45.69632" lon="3.196">
        <ele>333</ele>
        <time>2026-07-02T09:41:00.000Z</time>
      </trkpt>
      <trkpt lat="45.69636" lon="3.19608">
        <ele>333</ele>
        <time>2026-07-02T09:41:02.000Z</time>
      </trkpt>
      <trkpt lat="45.69639" lon="3.19616">
        <ele>333.2</ele>
        <time>2026-07-02T09:41:04.000Z</time>
      </trkpt>
      <trkpt lat="45.69642" lon="3.19622">
        <ele>333.2</ele>
        <time>2026-07-02T09:41:06.000Z</time>
      </trkpt>
      <trkpt lat="45.69648" lon="3.19626">
        <ele>333.2</ele>
        <time>2026-07-02T09:41:08.000Z</time>
      </trkpt>
      <trkpt lat="45.69656" lon="3.19625">
        <ele>333.2</ele>
        <time>2026-07-02T09:41:10.000Z</time>
      </trkpt>
      <trkpt lat="45.69663" lon="3.19622">
        <ele>333.2</ele>
        <time>2026-07-02T09:41:12.000Z</time>
      </trkpt>
      <trkpt lat="45.69672" lon="3.19621">
        <ele>333.2</ele>
        <time>2026-07-02T09:41:14.000Z</time>
      </trkpt>
      <trkpt lat="45.6968" lon="3.19626">
        <ele>333</ele>
        <time>2026-07-02T09:41:16.000Z</time>
      </trkpt>
      <trkpt lat="45.69685" lon="3.19636">
        <ele>333</ele>
        <time>2026-07-02T09:41:18.000Z</time>
      </trkpt>
      <trkpt lat="45.69686" lon="3.19647">
        <ele>333.2</ele>
        <time>2026-07-02T09:41:20.000Z</time>
      </trkpt>
      <trkpt lat="45.69684" lon="3.19658">
        <ele>333.2</ele>
        <time>2026-07-02T09:41:22.000Z</time>
      </trkpt>
      <trkpt lat="45.69685" lon="3.1967">
        <ele>333.2</ele>
        <time>2026-07-02T09:41:24.000Z</time>
      </trkpt>
      <trkpt lat="45.69689" lon="3.19682">
        <ele>333.4</ele>
        <time>2026-07-02T09:41:26.000Z</time>
      </trkpt>
      <trkpt lat="45.69696" lon="3.19691">
        <ele>333.4</ele>
        <time>2026-07-02T09:41:28.000Z</time>
      </trkpt>
      <trkpt lat="45.69705" lon="3.19695">
        <ele>333.2</ele>
        <time>2026-07-02T09:41:30.000Z</time>
      </trkpt>
      <trkpt lat="45.69714" lon="3.19693">
        <ele>333.2</ele>
        <time>2026-07-02T09:41:32.000Z</time>
      </trkpt>
      <trkpt lat="45.69722" lon="3.19687">
        <ele>333</ele>
        <time>2026-07-02T09:41:34.000Z</time>
      </trkpt>
      <trkpt lat="45.69728" lon="3.19676">
        <ele>332.8</ele>
        <time>2026-07-02T09:41:36.000Z</time>
      </trkpt>
      <trkpt lat="45.69734" lon="3.19665">
        <ele>332.8</ele>
        <time>2026-07-02T09:41:38.000Z</time>
      </trkpt>
      <trkpt lat="45.6974" lon="3.19654">
        <ele>333</ele>
        <time>2026-07-02T09:41:40.000Z</time>
      </trkpt>
      <trkpt lat="45.69749" lon="3.19647">
        <ele>333.2</ele>
        <time>2026-07-02T09:41:42.000Z</time>
      </trkpt>
      <trkpt lat="45.69758" lon="3.19641">
        <ele>333.2</ele>
        <time>2026-07-02T09:41:44.000Z</time>
      </trkpt>
      <trkpt lat="45.69768" lon="3.19636">
        <ele>333.4</ele>
        <time>2026-07-02T09:41:46.000Z</time>
      </trkpt>
      <trkpt lat="45.69778" lon="3.19631">
        <ele>333.4</ele>
        <time>2026-07-02T09:41:48.000Z</time>
      </trkpt>
      <trkpt lat="45.69788" lon="3.19626">
        <ele>333.2</ele>
        <time>2026-07-02T09:41:50.000Z</time>
      </trkpt>
      <trkpt lat="45.69799" lon="3.19622">
        <ele>333.2</ele>
        <time>2026-07-02T09:41:52.000Z</time>
      </trkpt>
      <trkpt lat="45.69809" lon="3.19619">
        <ele>333.2</ele>
        <time>2026-07-02T09:41:54.000Z</time>
      </trkpt>
      <trkpt lat="45.6982" lon="3.19616">
        <ele>333.2</ele>
        <time>2026-07-02T09:41:56.000Z</time>
      </trkpt>
      <trkpt lat="45.69831" lon="3.19615">
        <ele>333.2</ele>
        <time>2026-07-02T09:41:58.000Z</time>
      </trkpt>
      <trkpt lat="45.69841" lon="3.19615">
        <ele>333.2</ele>
        <time>2026-07-02T09:42:00.000Z</time>
      </trkpt>
      <trkpt lat="45.69852" lon="3.19616">
        <ele>333.4</ele>
        <time>2026-07-02T09:42:02.000Z</time>
      </trkpt>
      <trkpt lat="45.69863" lon="3.19617">
        <ele>333.4</ele>
        <time>2026-07-02T09:42:04.000Z</time>
      </trkpt>
      <trkpt lat="45.69874" lon="3.1962">
        <ele>333.4</ele>
        <time>2026-07-02T09:42:06.000Z</time>
      </trkpt>
      <trkpt lat="45.69885" lon="3.19623">
        <ele>333.4</ele>
        <time>2026-07-02T09:42:08.000Z</time>
      </trkpt>
      <trkpt lat="45.69896" lon="3.19628">
        <ele>333.4</ele>
        <time>2026-07-02T09:42:10.000Z</time>
      </trkpt>
      <trkpt lat="45.69906" lon="3.19633">
        <ele>333.6</ele>
        <time>2026-07-02T09:42:12.000Z</time>
      </trkpt>
      <trkpt lat="45.69917" lon="3.1964">
        <ele>333.2</ele>
        <time>2026-07-02T09:42:14.000Z</time>
      </trkpt>
      <trkpt lat="45.69928" lon="3.19646">
        <ele>333.4</ele>
        <time>2026-07-02T09:42:16.000Z</time>
      </trkpt>
      <trkpt lat="45.69938" lon="3.19653">
        <ele>333.4</ele>
        <time>2026-07-02T09:42:18.000Z</time>
      </trkpt>
      <trkpt lat="45.69948" lon="3.19661">
        <ele>333.2</ele>
        <time>2026-07-02T09:42:20.000Z</time>
      </trkpt>
      <trkpt lat="45.69958" lon="3.19668">
        <ele>333</ele>
        <time>2026-07-02T09:42:22.000Z</time>
      </trkpt>
      <trkpt lat="45.69968" lon="3.19675">
        <ele>332.8</ele>
        <time>2026-07-02T09:42:24.000Z</time>
      </trkpt>
      <trkpt lat="45.69978" lon="3.19683">
        <ele>332.8</ele>
        <time>2026-07-02T09:42:26.000Z</time>
      </trkpt>
      <trkpt lat="45.69988" lon="3.1969">
        <ele>332.8</ele>
        <time>2026-07-02T09:42:28.000Z</time>
      </trkpt>
      <trkpt lat="45.69998" lon="3.19697">
        <ele>332.6</ele>
        <time>2026-07-02T09:42:30.000Z</time>
      </trkpt>
      <trkpt lat="45.70008" lon="3.19704">
        <ele>332.6</ele>
        <time>2026-07-02T09:42:32.000Z</time>
      </trkpt>
      <trkpt lat="45.70018" lon="3.19712">
        <ele>332.6</ele>
        <time>2026-07-02T09:42:34.000Z</time>
      </trkpt>
      <trkpt lat="45.70029" lon="3.19719">
        <ele>332.4</ele>
        <time>2026-07-02T09:42:36.000Z</time>
      </trkpt>
      <trkpt lat="45.70039" lon="3.19726">
        <ele>332.4</ele>
        <time>2026-07-02T09:42:38.000Z</time>
      </trkpt>
      <trkpt lat="45.70049" lon="3.19734">
        <ele>332.4</ele>
        <time>2026-07-02T09:42:40.000Z</time>
      </trkpt>
      <trkpt lat="45.70059" lon="3.19741">
        <ele>332.4</ele>
        <time>2026-07-02T09:42:42.000Z</time>
      </trkpt>
      <trkpt lat="45.70069" lon="3.19748">
        <ele>332.4</ele>
        <time>2026-07-02T09:42:44.000Z</time>
      </trkpt>
      <trkpt lat="45.70079" lon="3.19755">
        <ele>332.4</ele>
        <time>2026-07-02T09:42:46.000Z</time>
      </trkpt>
      <trkpt lat="45.70089" lon="3.19763">
        <ele>332.4</ele>
        <time>2026-07-02T09:42:48.000Z</time>
      </trkpt>
      <trkpt lat="45.70099" lon="3.1977">
        <ele>332.2</ele>
        <time>2026-07-02T09:42:50.000Z</time>
      </trkpt>
      <trkpt lat="45.70108" lon="3.19777">
        <ele>332.2</ele>
        <time>2026-07-02T09:42:52.000Z</time>
      </trkpt>
      <trkpt lat="45.70118" lon="3.19784">
        <ele>332.2</ele>
        <time>2026-07-02T09:42:54.000Z</time>
      </trkpt>
      <trkpt lat="45.70127" lon="3.1979">
        <ele>332.2</ele>
        <time>2026-07-02T09:42:56.000Z</time>
      </trkpt>
      <trkpt lat="45.70137" lon="3.19797">
        <ele>332.2</ele>
        <time>2026-07-02T09:42:58.000Z</time>
      </trkpt>
      <trkpt lat="45.70145" lon="3.19803">
        <ele>332.4</ele>
        <time>2026-07-02T09:43:00.000Z</time>
      </trkpt>
      <trkpt lat="45.70154" lon="3.1981">
        <ele>332.6</ele>
        <time>2026-07-02T09:43:02.000Z</time>
      </trkpt>
      <trkpt lat="45.70163" lon="3.19816">
        <ele>332.8</ele>
        <time>2026-07-02T09:43:04.000Z</time>
      </trkpt>
      <trkpt lat="45.70171" lon="3.19821">
        <ele>333</ele>
        <time>2026-07-02T09:43:06.000Z</time>
      </trkpt>
      <trkpt lat="45.70179" lon="3.19827">
        <ele>333.4</ele>
        <time>2026-07-02T09:43:08.000Z</time>
      </trkpt>
      <trkpt lat="45.70186" lon="3.19833">
        <ele>333.6</ele>
        <time>2026-07-02T09:43:10.000Z</time>
      </trkpt>
      <trkpt lat="45.70194" lon="3.19838">
        <ele>334</ele>
        <time>2026-07-02T09:43:12.000Z</time>
      </trkpt>
      <trkpt lat="45.70201" lon="3.19843">
        <ele>334.2</ele>
        <time>2026-07-02T09:43:14.000Z</time>
      </trkpt>
      <trkpt lat="45.70208" lon="3.19848">
        <ele>334.6</ele>
        <time>2026-07-02T09:43:16.000Z</time>
      </trkpt>
      <trkpt lat="45.70215" lon="3.19852">
        <ele>335</ele>
        <time>2026-07-02T09:43:18.000Z</time>
      </trkpt>
      <trkpt lat="45.70222" lon="3.19856">
        <ele>335.4</ele>
        <time>2026-07-02T09:43:20.000Z</time>
      </trkpt>
      <trkpt lat="45.70229" lon="3.1986">
        <ele>335.8</ele>
        <time>2026-07-02T09:43:22.000Z</time>
      </trkpt>
      <trkpt lat="45.70237" lon="3.19864">
        <ele>336</ele>
        <time>2026-07-02T09:43:24.000Z</time>
      </trkpt>
      <trkpt lat="45.70244" lon="3.19868">
        <ele>336.4</ele>
        <time>2026-07-02T09:43:26.000Z</time>
      </trkpt>
      <trkpt lat="45.70251" lon="3.19871">
        <ele>336.6</ele>
        <time>2026-07-02T09:43:28.000Z</time>
      </trkpt>
      <trkpt lat="45.70258" lon="3.19874">
        <ele>337</ele>
        <time>2026-07-02T09:43:30.000Z</time>
      </trkpt>
      <trkpt lat="45.70265" lon="3.19876">
        <ele>337.4</ele>
        <time>2026-07-02T09:43:32.000Z</time>
      </trkpt>
      <trkpt lat="45.70272" lon="3.19879">
        <ele>337.8</ele>
        <time>2026-07-02T09:43:34.000Z</time>
      </trkpt>
      <trkpt lat="45.7028" lon="3.19881">
        <ele>338</ele>
        <time>2026-07-02T09:43:36.000Z</time>
      </trkpt>
      <trkpt lat="45.70288" lon="3.19883">
        <ele>338.4</ele>
        <time>2026-07-02T09:43:38.000Z</time>
      </trkpt>
      <trkpt lat="45.70296" lon="3.19884">
        <ele>338.8</ele>
        <time>2026-07-02T09:43:40.000Z</time>
      </trkpt>
      <trkpt lat="45.70304" lon="3.19885">
        <ele>339.2</ele>
        <time>2026-07-02T09:43:42.000Z</time>
      </trkpt>
      <trkpt lat="45.70312" lon="3.19887">
        <ele>339.6</ele>
        <time>2026-07-02T09:43:44.000Z</time>
      </trkpt>
      <trkpt lat="45.7032" lon="3.19888">
        <ele>339.8</ele>
        <time>2026-07-02T09:43:46.000Z</time>
      </trkpt>
      <trkpt lat="45.70328" lon="3.19889">
        <ele>340.2</ele>
        <time>2026-07-02T09:43:48.000Z</time>
      </trkpt>
      <trkpt lat="45.70336" lon="3.19889">
        <ele>340.4</ele>
        <time>2026-07-02T09:43:50.000Z</time>
      </trkpt>
      <trkpt lat="45.70345" lon="3.1989">
        <ele>340.6</ele>
        <time>2026-07-02T09:43:52.000Z</time>
      </trkpt>
      <trkpt lat="45.70353" lon="3.19891">
        <ele>341</ele>
        <time>2026-07-02T09:43:54.000Z</time>
      </trkpt>
      <trkpt lat="45.70361" lon="3.19891">
        <ele>341.2</ele>
        <time>2026-07-02T09:43:56.000Z</time>
      </trkpt>
      <trkpt lat="45.70369" lon="3.19892">
        <ele>341.4</ele>
        <time>2026-07-02T09:43:58.000Z</time>
      </trkpt>
      <trkpt lat="45.70378" lon="3.19892">
        <ele>341.8</ele>
        <time>2026-07-02T09:44:00.000Z</time>
      </trkpt>
      <trkpt lat="45.70386" lon="3.19892">
        <ele>342</ele>
        <time>2026-07-02T09:44:02.000Z</time>
      </trkpt>
      <trkpt lat="45.70394" lon="3.19893">
        <ele>342.4</ele>
        <time>2026-07-02T09:44:05.000Z</time>
      </trkpt>
      <trkpt lat="45.70403" lon="3.19894">
        <ele>342.6</ele>
        <time>2026-07-02T09:44:07.000Z</time>
      </trkpt>
      <trkpt lat="45.70411" lon="3.19894">
        <ele>342.8</ele>
        <time>2026-07-02T09:44:09.000Z</time>
      </trkpt>
      <trkpt lat="45.70419" lon="3.19895">
        <ele>343</ele>
        <time>2026-07-02T09:44:11.000Z</time>
      </trkpt>
      <trkpt lat="45.70428" lon="3.19895">
        <ele>343.2</ele>
        <time>2026-07-02T09:44:13.000Z</time>
      </trkpt>
      <trkpt lat="45.70436" lon="3.19896">
        <ele>343.4</ele>
        <time>2026-07-02T09:44:15.000Z</time>
      </trkpt>
      <trkpt lat="45.70444" lon="3.19896">
        <ele>343.6</ele>
        <time>2026-07-02T09:44:17.000Z</time>
      </trkpt>
      <trkpt lat="45.70453" lon="3.19897">
        <ele>343.8</ele>
        <time>2026-07-02T09:44:19.000Z</time>
      </trkpt>
      <trkpt lat="45.70461" lon="3.19897">
        <ele>343.8</ele>
        <time>2026-07-02T09:44:21.000Z</time>
      </trkpt>
      <trkpt lat="45.70469" lon="3.19897">
        <ele>344</ele>
        <time>2026-07-02T09:44:23.000Z</time>
      </trkpt>
      <trkpt lat="45.70478" lon="3.19898">
        <ele>344.2</ele>
        <time>2026-07-02T09:44:25.000Z</time>
      </trkpt>
      <trkpt lat="45.70487" lon="3.19898">
        <ele>344.4</ele>
        <time>2026-07-02T09:44:27.000Z</time>
      </trkpt>
      <trkpt lat="45.70496" lon="3.19899">
        <ele>344.6</ele>
        <time>2026-07-02T09:44:29.000Z</time>
      </trkpt>
      <trkpt lat="45.70504" lon="3.19899">
        <ele>344.8</ele>
        <time>2026-07-02T09:44:31.000Z</time>
      </trkpt>
      <trkpt lat="45.70513" lon="3.199">
        <ele>345</ele>
        <time>2026-07-02T09:44:33.000Z</time>
      </trkpt>
      <trkpt lat="45.70522" lon="3.19901">
        <ele>345.2</ele>
        <time>2026-07-02T09:44:35.000Z</time>
      </trkpt>
      <trkpt lat="45.70531" lon="3.19901">
        <ele>345.4</ele>
        <time>2026-07-02T09:44:37.000Z</time>
      </trkpt>
      <trkpt lat="45.7054" lon="3.19902">
        <ele>345.6</ele>
        <time>2026-07-02T09:44:39.000Z</time>
      </trkpt>
      <trkpt lat="45.70548" lon="3.19902">
        <ele>345.8</ele>
        <time>2026-07-02T09:44:41.000Z</time>
      </trkpt>
      <trkpt lat="45.70556" lon="3.19903">
        <ele>346</ele>
        <time>2026-07-02T09:44:43.000Z</time>
      </trkpt>
      <trkpt lat="45.70564" lon="3.19903">
        <ele>346.2</ele>
        <time>2026-07-02T09:44:45.000Z</time>
      </trkpt>
      <trkpt lat="45.70573" lon="3.19904">
        <ele>346.4</ele>
        <time>2026-07-02T09:44:47.000Z</time>
      </trkpt>
      <trkpt lat="45.70581" lon="3.19904">
        <ele>346.6</ele>
        <time>2026-07-02T09:44:49.000Z</time>
      </trkpt>
      <trkpt lat="45.70589" lon="3.19905">
        <ele>346.8</ele>
        <time>2026-07-02T09:44:51.000Z</time>
      </trkpt>
      <trkpt lat="45.70598" lon="3.19905">
        <ele>346.8</ele>
        <time>2026-07-02T09:44:53.000Z</time>
      </trkpt>
      <trkpt lat="45.70606" lon="3.19905">
        <ele>347</ele>
        <time>2026-07-02T09:44:55.000Z</time>
      </trkpt>
      <trkpt lat="45.70614" lon="3.19906">
        <ele>347.2</ele>
        <time>2026-07-02T09:44:57.000Z</time>
      </trkpt>
      <trkpt lat="45.70622" lon="3.19906">
        <ele>347.4</ele>
        <time>2026-07-02T09:44:59.000Z</time>
      </trkpt>
      <trkpt lat="45.7063" lon="3.19907">
        <ele>347.6</ele>
        <time>2026-07-02T09:45:01.000Z</time>
      </trkpt>
      <trkpt lat="45.70639" lon="3.19907">
        <ele>347.8</ele>
        <time>2026-07-02T09:45:03.000Z</time>
      </trkpt>
      <trkpt lat="45.70647" lon="3.19907">
        <ele>347.8</ele>
        <time>2026-07-02T09:45:05.000Z</time>
      </trkpt>
      <trkpt lat="45.70655" lon="3.19908">
        <ele>348</ele>
        <time>2026-07-02T09:45:07.000Z</time>
      </trkpt>
      <trkpt lat="45.70663" lon="3.19908">
        <ele>348.4</ele>
        <time>2026-07-02T09:45:09.000Z</time>
      </trkpt>
      <trkpt lat="45.70671" lon="3.19909">
        <ele>348.8</ele>
        <time>2026-07-02T09:45:11.000Z</time>
      </trkpt>
      <trkpt lat="45.7068" lon="3.19909">
        <ele>349.2</ele>
        <time>2026-07-02T09:45:13.000Z</time>
      </trkpt>
      <trkpt lat="45.70689" lon="3.1991">
        <ele>349.4</ele>
        <time>2026-07-02T09:45:15.000Z</time>
      </trkpt>
      <trkpt lat="45.70697" lon="3.1991">
        <ele>349.6</ele>
        <time>2026-07-02T09:45:17.000Z</time>
      </trkpt>
      <trkpt lat="45.70706" lon="3.19911">
        <ele>349.8</ele>
        <time>2026-07-02T09:45:19.000Z</time>
      </trkpt>
      <trkpt lat="45.70714" lon="3.19911">
        <ele>350</ele>
        <time>2026-07-02T09:45:21.000Z</time>
      </trkpt>
      <trkpt lat="45.70723" lon="3.19912">
        <ele>350.2</ele>
        <time>2026-07-02T09:45:23.000Z</time>
      </trkpt>
      <trkpt lat="45.70731" lon="3.19912">
        <ele>350.4</ele>
        <time>2026-07-02T09:45:25.000Z</time>
      </trkpt>
      <trkpt lat="45.7074" lon="3.19912">
        <ele>350.4</ele>
        <time>2026-07-02T09:45:27.000Z</time>
      </trkpt>
      <trkpt lat="45.70748" lon="3.19913">
        <ele>350.6</ele>
        <time>2026-07-02T09:45:29.000Z</time>
      </trkpt>
      <trkpt lat="45.70757" lon="3.19913">
        <ele>350.8</ele>
        <time>2026-07-02T09:45:31.000Z</time>
      </trkpt>
      <trkpt lat="45.70765" lon="3.19913">
        <ele>351</ele>
        <time>2026-07-02T09:45:33.000Z</time>
      </trkpt>
      <trkpt lat="45.70774" lon="3.19913">
        <ele>351.2</ele>
        <time>2026-07-02T09:45:35.000Z</time>
      </trkpt>
      <trkpt lat="45.70783" lon="3.19914">
        <ele>351.4</ele>
        <time>2026-07-02T09:45:37.000Z</time>
      </trkpt>
      <trkpt lat="45.70791" lon="3.19914">
        <ele>351.6</ele>
        <time>2026-07-02T09:45:39.000Z</time>
      </trkpt>
      <trkpt lat="45.708" lon="3.19915">
        <ele>351.6</ele>
        <time>2026-07-02T09:45:41.000Z</time>
      </trkpt>
      <trkpt lat="45.70809" lon="3.19916">
        <ele>351.8</ele>
        <time>2026-07-02T09:45:43.000Z</time>
      </trkpt>
      <trkpt lat="45.70817" lon="3.19916">
        <ele>352</ele>
        <time>2026-07-02T09:45:45.000Z</time>
      </trkpt>
      <trkpt lat="45.70827" lon="3.19917">
        <ele>352.2</ele>
        <time>2026-07-02T09:45:47.000Z</time>
      </trkpt>
      <trkpt lat="45.70836" lon="3.19917">
        <ele>352.4</ele>
        <time>2026-07-02T09:45:49.000Z</time>
      </trkpt>
      <trkpt lat="45.70846" lon="3.19918">
        <ele>352.4</ele>
        <time>2026-07-02T09:45:51.000Z</time>
      </trkpt>
      <trkpt lat="45.70855" lon="3.19919">
        <ele>352.6</ele>
        <time>2026-07-02T09:45:53.000Z</time>
      </trkpt>
      <trkpt lat="45.70865" lon="3.19919">
        <ele>352.8</ele>
        <time>2026-07-02T09:45:55.000Z</time>
      </trkpt>
      <trkpt lat="45.70874" lon="3.1992">
        <ele>352.8</ele>
        <time>2026-07-02T09:45:57.000Z</time>
      </trkpt>
      <trkpt lat="45.70884" lon="3.1992">
        <ele>352.8</ele>
        <time>2026-07-02T09:45:59.000Z</time>
      </trkpt>
      <trkpt lat="45.70893" lon="3.1992">
        <ele>353</ele>
        <time>2026-07-02T09:46:01.000Z</time>
      </trkpt>
      <trkpt lat="45.70903" lon="3.1992">
        <ele>353</ele>
        <time>2026-07-02T09:46:03.000Z</time>
      </trkpt>
      <trkpt lat="45.70912" lon="3.19919">
        <ele>353</ele>
        <time>2026-07-02T09:46:05.000Z</time>
      </trkpt>
      <trkpt lat="45.70922" lon="3.19917">
        <ele>353</ele>
        <time>2026-07-02T09:46:07.000Z</time>
      </trkpt>
      <trkpt lat="45.70933" lon="3.19915">
        <ele>352.8</ele>
        <time>2026-07-02T09:46:09.000Z</time>
      </trkpt>
      <trkpt lat="45.70943" lon="3.19912">
        <ele>352.8</ele>
        <time>2026-07-02T09:46:11.000Z</time>
      </trkpt>
      <trkpt lat="45.70953" lon="3.19909">
        <ele>353</ele>
        <time>2026-07-02T09:46:13.000Z</time>
      </trkpt>
      <trkpt lat="45.70964" lon="3.19905">
        <ele>353</ele>
        <time>2026-07-02T09:46:15.000Z</time>
      </trkpt>
      <trkpt lat="45.70974" lon="3.19901">
        <ele>352.8</ele>
        <time>2026-07-02T09:46:17.000Z</time>
      </trkpt>
      <trkpt lat="45.70985" lon="3.19895">
        <ele>352.8</ele>
        <time>2026-07-02T09:46:19.000Z</time>
      </trkpt>
      <trkpt lat="45.70995" lon="3.19889">
        <ele>352.6</ele>
        <time>2026-07-02T09:46:21.000Z</time>
      </trkpt>
      <trkpt lat="45.71006" lon="3.19882">
        <ele>352.6</ele>
        <time>2026-07-02T09:46:23.000Z</time>
      </trkpt>
      <trkpt lat="45.71017" lon="3.19875">
        <ele>352.6</ele>
        <time>2026-07-02T09:46:25.000Z</time>
      </trkpt>
      <trkpt lat="45.71027" lon="3.19867">
        <ele>352.6</ele>
        <time>2026-07-02T09:46:27.000Z</time>
      </trkpt>
      <trkpt lat="45.71036" lon="3.19859">
        <ele>352.6</ele>
        <time>2026-07-02T09:46:29.000Z</time>
      </trkpt>
      <trkpt lat="45.71045" lon="3.1985">
        <ele>352.6</ele>
        <time>2026-07-02T09:46:31.000Z</time>
      </trkpt>
      <trkpt lat="45.71054" lon="3.19841">
        <ele>352.8</ele>
        <time>2026-07-02T09:46:33.000Z</time>
      </trkpt>
      <trkpt lat="45.71063" lon="3.19831">
        <ele>352.8</ele>
        <time>2026-07-02T09:46:35.000Z</time>
      </trkpt>
      <trkpt lat="45.71071" lon="3.19821">
        <ele>352.8</ele>
        <time>2026-07-02T09:46:37.000Z</time>
      </trkpt>
      <trkpt lat="45.71079" lon="3.19811">
        <ele>352.8</ele>
        <time>2026-07-02T09:46:39.000Z</time>
      </trkpt>
      <trkpt lat="45.71086" lon="3.198">
        <ele>352.8</ele>
        <time>2026-07-02T09:46:41.000Z</time>
      </trkpt>
      <trkpt lat="45.71093" lon="3.1979">
        <ele>352.8</ele>
        <time>2026-07-02T09:46:43.000Z</time>
      </trkpt>
      <trkpt lat="45.71099" lon="3.1978">
        <ele>353</ele>
        <time>2026-07-02T09:46:45.000Z</time>
      </trkpt>
      <trkpt lat="45.71105" lon="3.1977">
        <ele>353.4</ele>
        <time>2026-07-02T09:46:47.000Z</time>
      </trkpt>
      <trkpt lat="45.71111" lon="3.1976">
        <ele>353.8</ele>
        <time>2026-07-02T09:46:49.000Z</time>
      </trkpt>
      <trkpt lat="45.71117" lon="3.1975">
        <ele>354</ele>
        <time>2026-07-02T09:46:51.000Z</time>
      </trkpt>
      <trkpt lat="45.71123" lon="3.1974">
        <ele>354.2</ele>
        <time>2026-07-02T09:46:53.000Z</time>
      </trkpt>
      <trkpt lat="45.71129" lon="3.1973">
        <ele>354.2</ele>
        <time>2026-07-02T09:46:55.000Z</time>
      </trkpt>
      <trkpt lat="45.71135" lon="3.1972">
        <ele>354.4</ele>
        <time>2026-07-02T09:46:57.000Z</time>
      </trkpt>
      <trkpt lat="45.71141" lon="3.19711">
        <ele>354.6</ele>
        <time>2026-07-02T09:46:59.000Z</time>
      </trkpt>
      <trkpt lat="45.71146" lon="3.19701">
        <ele>355</ele>
        <time>2026-07-02T09:47:01.000Z</time>
      </trkpt>
      <trkpt lat="45.71152" lon="3.19692">
        <ele>355.2</ele>
        <time>2026-07-02T09:47:03.000Z</time>
      </trkpt>
      <trkpt lat="45.71158" lon="3.19683">
        <ele>355.6</ele>
        <time>2026-07-02T09:47:05.000Z</time>
      </trkpt>
      <trkpt lat="45.71165" lon="3.19675">
        <ele>355.6</ele>
        <time>2026-07-02T09:47:07.000Z</time>
      </trkpt>
      <trkpt lat="45.71172" lon="3.19666">
        <ele>355.8</ele>
        <time>2026-07-02T09:47:09.000Z</time>
      </trkpt>
      <trkpt lat="45.71179" lon="3.19659">
        <ele>356</ele>
        <time>2026-07-02T09:47:11.000Z</time>
      </trkpt>
      <trkpt lat="45.71186" lon="3.19652">
        <ele>356.2</ele>
        <time>2026-07-02T09:47:13.000Z</time>
      </trkpt>
      <trkpt lat="45.71194" lon="3.19645">
        <ele>356.6</ele>
        <time>2026-07-02T09:47:15.000Z</time>
      </trkpt>
      <trkpt lat="45.71202" lon="3.19639">
        <ele>356.8</ele>
        <time>2026-07-02T09:47:17.000Z</time>
      </trkpt>
      <trkpt lat="45.71209" lon="3.19634">
        <ele>357</ele>
        <time>2026-07-02T09:47:19.000Z</time>
      </trkpt>
      <trkpt lat="45.71217" lon="3.19629">
        <ele>357.2</ele>
        <time>2026-07-02T09:47:21.000Z</time>
      </trkpt>
      <trkpt lat="45.71225" lon="3.19625">
        <ele>357.2</ele>
        <time>2026-07-02T09:47:23.000Z</time>
      </trkpt>
      <trkpt lat="45.71234" lon="3.19621">
        <ele>357.6</ele>
        <time>2026-07-02T09:47:25.000Z</time>
      </trkpt>
      <trkpt lat="45.71242" lon="3.19617">
        <ele>357.8</ele>
        <time>2026-07-02T09:47:27.000Z</time>
      </trkpt>
      <trkpt lat="45.7125" lon="3.19615">
        <ele>358</ele>
        <time>2026-07-02T09:47:29.000Z</time>
      </trkpt>
      <trkpt lat="45.71257" lon="3.19613">
        <ele>358.4</ele>
        <time>2026-07-02T09:47:31.000Z</time>
      </trkpt>
      <trkpt lat="45.71264" lon="3.19614">
        <ele>358.6</ele>
        <time>2026-07-02T09:47:33.000Z</time>
      </trkpt>
      <trkpt lat="45.7127" lon="3.19622">
        <ele>358.8</ele>
        <time>2026-07-02T09:47:35.000Z</time>
      </trkpt>
      <trkpt lat="45.71277" lon="3.1963">
        <ele>358.8</ele>
        <time>2026-07-02T09:47:37.000Z</time>
      </trkpt>
      <trkpt lat="45.71285" lon="3.19636">
        <ele>359</ele>
        <time>2026-07-02T09:47:39.000Z</time>
      </trkpt>
      <trkpt lat="45.71294" lon="3.19638">
        <ele>359.2</ele>
        <time>2026-07-02T09:47:41.000Z</time>
      </trkpt>
      <trkpt lat="45.71303" lon="3.19638">
        <ele>359.2</ele>
        <time>2026-07-02T09:47:43.000Z</time>
      </trkpt>
      <trkpt lat="45.71312" lon="3.19635">
        <ele>359.4</ele>
        <time>2026-07-02T09:47:45.000Z</time>
      </trkpt>
      <trkpt lat="45.7132" lon="3.19629">
        <ele>359.6</ele>
        <time>2026-07-02T09:47:47.000Z</time>
      </trkpt>
      <trkpt lat="45.71327" lon="3.1962">
        <ele>359.8</ele>
        <time>2026-07-02T09:47:49.000Z</time>
      </trkpt>
      <trkpt lat="45.71332" lon="3.1961">
        <ele>360</ele>
        <time>2026-07-02T09:47:51.000Z</time>
      </trkpt>
      <trkpt lat="45.71336" lon="3.19599">
        <ele>360</ele>
        <time>2026-07-02T09:47:53.000Z</time>
      </trkpt>
      <trkpt lat="45.71337" lon="3.19587">
        <ele>360.2</ele>
        <time>2026-07-02T09:47:55.000Z</time>
      </trkpt>
      <trkpt lat="45.71337" lon="3.19575">
        <ele>360.4</ele>
        <time>2026-07-02T09:47:57.000Z</time>
      </trkpt>
      <trkpt lat="45.71335" lon="3.19564">
        <ele>360.4</ele>
        <time>2026-07-02T09:47:59.000Z</time>
      </trkpt>
      <trkpt lat="45.71331" lon="3.19553">
        <ele>360.6</ele>
        <time>2026-07-02T09:48:01.000Z</time>
      </trkpt>
      <trkpt lat="45.71326" lon="3.19543">
        <ele>360.8</ele>
        <time>2026-07-02T09:48:03.000Z</time>
      </trkpt>
      <trkpt lat="45.71323" lon="3.19531">
        <ele>360.8</ele>
        <time>2026-07-02T09:48:05.000Z</time>
      </trkpt>
      <trkpt lat="45.71326" lon="3.19518">
        <ele>360.8</ele>
        <time>2026-07-02T09:48:07.000Z</time>
      </trkpt>
      <trkpt lat="45.7133" lon="3.19506">
        <ele>361</ele>
        <time>2026-07-02T09:48:09.000Z</time>
      </trkpt>
      <trkpt lat="45.71335" lon="3.19493">
        <ele>361</ele>
        <time>2026-07-02T09:48:11.000Z</time>
      </trkpt>
      <trkpt lat="45.71339" lon="3.19481">
        <ele>361.2</ele>
        <time>2026-07-02T09:48:13.000Z</time>
      </trkpt>
      <trkpt lat="45.71343" lon="3.19469">
        <ele>361.2</ele>
        <time>2026-07-02T09:48:15.000Z</time>
      </trkpt>
      <trkpt lat="45.71348" lon="3.19458">
        <ele>361.4</ele>
        <time>2026-07-02T09:48:17.000Z</time>
      </trkpt>
      <trkpt lat="45.71354" lon="3.19447">
        <ele>361.6</ele>
        <time>2026-07-02T09:48:19.000Z</time>
      </trkpt>
      <trkpt lat="45.71359" lon="3.19437">
        <ele>361.8</ele>
        <time>2026-07-02T09:48:21.000Z</time>
      </trkpt>
      <trkpt lat="45.71366" lon="3.19427">
        <ele>362</ele>
        <time>2026-07-02T09:48:23.000Z</time>
      </trkpt>
      <trkpt lat="45.71373" lon="3.19419">
        <ele>362</ele>
        <time>2026-07-02T09:48:25.000Z</time>
      </trkpt>
      <trkpt lat="45.7138" lon="3.1941">
        <ele>362.2</ele>
        <time>2026-07-02T09:48:27.000Z</time>
      </trkpt>
      <trkpt lat="45.71388" lon="3.19402">
        <ele>362.2</ele>
        <time>2026-07-02T09:48:29.000Z</time>
      </trkpt>
      <trkpt lat="45.71395" lon="3.19394">
        <ele>362.2</ele>
        <time>2026-07-02T09:48:31.000Z</time>
      </trkpt>
      <trkpt lat="45.71403" lon="3.19386">
        <ele>362.2</ele>
        <time>2026-07-02T09:48:33.000Z</time>
      </trkpt>
      <trkpt lat="45.71412" lon="3.19381">
        <ele>362.2</ele>
        <time>2026-07-02T09:48:35.000Z</time>
      </trkpt>
      <trkpt lat="45.71422" lon="3.19378">
        <ele>362</ele>
        <time>2026-07-02T09:48:37.000Z</time>
      </trkpt>
      <trkpt lat="45.71434" lon="3.19373">
        <ele>362</ele>
        <time>2026-07-02T09:48:39.000Z</time>
      </trkpt>
      <trkpt lat="45.71445" lon="3.19364">
        <ele>361.4</ele>
        <time>2026-07-02T09:48:41.000Z</time>
      </trkpt>
      <trkpt lat="45.71455" lon="3.19352">
        <ele>361</ele>
        <time>2026-07-02T09:48:43.000Z</time>
      </trkpt>
      <trkpt lat="45.71462" lon="3.1934">
        <ele>360.8</ele>
        <time>2026-07-02T09:48:45.000Z</time>
      </trkpt>
      <trkpt lat="45.71469" lon="3.1933">
        <ele>360.8</ele>
        <time>2026-07-02T09:48:47.000Z</time>
      </trkpt>
      <trkpt lat="45.71477" lon="3.19322">
        <ele>361</ele>
        <time>2026-07-02T09:48:49.000Z</time>
      </trkpt>
      <trkpt lat="45.71486" lon="3.19314">
        <ele>361</ele>
        <time>2026-07-02T09:48:51.000Z</time>
      </trkpt>
      <trkpt lat="45.71494" lon="3.19305">
        <ele>361.2</ele>
        <time>2026-07-02T09:48:53.000Z</time>
      </trkpt>
      <trkpt lat="45.71504" lon="3.19296">
        <ele>361</ele>
        <time>2026-07-02T09:48:55.000Z</time>
      </trkpt>
      <trkpt lat="45.71513" lon="3.19286">
        <ele>360.8</ele>
        <time>2026-07-02T09:48:57.000Z</time>
      </trkpt>
      <trkpt lat="45.71521" lon="3.19277">
        <ele>360.8</ele>
        <time>2026-07-02T09:48:59.000Z</time>
      </trkpt>
      <trkpt lat="45.7153" lon="3.19268">
        <ele>360.4</ele>
        <time>2026-07-02T09:49:01.000Z</time>
      </trkpt>
      <trkpt lat="45.71538" lon="3.1926">
        <ele>360.4</ele>
        <time>2026-07-02T09:49:03.000Z</time>
      </trkpt>
      <trkpt lat="45.71546" lon="3.19252">
        <ele>360.2</ele>
        <time>2026-07-02T09:49:05.000Z</time>
      </trkpt>
      <trkpt lat="45.71555" lon="3.19246">
        <ele>360.2</ele>
        <time>2026-07-02T09:49:07.000Z</time>
      </trkpt>
      <trkpt lat="45.71565" lon="3.19242">
        <ele>360.2</ele>
        <time>2026-07-02T09:49:09.000Z</time>
      </trkpt>
      <trkpt lat="45.71575" lon="3.19234">
        <ele>360.2</ele>
        <time>2026-07-02T09:49:11.000Z</time>
      </trkpt>
      <trkpt lat="45.71581" lon="3.19221">
        <ele>360.2</ele>
        <time>2026-07-02T09:49:13.000Z</time>
      </trkpt>
      <trkpt lat="45.71586" lon="3.19208">
        <ele>360</ele>
        <time>2026-07-02T09:49:15.000Z</time>
      </trkpt>
      <trkpt lat="45.71593" lon="3.19195">
        <ele>360</ele>
        <time>2026-07-02T09:49:17.000Z</time>
      </trkpt>
      <trkpt lat="45.71602" lon="3.19185">
        <ele>360</ele>
        <time>2026-07-02T09:49:19.000Z</time>
      </trkpt>
      <trkpt lat="45.7161" lon="3.19177">
        <ele>360</ele>
        <time>2026-07-02T09:49:21.000Z</time>
      </trkpt>
      <trkpt lat="45.71619" lon="3.19168">
        <ele>360.2</ele>
        <time>2026-07-02T09:49:23.000Z</time>
      </trkpt>
      <trkpt lat="45.71628" lon="3.19159">
        <ele>360</ele>
        <time>2026-07-02T09:49:25.000Z</time>
      </trkpt>
      <trkpt lat="45.71638" lon="3.19149">
        <ele>360.2</ele>
        <time>2026-07-02T09:49:27.000Z</time>
      </trkpt>
      <trkpt lat="45.71647" lon="3.1914">
        <ele>360.2</ele>
        <time>2026-07-02T09:49:29.000Z</time>
      </trkpt>
      <trkpt lat="45.71657" lon="3.19133">
        <ele>360.2</ele>
        <time>2026-07-02T09:49:31.000Z</time>
      </trkpt>
      <trkpt lat="45.71667" lon="3.19125">
        <ele>360.2</ele>
        <time>2026-07-02T09:49:33.000Z</time>
      </trkpt>
      <trkpt lat="45.71676" lon="3.19117">
        <ele>360</ele>
        <time>2026-07-02T09:49:35.000Z</time>
      </trkpt>
      <trkpt lat="45.71686" lon="3.1911">
        <ele>360</ele>
        <time>2026-07-02T09:49:37.000Z</time>
      </trkpt>
      <trkpt lat="45.71695" lon="3.19104">
        <ele>360</ele>
        <time>2026-07-02T09:49:39.000Z</time>
      </trkpt>
      <trkpt lat="45.71705" lon="3.19098">
        <ele>360</ele>
        <time>2026-07-02T09:49:41.000Z</time>
      </trkpt>
      <trkpt lat="45.71714" lon="3.19091">
        <ele>360</ele>
        <time>2026-07-02T09:49:43.000Z</time>
      </trkpt>
      <trkpt lat="45.71723" lon="3.19086">
        <ele>360.2</ele>
        <time>2026-07-02T09:49:45.000Z</time>
      </trkpt>
      <trkpt lat="45.71733" lon="3.1908">
        <ele>360.2</ele>
        <time>2026-07-02T09:49:47.000Z</time>
      </trkpt>
      <trkpt lat="45.71742" lon="3.19074">
        <ele>360</ele>
        <time>2026-07-02T09:49:49.000Z</time>
      </trkpt>
      <trkpt lat="45.71751" lon="3.19068">
        <ele>360</ele>
        <time>2026-07-02T09:49:51.000Z</time>
      </trkpt>
      <trkpt lat="45.71761" lon="3.19066">
        <ele>360</ele>
        <time>2026-07-02T09:49:53.000Z</time>
      </trkpt>
      <trkpt lat="45.71771" lon="3.19069">
        <ele>359.8</ele>
        <time>2026-07-02T09:49:55.000Z</time>
      </trkpt>
      <trkpt lat="45.7178" lon="3.19065">
        <ele>359.6</ele>
        <time>2026-07-02T09:49:57.000Z</time>
      </trkpt>
      <trkpt lat="45.71787" lon="3.19053">
        <ele>359.6</ele>
        <time>2026-07-02T09:49:59.000Z</time>
      </trkpt>
      <trkpt lat="45.71793" lon="3.1904">
        <ele>359.2</ele>
        <time>2026-07-02T09:50:01.000Z</time>
      </trkpt>
      <trkpt lat="45.71803" lon="3.1903">
        <ele>359</ele>
        <time>2026-07-02T09:50:03.000Z</time>
      </trkpt>
      <trkpt lat="45.71813" lon="3.19021">
        <ele>358.4</ele>
        <time>2026-07-02T09:50:05.000Z</time>
      </trkpt>
      <trkpt lat="45.71823" lon="3.1901">
        <ele>358.2</ele>
        <time>2026-07-02T09:50:07.000Z</time>
      </trkpt>
      <trkpt lat="45.71833" lon="3.19">
        <ele>357.8</ele>
        <time>2026-07-02T09:50:09.000Z</time>
      </trkpt>
      <trkpt lat="45.71842" lon="3.18988">
        <ele>357.2</ele>
        <time>2026-07-02T09:50:11.000Z</time>
      </trkpt>
      <trkpt lat="45.7185" lon="3.18977">
        <ele>356.8</ele>
        <time>2026-07-02T09:50:13.000Z</time>
      </trkpt>
      <trkpt lat="45.71857" lon="3.18968">
        <ele>356.2</ele>
        <time>2026-07-02T09:50:15.000Z</time>
      </trkpt>
      <trkpt lat="45.71863" lon="3.18959">
        <ele>355.8</ele>
        <time>2026-07-02T09:50:17.000Z</time>
      </trkpt>
      <trkpt lat="45.71868" lon="3.18952">
        <ele>355.4</ele>
        <time>2026-07-02T09:50:19.000Z</time>
      </trkpt>
      <trkpt lat="45.71873" lon="3.18945">
        <ele>355</ele>
        <time>2026-07-02T09:50:21.000Z</time>
      </trkpt>
      <trkpt lat="45.71877" lon="3.1894">
        <ele>354.6</ele>
        <time>2026-07-02T09:50:23.000Z</time>
      </trkpt>
      <trkpt lat="45.7188" lon="3.18936">
        <ele>354.4</ele>
        <time>2026-07-02T09:50:25.000Z</time>
      </trkpt>
      <trkpt lat="45.71881" lon="3.18934">
        <ele>354.2</ele>
        <time>2026-07-02T09:50:27.000Z</time>
      </trkpt>
      <trkpt lat="45.71883" lon="3.18933">
        <ele>354</ele>
        <time>2026-07-02T09:50:29.000Z</time>
      </trkpt>
      <trkpt lat="45.71884" lon="3.1893">
        <ele>353.8</ele>
        <time>2026-07-02T09:50:31.000Z</time>
      </trkpt>
      <trkpt lat="45.71887" lon="3.18926">
        <ele>353.8</ele>
        <time>2026-07-02T09:50:33.000Z</time>
      </trkpt>
      <trkpt lat="45.71892" lon="3.18918">
        <ele>353.6</ele>
        <time>2026-07-02T09:50:35.000Z</time>
      </trkpt>
      <trkpt lat="45.71899" lon="3.18909">
        <ele>353.4</ele>
        <time>2026-07-02T09:50:37.000Z</time>
      </trkpt>
      <trkpt lat="45.71906" lon="3.18899">
        <ele>353.2</ele>
        <time>2026-07-02T09:50:39.000Z</time>
      </trkpt>
      <trkpt lat="45.71915" lon="3.18888">
        <ele>353</ele>
        <time>2026-07-02T09:50:41.000Z</time>
      </trkpt>
      <trkpt lat="45.71924" lon="3.18875">
        <ele>352.4</ele>
        <time>2026-07-02T09:50:43.000Z</time>
      </trkpt>
      <trkpt lat="45.71933" lon="3.18862">
        <ele>352</ele>
        <time>2026-07-02T09:50:45.000Z</time>
      </trkpt>
      <trkpt lat="45.71944" lon="3.18848">
        <ele>351</ele>
        <time>2026-07-02T09:50:47.000Z</time>
      </trkpt>
      <trkpt lat="45.71956" lon="3.18836">
        <ele>350.2</ele>
        <time>2026-07-02T09:50:49.000Z</time>
      </trkpt>
      <trkpt lat="45.71968" lon="3.18826">
        <ele>349.4</ele>
        <time>2026-07-02T09:50:51.000Z</time>
      </trkpt>
      <trkpt lat="45.7198" lon="3.18819">
        <ele>348.8</ele>
        <time>2026-07-02T09:50:53.000Z</time>
      </trkpt>
      <trkpt lat="45.71989" lon="3.18813">
        <ele>348.2</ele>
        <time>2026-07-02T09:50:55.000Z</time>
      </trkpt>
      <trkpt lat="45.71995" lon="3.1881">
        <ele>347.8</ele>
        <time>2026-07-02T09:50:57.000Z</time>
      </trkpt>
      <trkpt lat="45.72" lon="3.18808">
        <ele>347.4</ele>
        <time>2026-07-02T09:50:59.000Z</time>
      </trkpt>
      <trkpt lat="45.72003" lon="3.18807">
        <ele>347</ele>
        <time>2026-07-02T09:51:02.000Z</time>
      </trkpt>
      <trkpt lat="45.72006" lon="3.18804">
        <ele>346.8</ele>
        <time>2026-07-02T09:51:15.000Z</time>
      </trkpt>
      <trkpt lat="45.72012" lon="3.18802">
        <ele>346.8</ele>
        <time>2026-07-02T09:51:17.000Z</time>
      </trkpt>
      <trkpt lat="45.72018" lon="3.18799">
        <ele>346.6</ele>
        <time>2026-07-02T09:51:19.000Z</time>
      </trkpt>
      <trkpt lat="45.72026" lon="3.18794">
        <ele>346.6</ele>
        <time>2026-07-02T09:51:21.000Z</time>
      </trkpt>
      <trkpt lat="45.72035" lon="3.1879">
        <ele>346.6</ele>
        <time>2026-07-02T09:51:23.000Z</time>
      </trkpt>
      <trkpt lat="45.72046" lon="3.18787">
        <ele>346.6</ele>
        <time>2026-07-02T09:51:25.000Z</time>
      </trkpt>
      <trkpt lat="45.72057" lon="3.18783">
        <ele>346.6</ele>
        <time>2026-07-02T09:51:27.000Z</time>
      </trkpt>
      <trkpt lat="45.72067" lon="3.18779">
        <ele>346.4</ele>
        <time>2026-07-02T09:51:29.000Z</time>
      </trkpt>
      <trkpt lat="45.72077" lon="3.18777">
        <ele>346.4</ele>
        <time>2026-07-02T09:51:31.000Z</time>
      </trkpt>
      <trkpt lat="45.72086" lon="3.18782">
        <ele>346.2</ele>
        <time>2026-07-02T09:51:33.000Z</time>
      </trkpt>
      <trkpt lat="45.72095" lon="3.18791">
        <ele>346.2</ele>
        <time>2026-07-02T09:51:35.000Z</time>
      </trkpt>
      <trkpt lat="45.72103" lon="3.18801">
        <ele>346.4</ele>
        <time>2026-07-02T09:51:37.000Z</time>
      </trkpt>
      <trkpt lat="45.72111" lon="3.18812">
        <ele>346.4</ele>
        <time>2026-07-02T09:51:39.000Z</time>
      </trkpt>
      <trkpt lat="45.7212" lon="3.18822">
        <ele>346</ele>
        <time>2026-07-02T09:51:41.000Z</time>
      </trkpt>
      <trkpt lat="45.72129" lon="3.18833">
        <ele>346</ele>
        <time>2026-07-02T09:51:43.000Z</time>
      </trkpt>
      <trkpt lat="45.72138" lon="3.18843">
        <ele>345.8</ele>
        <time>2026-07-02T09:51:45.000Z</time>
      </trkpt>
      <trkpt lat="45.72146" lon="3.18853">
        <ele>345.4</ele>
        <time>2026-07-02T09:51:47.000Z</time>
      </trkpt>
      <trkpt lat="45.72153" lon="3.18863">
        <ele>345.6</ele>
        <time>2026-07-02T09:51:49.000Z</time>
      </trkpt>
      <trkpt lat="45.72161" lon="3.18873">
        <ele>345.6</ele>
        <time>2026-07-02T09:51:51.000Z</time>
      </trkpt>
      <trkpt lat="45.72168" lon="3.18885">
        <ele>345.4</ele>
        <time>2026-07-02T09:51:53.000Z</time>
      </trkpt>
      <trkpt lat="45.72173" lon="3.18897">
        <ele>345.4</ele>
        <time>2026-07-02T09:51:55.000Z</time>
      </trkpt>
      <trkpt lat="45.72178" lon="3.18911">
        <ele>345.4</ele>
        <time>2026-07-02T09:51:57.000Z</time>
      </trkpt>
      <trkpt lat="45.72182" lon="3.18924">
        <ele>345.4</ele>
        <time>2026-07-02T09:51:59.000Z</time>
      </trkpt>
      <trkpt lat="45.72186" lon="3.18939">
        <ele>345.4</ele>
        <time>2026-07-02T09:52:01.000Z</time>
      </trkpt>
      <trkpt lat="45.7219" lon="3.18955">
        <ele>345.2</ele>
        <time>2026-07-02T09:52:03.000Z</time>
      </trkpt>
      <trkpt lat="45.72194" lon="3.18969">
        <ele>345</ele>
        <time>2026-07-02T09:52:05.000Z</time>
      </trkpt>
      <trkpt lat="45.72199" lon="3.18982">
        <ele>345</ele>
        <time>2026-07-02T09:52:07.000Z</time>
      </trkpt>
      <trkpt lat="45.72205" lon="3.18994">
        <ele>345</ele>
        <time>2026-07-02T09:52:09.000Z</time>
      </trkpt>
      <trkpt lat="45.72212" lon="3.19007">
        <ele>344.8</ele>
        <time>2026-07-02T09:52:11.000Z</time>
      </trkpt>
      <trkpt lat="45.7222" lon="3.19019">
        <ele>344.6</ele>
        <time>2026-07-02T09:52:13.000Z</time>
      </trkpt>
      <trkpt lat="45.72227" lon="3.19031">
        <ele>344.6</ele>
        <time>2026-07-02T09:52:15.000Z</time>
      </trkpt>
      <trkpt lat="45.72234" lon="3.19042">
        <ele>344.4</ele>
        <time>2026-07-02T09:52:17.000Z</time>
      </trkpt>
      <trkpt lat="45.72241" lon="3.19054">
        <ele>344.2</ele>
        <time>2026-07-02T09:52:19.000Z</time>
      </trkpt>
      <trkpt lat="45.72248" lon="3.19064">
        <ele>344</ele>
        <time>2026-07-02T09:52:21.000Z</time>
      </trkpt>
      <trkpt lat="45.72254" lon="3.19074">
        <ele>344</ele>
        <time>2026-07-02T09:52:23.000Z</time>
      </trkpt>
      <trkpt lat="45.7226" lon="3.19084">
        <ele>343.8</ele>
        <time>2026-07-02T09:52:25.000Z</time>
      </trkpt>
      <trkpt lat="45.72265" lon="3.19093">
        <ele>343.8</ele>
        <time>2026-07-02T09:52:27.000Z</time>
      </trkpt>
      <trkpt lat="45.7227" lon="3.19102">
        <ele>343.8</ele>
        <time>2026-07-02T09:52:29.000Z</time>
      </trkpt>
      <trkpt lat="45.72274" lon="3.19106">
        <ele>344</ele>
        <time>2026-07-02T09:52:31.000Z</time>
      </trkpt>
      <trkpt lat="45.72278" lon="3.19109">
        <ele>344.2</ele>
        <time>2026-07-02T09:52:33.000Z</time>
      </trkpt>
      <trkpt lat="45.7228" lon="3.1911">
        <ele>344.2</ele>
        <time>2026-07-02T09:52:35.000Z</time>
      </trkpt>
      <trkpt lat="45.72284" lon="3.19115">
        <ele>344.2</ele>
        <time>2026-07-02T09:53:46.000Z</time>
      </trkpt>
      <trkpt lat="45.72285" lon="3.19121">
        <ele>344.2</ele>
        <time>2026-07-02T09:53:48.000Z</time>
      </trkpt>
      <trkpt lat="45.72288" lon="3.19127">
        <ele>344.2</ele>
        <time>2026-07-02T09:53:50.000Z</time>
      </trkpt>
      <trkpt lat="45.72293" lon="3.19134">
        <ele>344.2</ele>
        <time>2026-07-02T09:53:52.000Z</time>
      </trkpt>
      <trkpt lat="45.723" lon="3.19138">
        <ele>344</ele>
        <time>2026-07-02T09:53:54.000Z</time>
      </trkpt>
      <trkpt lat="45.72307" lon="3.19143">
        <ele>344</ele>
        <time>2026-07-02T09:53:56.000Z</time>
      </trkpt>
      <trkpt lat="45.72316" lon="3.19148">
        <ele>344.2</ele>
        <time>2026-07-02T09:53:58.000Z</time>
      </trkpt>
      <trkpt lat="45.72325" lon="3.19153">
        <ele>344.2</ele>
        <time>2026-07-02T09:54:00.000Z</time>
      </trkpt>
      <trkpt lat="45.72334" lon="3.19157">
        <ele>344.4</ele>
        <time>2026-07-02T09:54:02.000Z</time>
      </trkpt>
      <trkpt lat="45.72343" lon="3.19162">
        <ele>344.4</ele>
        <time>2026-07-02T09:54:04.000Z</time>
      </trkpt>
      <trkpt lat="45.72352" lon="3.19167">
        <ele>344.6</ele>
        <time>2026-07-02T09:54:06.000Z</time>
      </trkpt>
      <trkpt lat="45.7236" lon="3.19171">
        <ele>344.6</ele>
        <time>2026-07-02T09:54:08.000Z</time>
      </trkpt>
      <trkpt lat="45.72369" lon="3.19175">
        <ele>344.8</ele>
        <time>2026-07-02T09:54:10.000Z</time>
      </trkpt>
      <trkpt lat="45.72377" lon="3.19178">
        <ele>345</ele>
        <time>2026-07-02T09:54:12.000Z</time>
      </trkpt>
      <trkpt lat="45.72386" lon="3.19181">
        <ele>345.2</ele>
        <time>2026-07-02T09:54:14.000Z</time>
      </trkpt>
      <trkpt lat="45.72395" lon="3.19185">
        <ele>345.4</ele>
        <time>2026-07-02T09:54:16.000Z</time>
      </trkpt>
      <trkpt lat="45.72403" lon="3.19188">
        <ele>345.6</ele>
        <time>2026-07-02T09:54:18.000Z</time>
      </trkpt>
      <trkpt lat="45.72409" lon="3.19191">
        <ele>346</ele>
        <time>2026-07-02T09:54:20.000Z</time>
      </trkpt>
      <trkpt lat="45.72416" lon="3.19193">
        <ele>346.2</ele>
        <time>2026-07-02T09:54:22.000Z</time>
      </trkpt>
      <trkpt lat="45.72421" lon="3.19199">
        <ele>346.4</ele>
        <time>2026-07-02T09:54:24.000Z</time>
      </trkpt>
      <trkpt lat="45.72428" lon="3.19202">
        <ele>346.8</ele>
        <time>2026-07-02T09:54:26.000Z</time>
      </trkpt>
      <trkpt lat="45.72434" lon="3.19203">
        <ele>347</ele>
        <time>2026-07-02T09:54:28.000Z</time>
      </trkpt>
      <trkpt lat="45.72439" lon="3.19208">
        <ele>347</ele>
        <time>2026-07-02T09:54:30.000Z</time>
      </trkpt>
      <trkpt lat="45.72444" lon="3.19213">
        <ele>347.2</ele>
        <time>2026-07-02T09:54:32.000Z</time>
      </trkpt>
      <trkpt lat="45.72448" lon="3.19221">
        <ele>347.4</ele>
        <time>2026-07-02T09:54:34.000Z</time>
      </trkpt>
      <trkpt lat="45.72452" lon="3.19229">
        <ele>347.8</ele>
        <time>2026-07-02T09:54:36.000Z</time>
      </trkpt>
      <trkpt lat="45.72455" lon="3.19238">
        <ele>348.2</ele>
        <time>2026-07-02T09:54:38.000Z</time>
      </trkpt>
      <trkpt lat="45.72458" lon="3.19248">
        <ele>348.4</ele>
        <time>2026-07-02T09:54:40.000Z</time>
      </trkpt>
      <trkpt lat="45.72461" lon="3.19258">
        <ele>348.8</ele>
        <time>2026-07-02T09:54:42.000Z</time>
      </trkpt>
      <trkpt lat="45.72465" lon="3.19267">
        <ele>349</ele>
        <time>2026-07-02T09:54:44.000Z</time>
      </trkpt>
      <trkpt lat="45.72468" lon="3.19277">
        <ele>349.2</ele>
        <time>2026-07-02T09:54:46.000Z</time>
      </trkpt>
      <trkpt lat="45.72471" lon="3.19287">
        <ele>349.6</ele>
        <time>2026-07-02T09:54:48.000Z</time>
      </trkpt>
      <trkpt lat="45.72474" lon="3.19296">
        <ele>350</ele>
        <time>2026-07-02T09:54:50.000Z</time>
      </trkpt>
      <trkpt lat="45.72478" lon="3.19306">
        <ele>350.2</ele>
        <time>2026-07-02T09:54:52.000Z</time>
      </trkpt>
      <trkpt lat="45.72481" lon="3.19315">
        <ele>350.6</ele>
        <time>2026-07-02T09:54:54.000Z</time>
      </trkpt>
      <trkpt lat="45.72484" lon="3.19325">
        <ele>350.8</ele>
        <time>2026-07-02T09:54:56.000Z</time>
      </trkpt>
      <trkpt lat="45.72488" lon="3.19335">
        <ele>351.2</ele>
        <time>2026-07-02T09:54:58.000Z</time>
      </trkpt>
      <trkpt lat="45.72491" lon="3.19345">
        <ele>351.4</ele>
        <time>2026-07-02T09:55:00.000Z</time>
      </trkpt>
      <trkpt lat="45.72494" lon="3.19355">
        <ele>351.8</ele>
        <time>2026-07-02T09:55:02.000Z</time>
      </trkpt>
      <trkpt lat="45.72497" lon="3.19365">
        <ele>352</ele>
        <time>2026-07-02T09:55:04.000Z</time>
      </trkpt>
      <trkpt lat="45.725" lon="3.19375">
        <ele>352.2</ele>
        <time>2026-07-02T09:55:06.000Z</time>
      </trkpt>
      <trkpt lat="45.72502" lon="3.19386">
        <ele>352.6</ele>
        <time>2026-07-02T09:55:08.000Z</time>
      </trkpt>
      <trkpt lat="45.72505" lon="3.19396">
        <ele>352.8</ele>
        <time>2026-07-02T09:55:10.000Z</time>
      </trkpt>
      <trkpt lat="45.72507" lon="3.19407">
        <ele>353</ele>
        <time>2026-07-02T09:55:12.000Z</time>
      </trkpt>
      <trkpt lat="45.7251" lon="3.19418">
        <ele>353.2</ele>
        <time>2026-07-02T09:55:14.000Z</time>
      </trkpt>
      <trkpt lat="45.72512" lon="3.19429">
        <ele>353.4</ele>
        <time>2026-07-02T09:55:16.000Z</time>
      </trkpt>
      <trkpt lat="45.72515" lon="3.19442">
        <ele>353.6</ele>
        <time>2026-07-02T09:55:18.000Z</time>
      </trkpt>
      <trkpt lat="45.72517" lon="3.19454">
        <ele>353.8</ele>
        <time>2026-07-02T09:55:20.000Z</time>
      </trkpt>
      <trkpt lat="45.72519" lon="3.19465">
        <ele>354</ele>
        <time>2026-07-02T09:55:22.000Z</time>
      </trkpt>
      <trkpt lat="45.72521" lon="3.19477">
        <ele>354.2</ele>
        <time>2026-07-02T09:55:24.000Z</time>
      </trkpt>
      <trkpt lat="45.72523" lon="3.19488">
        <ele>354.4</ele>
        <time>2026-07-02T09:55:26.000Z</time>
      </trkpt>
      <trkpt lat="45.72525" lon="3.195">
        <ele>354.6</ele>
        <time>2026-07-02T09:55:28.000Z</time>
      </trkpt>
      <trkpt lat="45.72526" lon="3.19512">
        <ele>354.8</ele>
        <time>2026-07-02T09:55:30.000Z</time>
      </trkpt>
      <trkpt lat="45.72527" lon="3.19524">
        <ele>354.8</ele>
        <time>2026-07-02T09:55:32.000Z</time>
      </trkpt>
      <trkpt lat="45.72529" lon="3.19536">
        <ele>354.8</ele>
        <time>2026-07-02T09:55:34.000Z</time>
      </trkpt>
      <trkpt lat="45.7253" lon="3.1955">
        <ele>355</ele>
        <time>2026-07-02T09:55:36.000Z</time>
      </trkpt>
      <trkpt lat="45.72531" lon="3.19564">
        <ele>355</ele>
        <time>2026-07-02T09:55:38.000Z</time>
      </trkpt>
      <trkpt lat="45.72532" lon="3.19577">
        <ele>355</ele>
        <time>2026-07-02T09:55:40.000Z</time>
      </trkpt>
      <trkpt lat="45.72532" lon="3.19589">
        <ele>355.2</ele>
        <time>2026-07-02T09:55:42.000Z</time>
      </trkpt>
      <trkpt lat="45.72533" lon="3.19602">
        <ele>355.2</ele>
        <time>2026-07-02T09:55:44.000Z</time>
      </trkpt>
      <trkpt lat="45.72533" lon="3.19615">
        <ele>355.4</ele>
        <time>2026-07-02T09:55:46.000Z</time>
      </trkpt>
      <trkpt lat="45.72532" lon="3.19627">
        <ele>355.4</ele>
        <time>2026-07-02T09:55:48.000Z</time>
      </trkpt>
      <trkpt lat="45.72531" lon="3.19639">
        <ele>355.4</ele>
        <time>2026-07-02T09:55:50.000Z</time>
      </trkpt>
      <trkpt lat="45.72528" lon="3.19651">
        <ele>355.2</ele>
        <time>2026-07-02T09:55:52.000Z</time>
      </trkpt>
      <trkpt lat="45.72528" lon="3.19663">
        <ele>355.4</ele>
        <time>2026-07-02T09:55:54.000Z</time>
      </trkpt>
      <trkpt lat="45.7253" lon="3.19675">
        <ele>355.4</ele>
        <time>2026-07-02T09:55:56.000Z</time>
      </trkpt>
      <trkpt lat="45.7253" lon="3.19687">
        <ele>355.6</ele>
        <time>2026-07-02T09:55:58.000Z</time>
      </trkpt>
      <trkpt lat="45.7253" lon="3.19699">
        <ele>355.8</ele>
        <time>2026-07-02T09:56:00.000Z</time>
      </trkpt>
      <trkpt lat="45.72529" lon="3.19712">
        <ele>356</ele>
        <time>2026-07-02T09:56:02.000Z</time>
      </trkpt>
      <trkpt lat="45.72531" lon="3.19725">
        <ele>356</ele>
        <time>2026-07-02T09:56:04.000Z</time>
      </trkpt>
      <trkpt lat="45.72531" lon="3.19738">
        <ele>356.2</ele>
        <time>2026-07-02T09:56:06.000Z</time>
      </trkpt>
      <trkpt lat="45.72531" lon="3.19751">
        <ele>356.4</ele>
        <time>2026-07-02T09:56:08.000Z</time>
      </trkpt>
      <trkpt lat="45.72531" lon="3.19763">
        <ele>356.4</ele>
        <time>2026-07-02T09:56:10.000Z</time>
      </trkpt>
      <trkpt lat="45.72532" lon="3.19776">
        <ele>356.4</ele>
        <time>2026-07-02T09:56:12.000Z</time>
      </trkpt>
      <trkpt lat="45.72532" lon="3.19789">
        <ele>356.6</ele>
        <time>2026-07-02T09:56:14.000Z</time>
      </trkpt>
      <trkpt lat="45.72533" lon="3.19802">
        <ele>356.6</ele>
        <time>2026-07-02T09:56:16.000Z</time>
      </trkpt>
      <trkpt lat="45.72534" lon="3.19814">
        <ele>356.8</ele>
        <time>2026-07-02T09:56:18.000Z</time>
      </trkpt>
      <trkpt lat="45.72535" lon="3.19827">
        <ele>357</ele>
        <time>2026-07-02T09:56:20.000Z</time>
      </trkpt>
      <trkpt lat="45.72536" lon="3.19839">
        <ele>357.2</ele>
        <time>2026-07-02T09:56:22.000Z</time>
      </trkpt>
      <trkpt lat="45.72537" lon="3.19851">
        <ele>357.4</ele>
        <time>2026-07-02T09:56:24.000Z</time>
      </trkpt>
      <trkpt lat="45.72539" lon="3.19863">
        <ele>357.4</ele>
        <time>2026-07-02T09:56:26.000Z</time>
      </trkpt>
      <trkpt lat="45.72542" lon="3.19874">
        <ele>357.6</ele>
        <time>2026-07-02T09:56:28.000Z</time>
      </trkpt>
      <trkpt lat="45.72544" lon="3.19885">
        <ele>357.8</ele>
        <time>2026-07-02T09:56:30.000Z</time>
      </trkpt>
      <trkpt lat="45.72547" lon="3.19897">
        <ele>357.8</ele>
        <time>2026-07-02T09:56:32.000Z</time>
      </trkpt>
      <trkpt lat="45.7255" lon="3.19908">
        <ele>358</ele>
        <time>2026-07-02T09:56:34.000Z</time>
      </trkpt>
      <trkpt lat="45.72554" lon="3.19919">
        <ele>358.2</ele>
        <time>2026-07-02T09:56:36.000Z</time>
      </trkpt>
      <trkpt lat="45.72557" lon="3.19929">
        <ele>358.4</ele>
        <time>2026-07-02T09:56:38.000Z</time>
      </trkpt>
      <trkpt lat="45.7256" lon="3.19941">
        <ele>358.4</ele>
        <time>2026-07-02T09:56:40.000Z</time>
      </trkpt>
      <trkpt lat="45.72564" lon="3.19952">
        <ele>358.4</ele>
        <time>2026-07-02T09:56:42.000Z</time>
      </trkpt>
      <trkpt lat="45.72569" lon="3.19964">
        <ele>358.4</ele>
        <time>2026-07-02T09:56:44.000Z</time>
      </trkpt>
      <trkpt lat="45.72573" lon="3.19976">
        <ele>358.2</ele>
        <time>2026-07-02T09:56:46.000Z</time>
      </trkpt>
      <trkpt lat="45.72577" lon="3.19988">
        <ele>358.2</ele>
        <time>2026-07-02T09:56:48.000Z</time>
      </trkpt>
      <trkpt lat="45.7258" lon="3.2">
        <ele>358.2</ele>
        <time>2026-07-02T09:56:50.000Z</time>
      </trkpt>
      <trkpt lat="45.72581" lon="3.20012">
        <ele>358.2</ele>
        <time>2026-07-02T09:56:52.000Z</time>
      </trkpt>
      <trkpt lat="45.72579" lon="3.20026">
        <ele>358.2</ele>
        <time>2026-07-02T09:56:54.000Z</time>
      </trkpt>
      <trkpt lat="45.72579" lon="3.20039">
        <ele>358</ele>
        <time>2026-07-02T09:56:56.000Z</time>
      </trkpt>
      <trkpt lat="45.72584" lon="3.2005">
        <ele>357.6</ele>
        <time>2026-07-02T09:56:58.000Z</time>
      </trkpt>
      <trkpt lat="45.72592" lon="3.20057">
        <ele>357</ele>
        <time>2026-07-02T09:57:00.000Z</time>
      </trkpt>
      <trkpt lat="45.72601" lon="3.20064">
        <ele>356.6</ele>
        <time>2026-07-02T09:57:02.000Z</time>
      </trkpt>
      <trkpt lat="45.7261" lon="3.2007">
        <ele>356.4</ele>
        <time>2026-07-02T09:57:04.000Z</time>
      </trkpt>
      <trkpt lat="45.72619" lon="3.20078">
        <ele>356.2</ele>
        <time>2026-07-02T09:57:06.000Z</time>
      </trkpt>
      <trkpt lat="45.72628" lon="3.20084">
        <ele>356.4</ele>
        <time>2026-07-02T09:57:08.000Z</time>
      </trkpt>
      <trkpt lat="45.72637" lon="3.20092">
        <ele>356.4</ele>
        <time>2026-07-02T09:57:10.000Z</time>
      </trkpt>
      <trkpt lat="45.72645" lon="3.20102">
        <ele>356.4</ele>
        <time>2026-07-02T09:57:12.000Z</time>
      </trkpt>
      <trkpt lat="45.72654" lon="3.20113">
        <ele>356.4</ele>
        <time>2026-07-02T09:57:14.000Z</time>
      </trkpt>
      <trkpt lat="45.72663" lon="3.20124">
        <ele>356.4</ele>
        <time>2026-07-02T09:57:16.000Z</time>
      </trkpt>
      <trkpt lat="45.72672" lon="3.20134">
        <ele>356.4</ele>
        <time>2026-07-02T09:57:18.000Z</time>
      </trkpt>
      <trkpt lat="45.72681" lon="3.20146">
        <ele>356.2</ele>
        <time>2026-07-02T09:57:20.000Z</time>
      </trkpt>
      <trkpt lat="45.72689" lon="3.20157">
        <ele>356.2</ele>
        <time>2026-07-02T09:57:22.000Z</time>
      </trkpt>
      <trkpt lat="45.72698" lon="3.20168">
        <ele>356</ele>
        <time>2026-07-02T09:57:24.000Z</time>
      </trkpt>
      <trkpt lat="45.72707" lon="3.2018">
        <ele>355.8</ele>
        <time>2026-07-02T09:57:26.000Z</time>
      </trkpt>
      <trkpt lat="45.72716" lon="3.20192">
        <ele>355.6</ele>
        <time>2026-07-02T09:57:28.000Z</time>
      </trkpt>
      <trkpt lat="45.72725" lon="3.20203">
        <ele>355.2</ele>
        <time>2026-07-02T09:57:30.000Z</time>
      </trkpt>
      <trkpt lat="45.72734" lon="3.20215">
        <ele>355</ele>
        <time>2026-07-02T09:57:32.000Z</time>
      </trkpt>
      <trkpt lat="45.72742" lon="3.20227">
        <ele>354.6</ele>
        <time>2026-07-02T09:57:34.000Z</time>
      </trkpt>
      <trkpt lat="45.7275" lon="3.20238">
        <ele>354.4</ele>
        <time>2026-07-02T09:57:36.000Z</time>
      </trkpt>
      <trkpt lat="45.72757" lon="3.20248">
        <ele>354.4</ele>
        <time>2026-07-02T09:57:38.000Z</time>
      </trkpt>
      <trkpt lat="45.72764" lon="3.20258">
        <ele>354.2</ele>
        <time>2026-07-02T09:57:40.000Z</time>
      </trkpt>
      <trkpt lat="45.72771" lon="3.20267">
        <ele>354.2</ele>
        <time>2026-07-02T09:57:42.000Z</time>
      </trkpt>
      <trkpt lat="45.72777" lon="3.20276">
        <ele>354</ele>
        <time>2026-07-02T09:57:44.000Z</time>
      </trkpt>
      <trkpt lat="45.72781" lon="3.2029">
        <ele>353.8</ele>
        <time>2026-07-02T09:57:46.000Z</time>
      </trkpt>
      <trkpt lat="45.72784" lon="3.20305">
        <ele>353.6</ele>
        <time>2026-07-02T09:57:48.000Z</time>
      </trkpt>
      <trkpt lat="45.72791" lon="3.20319">
        <ele>353.4</ele>
        <time>2026-07-02T09:57:50.000Z</time>
      </trkpt>
      <trkpt lat="45.728" lon="3.20332">
        <ele>353.2</ele>
        <time>2026-07-02T09:57:52.000Z</time>
      </trkpt>
      <trkpt lat="45.7281" lon="3.20343">
        <ele>352.8</ele>
        <time>2026-07-02T09:57:54.000Z</time>
      </trkpt>
      <trkpt lat="45.72821" lon="3.20349">
        <ele>352.6</ele>
        <time>2026-07-02T09:57:56.000Z</time>
      </trkpt>
      <trkpt lat="45.72831" lon="3.20357">
        <ele>352.4</ele>
        <time>2026-07-02T09:57:58.000Z</time>
      </trkpt>
      <trkpt lat="45.7284" lon="3.20368">
        <ele>352.2</ele>
        <time>2026-07-02T09:58:00.000Z</time>
      </trkpt>
      <trkpt lat="45.72848" lon="3.20379">
        <ele>352.2</ele>
        <time>2026-07-02T09:58:02.000Z</time>
      </trkpt>
      <trkpt lat="45.72856" lon="3.20391">
        <ele>352</ele>
        <time>2026-07-02T09:58:04.000Z</time>
      </trkpt>
      <trkpt lat="45.72865" lon="3.20401">
        <ele>352</ele>
        <time>2026-07-02T09:58:06.000Z</time>
      </trkpt>
      <trkpt lat="45.72874" lon="3.20412">
        <ele>352</ele>
        <time>2026-07-02T09:58:08.000Z</time>
      </trkpt>
      <trkpt lat="45.72882" lon="3.20423">
        <ele>351.8</ele>
        <time>2026-07-02T09:58:10.000Z</time>
      </trkpt>
      <trkpt lat="45.7289" lon="3.20434">
        <ele>351.6</ele>
        <time>2026-07-02T09:58:13.000Z</time>
      </trkpt>
      <trkpt lat="45.72898" lon="3.20445">
        <ele>351.6</ele>
        <time>2026-07-02T09:58:15.000Z</time>
      </trkpt>
      <trkpt lat="45.72905" lon="3.20457">
        <ele>351.6</ele>
        <time>2026-07-02T09:58:17.000Z</time>
      </trkpt>
      <trkpt lat="45.72913" lon="3.20469">
        <ele>351.4</ele>
        <time>2026-07-02T09:58:19.000Z</time>
      </trkpt>
      <trkpt lat="45.72921" lon="3.20481">
        <ele>351.4</ele>
        <time>2026-07-02T09:58:21.000Z</time>
      </trkpt>
      <trkpt lat="45.72929" lon="3.20492">
        <ele>351.4</ele>
        <time>2026-07-02T09:58:23.000Z</time>
      </trkpt>
      <trkpt lat="45.72936" lon="3.20503">
        <ele>351.4</ele>
        <time>2026-07-02T09:58:25.000Z</time>
      </trkpt>
      <trkpt lat="45.72944" lon="3.20514">
        <ele>351.4</ele>
        <time>2026-07-02T09:58:27.000Z</time>
      </trkpt>
      <trkpt lat="45.72952" lon="3.20523">
        <ele>351.4</ele>
        <time>2026-07-02T09:58:29.000Z</time>
      </trkpt>
      <trkpt lat="45.72959" lon="3.20533">
        <ele>351.4</ele>
        <time>2026-07-02T09:58:31.000Z</time>
      </trkpt>
      <trkpt lat="45.72963" lon="3.20543">
        <ele>351.4</ele>
        <time>2026-07-02T09:58:33.000Z</time>
      </trkpt>
      <trkpt lat="45.72962" lon="3.20554">
        <ele>351.2</ele>
        <time>2026-07-02T09:58:35.000Z</time>
      </trkpt>
      <trkpt lat="45.72959" lon="3.20562">
        <ele>351</ele>
        <time>2026-07-02T09:58:37.000Z</time>
      </trkpt>
      <trkpt lat="45.72953" lon="3.20566">
        <ele>350.8</ele>
        <time>2026-07-02T09:58:39.000Z</time>
      </trkpt>
      <trkpt lat="45.72944" lon="3.20566">
        <ele>350.6</ele>
        <time>2026-07-02T09:58:41.000Z</time>
      </trkpt>
      <trkpt lat="45.72934" lon="3.20566">
        <ele>350.6</ele>
        <time>2026-07-02T09:58:43.000Z</time>
      </trkpt>
      <trkpt lat="45.72923" lon="3.20566">
        <ele>350.4</ele>
        <time>2026-07-02T09:58:45.000Z</time>
      </trkpt>
      <trkpt lat="45.72911" lon="3.20566">
        <ele>350.2</ele>
        <time>2026-07-02T09:58:47.000Z</time>
      </trkpt>
      <trkpt lat="45.72899" lon="3.20565">
        <ele>349.8</ele>
        <time>2026-07-02T09:58:49.000Z</time>
      </trkpt>
      <trkpt lat="45.72886" lon="3.20565">
        <ele>349.6</ele>
        <time>2026-07-02T09:58:51.000Z</time>
      </trkpt>
      <trkpt lat="45.72874" lon="3.20564">
        <ele>349.4</ele>
        <time>2026-07-02T09:58:53.000Z</time>
      </trkpt>
      <trkpt lat="45.7286" lon="3.20564">
        <ele>349</ele>
        <time>2026-07-02T09:58:55.000Z</time>
      </trkpt>
      <trkpt lat="45.72846" lon="3.20564">
        <ele>348.6</ele>
        <time>2026-07-02T09:58:57.000Z</time>
      </trkpt>
      <trkpt lat="45.72831" lon="3.20563">
        <ele>348.4</ele>
        <time>2026-07-02T09:58:59.000Z</time>
      </trkpt>
      <trkpt lat="45.72817" lon="3.20563">
        <ele>348</ele>
        <time>2026-07-02T09:59:01.000Z</time>
      </trkpt>
      <trkpt lat="45.72802" lon="3.20562">
        <ele>347.8</ele>
        <time>2026-07-02T09:59:03.000Z</time>
      </trkpt>
      <trkpt lat="45.72787" lon="3.20561">
        <ele>347.6</ele>
        <time>2026-07-02T09:59:05.000Z</time>
      </trkpt>
      <trkpt lat="45.72774" lon="3.2056">
        <ele>347.4</ele>
        <time>2026-07-02T09:59:07.000Z</time>
      </trkpt>
      <trkpt lat="45.72761" lon="3.20559">
        <ele>347.2</ele>
        <time>2026-07-02T09:59:09.000Z</time>
      </trkpt>
      <trkpt lat="45.72748" lon="3.20559">
        <ele>347</ele>
        <time>2026-07-02T09:59:11.000Z</time>
      </trkpt>
      <trkpt lat="45.72736" lon="3.20559">
        <ele>346.8</ele>
        <time>2026-07-02T09:59:13.000Z</time>
      </trkpt>
      <trkpt lat="45.72723" lon="3.20558">
        <ele>346.6</ele>
        <time>2026-07-02T09:59:15.000Z</time>
      </trkpt>
      <trkpt lat="45.72712" lon="3.20558">
        <ele>346.6</ele>
        <time>2026-07-02T09:59:17.000Z</time>
      </trkpt>
      <trkpt lat="45.72701" lon="3.20558">
        <ele>346.6</ele>
        <time>2026-07-02T09:59:19.000Z</time>
      </trkpt>
      <trkpt lat="45.72689" lon="3.20557">
        <ele>346.4</ele>
        <time>2026-07-02T09:59:21.000Z</time>
      </trkpt>
      <trkpt lat="45.72677" lon="3.20557">
        <ele>346.4</ele>
        <time>2026-07-02T09:59:23.000Z</time>
      </trkpt>
      <trkpt lat="45.72666" lon="3.20556">
        <ele>346.4</ele>
        <time>2026-07-02T09:59:25.000Z</time>
      </trkpt>
      <trkpt lat="45.72654" lon="3.20556">
        <ele>346.2</ele>
        <time>2026-07-02T09:59:27.000Z</time>
      </trkpt>
      <trkpt lat="45.72642" lon="3.20556">
        <ele>346.2</ele>
        <time>2026-07-02T09:59:29.000Z</time>
      </trkpt>
      <trkpt lat="45.72631" lon="3.20556">
        <ele>346</ele>
        <time>2026-07-02T09:59:31.000Z</time>
      </trkpt>
      <trkpt lat="45.72619" lon="3.20556">
        <ele>346</ele>
        <time>2026-07-02T09:59:33.000Z</time>
      </trkpt>
      <trkpt lat="45.72606" lon="3.20556">
        <ele>346</ele>
        <time>2026-07-02T09:59:35.000Z</time>
      </trkpt>
      <trkpt lat="45.72595" lon="3.20556">
        <ele>346</ele>
        <time>2026-07-02T09:59:37.000Z</time>
      </trkpt>
      <trkpt lat="45.72584" lon="3.20557">
        <ele>346</ele>
        <time>2026-07-02T09:59:39.000Z</time>
      </trkpt>
      <trkpt lat="45.72573" lon="3.20557">
        <ele>346</ele>
        <time>2026-07-02T09:59:41.000Z</time>
      </trkpt>
      <trkpt lat="45.72561" lon="3.20558">
        <ele>346</ele>
        <time>2026-07-02T09:59:43.000Z</time>
      </trkpt>
      <trkpt lat="45.72549" lon="3.20558">
        <ele>346</ele>
        <time>2026-07-02T09:59:45.000Z</time>
      </trkpt>
      <trkpt lat="45.72537" lon="3.20561">
        <ele>345.8</ele>
        <time>2026-07-02T09:59:47.000Z</time>
      </trkpt>
      <trkpt lat="45.72526" lon="3.20569">
        <ele>345.6</ele>
        <time>2026-07-02T09:59:49.000Z</time>
      </trkpt>
      <trkpt lat="45.7252" lon="3.20585">
        <ele>345.4</ele>
        <time>2026-07-02T09:59:51.000Z</time>
      </trkpt>
      <trkpt lat="45.72521" lon="3.20605">
        <ele>345.2</ele>
        <time>2026-07-02T09:59:53.000Z</time>
      </trkpt>
      <trkpt lat="45.72527" lon="3.20621">
        <ele>345</ele>
        <time>2026-07-02T09:59:55.000Z</time>
      </trkpt>
      <trkpt lat="45.72536" lon="3.20634">
        <ele>344.8</ele>
        <time>2026-07-02T09:59:57.000Z</time>
      </trkpt>
      <trkpt lat="45.72545" lon="3.20647">
        <ele>344.4</ele>
        <time>2026-07-02T09:59:59.000Z</time>
      </trkpt>
      <trkpt lat="45.72554" lon="3.20658">
        <ele>344.4</ele>
        <time>2026-07-02T10:00:01.000Z</time>
      </trkpt>
      <trkpt lat="45.72564" lon="3.2067">
        <ele>344.2</ele>
        <time>2026-07-02T10:00:03.000Z</time>
      </trkpt>
      <trkpt lat="45.72574" lon="3.2068">
        <ele>344.2</ele>
        <time>2026-07-02T10:00:05.000Z</time>
      </trkpt>
      <trkpt lat="45.72584" lon="3.20689">
        <ele>344.2</ele>
        <time>2026-07-02T10:00:07.000Z</time>
      </trkpt>
      <trkpt lat="45.72593" lon="3.20699">
        <ele>344.2</ele>
        <time>2026-07-02T10:00:09.000Z</time>
      </trkpt>
      <trkpt lat="45.72601" lon="3.20708">
        <ele>344.2</ele>
        <time>2026-07-02T10:00:11.000Z</time>
      </trkpt>
      <trkpt lat="45.7261" lon="3.20717">
        <ele>344.2</ele>
        <time>2026-07-02T10:00:13.000Z</time>
      </trkpt>
      <trkpt lat="45.72618" lon="3.20726">
        <ele>344</ele>
        <time>2026-07-02T10:00:15.000Z</time>
      </trkpt>
      <trkpt lat="45.72627" lon="3.20734">
        <ele>343.8</ele>
        <time>2026-07-02T10:00:17.000Z</time>
      </trkpt>
      <trkpt lat="45.72635" lon="3.20743">
        <ele>343.6</ele>
        <time>2026-07-02T10:00:19.000Z</time>
      </trkpt>
      <trkpt lat="45.72644" lon="3.20752">
        <ele>343.6</ele>
        <time>2026-07-02T10:00:21.000Z</time>
      </trkpt>
      <trkpt lat="45.72652" lon="3.20761">
        <ele>343.4</ele>
        <time>2026-07-02T10:00:23.000Z</time>
      </trkpt>
      <trkpt lat="45.72661" lon="3.2077">
        <ele>343.4</ele>
        <time>2026-07-02T10:00:25.000Z</time>
      </trkpt>
      <trkpt lat="45.7267" lon="3.20779">
        <ele>343.4</ele>
        <time>2026-07-02T10:00:27.000Z</time>
      </trkpt>
      <trkpt lat="45.72678" lon="3.20788">
        <ele>343.4</ele>
        <time>2026-07-02T10:00:29.000Z</time>
      </trkpt>
      <trkpt lat="45.72687" lon="3.20797">
        <ele>343.4</ele>
        <time>2026-07-02T10:00:31.000Z</time>
      </trkpt>
      <trkpt lat="45.72696" lon="3.20807">
        <ele>343.4</ele>
        <time>2026-07-02T10:00:33.000Z</time>
      </trkpt>
      <trkpt lat="45.72705" lon="3.20817">
        <ele>343.2</ele>
        <time>2026-07-02T10:00:35.000Z</time>
      </trkpt>
      <trkpt lat="45.72713" lon="3.20828">
        <ele>343.2</ele>
        <time>2026-07-02T10:00:37.000Z</time>
      </trkpt>
      <trkpt lat="45.7272" lon="3.20839">
        <ele>343</ele>
        <time>2026-07-02T10:00:39.000Z</time>
      </trkpt>
      <trkpt lat="45.72728" lon="3.2085">
        <ele>343</ele>
        <time>2026-07-02T10:00:41.000Z</time>
      </trkpt>
      <trkpt lat="45.72734" lon="3.20861">
        <ele>342.8</ele>
        <time>2026-07-02T10:00:43.000Z</time>
      </trkpt>
      <trkpt lat="45.72741" lon="3.20873">
        <ele>342.8</ele>
        <time>2026-07-02T10:00:45.000Z</time>
      </trkpt>
      <trkpt lat="45.72748" lon="3.20884">
        <ele>342.8</ele>
        <time>2026-07-02T10:00:47.000Z</time>
      </trkpt>
      <trkpt lat="45.72755" lon="3.20896">
        <ele>342.6</ele>
        <time>2026-07-02T10:00:49.000Z</time>
      </trkpt>
      <trkpt lat="45.72762" lon="3.20908">
        <ele>342.4</ele>
        <time>2026-07-02T10:00:51.000Z</time>
      </trkpt>
      <trkpt lat="45.7277" lon="3.20921">
        <ele>342.2</ele>
        <time>2026-07-02T10:00:53.000Z</time>
      </trkpt>
      <trkpt lat="45.72776" lon="3.20933">
        <ele>342.2</ele>
        <time>2026-07-02T10:00:55.000Z</time>
      </trkpt>
      <trkpt lat="45.72784" lon="3.20945">
        <ele>342</ele>
        <time>2026-07-02T10:00:57.000Z</time>
      </trkpt>
      <trkpt lat="45.72791" lon="3.20956">
        <ele>341.8</ele>
        <time>2026-07-02T10:00:59.000Z</time>
      </trkpt>
      <trkpt lat="45.72797" lon="3.20967">
        <ele>341.8</ele>
        <time>2026-07-02T10:01:01.000Z</time>
      </trkpt>
      <trkpt lat="45.72804" lon="3.2098">
        <ele>341.6</ele>
        <time>2026-07-02T10:01:03.000Z</time>
      </trkpt>
      <trkpt lat="45.72811" lon="3.20992">
        <ele>341.4</ele>
        <time>2026-07-02T10:01:05.000Z</time>
      </trkpt>
      <trkpt lat="45.72818" lon="3.21004">
        <ele>341.2</ele>
        <time>2026-07-02T10:01:07.000Z</time>
      </trkpt>
      <trkpt lat="45.72826" lon="3.21016">
        <ele>341.2</ele>
        <time>2026-07-02T10:01:09.000Z</time>
      </trkpt>
      <trkpt lat="45.72834" lon="3.21025">
        <ele>341</ele>
        <time>2026-07-02T10:01:11.000Z</time>
      </trkpt>
      <trkpt lat="45.72842" lon="3.21035">
        <ele>340.8</ele>
        <time>2026-07-02T10:01:13.000Z</time>
      </trkpt>
      <trkpt lat="45.72851" lon="3.21045">
        <ele>340.6</ele>
        <time>2026-07-02T10:01:15.000Z</time>
      </trkpt>
      <trkpt lat="45.72861" lon="3.21053">
        <ele>340.4</ele>
        <time>2026-07-02T10:01:17.000Z</time>
      </trkpt>
      <trkpt lat="45.72871" lon="3.21061">
        <ele>340.4</ele>
        <time>2026-07-02T10:01:19.000Z</time>
      </trkpt>
      <trkpt lat="45.72882" lon="3.21069">
        <ele>340.4</ele>
        <time>2026-07-02T10:01:21.000Z</time>
      </trkpt>
      <trkpt lat="45.72892" lon="3.21076">
        <ele>340.2</ele>
        <time>2026-07-02T10:01:23.000Z</time>
      </trkpt>
      <trkpt lat="45.72902" lon="3.21083">
        <ele>340.2</ele>
        <time>2026-07-02T10:01:25.000Z</time>
      </trkpt>
      <trkpt lat="45.72912" lon="3.2109">
        <ele>340</ele>
        <time>2026-07-02T10:01:27.000Z</time>
      </trkpt>
      <trkpt lat="45.72922" lon="3.21096">
        <ele>339.8</ele>
        <time>2026-07-02T10:01:29.000Z</time>
      </trkpt>
      <trkpt lat="45.72932" lon="3.21103">
        <ele>339.8</ele>
        <time>2026-07-02T10:01:31.000Z</time>
      </trkpt>
      <trkpt lat="45.72941" lon="3.21109">
        <ele>339.4</ele>
        <time>2026-07-02T10:01:33.000Z</time>
      </trkpt>
      <trkpt lat="45.72951" lon="3.21116">
        <ele>339.2</ele>
        <time>2026-07-02T10:01:35.000Z</time>
      </trkpt>
      <trkpt lat="45.72962" lon="3.21123">
        <ele>339</ele>
        <time>2026-07-02T10:01:37.000Z</time>
      </trkpt>
      <trkpt lat="45.72973" lon="3.2113">
        <ele>338.6</ele>
        <time>2026-07-02T10:01:39.000Z</time>
      </trkpt>
      <trkpt lat="45.72985" lon="3.21138">
        <ele>338.2</ele>
        <time>2026-07-02T10:01:41.000Z</time>
      </trkpt>
      <trkpt lat="45.72997" lon="3.21146">
        <ele>337.8</ele>
        <time>2026-07-02T10:01:43.000Z</time>
      </trkpt>
      <trkpt lat="45.73008" lon="3.21153">
        <ele>337.2</ele>
        <time>2026-07-02T10:01:45.000Z</time>
      </trkpt>
      <trkpt lat="45.73018" lon="3.21161">
        <ele>336.6</ele>
        <time>2026-07-02T10:01:47.000Z</time>
      </trkpt>
      <trkpt lat="45.73027" lon="3.21167">
        <ele>335.6</ele>
        <time>2026-07-02T10:01:49.000Z</time>
      </trkpt>
      <trkpt lat="45.73031" lon="3.21173">
        <ele>334.8</ele>
        <time>2026-07-02T10:01:51.000Z</time>
      </trkpt>
      <trkpt lat="45.73031" lon="3.2118">
        <ele>334</ele>
        <time>2026-07-02T10:01:53.000Z</time>
      </trkpt>
      <trkpt lat="45.73025" lon="3.21186">
        <ele>333.2</ele>
        <time>2026-07-02T10:01:55.000Z</time>
      </trkpt>
      <trkpt lat="45.73018" lon="3.21195">
        <ele>332.4</ele>
        <time>2026-07-02T10:01:57.000Z</time>
      </trkpt>
      <trkpt lat="45.73011" lon="3.21207">
        <ele>332</ele>
        <time>2026-07-02T10:01:59.000Z</time>
      </trkpt>
      <trkpt lat="45.73004" lon="3.21219">
        <ele>331.6</ele>
        <time>2026-07-02T10:02:01.000Z</time>
      </trkpt>
      <trkpt lat="45.72998" lon="3.21232">
        <ele>331.4</ele>
        <time>2026-07-02T10:02:03.000Z</time>
      </trkpt>
      <trkpt lat="45.72991" lon="3.21246">
        <ele>331.2</ele>
        <time>2026-07-02T10:02:05.000Z</time>
      </trkpt>
      <trkpt lat="45.72985" lon="3.2126">
        <ele>331</ele>
        <time>2026-07-02T10:02:07.000Z</time>
      </trkpt>
      <trkpt lat="45.72978" lon="3.21275">
        <ele>331</ele>
        <time>2026-07-02T10:02:09.000Z</time>
      </trkpt>
      <trkpt lat="45.7297" lon="3.2129">
        <ele>330.8</ele>
        <time>2026-07-02T10:02:11.000Z</time>
      </trkpt>
      <trkpt lat="45.72963" lon="3.21305">
        <ele>330.8</ele>
        <time>2026-07-02T10:02:13.000Z</time>
      </trkpt>
      <trkpt lat="45.72957" lon="3.21319">
        <ele>331</ele>
        <time>2026-07-02T10:02:15.000Z</time>
      </trkpt>
      <trkpt lat="45.72951" lon="3.21332">
        <ele>331.4</ele>
        <time>2026-07-02T10:02:17.000Z</time>
      </trkpt>
      <trkpt lat="45.72944" lon="3.21345">
        <ele>331.6</ele>
        <time>2026-07-02T10:02:19.000Z</time>
      </trkpt>
      <trkpt lat="45.72938" lon="3.21359">
        <ele>331.4</ele>
        <time>2026-07-02T10:02:21.000Z</time>
      </trkpt>
      <trkpt lat="45.72931" lon="3.21373">
        <ele>331</ele>
        <time>2026-07-02T10:02:23.000Z</time>
      </trkpt>
      <trkpt lat="45.72925" lon="3.21389">
        <ele>330.6</ele>
        <time>2026-07-02T10:02:25.000Z</time>
      </trkpt>
      <trkpt lat="45.72917" lon="3.21404">
        <ele>329.8</ele>
        <time>2026-07-02T10:02:27.000Z</time>
      </trkpt>
      <trkpt lat="45.7291" lon="3.21421">
        <ele>329.6</ele>
        <time>2026-07-02T10:02:29.000Z</time>
      </trkpt>
      <trkpt lat="45.72902" lon="3.21437">
        <ele>329.4</ele>
        <time>2026-07-02T10:02:31.000Z</time>
      </trkpt>
      <trkpt lat="45.72894" lon="3.21454">
        <ele>329</ele>
        <time>2026-07-02T10:02:33.000Z</time>
      </trkpt>
      <trkpt lat="45.72886" lon="3.21472">
        <ele>328.8</ele>
        <time>2026-07-02T10:02:35.000Z</time>
      </trkpt>
      <trkpt lat="45.72878" lon="3.21491">
        <ele>328.6</ele>
        <time>2026-07-02T10:02:37.000Z</time>
      </trkpt>
      <trkpt lat="45.72871" lon="3.21511">
        <ele>328</ele>
        <time>2026-07-02T10:02:39.000Z</time>
      </trkpt>
      <trkpt lat="45.72865" lon="3.21533">
        <ele>327.6</ele>
        <time>2026-07-02T10:02:41.000Z</time>
      </trkpt>
      <trkpt lat="45.72861" lon="3.21556">
        <ele>327.4</ele>
        <time>2026-07-02T10:02:43.000Z</time>
      </trkpt>
      <trkpt lat="45.72857" lon="3.21578">
        <ele>326.8</ele>
        <time>2026-07-02T10:02:45.000Z</time>
      </trkpt>
      <trkpt lat="45.72855" lon="3.21601">
        <ele>326.4</ele>
        <time>2026-07-02T10:02:47.000Z</time>
      </trkpt>
      <trkpt lat="45.72855" lon="3.21623">
        <ele>326</ele>
        <time>2026-07-02T10:02:49.000Z</time>
      </trkpt>
      <trkpt lat="45.72855" lon="3.21644">
        <ele>325.8</ele>
        <time>2026-07-02T10:02:51.000Z</time>
      </trkpt>
      <trkpt lat="45.72857" lon="3.21665">
        <ele>325.6</ele>
        <time>2026-07-02T10:02:53.000Z</time>
      </trkpt>
      <trkpt lat="45.72859" lon="3.21686">
        <ele>325.4</ele>
        <time>2026-07-02T10:02:55.000Z</time>
      </trkpt>
      <trkpt lat="45.72861" lon="3.21707">
        <ele>325.6</ele>
        <time>2026-07-02T10:02:57.000Z</time>
      </trkpt>
      <trkpt lat="45.72864" lon="3.21727">
        <ele>325.4</ele>
        <time>2026-07-02T10:02:59.000Z</time>
      </trkpt>
      <trkpt lat="45.72866" lon="3.21747">
        <ele>325.4</ele>
        <time>2026-07-02T10:03:01.000Z</time>
      </trkpt>
      <trkpt lat="45.72868" lon="3.21767">
        <ele>325.4</ele>
        <time>2026-07-02T10:03:03.000Z</time>
      </trkpt>
      <trkpt lat="45.7287" lon="3.21787">
        <ele>325.2</ele>
        <time>2026-07-02T10:03:05.000Z</time>
      </trkpt>
      <trkpt lat="45.72873" lon="3.21806">
        <ele>325.4</ele>
        <time>2026-07-02T10:03:07.000Z</time>
      </trkpt>
      <trkpt lat="45.72875" lon="3.21824">
        <ele>325.4</ele>
        <time>2026-07-02T10:03:09.000Z</time>
      </trkpt>
      <trkpt lat="45.72877" lon="3.21843">
        <ele>325.4</ele>
        <time>2026-07-02T10:03:11.000Z</time>
      </trkpt>
      <trkpt lat="45.72879" lon="3.21861">
        <ele>325.4</ele>
        <time>2026-07-02T10:03:13.000Z</time>
      </trkpt>
      <trkpt lat="45.72881" lon="3.21879">
        <ele>325.4</ele>
        <time>2026-07-02T10:03:15.000Z</time>
      </trkpt>
      <trkpt lat="45.72883" lon="3.21897">
        <ele>325.4</ele>
        <time>2026-07-02T10:03:17.000Z</time>
      </trkpt>
      <trkpt lat="45.72885" lon="3.21915">
        <ele>325.4</ele>
        <time>2026-07-02T10:03:19.000Z</time>
      </trkpt>
      <trkpt lat="45.72887" lon="3.21933">
        <ele>325.2</ele>
        <time>2026-07-02T10:03:21.000Z</time>
      </trkpt>
      <trkpt lat="45.72889" lon="3.21951">
        <ele>325.4</ele>
        <time>2026-07-02T10:03:23.000Z</time>
      </trkpt>
      <trkpt lat="45.72891" lon="3.21968">
        <ele>325.4</ele>
        <time>2026-07-02T10:03:25.000Z</time>
      </trkpt>
      <trkpt lat="45.72893" lon="3.21986">
        <ele>325.6</ele>
        <time>2026-07-02T10:03:27.000Z</time>
      </trkpt>
      <trkpt lat="45.72895" lon="3.22004">
        <ele>325.6</ele>
        <time>2026-07-02T10:03:29.000Z</time>
      </trkpt>
      <trkpt lat="45.72897" lon="3.22022">
        <ele>325.6</ele>
        <time>2026-07-02T10:03:31.000Z</time>
      </trkpt>
      <trkpt lat="45.72899" lon="3.22041">
        <ele>325.6</ele>
        <time>2026-07-02T10:03:33.000Z</time>
      </trkpt>
      <trkpt lat="45.72902" lon="3.22059">
        <ele>325.6</ele>
        <time>2026-07-02T10:03:35.000Z</time>
      </trkpt>
      <trkpt lat="45.72904" lon="3.22077">
        <ele>325.6</ele>
        <time>2026-07-02T10:03:37.000Z</time>
      </trkpt>
      <trkpt lat="45.72906" lon="3.22096">
        <ele>325.6</ele>
        <time>2026-07-02T10:03:39.000Z</time>
      </trkpt>
      <trkpt lat="45.72908" lon="3.22114">
        <ele>325.6</ele>
        <time>2026-07-02T10:03:41.000Z</time>
      </trkpt>
      <trkpt lat="45.7291" lon="3.22132">
        <ele>325.6</ele>
        <time>2026-07-02T10:03:43.000Z</time>
      </trkpt>
      <trkpt lat="45.72912" lon="3.2215">
        <ele>325.4</ele>
        <time>2026-07-02T10:03:45.000Z</time>
      </trkpt>
      <trkpt lat="45.72914" lon="3.22167">
        <ele>325.6</ele>
        <time>2026-07-02T10:03:47.000Z</time>
      </trkpt>
      <trkpt lat="45.72916" lon="3.22185">
        <ele>325.6</ele>
        <time>2026-07-02T10:03:49.000Z</time>
      </trkpt>
      <trkpt lat="45.72918" lon="3.22203">
        <ele>325.6</ele>
        <time>2026-07-02T10:03:51.000Z</time>
      </trkpt>
      <trkpt lat="45.7292" lon="3.2222">
        <ele>325.6</ele>
        <time>2026-07-02T10:03:53.000Z</time>
      </trkpt>
      <trkpt lat="45.72923" lon="3.22238">
        <ele>325.6</ele>
        <time>2026-07-02T10:03:55.000Z</time>
      </trkpt>
      <trkpt lat="45.72924" lon="3.22255">
        <ele>325.6</ele>
        <time>2026-07-02T10:03:57.000Z</time>
      </trkpt>
      <trkpt lat="45.72927" lon="3.22273">
        <ele>325.6</ele>
        <time>2026-07-02T10:03:59.000Z</time>
      </trkpt>
      <trkpt lat="45.72928" lon="3.22291">
        <ele>325.6</ele>
        <time>2026-07-02T10:04:01.000Z</time>
      </trkpt>
      <trkpt lat="45.7293" lon="3.2231">
        <ele>325.4</ele>
        <time>2026-07-02T10:04:03.000Z</time>
      </trkpt>
      <trkpt lat="45.72932" lon="3.22328">
        <ele>325.2</ele>
        <time>2026-07-02T10:04:05.000Z</time>
      </trkpt>
      <trkpt lat="45.72935" lon="3.22346">
        <ele>325</ele>
        <time>2026-07-02T10:04:07.000Z</time>
      </trkpt>
      <trkpt lat="45.72937" lon="3.22364">
        <ele>325</ele>
        <time>2026-07-02T10:04:09.000Z</time>
      </trkpt>
      <trkpt lat="45.72939" lon="3.22382">
        <ele>325</ele>
        <time>2026-07-02T10:04:11.000Z</time>
      </trkpt>
      <trkpt lat="45.72941" lon="3.224">
        <ele>325.2</ele>
        <time>2026-07-02T10:04:13.000Z</time>
      </trkpt>
      <trkpt lat="45.72943" lon="3.22418">
        <ele>325.2</ele>
        <time>2026-07-02T10:04:15.000Z</time>
      </trkpt>
      <trkpt lat="45.72945" lon="3.22437">
        <ele>325.2</ele>
        <time>2026-07-02T10:04:17.000Z</time>
      </trkpt>
      <trkpt lat="45.72948" lon="3.22455">
        <ele>325</ele>
        <time>2026-07-02T10:04:19.000Z</time>
      </trkpt>
      <trkpt lat="45.7295" lon="3.22473">
        <ele>325</ele>
        <time>2026-07-02T10:04:21.000Z</time>
      </trkpt>
      <trkpt lat="45.72952" lon="3.22491">
        <ele>325</ele>
        <time>2026-07-02T10:04:23.000Z</time>
      </trkpt>
      <trkpt lat="45.72954" lon="3.22508">
        <ele>325</ele>
        <time>2026-07-02T10:04:25.000Z</time>
      </trkpt>
      <trkpt lat="45.72956" lon="3.22526">
        <ele>325.2</ele>
        <time>2026-07-02T10:04:27.000Z</time>
      </trkpt>
      <trkpt lat="45.72958" lon="3.22544">
        <ele>325.2</ele>
        <time>2026-07-02T10:04:29.000Z</time>
      </trkpt>
      <trkpt lat="45.7296" lon="3.22561">
        <ele>325.2</ele>
        <time>2026-07-02T10:04:31.000Z</time>
      </trkpt>
      <trkpt lat="45.72962" lon="3.22579">
        <ele>325.2</ele>
        <time>2026-07-02T10:04:33.000Z</time>
      </trkpt>
      <trkpt lat="45.72964" lon="3.22597">
        <ele>325.2</ele>
        <time>2026-07-02T10:04:35.000Z</time>
      </trkpt>
      <trkpt lat="45.72966" lon="3.22615">
        <ele>325.2</ele>
        <time>2026-07-02T10:04:37.000Z</time>
      </trkpt>
      <trkpt lat="45.72968" lon="3.22632">
        <ele>325.2</ele>
        <time>2026-07-02T10:04:39.000Z</time>
      </trkpt>
      <trkpt lat="45.7297" lon="3.22649">
        <ele>325.2</ele>
        <time>2026-07-02T10:04:41.000Z</time>
      </trkpt>
      <trkpt lat="45.72971" lon="3.22667">
        <ele>325</ele>
        <time>2026-07-02T10:04:43.000Z</time>
      </trkpt>
      <trkpt lat="45.72972" lon="3.22684">
        <ele>324.8</ele>
        <time>2026-07-02T10:04:45.000Z</time>
      </trkpt>
      <trkpt lat="45.72973" lon="3.22701">
        <ele>324.6</ele>
        <time>2026-07-02T10:04:47.000Z</time>
      </trkpt>
      <trkpt lat="45.72973" lon="3.22718">
        <ele>324.6</ele>
        <time>2026-07-02T10:04:49.000Z</time>
      </trkpt>
      <trkpt lat="45.72975" lon="3.22734">
        <ele>324.4</ele>
        <time>2026-07-02T10:04:51.000Z</time>
      </trkpt>
      <trkpt lat="45.72979" lon="3.22751">
        <ele>324.2</ele>
        <time>2026-07-02T10:04:53.000Z</time>
      </trkpt>
      <trkpt lat="45.7298" lon="3.22769">
        <ele>324.2</ele>
        <time>2026-07-02T10:04:55.000Z</time>
      </trkpt>
      <trkpt lat="45.72977" lon="3.22787">
        <ele>324.2</ele>
        <time>2026-07-02T10:04:57.000Z</time>
      </trkpt>
      <trkpt lat="45.72978" lon="3.22806">
        <ele>324.2</ele>
        <time>2026-07-02T10:04:59.000Z</time>
      </trkpt>
      <trkpt lat="45.72983" lon="3.22823">
        <ele>324.2</ele>
        <time>2026-07-02T10:05:01.000Z</time>
      </trkpt>
      <trkpt lat="45.72986" lon="3.22842">
        <ele>324</ele>
        <time>2026-07-02T10:05:03.000Z</time>
      </trkpt>
      <trkpt lat="45.72984" lon="3.2286">
        <ele>324</ele>
        <time>2026-07-02T10:05:05.000Z</time>
      </trkpt>
      <trkpt lat="45.72982" lon="3.22878">
        <ele>323.8</ele>
        <time>2026-07-02T10:05:07.000Z</time>
      </trkpt>
      <trkpt lat="45.72979" lon="3.22897">
        <ele>324</ele>
        <time>2026-07-02T10:05:09.000Z</time>
      </trkpt>
      <trkpt lat="45.72977" lon="3.22915">
        <ele>323.8</ele>
        <time>2026-07-02T10:05:11.000Z</time>
      </trkpt>
      <trkpt lat="45.72974" lon="3.22933">
        <ele>323.8</ele>
        <time>2026-07-02T10:05:13.000Z</time>
      </trkpt>
      <trkpt lat="45.72971" lon="3.2295">
        <ele>324</ele>
        <time>2026-07-02T10:05:15.000Z</time>
      </trkpt>
      <trkpt lat="45.72968" lon="3.22967">
        <ele>324</ele>
        <time>2026-07-02T10:05:17.000Z</time>
      </trkpt>
      <trkpt lat="45.72965" lon="3.22984">
        <ele>324.2</ele>
        <time>2026-07-02T10:05:19.000Z</time>
      </trkpt>
      <trkpt lat="45.72962" lon="3.23">
        <ele>324.4</ele>
        <time>2026-07-02T10:05:21.000Z</time>
      </trkpt>
      <trkpt lat="45.7296" lon="3.23016">
        <ele>324.6</ele>
        <time>2026-07-02T10:05:23.000Z</time>
      </trkpt>
      <trkpt lat="45.72957" lon="3.23032">
        <ele>325</ele>
        <time>2026-07-02T10:05:25.000Z</time>
      </trkpt>
      <trkpt lat="45.72954" lon="3.23047">
        <ele>325.4</ele>
        <time>2026-07-02T10:05:27.000Z</time>
      </trkpt>
      <trkpt lat="45.72952" lon="3.23062">
        <ele>325.8</ele>
        <time>2026-07-02T10:05:29.000Z</time>
      </trkpt>
      <trkpt lat="45.72949" lon="3.23076">
        <ele>326.2</ele>
        <time>2026-07-02T10:05:31.000Z</time>
      </trkpt>
      <trkpt lat="45.72947" lon="3.2309">
        <ele>326.4</ele>
        <time>2026-07-02T10:05:33.000Z</time>
      </trkpt>
      <trkpt lat="45.72945" lon="3.23104">
        <ele>326.6</ele>
        <time>2026-07-02T10:05:35.000Z</time>
      </trkpt>
      <trkpt lat="45.72943" lon="3.23117">
        <ele>327</ele>
        <time>2026-07-02T10:05:37.000Z</time>
      </trkpt>
      <trkpt lat="45.72941" lon="3.23129">
        <ele>327.4</ele>
        <time>2026-07-02T10:05:39.000Z</time>
      </trkpt>
      <trkpt lat="45.72939" lon="3.23142">
        <ele>327.8</ele>
        <time>2026-07-02T10:05:41.000Z</time>
      </trkpt>
      <trkpt lat="45.72938" lon="3.23154">
        <ele>328.2</ele>
        <time>2026-07-02T10:05:43.000Z</time>
      </trkpt>
      <trkpt lat="45.72938" lon="3.23167">
        <ele>328.6</ele>
        <time>2026-07-02T10:05:45.000Z</time>
      </trkpt>
      <trkpt lat="45.72939" lon="3.23179">
        <ele>329</ele>
        <time>2026-07-02T10:05:47.000Z</time>
      </trkpt>
      <trkpt lat="45.7294" lon="3.23192">
        <ele>329.6</ele>
        <time>2026-07-02T10:05:49.000Z</time>
      </trkpt>
      <trkpt lat="45.7294" lon="3.23205">
        <ele>330</ele>
        <time>2026-07-02T10:05:51.000Z</time>
      </trkpt>
      <trkpt lat="45.72942" lon="3.23217">
        <ele>330.4</ele>
        <time>2026-07-02T10:05:53.000Z</time>
      </trkpt>
      <trkpt lat="45.72943" lon="3.23242">
        <ele>331.2</ele>
        <time>2026-07-02T10:05:56.000Z</time>
      </trkpt>
      <trkpt lat="45.72943" lon="3.23254">
        <ele>331.8</ele>
        <time>2026-07-02T10:05:58.000Z</time>
      </trkpt>
      <trkpt lat="45.72942" lon="3.23266">
        <ele>332.2</ele>
        <time>2026-07-02T10:06:00.000Z</time>
      </trkpt>
      <trkpt lat="45.72939" lon="3.23278">
        <ele>332.8</ele>
        <time>2026-07-02T10:06:02.000Z</time>
      </trkpt>
      <trkpt lat="45.72936" lon="3.23288">
        <ele>333.4</ele>
        <time>2026-07-02T10:06:04.000Z</time>
      </trkpt>
      <trkpt lat="45.72932" lon="3.23298">
        <ele>333.8</ele>
        <time>2026-07-02T10:06:06.000Z</time>
      </trkpt>
      <trkpt lat="45.72927" lon="3.23307">
        <ele>334.6</ele>
        <time>2026-07-02T10:06:08.000Z</time>
      </trkpt>
      <trkpt lat="45.72921" lon="3.23314">
        <ele>335.2</ele>
        <time>2026-07-02T10:06:10.000Z</time>
      </trkpt>
      <trkpt lat="45.72913" lon="3.2332">
        <ele>335.6</ele>
        <time>2026-07-02T10:06:12.000Z</time>
      </trkpt>
      <trkpt lat="45.72906" lon="3.23325">
        <ele>336</ele>
        <time>2026-07-02T10:06:14.000Z</time>
      </trkpt>
      <trkpt lat="45.72897" lon="3.2333">
        <ele>336.2</ele>
        <time>2026-07-02T10:06:16.000Z</time>
      </trkpt>
      <trkpt lat="45.72889" lon="3.23336">
        <ele>336.6</ele>
        <time>2026-07-02T10:06:18.000Z</time>
      </trkpt>
      <trkpt lat="45.72882" lon="3.23345">
        <ele>337</ele>
        <time>2026-07-02T10:06:20.000Z</time>
      </trkpt>
      <trkpt lat="45.72876" lon="3.23355">
        <ele>337.2</ele>
        <time>2026-07-02T10:06:22.000Z</time>
      </trkpt>
      <trkpt lat="45.72872" lon="3.23368">
        <ele>337.6</ele>
        <time>2026-07-02T10:06:24.000Z</time>
      </trkpt>
      <trkpt lat="45.7287" lon="3.2338">
        <ele>338</ele>
        <time>2026-07-02T10:06:26.000Z</time>
      </trkpt>
      <trkpt lat="45.72868" lon="3.23393">
        <ele>338.4</ele>
        <time>2026-07-02T10:06:28.000Z</time>
      </trkpt>
      <trkpt lat="45.72866" lon="3.23405">
        <ele>338.6</ele>
        <time>2026-07-02T10:06:30.000Z</time>
      </trkpt>
      <trkpt lat="45.72864" lon="3.23418">
        <ele>339</ele>
        <time>2026-07-02T10:06:32.000Z</time>
      </trkpt>
      <trkpt lat="45.72862" lon="3.2343">
        <ele>339.4</ele>
        <time>2026-07-02T10:06:34.000Z</time>
      </trkpt>
      <trkpt lat="45.7286" lon="3.23442">
        <ele>339.6</ele>
        <time>2026-07-02T10:06:36.000Z</time>
      </trkpt>
      <trkpt lat="45.72858" lon="3.23454">
        <ele>340</ele>
        <time>2026-07-02T10:06:38.000Z</time>
      </trkpt>
      <trkpt lat="45.72855" lon="3.23466">
        <ele>340.4</ele>
        <time>2026-07-02T10:06:40.000Z</time>
      </trkpt>
      <trkpt lat="45.72853" lon="3.23478">
        <ele>340.8</ele>
        <time>2026-07-02T10:06:42.000Z</time>
      </trkpt>
      <trkpt lat="45.7285" lon="3.2349">
        <ele>341</ele>
        <time>2026-07-02T10:06:44.000Z</time>
      </trkpt>
      <trkpt lat="45.72847" lon="3.23502">
        <ele>341.4</ele>
        <time>2026-07-02T10:06:46.000Z</time>
      </trkpt>
      <trkpt lat="45.72843" lon="3.23514">
        <ele>341.8</ele>
        <time>2026-07-02T10:06:48.000Z</time>
      </trkpt>
      <trkpt lat="45.72839" lon="3.23526">
        <ele>342.2</ele>
        <time>2026-07-02T10:06:50.000Z</time>
      </trkpt>
      <trkpt lat="45.72835" lon="3.23538">
        <ele>342.4</ele>
        <time>2026-07-02T10:06:52.000Z</time>
      </trkpt>
      <trkpt lat="45.7283" lon="3.2355">
        <ele>342.6</ele>
        <time>2026-07-02T10:06:54.000Z</time>
      </trkpt>
      <trkpt lat="45.72825" lon="3.23562">
        <ele>343</ele>
        <time>2026-07-02T10:06:56.000Z</time>
      </trkpt>
      <trkpt lat="45.72819" lon="3.23573">
        <ele>343.2</ele>
        <time>2026-07-02T10:06:58.000Z</time>
      </trkpt>
      <trkpt lat="45.72813" lon="3.23583">
        <ele>343.4</ele>
        <time>2026-07-02T10:07:00.000Z</time>
      </trkpt>
      <trkpt lat="45.72806" lon="3.23595">
        <ele>343.4</ele>
        <time>2026-07-02T10:07:02.000Z</time>
      </trkpt>
      <trkpt lat="45.72799" lon="3.23606">
        <ele>343.6</ele>
        <time>2026-07-02T10:07:04.000Z</time>
      </trkpt>
      <trkpt lat="45.72791" lon="3.23617">
        <ele>343.8</ele>
        <time>2026-07-02T10:07:06.000Z</time>
      </trkpt>
      <trkpt lat="45.72784" lon="3.23628">
        <ele>343.8</ele>
        <time>2026-07-02T10:07:08.000Z</time>
      </trkpt>
      <trkpt lat="45.72777" lon="3.23639">
        <ele>344</ele>
        <time>2026-07-02T10:07:10.000Z</time>
      </trkpt>
      <trkpt lat="45.72771" lon="3.23649">
        <ele>344.2</ele>
        <time>2026-07-02T10:07:12.000Z</time>
      </trkpt>
      <trkpt lat="45.72764" lon="3.2366">
        <ele>344.4</ele>
        <time>2026-07-02T10:07:14.000Z</time>
      </trkpt>
      <trkpt lat="45.72757" lon="3.23671">
        <ele>344.6</ele>
        <time>2026-07-02T10:07:16.000Z</time>
      </trkpt>
      <trkpt lat="45.7275" lon="3.23681">
        <ele>344.8</ele>
        <time>2026-07-02T10:07:18.000Z</time>
      </trkpt>
      <trkpt lat="45.72743" lon="3.23691">
        <ele>344.8</ele>
        <time>2026-07-02T10:07:20.000Z</time>
      </trkpt>
      <trkpt lat="45.72736" lon="3.23701">
        <ele>345</ele>
        <time>2026-07-02T10:07:22.000Z</time>
      </trkpt>
      <trkpt lat="45.7273" lon="3.23711">
        <ele>345.2</ele>
        <time>2026-07-02T10:07:24.000Z</time>
      </trkpt>
      <trkpt lat="45.72723" lon="3.23721">
        <ele>345.4</ele>
        <time>2026-07-02T10:07:26.000Z</time>
      </trkpt>
      <trkpt lat="45.72717" lon="3.23731">
        <ele>345.6</ele>
        <time>2026-07-02T10:07:28.000Z</time>
      </trkpt>
      <trkpt lat="45.72711" lon="3.2374">
        <ele>345.8</ele>
        <time>2026-07-02T10:07:30.000Z</time>
      </trkpt>
      <trkpt lat="45.72705" lon="3.2375">
        <ele>346.2</ele>
        <time>2026-07-02T10:07:32.000Z</time>
      </trkpt>
      <trkpt lat="45.72699" lon="3.23759">
        <ele>346.6</ele>
        <time>2026-07-02T10:07:34.000Z</time>
      </trkpt>
      <trkpt lat="45.72693" lon="3.23769">
        <ele>346.8</ele>
        <time>2026-07-02T10:07:36.000Z</time>
      </trkpt>
      <trkpt lat="45.72688" lon="3.23779">
        <ele>347</ele>
        <time>2026-07-02T10:07:38.000Z</time>
      </trkpt>
      <trkpt lat="45.72683" lon="3.2379">
        <ele>347.4</ele>
        <time>2026-07-02T10:07:40.000Z</time>
      </trkpt>
      <trkpt lat="45.72678" lon="3.238">
        <ele>347.6</ele>
        <time>2026-07-02T10:07:42.000Z</time>
      </trkpt>
      <trkpt lat="45.72673" lon="3.23811">
        <ele>347.8</ele>
        <time>2026-07-02T10:07:44.000Z</time>
      </trkpt>
      <trkpt lat="45.72669" lon="3.23823">
        <ele>348</ele>
        <time>2026-07-02T10:07:46.000Z</time>
      </trkpt>
      <trkpt lat="45.72665" lon="3.23835">
        <ele>348.2</ele>
        <time>2026-07-02T10:07:48.000Z</time>
      </trkpt>
      <trkpt lat="45.72662" lon="3.23847">
        <ele>348.6</ele>
        <time>2026-07-02T10:07:50.000Z</time>
      </trkpt>
      <trkpt lat="45.72659" lon="3.2386">
        <ele>348.8</ele>
        <time>2026-07-02T10:07:52.000Z</time>
      </trkpt>
      <trkpt lat="45.72656" lon="3.23873">
        <ele>349</ele>
        <time>2026-07-02T10:07:54.000Z</time>
      </trkpt>
      <trkpt lat="45.72654" lon="3.23885">
        <ele>349.2</ele>
        <time>2026-07-02T10:07:56.000Z</time>
      </trkpt>
      <trkpt lat="45.72651" lon="3.23899">
        <ele>349.6</ele>
        <time>2026-07-02T10:07:58.000Z</time>
      </trkpt>
      <trkpt lat="45.7265" lon="3.23912">
        <ele>349.8</ele>
        <time>2026-07-02T10:08:00.000Z</time>
      </trkpt>
      <trkpt lat="45.72649" lon="3.23925">
        <ele>350.2</ele>
        <time>2026-07-02T10:08:02.000Z</time>
      </trkpt>
      <trkpt lat="45.72648" lon="3.23939">
        <ele>350.4</ele>
        <time>2026-07-02T10:08:04.000Z</time>
      </trkpt>
      <trkpt lat="45.72648" lon="3.23953">
        <ele>350.6</ele>
        <time>2026-07-02T10:08:06.000Z</time>
      </trkpt>
      <trkpt lat="45.72648" lon="3.23966">
        <ele>350.8</ele>
        <time>2026-07-02T10:08:08.000Z</time>
      </trkpt>
      <trkpt lat="45.72649" lon="3.23979">
        <ele>351.2</ele>
        <time>2026-07-02T10:08:10.000Z</time>
      </trkpt>
      <trkpt lat="45.72649" lon="3.23992">
        <ele>351.4</ele>
        <time>2026-07-02T10:08:12.000Z</time>
      </trkpt>
      <trkpt lat="45.72651" lon="3.24005">
        <ele>352</ele>
        <time>2026-07-02T10:08:14.000Z</time>
      </trkpt>
      <trkpt lat="45.72652" lon="3.24017">
        <ele>352.2</ele>
        <time>2026-07-02T10:08:16.000Z</time>
      </trkpt>
      <trkpt lat="45.72654" lon="3.2403">
        <ele>352.6</ele>
        <time>2026-07-02T10:08:18.000Z</time>
      </trkpt>
      <trkpt lat="45.72657" lon="3.24042">
        <ele>352.8</ele>
        <time>2026-07-02T10:08:20.000Z</time>
      </trkpt>
      <trkpt lat="45.7266" lon="3.24055">
        <ele>353</ele>
        <time>2026-07-02T10:08:22.000Z</time>
      </trkpt>
      <trkpt lat="45.72663" lon="3.24067">
        <ele>353.4</ele>
        <time>2026-07-02T10:08:24.000Z</time>
      </trkpt>
      <trkpt lat="45.72667" lon="3.24079">
        <ele>353.6</ele>
        <time>2026-07-02T10:08:26.000Z</time>
      </trkpt>
      <trkpt lat="45.7267" lon="3.24091">
        <ele>353.8</ele>
        <time>2026-07-02T10:08:28.000Z</time>
      </trkpt>
      <trkpt lat="45.72672" lon="3.24103">
        <ele>353.8</ele>
        <time>2026-07-02T10:08:30.000Z</time>
      </trkpt>
      <trkpt lat="45.72677" lon="3.24115">
        <ele>354</ele>
        <time>2026-07-02T10:08:32.000Z</time>
      </trkpt>
      <trkpt lat="45.72682" lon="3.24125">
        <ele>354.2</ele>
        <time>2026-07-02T10:08:34.000Z</time>
      </trkpt>
      <trkpt lat="45.72688" lon="3.24135">
        <ele>354.4</ele>
        <time>2026-07-02T10:08:36.000Z</time>
      </trkpt>
      <trkpt lat="45.72693" lon="3.24145">
        <ele>354.6</ele>
        <time>2026-07-02T10:08:38.000Z</time>
      </trkpt>
      <trkpt lat="45.72698" lon="3.24155">
        <ele>354.8</ele>
        <time>2026-07-02T10:08:40.000Z</time>
      </trkpt>
      <trkpt lat="45.72704" lon="3.24165">
        <ele>355</ele>
        <time>2026-07-02T10:08:42.000Z</time>
      </trkpt>
      <trkpt lat="45.72711" lon="3.24176">
        <ele>355.2</ele>
        <time>2026-07-02T10:08:44.000Z</time>
      </trkpt>
      <trkpt lat="45.72716" lon="3.24186">
        <ele>355.4</ele>
        <time>2026-07-02T10:08:46.000Z</time>
      </trkpt>
      <trkpt lat="45.72722" lon="3.24196">
        <ele>355.4</ele>
        <time>2026-07-02T10:08:48.000Z</time>
      </trkpt>
      <trkpt lat="45.72728" lon="3.24206">
        <ele>355.6</ele>
        <time>2026-07-02T10:08:50.000Z</time>
      </trkpt>
      <trkpt lat="45.72734" lon="3.24216">
        <ele>355.6</ele>
        <time>2026-07-02T10:08:52.000Z</time>
      </trkpt>
      <trkpt lat="45.7274" lon="3.24226">
        <ele>355.8</ele>
        <time>2026-07-02T10:08:54.000Z</time>
      </trkpt>
      <trkpt lat="45.72747" lon="3.24236">
        <ele>356</ele>
        <time>2026-07-02T10:08:56.000Z</time>
      </trkpt>
      <trkpt lat="45.72753" lon="3.24246">
        <ele>356.2</ele>
        <time>2026-07-02T10:08:58.000Z</time>
      </trkpt>
      <trkpt lat="45.72759" lon="3.24255">
        <ele>356.2</ele>
        <time>2026-07-02T10:09:00.000Z</time>
      </trkpt>
      <trkpt lat="45.72765" lon="3.24266">
        <ele>356.4</ele>
        <time>2026-07-02T10:09:02.000Z</time>
      </trkpt>
      <trkpt lat="45.72772" lon="3.24276">
        <ele>356.4</ele>
        <time>2026-07-02T10:09:04.000Z</time>
      </trkpt>
      <trkpt lat="45.72778" lon="3.24287">
        <ele>356.6</ele>
        <time>2026-07-02T10:09:06.000Z</time>
      </trkpt>
      <trkpt lat="45.72783" lon="3.24297">
        <ele>356.6</ele>
        <time>2026-07-02T10:09:08.000Z</time>
      </trkpt>
      <trkpt lat="45.7279" lon="3.24308">
        <ele>356.8</ele>
        <time>2026-07-02T10:09:10.000Z</time>
      </trkpt>
      <trkpt lat="45.72796" lon="3.24318">
        <ele>356.8</ele>
        <time>2026-07-02T10:09:12.000Z</time>
      </trkpt>
      <trkpt lat="45.72802" lon="3.24329">
        <ele>357</ele>
        <time>2026-07-02T10:09:14.000Z</time>
      </trkpt>
      <trkpt lat="45.72808" lon="3.24339">
        <ele>357.2</ele>
        <time>2026-07-02T10:09:16.000Z</time>
      </trkpt>
      <trkpt lat="45.72814" lon="3.2435">
        <ele>357.2</ele>
        <time>2026-07-02T10:09:18.000Z</time>
      </trkpt>
      <trkpt lat="45.7282" lon="3.24361">
        <ele>357.2</ele>
        <time>2026-07-02T10:09:20.000Z</time>
      </trkpt>
      <trkpt lat="45.72826" lon="3.24372">
        <ele>357.4</ele>
        <time>2026-07-02T10:09:22.000Z</time>
      </trkpt>
      <trkpt lat="45.72832" lon="3.24382">
        <ele>357.2</ele>
        <time>2026-07-02T10:09:24.000Z</time>
      </trkpt>
      <trkpt lat="45.72838" lon="3.24393">
        <ele>357.4</ele>
        <time>2026-07-02T10:09:26.000Z</time>
      </trkpt>
      <trkpt lat="45.72845" lon="3.24403">
        <ele>357.6</ele>
        <time>2026-07-02T10:09:28.000Z</time>
      </trkpt>
      <trkpt lat="45.72851" lon="3.24414">
        <ele>357.8</ele>
        <time>2026-07-02T10:09:30.000Z</time>
      </trkpt>
      <trkpt lat="45.72857" lon="3.24425">
        <ele>358</ele>
        <time>2026-07-02T10:09:32.000Z</time>
      </trkpt>
      <trkpt lat="45.72863" lon="3.24436">
        <ele>358</ele>
        <time>2026-07-02T10:09:34.000Z</time>
      </trkpt>
      <trkpt lat="45.72869" lon="3.24447">
        <ele>358</ele>
        <time>2026-07-02T10:09:36.000Z</time>
      </trkpt>
      <trkpt lat="45.72875" lon="3.24459">
        <ele>357.8</ele>
        <time>2026-07-02T10:09:38.000Z</time>
      </trkpt>
      <trkpt lat="45.72881" lon="3.24471">
        <ele>357.8</ele>
        <time>2026-07-02T10:09:40.000Z</time>
      </trkpt>
      <trkpt lat="45.72886" lon="3.24482">
        <ele>357.8</ele>
        <time>2026-07-02T10:09:42.000Z</time>
      </trkpt>
      <trkpt lat="45.72891" lon="3.24495">
        <ele>357.8</ele>
        <time>2026-07-02T10:09:44.000Z</time>
      </trkpt>
      <trkpt lat="45.72896" lon="3.24508">
        <ele>358</ele>
        <time>2026-07-02T10:09:46.000Z</time>
      </trkpt>
      <trkpt lat="45.729" lon="3.24521">
        <ele>358.2</ele>
        <time>2026-07-02T10:09:48.000Z</time>
      </trkpt>
      <trkpt lat="45.72904" lon="3.24534">
        <ele>358.4</ele>
        <time>2026-07-02T10:09:50.000Z</time>
      </trkpt>
      <trkpt lat="45.72907" lon="3.24547">
        <ele>358.4</ele>
        <time>2026-07-02T10:09:52.000Z</time>
      </trkpt>
      <trkpt lat="45.7291" lon="3.24561">
        <ele>358.6</ele>
        <time>2026-07-02T10:09:54.000Z</time>
      </trkpt>
      <trkpt lat="45.72912" lon="3.24575">
        <ele>358.8</ele>
        <time>2026-07-02T10:09:56.000Z</time>
      </trkpt>
      <trkpt lat="45.72914" lon="3.24588">
        <ele>358.8</ele>
        <time>2026-07-02T10:09:58.000Z</time>
      </trkpt>
      <trkpt lat="45.72915" lon="3.24602">
        <ele>358.8</ele>
        <time>2026-07-02T10:10:00.000Z</time>
      </trkpt>
      <trkpt lat="45.72916" lon="3.24616">
        <ele>359</ele>
        <time>2026-07-02T10:10:02.000Z</time>
      </trkpt>
      <trkpt lat="45.72917" lon="3.2463">
        <ele>359</ele>
        <time>2026-07-02T10:10:04.000Z</time>
      </trkpt>
      <trkpt lat="45.72916" lon="3.24644">
        <ele>359</ele>
        <time>2026-07-02T10:10:06.000Z</time>
      </trkpt>
      <trkpt lat="45.72916" lon="3.24659">
        <ele>359</ele>
        <time>2026-07-02T10:10:08.000Z</time>
      </trkpt>
      <trkpt lat="45.72916" lon="3.24673">
        <ele>359.2</ele>
        <time>2026-07-02T10:10:10.000Z</time>
      </trkpt>
      <trkpt lat="45.72915" lon="3.24687">
        <ele>359.2</ele>
        <time>2026-07-02T10:10:12.000Z</time>
      </trkpt>
      <trkpt lat="45.72915" lon="3.24701">
        <ele>359.4</ele>
        <time>2026-07-02T10:10:14.000Z</time>
      </trkpt>
      <trkpt lat="45.72914" lon="3.24715">
        <ele>359.6</ele>
        <time>2026-07-02T10:10:16.000Z</time>
      </trkpt>
      <trkpt lat="45.72914" lon="3.24729">
        <ele>359.8</ele>
        <time>2026-07-02T10:10:18.000Z</time>
      </trkpt>
      <trkpt lat="45.72914" lon="3.24744">
        <ele>359.8</ele>
        <time>2026-07-02T10:10:20.000Z</time>
      </trkpt>
      <trkpt lat="45.72913" lon="3.24759">
        <ele>359.8</ele>
        <time>2026-07-02T10:10:22.000Z</time>
      </trkpt>
      <trkpt lat="45.72913" lon="3.24774">
        <ele>359.8</ele>
        <time>2026-07-02T10:10:24.000Z</time>
      </trkpt>
      <trkpt lat="45.72912" lon="3.24788">
        <ele>359.8</ele>
        <time>2026-07-02T10:10:26.000Z</time>
      </trkpt>
      <trkpt lat="45.72912" lon="3.24803">
        <ele>359.8</ele>
        <time>2026-07-02T10:10:28.000Z</time>
      </trkpt>
      <trkpt lat="45.72912" lon="3.24817">
        <ele>359.8</ele>
        <time>2026-07-02T10:10:30.000Z</time>
      </trkpt>
      <trkpt lat="45.72911" lon="3.24832">
        <ele>360</ele>
        <time>2026-07-02T10:10:32.000Z</time>
      </trkpt>
      <trkpt lat="45.72911" lon="3.24846">
        <ele>360</ele>
        <time>2026-07-02T10:10:34.000Z</time>
      </trkpt>
      <trkpt lat="45.72911" lon="3.24861">
        <ele>360.2</ele>
        <time>2026-07-02T10:10:36.000Z</time>
      </trkpt>
      <trkpt lat="45.7291" lon="3.24876">
        <ele>360.2</ele>
        <time>2026-07-02T10:10:38.000Z</time>
      </trkpt>
      <trkpt lat="45.7291" lon="3.24891">
        <ele>360.4</ele>
        <time>2026-07-02T10:10:40.000Z</time>
      </trkpt>
      <trkpt lat="45.72909" lon="3.24906">
        <ele>360.4</ele>
        <time>2026-07-02T10:10:42.000Z</time>
      </trkpt>
      <trkpt lat="45.72909" lon="3.24921">
        <ele>360.6</ele>
        <time>2026-07-02T10:10:44.000Z</time>
      </trkpt>
      <trkpt lat="45.72909" lon="3.24936">
        <ele>360.6</ele>
        <time>2026-07-02T10:10:46.000Z</time>
      </trkpt>
      <trkpt lat="45.72908" lon="3.24951">
        <ele>360.6</ele>
        <time>2026-07-02T10:10:48.000Z</time>
      </trkpt>
      <trkpt lat="45.72908" lon="3.24966">
        <ele>360.6</ele>
        <time>2026-07-02T10:10:50.000Z</time>
      </trkpt>
      <trkpt lat="45.72907" lon="3.24981">
        <ele>360.8</ele>
        <time>2026-07-02T10:10:52.000Z</time>
      </trkpt>
      <trkpt lat="45.72906" lon="3.24997">
        <ele>361</ele>
        <time>2026-07-02T10:10:54.000Z</time>
      </trkpt>
      <trkpt lat="45.72906" lon="3.25013">
        <ele>361</ele>
        <time>2026-07-02T10:10:56.000Z</time>
      </trkpt>
      <trkpt lat="45.72904" lon="3.25029">
        <ele>361</ele>
        <time>2026-07-02T10:10:58.000Z</time>
      </trkpt>
      <trkpt lat="45.72902" lon="3.25045">
        <ele>361</ele>
        <time>2026-07-02T10:11:00.000Z</time>
      </trkpt>
      <trkpt lat="45.729" lon="3.25061">
        <ele>361</ele>
        <time>2026-07-02T10:11:02.000Z</time>
      </trkpt>
      <trkpt lat="45.72897" lon="3.25077">
        <ele>361.2</ele>
        <time>2026-07-02T10:11:04.000Z</time>
      </trkpt>
      <trkpt lat="45.72894" lon="3.25092">
        <ele>361.2</ele>
        <time>2026-07-02T10:11:06.000Z</time>
      </trkpt>
      <trkpt lat="45.72889" lon="3.25107">
        <ele>361.4</ele>
        <time>2026-07-02T10:11:08.000Z</time>
      </trkpt>
      <trkpt lat="45.72885" lon="3.25122">
        <ele>361.4</ele>
        <time>2026-07-02T10:11:10.000Z</time>
      </trkpt>
      <trkpt lat="45.72881" lon="3.25137">
        <ele>361.4</ele>
        <time>2026-07-02T10:11:12.000Z</time>
      </trkpt>
      <trkpt lat="45.72876" lon="3.25152">
        <ele>361.6</ele>
        <time>2026-07-02T10:11:14.000Z</time>
      </trkpt>
      <trkpt lat="45.7287" lon="3.25166">
        <ele>361.8</ele>
        <time>2026-07-02T10:11:16.000Z</time>
      </trkpt>
      <trkpt lat="45.72864" lon="3.25181">
        <ele>361.8</ele>
        <time>2026-07-02T10:11:18.000Z</time>
      </trkpt>
      <trkpt lat="45.72857" lon="3.25194">
        <ele>362</ele>
        <time>2026-07-02T10:11:20.000Z</time>
      </trkpt>
      <trkpt lat="45.72851" lon="3.25207">
        <ele>362.2</ele>
        <time>2026-07-02T10:11:22.000Z</time>
      </trkpt>
      <trkpt lat="45.72843" lon="3.25219">
        <ele>362.4</ele>
        <time>2026-07-02T10:11:24.000Z</time>
      </trkpt>
      <trkpt lat="45.72836" lon="3.25231">
        <ele>362.4</ele>
        <time>2026-07-02T10:11:26.000Z</time>
      </trkpt>
      <trkpt lat="45.72828" lon="3.25242">
        <ele>362.8</ele>
        <time>2026-07-02T10:11:28.000Z</time>
      </trkpt>
      <trkpt lat="45.72821" lon="3.25252">
        <ele>363</ele>
        <time>2026-07-02T10:11:30.000Z</time>
      </trkpt>
      <trkpt lat="45.72814" lon="3.25263">
        <ele>363.2</ele>
        <time>2026-07-02T10:11:32.000Z</time>
      </trkpt>
      <trkpt lat="45.72806" lon="3.25273">
        <ele>363.4</ele>
        <time>2026-07-02T10:11:34.000Z</time>
      </trkpt>
      <trkpt lat="45.72799" lon="3.25284">
        <ele>363.8</ele>
        <time>2026-07-02T10:11:36.000Z</time>
      </trkpt>
      <trkpt lat="45.72791" lon="3.25294">
        <ele>364.2</ele>
        <time>2026-07-02T10:11:38.000Z</time>
      </trkpt>
      <trkpt lat="45.72784" lon="3.25304">
        <ele>364.4</ele>
        <time>2026-07-02T10:11:40.000Z</time>
      </trkpt>
      <trkpt lat="45.72777" lon="3.25314">
        <ele>364.8</ele>
        <time>2026-07-02T10:11:42.000Z</time>
      </trkpt>
      <trkpt lat="45.7277" lon="3.25324">
        <ele>365.2</ele>
        <time>2026-07-02T10:11:44.000Z</time>
      </trkpt>
      <trkpt lat="45.72762" lon="3.25334">
        <ele>365.6</ele>
        <time>2026-07-02T10:11:46.000Z</time>
      </trkpt>
      <trkpt lat="45.72755" lon="3.25345">
        <ele>366</ele>
        <time>2026-07-02T10:11:48.000Z</time>
      </trkpt>
      <trkpt lat="45.72747" lon="3.25355">
        <ele>366.2</ele>
        <time>2026-07-02T10:11:50.000Z</time>
      </trkpt>
      <trkpt lat="45.7274" lon="3.25366">
        <ele>366.6</ele>
        <time>2026-07-02T10:11:52.000Z</time>
      </trkpt>
      <trkpt lat="45.72732" lon="3.25376">
        <ele>367</ele>
        <time>2026-07-02T10:11:54.000Z</time>
      </trkpt>
      <trkpt lat="45.72725" lon="3.25387">
        <ele>367.2</ele>
        <time>2026-07-02T10:11:56.000Z</time>
      </trkpt>
      <trkpt lat="45.72718" lon="3.25397">
        <ele>367.4</ele>
        <time>2026-07-02T10:11:58.000Z</time>
      </trkpt>
      <trkpt lat="45.7271" lon="3.25407">
        <ele>367.6</ele>
        <time>2026-07-02T10:12:00.000Z</time>
      </trkpt>
      <trkpt lat="45.72703" lon="3.25417">
        <ele>368</ele>
        <time>2026-07-02T10:12:02.000Z</time>
      </trkpt>
      <trkpt lat="45.72696" lon="3.25428">
        <ele>368.4</ele>
        <time>2026-07-02T10:12:04.000Z</time>
      </trkpt>
      <trkpt lat="45.72688" lon="3.25438">
        <ele>368.6</ele>
        <time>2026-07-02T10:12:06.000Z</time>
      </trkpt>
      <trkpt lat="45.72681" lon="3.25448">
        <ele>369</ele>
        <time>2026-07-02T10:12:08.000Z</time>
      </trkpt>
      <trkpt lat="45.72673" lon="3.25459">
        <ele>369.2</ele>
        <time>2026-07-02T10:12:10.000Z</time>
      </trkpt>
      <trkpt lat="45.72666" lon="3.25469">
        <ele>369.4</ele>
        <time>2026-07-02T10:12:12.000Z</time>
      </trkpt>
      <trkpt lat="45.72659" lon="3.25478">
        <ele>369.8</ele>
        <time>2026-07-02T10:12:14.000Z</time>
      </trkpt>
      <trkpt lat="45.72652" lon="3.25488">
        <ele>370</ele>
        <time>2026-07-02T10:12:16.000Z</time>
      </trkpt>
      <trkpt lat="45.72645" lon="3.25498">
        <ele>370.4</ele>
        <time>2026-07-02T10:12:19.000Z</time>
      </trkpt>
      <trkpt lat="45.72638" lon="3.25507">
        <ele>370.6</ele>
        <time>2026-07-02T10:12:21.000Z</time>
      </trkpt>
      <trkpt lat="45.72632" lon="3.25517">
        <ele>371</ele>
        <time>2026-07-02T10:12:23.000Z</time>
      </trkpt>
      <trkpt lat="45.72625" lon="3.25527">
        <ele>371.2</ele>
        <time>2026-07-02T10:12:25.000Z</time>
      </trkpt>
      <trkpt lat="45.72618" lon="3.25536">
        <ele>371.6</ele>
        <time>2026-07-02T10:12:27.000Z</time>
      </trkpt>
      <trkpt lat="45.72611" lon="3.25546">
        <ele>371.8</ele>
        <time>2026-07-02T10:12:29.000Z</time>
      </trkpt>
      <trkpt lat="45.72605" lon="3.25555">
        <ele>372.2</ele>
        <time>2026-07-02T10:12:31.000Z</time>
      </trkpt>
      <trkpt lat="45.72599" lon="3.25564">
        <ele>372.6</ele>
        <time>2026-07-02T10:12:33.000Z</time>
      </trkpt>
      <trkpt lat="45.72592" lon="3.25573">
        <ele>372.8</ele>
        <time>2026-07-02T10:12:35.000Z</time>
      </trkpt>
      <trkpt lat="45.72585" lon="3.25582">
        <ele>373.2</ele>
        <time>2026-07-02T10:12:37.000Z</time>
      </trkpt>
      <trkpt lat="45.72579" lon="3.25591">
        <ele>373.4</ele>
        <time>2026-07-02T10:12:39.000Z</time>
      </trkpt>
      <trkpt lat="45.72572" lon="3.25601">
        <ele>373.6</ele>
        <time>2026-07-02T10:12:41.000Z</time>
      </trkpt>
      <trkpt lat="45.72566" lon="3.2561">
        <ele>373.8</ele>
        <time>2026-07-02T10:12:43.000Z</time>
      </trkpt>
      <trkpt lat="45.72559" lon="3.25619">
        <ele>374</ele>
        <time>2026-07-02T10:12:45.000Z</time>
      </trkpt>
      <trkpt lat="45.72553" lon="3.25628">
        <ele>374.4</ele>
        <time>2026-07-02T10:12:47.000Z</time>
      </trkpt>
      <trkpt lat="45.72546" lon="3.25637">
        <ele>374.6</ele>
        <time>2026-07-02T10:12:49.000Z</time>
      </trkpt>
      <trkpt lat="45.72539" lon="3.25647">
        <ele>375</ele>
        <time>2026-07-02T10:12:51.000Z</time>
      </trkpt>
      <trkpt lat="45.72532" lon="3.25657">
        <ele>375.2</ele>
        <time>2026-07-02T10:12:53.000Z</time>
      </trkpt>
      <trkpt lat="45.72525" lon="3.25667">
        <ele>375.6</ele>
        <time>2026-07-02T10:12:55.000Z</time>
      </trkpt>
      <trkpt lat="45.72518" lon="3.25676">
        <ele>375.8</ele>
        <time>2026-07-02T10:12:57.000Z</time>
      </trkpt>
      <trkpt lat="45.72511" lon="3.25686">
        <ele>376.2</ele>
        <time>2026-07-02T10:12:59.000Z</time>
      </trkpt>
      <trkpt lat="45.72504" lon="3.25696">
        <ele>376.4</ele>
        <time>2026-07-02T10:13:01.000Z</time>
      </trkpt>
      <trkpt lat="45.72497" lon="3.25706">
        <ele>376.6</ele>
        <time>2026-07-02T10:13:03.000Z</time>
      </trkpt>
      <trkpt lat="45.7249" lon="3.25715">
        <ele>376.8</ele>
        <time>2026-07-02T10:13:05.000Z</time>
      </trkpt>
      <trkpt lat="45.72483" lon="3.25725">
        <ele>377</ele>
        <time>2026-07-02T10:13:07.000Z</time>
      </trkpt>
      <trkpt lat="45.72477" lon="3.25734">
        <ele>377.4</ele>
        <time>2026-07-02T10:13:09.000Z</time>
      </trkpt>
      <trkpt lat="45.72469" lon="3.25744">
        <ele>377.8</ele>
        <time>2026-07-02T10:13:11.000Z</time>
      </trkpt>
      <trkpt lat="45.72462" lon="3.25754">
        <ele>378</ele>
        <time>2026-07-02T10:13:13.000Z</time>
      </trkpt>
      <trkpt lat="45.72455" lon="3.25764">
        <ele>378.2</ele>
        <time>2026-07-02T10:13:15.000Z</time>
      </trkpt>
      <trkpt lat="45.72447" lon="3.25774">
        <ele>378.6</ele>
        <time>2026-07-02T10:13:17.000Z</time>
      </trkpt>
      <trkpt lat="45.7244" lon="3.25784">
        <ele>378.6</ele>
        <time>2026-07-02T10:13:19.000Z</time>
      </trkpt>
      <trkpt lat="45.72433" lon="3.25794">
        <ele>379</ele>
        <time>2026-07-02T10:13:21.000Z</time>
      </trkpt>
      <trkpt lat="45.72426" lon="3.25804">
        <ele>379.2</ele>
        <time>2026-07-02T10:13:23.000Z</time>
      </trkpt>
      <trkpt lat="45.72419" lon="3.25815">
        <ele>379.2</ele>
        <time>2026-07-02T10:13:25.000Z</time>
      </trkpt>
      <trkpt lat="45.72412" lon="3.25825">
        <ele>379.4</ele>
        <time>2026-07-02T10:13:27.000Z</time>
      </trkpt>
      <trkpt lat="45.72404" lon="3.25836">
        <ele>379.4</ele>
        <time>2026-07-02T10:13:29.000Z</time>
      </trkpt>
      <trkpt lat="45.72396" lon="3.25846">
        <ele>379.4</ele>
        <time>2026-07-02T10:13:31.000Z</time>
      </trkpt>
      <trkpt lat="45.72389" lon="3.25857">
        <ele>379.6</ele>
        <time>2026-07-02T10:13:33.000Z</time>
      </trkpt>
      <trkpt lat="45.72381" lon="3.25867">
        <ele>379.6</ele>
        <time>2026-07-02T10:13:35.000Z</time>
      </trkpt>
      <trkpt lat="45.72374" lon="3.25877">
        <ele>379.6</ele>
        <time>2026-07-02T10:13:37.000Z</time>
      </trkpt>
      <trkpt lat="45.72367" lon="3.25887">
        <ele>379.6</ele>
        <time>2026-07-02T10:13:39.000Z</time>
      </trkpt>
      <trkpt lat="45.72359" lon="3.25898">
        <ele>379.6</ele>
        <time>2026-07-02T10:13:41.000Z</time>
      </trkpt>
      <trkpt lat="45.72352" lon="3.25908">
        <ele>379.6</ele>
        <time>2026-07-02T10:13:43.000Z</time>
      </trkpt>
      <trkpt lat="45.72344" lon="3.25919">
        <ele>379.4</ele>
        <time>2026-07-02T10:13:45.000Z</time>
      </trkpt>
      <trkpt lat="45.72336" lon="3.2593">
        <ele>379.4</ele>
        <time>2026-07-02T10:13:47.000Z</time>
      </trkpt>
      <trkpt lat="45.72328" lon="3.25941">
        <ele>379.2</ele>
        <time>2026-07-02T10:13:49.000Z</time>
      </trkpt>
      <trkpt lat="45.7232" lon="3.25953">
        <ele>379.2</ele>
        <time>2026-07-02T10:13:51.000Z</time>
      </trkpt>
      <trkpt lat="45.72311" lon="3.25965">
        <ele>379.2</ele>
        <time>2026-07-02T10:13:53.000Z</time>
      </trkpt>
      <trkpt lat="45.72303" lon="3.25977">
        <ele>379.2</ele>
        <time>2026-07-02T10:13:55.000Z</time>
      </trkpt>
      <trkpt lat="45.72294" lon="3.25988">
        <ele>379.2</ele>
        <time>2026-07-02T10:13:57.000Z</time>
      </trkpt>
      <trkpt lat="45.72285" lon="3.26">
        <ele>379</ele>
        <time>2026-07-02T10:13:59.000Z</time>
      </trkpt>
      <trkpt lat="45.72276" lon="3.26012">
        <ele>378.8</ele>
        <time>2026-07-02T10:14:01.000Z</time>
      </trkpt>
      <trkpt lat="45.72268" lon="3.26025">
        <ele>378.6</ele>
        <time>2026-07-02T10:14:03.000Z</time>
      </trkpt>
      <trkpt lat="45.72259" lon="3.26038">
        <ele>378.4</ele>
        <time>2026-07-02T10:14:05.000Z</time>
      </trkpt>
      <trkpt lat="45.72251" lon="3.26052">
        <ele>378</ele>
        <time>2026-07-02T10:14:07.000Z</time>
      </trkpt>
      <trkpt lat="45.72244" lon="3.26068">
        <ele>377.8</ele>
        <time>2026-07-02T10:14:09.000Z</time>
      </trkpt>
      <trkpt lat="45.72237" lon="3.26084">
        <ele>377.6</ele>
        <time>2026-07-02T10:14:11.000Z</time>
      </trkpt>
      <trkpt lat="45.7223" lon="3.26101">
        <ele>377.2</ele>
        <time>2026-07-02T10:14:13.000Z</time>
      </trkpt>
      <trkpt lat="45.72224" lon="3.26119">
        <ele>377</ele>
        <time>2026-07-02T10:14:15.000Z</time>
      </trkpt>
      <trkpt lat="45.72219" lon="3.26137">
        <ele>376.8</ele>
        <time>2026-07-02T10:14:17.000Z</time>
      </trkpt>
      <trkpt lat="45.72214" lon="3.26156">
        <ele>376.6</ele>
        <time>2026-07-02T10:14:19.000Z</time>
      </trkpt>
      <trkpt lat="45.7221" lon="3.26175">
        <ele>376.4</ele>
        <time>2026-07-02T10:14:21.000Z</time>
      </trkpt>
      <trkpt lat="45.72207" lon="3.26195">
        <ele>376</ele>
        <time>2026-07-02T10:14:23.000Z</time>
      </trkpt>
      <trkpt lat="45.72205" lon="3.26215">
        <ele>375.6</ele>
        <time>2026-07-02T10:14:25.000Z</time>
      </trkpt>
      <trkpt lat="45.72204" lon="3.26236">
        <ele>375.2</ele>
        <time>2026-07-02T10:14:27.000Z</time>
      </trkpt>
      <trkpt lat="45.72203" lon="3.26256">
        <ele>374.8</ele>
        <time>2026-07-02T10:14:29.000Z</time>
      </trkpt>
      <trkpt lat="45.72203" lon="3.26277">
        <ele>374.6</ele>
        <time>2026-07-02T10:14:31.000Z</time>
      </trkpt>
      <trkpt lat="45.72203" lon="3.26298">
        <ele>374.4</ele>
        <time>2026-07-02T10:14:33.000Z</time>
      </trkpt>
      <trkpt lat="45.72203" lon="3.26319">
        <ele>374.2</ele>
        <time>2026-07-02T10:14:35.000Z</time>
      </trkpt>
      <trkpt lat="45.72202" lon="3.2634">
        <ele>374.2</ele>
        <time>2026-07-02T10:14:37.000Z</time>
      </trkpt>
      <trkpt lat="45.72202" lon="3.26361">
        <ele>374</ele>
        <time>2026-07-02T10:14:39.000Z</time>
      </trkpt>
      <trkpt lat="45.72202" lon="3.26383">
        <ele>373.8</ele>
        <time>2026-07-02T10:14:41.000Z</time>
      </trkpt>
      <trkpt lat="45.72201" lon="3.26404">
        <ele>373.8</ele>
        <time>2026-07-02T10:14:43.000Z</time>
      </trkpt>
      <trkpt lat="45.72201" lon="3.26426">
        <ele>373.6</ele>
        <time>2026-07-02T10:14:45.000Z</time>
      </trkpt>
      <trkpt lat="45.722" lon="3.26448">
        <ele>373.4</ele>
        <time>2026-07-02T10:14:47.000Z</time>
      </trkpt>
      <trkpt lat="45.722" lon="3.2647">
        <ele>373.4</ele>
        <time>2026-07-02T10:14:49.000Z</time>
      </trkpt>
      <trkpt lat="45.722" lon="3.26493">
        <ele>373.2</ele>
        <time>2026-07-02T10:14:51.000Z</time>
      </trkpt>
      <trkpt lat="45.722" lon="3.26516">
        <ele>373</ele>
        <time>2026-07-02T10:14:53.000Z</time>
      </trkpt>
      <trkpt lat="45.72199" lon="3.26538">
        <ele>372.8</ele>
        <time>2026-07-02T10:14:55.000Z</time>
      </trkpt>
      <trkpt lat="45.72199" lon="3.26561">
        <ele>372.6</ele>
        <time>2026-07-02T10:14:57.000Z</time>
      </trkpt>
      <trkpt lat="45.72198" lon="3.26583">
        <ele>372.4</ele>
        <time>2026-07-02T10:14:59.000Z</time>
      </trkpt>
      <trkpt lat="45.72198" lon="3.26604">
        <ele>372.6</ele>
        <time>2026-07-02T10:15:01.000Z</time>
      </trkpt>
      <trkpt lat="45.72198" lon="3.26624">
        <ele>372.6</ele>
        <time>2026-07-02T10:15:03.000Z</time>
      </trkpt>
      <trkpt lat="45.72198" lon="3.26644">
        <ele>372.6</ele>
        <time>2026-07-02T10:15:05.000Z</time>
      </trkpt>
      <trkpt lat="45.72198" lon="3.26664">
        <ele>372.8</ele>
        <time>2026-07-02T10:15:07.000Z</time>
      </trkpt>
      <trkpt lat="45.72197" lon="3.26684">
        <ele>373</ele>
        <time>2026-07-02T10:15:09.000Z</time>
      </trkpt>
      <trkpt lat="45.72196" lon="3.26703">
        <ele>373.2</ele>
        <time>2026-07-02T10:15:11.000Z</time>
      </trkpt>
      <trkpt lat="45.72196" lon="3.26723">
        <ele>373.4</ele>
        <time>2026-07-02T10:15:13.000Z</time>
      </trkpt>
      <trkpt lat="45.72196" lon="3.26742">
        <ele>373.6</ele>
        <time>2026-07-02T10:15:15.000Z</time>
      </trkpt>
      <trkpt lat="45.72195" lon="3.26762">
        <ele>373.6</ele>
        <time>2026-07-02T10:15:17.000Z</time>
      </trkpt>
      <trkpt lat="45.72195" lon="3.26781">
        <ele>373.8</ele>
        <time>2026-07-02T10:15:19.000Z</time>
      </trkpt>
      <trkpt lat="45.72194" lon="3.268">
        <ele>373.8</ele>
        <time>2026-07-02T10:15:21.000Z</time>
      </trkpt>
      <trkpt lat="45.72194" lon="3.26819">
        <ele>374</ele>
        <time>2026-07-02T10:15:23.000Z</time>
      </trkpt>
      <trkpt lat="45.72194" lon="3.26837">
        <ele>374</ele>
        <time>2026-07-02T10:15:25.000Z</time>
      </trkpt>
      <trkpt lat="45.72193" lon="3.26856">
        <ele>374</ele>
        <time>2026-07-02T10:15:27.000Z</time>
      </trkpt>
      <trkpt lat="45.72193" lon="3.26875">
        <ele>374</ele>
        <time>2026-07-02T10:15:29.000Z</time>
      </trkpt>
      <trkpt lat="45.72192" lon="3.26894">
        <ele>374</ele>
        <time>2026-07-02T10:15:31.000Z</time>
      </trkpt>
      <trkpt lat="45.72192" lon="3.26913">
        <ele>374</ele>
        <time>2026-07-02T10:15:33.000Z</time>
      </trkpt>
      <trkpt lat="45.72192" lon="3.26933">
        <ele>374</ele>
        <time>2026-07-02T10:15:35.000Z</time>
      </trkpt>
      <trkpt lat="45.72192" lon="3.26952">
        <ele>374</ele>
        <time>2026-07-02T10:15:37.000Z</time>
      </trkpt>
      <trkpt lat="45.72191" lon="3.26973">
        <ele>374</ele>
        <time>2026-07-02T10:15:39.000Z</time>
      </trkpt>
      <trkpt lat="45.72191" lon="3.26993">
        <ele>374.2</ele>
        <time>2026-07-02T10:15:41.000Z</time>
      </trkpt>
      <trkpt lat="45.7219" lon="3.27013">
        <ele>374.2</ele>
        <time>2026-07-02T10:15:43.000Z</time>
      </trkpt>
      <trkpt lat="45.7219" lon="3.27033">
        <ele>374.4</ele>
        <time>2026-07-02T10:15:45.000Z</time>
      </trkpt>
      <trkpt lat="45.7219" lon="3.27053">
        <ele>374.2</ele>
        <time>2026-07-02T10:15:47.000Z</time>
      </trkpt>
      <trkpt lat="45.72189" lon="3.27073">
        <ele>374.2</ele>
        <time>2026-07-02T10:15:49.000Z</time>
      </trkpt>
      <trkpt lat="45.72189" lon="3.27093">
        <ele>374</ele>
        <time>2026-07-02T10:15:51.000Z</time>
      </trkpt>
      <trkpt lat="45.72188" lon="3.27113">
        <ele>374</ele>
        <time>2026-07-02T10:15:53.000Z</time>
      </trkpt>
      <trkpt lat="45.72188" lon="3.27133">
        <ele>373.8</ele>
        <time>2026-07-02T10:15:55.000Z</time>
      </trkpt>
      <trkpt lat="45.72188" lon="3.27153">
        <ele>374</ele>
        <time>2026-07-02T10:15:57.000Z</time>
      </trkpt>
      <trkpt lat="45.72187" lon="3.27173">
        <ele>374</ele>
        <time>2026-07-02T10:15:59.000Z</time>
      </trkpt>
      <trkpt lat="45.72187" lon="3.27194">
        <ele>373.8</ele>
        <time>2026-07-02T10:16:01.000Z</time>
      </trkpt>
      <trkpt lat="45.72186" lon="3.27214">
        <ele>373.8</ele>
        <time>2026-07-02T10:16:03.000Z</time>
      </trkpt>
      <trkpt lat="45.72186" lon="3.27234">
        <ele>373.8</ele>
        <time>2026-07-02T10:16:05.000Z</time>
      </trkpt>
      <trkpt lat="45.72186" lon="3.27253">
        <ele>373.8</ele>
        <time>2026-07-02T10:16:07.000Z</time>
      </trkpt>
      <trkpt lat="45.72186" lon="3.27273">
        <ele>373.6</ele>
        <time>2026-07-02T10:16:09.000Z</time>
      </trkpt>
      <trkpt lat="45.72185" lon="3.27293">
        <ele>373.6</ele>
        <time>2026-07-02T10:16:11.000Z</time>
      </trkpt>
      <trkpt lat="45.72185" lon="3.27311">
        <ele>373.4</ele>
        <time>2026-07-02T10:16:13.000Z</time>
      </trkpt>
      <trkpt lat="45.72185" lon="3.2733">
        <ele>373.4</ele>
        <time>2026-07-02T10:16:15.000Z</time>
      </trkpt>
      <trkpt lat="45.72184" lon="3.27348">
        <ele>373.4</ele>
        <time>2026-07-02T10:16:17.000Z</time>
      </trkpt>
      <trkpt lat="45.72185" lon="3.27365">
        <ele>373.6</ele>
        <time>2026-07-02T10:16:19.000Z</time>
      </trkpt>
      <trkpt lat="45.72185" lon="3.27382">
        <ele>373.8</ele>
        <time>2026-07-02T10:16:21.000Z</time>
      </trkpt>
      <trkpt lat="45.72187" lon="3.27399">
        <ele>373.8</ele>
        <time>2026-07-02T10:16:23.000Z</time>
      </trkpt>
      <trkpt lat="45.72188" lon="3.27415">
        <ele>374.2</ele>
        <time>2026-07-02T10:16:25.000Z</time>
      </trkpt>
      <trkpt lat="45.7219" lon="3.2743">
        <ele>374.4</ele>
        <time>2026-07-02T10:16:27.000Z</time>
      </trkpt>
      <trkpt lat="45.72192" lon="3.27445">
        <ele>374.6</ele>
        <time>2026-07-02T10:16:29.000Z</time>
      </trkpt>
      <trkpt lat="45.72195" lon="3.27459">
        <ele>374.8</ele>
        <time>2026-07-02T10:16:31.000Z</time>
      </trkpt>
      <trkpt lat="45.72198" lon="3.27472">
        <ele>375</ele>
        <time>2026-07-02T10:16:33.000Z</time>
      </trkpt>
      <trkpt lat="45.72201" lon="3.27485">
        <ele>375.2</ele>
        <time>2026-07-02T10:16:35.000Z</time>
      </trkpt>
      <trkpt lat="45.72203" lon="3.27497">
        <ele>375.6</ele>
        <time>2026-07-02T10:16:37.000Z</time>
      </trkpt>
      <trkpt lat="45.72207" lon="3.27508">
        <ele>376</ele>
        <time>2026-07-02T10:16:39.000Z</time>
      </trkpt>
      <trkpt lat="45.72211" lon="3.27519">
        <ele>376.4</ele>
        <time>2026-07-02T10:16:41.000Z</time>
      </trkpt>
      <trkpt lat="45.72214" lon="3.2753">
        <ele>376.6</ele>
        <time>2026-07-02T10:16:43.000Z</time>
      </trkpt>
      <trkpt lat="45.72218" lon="3.27541">
        <ele>376.8</ele>
        <time>2026-07-02T10:16:45.000Z</time>
      </trkpt>
      <trkpt lat="45.72223" lon="3.27552">
        <ele>377.2</ele>
        <time>2026-07-02T10:16:47.000Z</time>
      </trkpt>
      <trkpt lat="45.72227" lon="3.27562">
        <ele>377.2</ele>
        <time>2026-07-02T10:16:49.000Z</time>
      </trkpt>
      <trkpt lat="45.72233" lon="3.27573">
        <ele>377.6</ele>
        <time>2026-07-02T10:16:51.000Z</time>
      </trkpt>
      <trkpt lat="45.72238" lon="3.27583">
        <ele>377.8</ele>
        <time>2026-07-02T10:16:53.000Z</time>
      </trkpt>
      <trkpt lat="45.72243" lon="3.27593">
        <ele>378</ele>
        <time>2026-07-02T10:16:55.000Z</time>
      </trkpt>
      <trkpt lat="45.72248" lon="3.27603">
        <ele>378.4</ele>
        <time>2026-07-02T10:16:57.000Z</time>
      </trkpt>
      <trkpt lat="45.72254" lon="3.27612">
        <ele>378.6</ele>
        <time>2026-07-02T10:16:59.000Z</time>
      </trkpt>
      <trkpt lat="45.7226" lon="3.27621">
        <ele>378.8</ele>
        <time>2026-07-02T10:17:01.000Z</time>
      </trkpt>
      <trkpt lat="45.72265" lon="3.27629">
        <ele>379</ele>
        <time>2026-07-02T10:17:03.000Z</time>
      </trkpt>
      <trkpt lat="45.72271" lon="3.27638">
        <ele>379.2</ele>
        <time>2026-07-02T10:17:05.000Z</time>
      </trkpt>
      <trkpt lat="45.72278" lon="3.27645">
        <ele>379.6</ele>
        <time>2026-07-02T10:17:07.000Z</time>
      </trkpt>
      <trkpt lat="45.72284" lon="3.27653">
        <ele>379.6</ele>
        <time>2026-07-02T10:17:09.000Z</time>
      </trkpt>
      <trkpt lat="45.72291" lon="3.27661">
        <ele>379.8</ele>
        <time>2026-07-02T10:17:11.000Z</time>
      </trkpt>
      <trkpt lat="45.72298" lon="3.27668">
        <ele>380.2</ele>
        <time>2026-07-02T10:17:13.000Z</time>
      </trkpt>
      <trkpt lat="45.72304" lon="3.27674">
        <ele>380.4</ele>
        <time>2026-07-02T10:17:15.000Z</time>
      </trkpt>
      <trkpt lat="45.72311" lon="3.2768">
        <ele>380.8</ele>
        <time>2026-07-02T10:17:17.000Z</time>
      </trkpt>
      <trkpt lat="45.72318" lon="3.27687">
        <ele>381.2</ele>
        <time>2026-07-02T10:17:19.000Z</time>
      </trkpt>
      <trkpt lat="45.72325" lon="3.27693">
        <ele>381.4</ele>
        <time>2026-07-02T10:17:21.000Z</time>
      </trkpt>
      <trkpt lat="45.72332" lon="3.27698">
        <ele>381.6</ele>
        <time>2026-07-02T10:17:23.000Z</time>
      </trkpt>
      <trkpt lat="45.72338" lon="3.27704">
        <ele>381.6</ele>
        <time>2026-07-02T10:17:25.000Z</time>
      </trkpt>
      <trkpt lat="45.72345" lon="3.2771">
        <ele>381.8</ele>
        <time>2026-07-02T10:17:27.000Z</time>
      </trkpt>
      <trkpt lat="45.72352" lon="3.27715">
        <ele>382</ele>
        <time>2026-07-02T10:17:29.000Z</time>
      </trkpt>
      <trkpt lat="45.72359" lon="3.2772">
        <ele>382.2</ele>
        <time>2026-07-02T10:17:31.000Z</time>
      </trkpt>
      <trkpt lat="45.72366" lon="3.27726">
        <ele>382.4</ele>
        <time>2026-07-02T10:17:33.000Z</time>
      </trkpt>
      <trkpt lat="45.72373" lon="3.27732">
        <ele>382.6</ele>
        <time>2026-07-02T10:17:35.000Z</time>
      </trkpt>
      <trkpt lat="45.7238" lon="3.27738">
        <ele>382.8</ele>
        <time>2026-07-02T10:17:37.000Z</time>
      </trkpt>
      <trkpt lat="45.72387" lon="3.27744">
        <ele>383</ele>
        <time>2026-07-02T10:17:39.000Z</time>
      </trkpt>
      <trkpt lat="45.72393" lon="3.2775">
        <ele>383.4</ele>
        <time>2026-07-02T10:17:41.000Z</time>
      </trkpt>
      <trkpt lat="45.724" lon="3.27757">
        <ele>383.6</ele>
        <time>2026-07-02T10:17:43.000Z</time>
      </trkpt>
      <trkpt lat="45.72407" lon="3.27763">
        <ele>383.8</ele>
        <time>2026-07-02T10:17:45.000Z</time>
      </trkpt>
      <trkpt lat="45.72414" lon="3.2777">
        <ele>384</ele>
        <time>2026-07-02T10:17:47.000Z</time>
      </trkpt>
      <trkpt lat="45.7242" lon="3.27777">
        <ele>384.2</ele>
        <time>2026-07-02T10:17:49.000Z</time>
      </trkpt>
      <trkpt lat="45.72427" lon="3.27783">
        <ele>384.2</ele>
        <time>2026-07-02T10:17:51.000Z</time>
      </trkpt>
      <trkpt lat="45.72434" lon="3.2779">
        <ele>384.4</ele>
        <time>2026-07-02T10:17:53.000Z</time>
      </trkpt>
      <trkpt lat="45.7244" lon="3.27796">
        <ele>384.6</ele>
        <time>2026-07-02T10:17:55.000Z</time>
      </trkpt>
      <trkpt lat="45.72446" lon="3.27803">
        <ele>384.8</ele>
        <time>2026-07-02T10:17:57.000Z</time>
      </trkpt>
      <trkpt lat="45.72452" lon="3.2781">
        <ele>385</ele>
        <time>2026-07-02T10:17:59.000Z</time>
      </trkpt>
      <trkpt lat="45.72457" lon="3.27818">
        <ele>385.2</ele>
        <time>2026-07-02T10:18:01.000Z</time>
      </trkpt>
      <trkpt lat="45.72462" lon="3.27826">
        <ele>385.4</ele>
        <time>2026-07-02T10:18:03.000Z</time>
      </trkpt>
      <trkpt lat="45.72465" lon="3.27836">
        <ele>385.8</ele>
        <time>2026-07-02T10:18:05.000Z</time>
      </trkpt>
      <trkpt lat="45.72461" lon="3.27847">
        <ele>386</ele>
        <time>2026-07-02T10:18:07.000Z</time>
      </trkpt>
      <trkpt lat="45.72454" lon="3.27852">
        <ele>386.2</ele>
        <time>2026-07-02T10:18:09.000Z</time>
      </trkpt>
      <trkpt lat="45.72446" lon="3.27852">
        <ele>386.2</ele>
        <time>2026-07-02T10:18:11.000Z</time>
      </trkpt>
      <trkpt lat="45.72438" lon="3.27847">
        <ele>386.4</ele>
        <time>2026-07-02T10:18:13.000Z</time>
      </trkpt>
      <trkpt lat="45.72431" lon="3.2784">
        <ele>386.4</ele>
        <time>2026-07-02T10:18:15.000Z</time>
      </trkpt>
      <trkpt lat="45.72425" lon="3.27831">
        <ele>386.6</ele>
        <time>2026-07-02T10:18:17.000Z</time>
      </trkpt>
      <trkpt lat="45.72418" lon="3.27824">
        <ele>386.8</ele>
        <time>2026-07-02T10:18:19.000Z</time>
      </trkpt>
      <trkpt lat="45.72412" lon="3.27816">
        <ele>387</ele>
        <time>2026-07-02T10:18:21.000Z</time>
      </trkpt>
      <trkpt lat="45.72404" lon="3.27808">
        <ele>387</ele>
        <time>2026-07-02T10:18:23.000Z</time>
      </trkpt>
      <trkpt lat="45.72397" lon="3.27801">
        <ele>387.2</ele>
        <time>2026-07-02T10:18:25.000Z</time>
      </trkpt>
      <trkpt lat="45.72388" lon="3.27795">
        <ele>387.4</ele>
        <time>2026-07-02T10:18:27.000Z</time>
      </trkpt>
      <trkpt lat="45.7238" lon="3.27789">
        <ele>387.4</ele>
        <time>2026-07-02T10:18:29.000Z</time>
      </trkpt>
      <trkpt lat="45.72371" lon="3.27783">
        <ele>387.6</ele>
        <time>2026-07-02T10:18:31.000Z</time>
      </trkpt>
      <trkpt lat="45.72362" lon="3.27777">
        <ele>387.6</ele>
        <time>2026-07-02T10:18:33.000Z</time>
      </trkpt>
      <trkpt lat="45.72353" lon="3.27772">
        <ele>387.6</ele>
        <time>2026-07-02T10:18:35.000Z</time>
      </trkpt>
      <trkpt lat="45.72345" lon="3.27766">
        <ele>387.8</ele>
        <time>2026-07-02T10:18:37.000Z</time>
      </trkpt>
      <trkpt lat="45.72336" lon="3.27761">
        <ele>387.8</ele>
        <time>2026-07-02T10:18:39.000Z</time>
      </trkpt>
      <trkpt lat="45.72327" lon="3.27755">
        <ele>388</ele>
        <time>2026-07-02T10:18:41.000Z</time>
      </trkpt>
      <trkpt lat="45.72319" lon="3.27749">
        <ele>388</ele>
        <time>2026-07-02T10:18:43.000Z</time>
      </trkpt>
      <trkpt lat="45.7231" lon="3.27744">
        <ele>388.2</ele>
        <time>2026-07-02T10:18:45.000Z</time>
      </trkpt>
      <trkpt lat="45.72301" lon="3.27738">
        <ele>388.2</ele>
        <time>2026-07-02T10:18:47.000Z</time>
      </trkpt>
      <trkpt lat="45.72293" lon="3.27733">
        <ele>388.4</ele>
        <time>2026-07-02T10:18:49.000Z</time>
      </trkpt>
      <trkpt lat="45.72284" lon="3.27727">
        <ele>388.4</ele>
        <time>2026-07-02T10:18:51.000Z</time>
      </trkpt>
      <trkpt lat="45.72275" lon="3.27721">
        <ele>388.6</ele>
        <time>2026-07-02T10:18:53.000Z</time>
      </trkpt>
      <trkpt lat="45.72266" lon="3.27715">
        <ele>388.8</ele>
        <time>2026-07-02T10:18:55.000Z</time>
      </trkpt>
      <trkpt lat="45.72257" lon="3.27709">
        <ele>388.8</ele>
        <time>2026-07-02T10:18:57.000Z</time>
      </trkpt>
      <trkpt lat="45.72248" lon="3.27703">
        <ele>389</ele>
        <time>2026-07-02T10:18:59.000Z</time>
      </trkpt>
      <trkpt lat="45.7224" lon="3.27698">
        <ele>389</ele>
        <time>2026-07-02T10:19:01.000Z</time>
      </trkpt>
      <trkpt lat="45.72232" lon="3.27692">
        <ele>389.2</ele>
        <time>2026-07-02T10:19:03.000Z</time>
      </trkpt>
      <trkpt lat="45.72223" lon="3.27687">
        <ele>389.4</ele>
        <time>2026-07-02T10:19:05.000Z</time>
      </trkpt>
      <trkpt lat="45.72215" lon="3.27681">
        <ele>389.6</ele>
        <time>2026-07-02T10:19:07.000Z</time>
      </trkpt>
      <trkpt lat="45.72206" lon="3.27676">
        <ele>389.6</ele>
        <time>2026-07-02T10:19:09.000Z</time>
      </trkpt>
      <trkpt lat="45.72198" lon="3.27671">
        <ele>389.8</ele>
        <time>2026-07-02T10:19:11.000Z</time>
      </trkpt>
      <trkpt lat="45.7219" lon="3.27665">
        <ele>390</ele>
        <time>2026-07-02T10:19:13.000Z</time>
      </trkpt>
      <trkpt lat="45.72182" lon="3.2766">
        <ele>390.2</ele>
        <time>2026-07-02T10:19:15.000Z</time>
      </trkpt>
      <trkpt lat="45.72173" lon="3.27654">
        <ele>390.4</ele>
        <time>2026-07-02T10:19:17.000Z</time>
      </trkpt>
      <trkpt lat="45.72165" lon="3.27649">
        <ele>390.6</ele>
        <time>2026-07-02T10:19:19.000Z</time>
      </trkpt>
      <trkpt lat="45.72156" lon="3.27643">
        <ele>390.8</ele>
        <time>2026-07-02T10:19:21.000Z</time>
      </trkpt>
      <trkpt lat="45.72148" lon="3.27638">
        <ele>391</ele>
        <time>2026-07-02T10:19:23.000Z</time>
      </trkpt>
      <trkpt lat="45.7214" lon="3.27633">
        <ele>391.4</ele>
        <time>2026-07-02T10:19:25.000Z</time>
      </trkpt>
      <trkpt lat="45.72131" lon="3.27627">
        <ele>391.6</ele>
        <time>2026-07-02T10:19:27.000Z</time>
      </trkpt>
      <trkpt lat="45.72123" lon="3.27622">
        <ele>391.6</ele>
        <time>2026-07-02T10:19:29.000Z</time>
      </trkpt>
      <trkpt lat="45.72114" lon="3.27616">
        <ele>391.8</ele>
        <time>2026-07-02T10:19:31.000Z</time>
      </trkpt>
      <trkpt lat="45.72106" lon="3.27611">
        <ele>391.8</ele>
        <time>2026-07-02T10:19:33.000Z</time>
      </trkpt>
      <trkpt lat="45.72097" lon="3.27605">
        <ele>391.8</ele>
        <time>2026-07-02T10:19:35.000Z</time>
      </trkpt>
      <trkpt lat="45.72089" lon="3.276">
        <ele>392</ele>
        <time>2026-07-02T10:19:37.000Z</time>
      </trkpt>
      <trkpt lat="45.7208" lon="3.27594">
        <ele>392.2</ele>
        <time>2026-07-02T10:19:39.000Z</time>
      </trkpt>
      <trkpt lat="45.72071" lon="3.27588">
        <ele>392.2</ele>
        <time>2026-07-02T10:19:41.000Z</time>
      </trkpt>
      <trkpt lat="45.72063" lon="3.27582">
        <ele>392.2</ele>
        <time>2026-07-02T10:19:43.000Z</time>
      </trkpt>
      <trkpt lat="45.72054" lon="3.27577">
        <ele>392.4</ele>
        <time>2026-07-02T10:19:45.000Z</time>
      </trkpt>
      <trkpt lat="45.72046" lon="3.27572">
        <ele>392.4</ele>
        <time>2026-07-02T10:19:47.000Z</time>
      </trkpt>
      <trkpt lat="45.72036" lon="3.27566">
        <ele>392.4</ele>
        <time>2026-07-02T10:19:49.000Z</time>
      </trkpt>
      <trkpt lat="45.72027" lon="3.27562">
        <ele>392.6</ele>
        <time>2026-07-02T10:19:51.000Z</time>
      </trkpt>
      <trkpt lat="45.72018" lon="3.27558">
        <ele>392.6</ele>
        <time>2026-07-02T10:19:53.000Z</time>
      </trkpt>
      <trkpt lat="45.72009" lon="3.27553">
        <ele>392.8</ele>
        <time>2026-07-02T10:19:55.000Z</time>
      </trkpt>
      <trkpt lat="45.72" lon="3.27549">
        <ele>392.8</ele>
        <time>2026-07-02T10:19:57.000Z</time>
      </trkpt>
      <trkpt lat="45.71991" lon="3.27545">
        <ele>393</ele>
        <time>2026-07-02T10:19:59.000Z</time>
      </trkpt>
      <trkpt lat="45.71982" lon="3.2754">
        <ele>393</ele>
        <time>2026-07-02T10:20:01.000Z</time>
      </trkpt>
      <trkpt lat="45.71973" lon="3.27536">
        <ele>393.2</ele>
        <time>2026-07-02T10:20:03.000Z</time>
      </trkpt>
      <trkpt lat="45.71965" lon="3.27532">
        <ele>393.4</ele>
        <time>2026-07-02T10:20:05.000Z</time>
      </trkpt>
      <trkpt lat="45.71956" lon="3.27528">
        <ele>393.6</ele>
        <time>2026-07-02T10:20:07.000Z</time>
      </trkpt>
      <trkpt lat="45.71947" lon="3.27524">
        <ele>393.6</ele>
        <time>2026-07-02T10:20:09.000Z</time>
      </trkpt>
      <trkpt lat="45.71939" lon="3.2752">
        <ele>393.8</ele>
        <time>2026-07-02T10:20:11.000Z</time>
      </trkpt>
      <trkpt lat="45.71931" lon="3.27517">
        <ele>394</ele>
        <time>2026-07-02T10:20:13.000Z</time>
      </trkpt>
      <trkpt lat="45.71922" lon="3.27513">
        <ele>394.2</ele>
        <time>2026-07-02T10:20:15.000Z</time>
      </trkpt>
      <trkpt lat="45.71915" lon="3.27509">
        <ele>394.4</ele>
        <time>2026-07-02T10:20:17.000Z</time>
      </trkpt>
      <trkpt lat="45.71907" lon="3.27505">
        <ele>394.8</ele>
        <time>2026-07-02T10:20:19.000Z</time>
      </trkpt>
      <trkpt lat="45.71899" lon="3.27502">
        <ele>395</ele>
        <time>2026-07-02T10:20:21.000Z</time>
      </trkpt>
      <trkpt lat="45.71891" lon="3.27498">
        <ele>395.2</ele>
        <time>2026-07-02T10:20:23.000Z</time>
      </trkpt>
      <trkpt lat="45.71884" lon="3.27495">
        <ele>395.4</ele>
        <time>2026-07-02T10:20:25.000Z</time>
      </trkpt>
      <trkpt lat="45.71876" lon="3.27491">
        <ele>395.8</ele>
        <time>2026-07-02T10:20:27.000Z</time>
      </trkpt>
      <trkpt lat="45.71869" lon="3.27488">
        <ele>396</ele>
        <time>2026-07-02T10:20:29.000Z</time>
      </trkpt>
      <trkpt lat="45.71861" lon="3.27484">
        <ele>396.2</ele>
        <time>2026-07-02T10:20:31.000Z</time>
      </trkpt>
      <trkpt lat="45.71853" lon="3.27481">
        <ele>396.6</ele>
        <time>2026-07-02T10:20:33.000Z</time>
      </trkpt>
      <trkpt lat="45.71845" lon="3.27477">
        <ele>396.8</ele>
        <time>2026-07-02T10:20:35.000Z</time>
      </trkpt>
      <trkpt lat="45.71838" lon="3.27474">
        <ele>397.2</ele>
        <time>2026-07-02T10:20:37.000Z</time>
      </trkpt>
      <trkpt lat="45.7183" lon="3.2747">
        <ele>397.4</ele>
        <time>2026-07-02T10:20:39.000Z</time>
      </trkpt>
      <trkpt lat="45.71823" lon="3.27467">
        <ele>397.6</ele>
        <time>2026-07-02T10:20:41.000Z</time>
      </trkpt>
      <trkpt lat="45.71815" lon="3.27463">
        <ele>398</ele>
        <time>2026-07-02T10:20:43.000Z</time>
      </trkpt>
      <trkpt lat="45.71808" lon="3.2746">
        <ele>398.2</ele>
        <time>2026-07-02T10:20:45.000Z</time>
      </trkpt>
      <trkpt lat="45.718" lon="3.27456">
        <ele>398.4</ele>
        <time>2026-07-02T10:20:47.000Z</time>
      </trkpt>
      <trkpt lat="45.71792" lon="3.27452">
        <ele>399</ele>
        <time>2026-07-02T10:20:49.000Z</time>
      </trkpt>
      <trkpt lat="45.71781" lon="3.27447">
        <ele>399.4</ele>
        <time>2026-07-02T10:20:52.000Z</time>
      </trkpt>
      <trkpt lat="45.71769" lon="3.27441">
        <ele>399.8</ele>
        <time>2026-07-02T10:20:54.000Z</time>
      </trkpt>
      <trkpt lat="45.71761" lon="3.27438">
        <ele>400</ele>
        <time>2026-07-02T10:20:56.000Z</time>
      </trkpt>
      <trkpt lat="45.71753" lon="3.27434">
        <ele>400.2</ele>
        <time>2026-07-02T10:20:58.000Z</time>
      </trkpt>
      <trkpt lat="45.71746" lon="3.2743">
        <ele>400.4</ele>
        <time>2026-07-02T10:21:00.000Z</time>
      </trkpt>
      <trkpt lat="45.71738" lon="3.27427">
        <ele>400.6</ele>
        <time>2026-07-02T10:21:02.000Z</time>
      </trkpt>
      <trkpt lat="45.7173" lon="3.27423">
        <ele>400.8</ele>
        <time>2026-07-02T10:21:04.000Z</time>
      </trkpt>
      <trkpt lat="45.71721" lon="3.27419">
        <ele>400.8</ele>
        <time>2026-07-02T10:21:06.000Z</time>
      </trkpt>
      <trkpt lat="45.71713" lon="3.27416">
        <ele>401</ele>
        <time>2026-07-02T10:21:08.000Z</time>
      </trkpt>
      <trkpt lat="45.71705" lon="3.27412">
        <ele>401.2</ele>
        <time>2026-07-02T10:21:10.000Z</time>
      </trkpt>
      <trkpt lat="45.71697" lon="3.27408">
        <ele>401.4</ele>
        <time>2026-07-02T10:21:12.000Z</time>
      </trkpt>
      <trkpt lat="45.71689" lon="3.27404">
        <ele>401.6</ele>
        <time>2026-07-02T10:21:14.000Z</time>
      </trkpt>
      <trkpt lat="45.71681" lon="3.274">
        <ele>401.8</ele>
        <time>2026-07-02T10:21:16.000Z</time>
      </trkpt>
      <trkpt lat="45.71674" lon="3.27396">
        <ele>402</ele>
        <time>2026-07-02T10:21:18.000Z</time>
      </trkpt>
      <trkpt lat="45.71666" lon="3.27393">
        <ele>402.2</ele>
        <time>2026-07-02T10:21:20.000Z</time>
      </trkpt>
      <trkpt lat="45.71658" lon="3.27389">
        <ele>402.4</ele>
        <time>2026-07-02T10:21:22.000Z</time>
      </trkpt>
      <trkpt lat="45.7165" lon="3.27386">
        <ele>402.6</ele>
        <time>2026-07-02T10:21:24.000Z</time>
      </trkpt>
      <trkpt lat="45.71643" lon="3.27382">
        <ele>402.8</ele>
        <time>2026-07-02T10:21:26.000Z</time>
      </trkpt>
      <trkpt lat="45.71635" lon="3.27379">
        <ele>403</ele>
        <time>2026-07-02T10:21:28.000Z</time>
      </trkpt>
      <trkpt lat="45.71626" lon="3.27376">
        <ele>403.4</ele>
        <time>2026-07-02T10:21:30.000Z</time>
      </trkpt>
      <trkpt lat="45.71618" lon="3.27374">
        <ele>403.6</ele>
        <time>2026-07-02T10:21:32.000Z</time>
      </trkpt>
      <trkpt lat="45.71609" lon="3.27371">
        <ele>403.8</ele>
        <time>2026-07-02T10:21:34.000Z</time>
      </trkpt>
      <trkpt lat="45.71601" lon="3.27369">
        <ele>403.8</ele>
        <time>2026-07-02T10:21:36.000Z</time>
      </trkpt>
      <trkpt lat="45.71592" lon="3.27367">
        <ele>404</ele>
        <time>2026-07-02T10:21:38.000Z</time>
      </trkpt>
      <trkpt lat="45.71584" lon="3.27365">
        <ele>404.2</ele>
        <time>2026-07-02T10:21:40.000Z</time>
      </trkpt>
      <trkpt lat="45.71576" lon="3.27363">
        <ele>404.4</ele>
        <time>2026-07-02T10:21:42.000Z</time>
      </trkpt>
      <trkpt lat="45.71567" lon="3.27361">
        <ele>404.4</ele>
        <time>2026-07-02T10:21:44.000Z</time>
      </trkpt>
      <trkpt lat="45.71559" lon="3.2736">
        <ele>404.6</ele>
        <time>2026-07-02T10:21:46.000Z</time>
      </trkpt>
      <trkpt lat="45.7155" lon="3.27357">
        <ele>404.8</ele>
        <time>2026-07-02T10:21:48.000Z</time>
      </trkpt>
      <trkpt lat="45.71542" lon="3.27354">
        <ele>405</ele>
        <time>2026-07-02T10:21:50.000Z</time>
      </trkpt>
      <trkpt lat="45.71534" lon="3.2735">
        <ele>405.2</ele>
        <time>2026-07-02T10:21:52.000Z</time>
      </trkpt>
      <trkpt lat="45.71527" lon="3.27345">
        <ele>405.4</ele>
        <time>2026-07-02T10:21:54.000Z</time>
      </trkpt>
      <trkpt lat="45.7152" lon="3.27341">
        <ele>405.6</ele>
        <time>2026-07-02T10:21:56.000Z</time>
      </trkpt>
      <trkpt lat="45.71513" lon="3.27336">
        <ele>405.8</ele>
        <time>2026-07-02T10:21:58.000Z</time>
      </trkpt>
      <trkpt lat="45.71506" lon="3.2733">
        <ele>406</ele>
        <time>2026-07-02T10:22:00.000Z</time>
      </trkpt>
      <trkpt lat="45.71498" lon="3.27325">
        <ele>406.4</ele>
        <time>2026-07-02T10:22:02.000Z</time>
      </trkpt>
      <trkpt lat="45.71492" lon="3.2732">
        <ele>406.6</ele>
        <time>2026-07-02T10:22:04.000Z</time>
      </trkpt>
      <trkpt lat="45.71485" lon="3.27315">
        <ele>407</ele>
        <time>2026-07-02T10:22:06.000Z</time>
      </trkpt>
      <trkpt lat="45.71478" lon="3.2731">
        <ele>407.4</ele>
        <time>2026-07-02T10:22:08.000Z</time>
      </trkpt>
      <trkpt lat="45.71472" lon="3.27305">
        <ele>407.8</ele>
        <time>2026-07-02T10:22:10.000Z</time>
      </trkpt>
      <trkpt lat="45.71465" lon="3.273">
        <ele>408.2</ele>
        <time>2026-07-02T10:22:12.000Z</time>
      </trkpt>
      <trkpt lat="45.71458" lon="3.27296">
        <ele>408.6</ele>
        <time>2026-07-02T10:22:14.000Z</time>
      </trkpt>
      <trkpt lat="45.71451" lon="3.27292">
        <ele>408.8</ele>
        <time>2026-07-02T10:22:16.000Z</time>
      </trkpt>
      <trkpt lat="45.71444" lon="3.27288">
        <ele>409.2</ele>
        <time>2026-07-02T10:22:18.000Z</time>
      </trkpt>
      <trkpt lat="45.71436" lon="3.27284">
        <ele>409.6</ele>
        <time>2026-07-02T10:22:20.000Z</time>
      </trkpt>
      <trkpt lat="45.71429" lon="3.27281">
        <ele>409.8</ele>
        <time>2026-07-02T10:22:22.000Z</time>
      </trkpt>
      <trkpt lat="45.71422" lon="3.27278">
        <ele>410.2</ele>
        <time>2026-07-02T10:22:24.000Z</time>
      </trkpt>
      <trkpt lat="45.71415" lon="3.27275">
        <ele>410.4</ele>
        <time>2026-07-02T10:22:26.000Z</time>
      </trkpt>
      <trkpt lat="45.71407" lon="3.27272">
        <ele>410.8</ele>
        <time>2026-07-02T10:22:28.000Z</time>
      </trkpt>
      <trkpt lat="45.714" lon="3.2727">
        <ele>411</ele>
        <time>2026-07-02T10:22:30.000Z</time>
      </trkpt>
      <trkpt lat="45.71392" lon="3.27268">
        <ele>411.4</ele>
        <time>2026-07-02T10:22:32.000Z</time>
      </trkpt>
      <trkpt lat="45.71385" lon="3.27266">
        <ele>411.6</ele>
        <time>2026-07-02T10:22:34.000Z</time>
      </trkpt>
      <trkpt lat="45.71377" lon="3.27265">
        <ele>411.8</ele>
        <time>2026-07-02T10:22:36.000Z</time>
      </trkpt>
      <trkpt lat="45.71369" lon="3.27264">
        <ele>412.2</ele>
        <time>2026-07-02T10:22:38.000Z</time>
      </trkpt>
      <trkpt lat="45.71361" lon="3.27263">
        <ele>412.4</ele>
        <time>2026-07-02T10:22:40.000Z</time>
      </trkpt>
      <trkpt lat="45.71353" lon="3.27263">
        <ele>412.6</ele>
        <time>2026-07-02T10:22:42.000Z</time>
      </trkpt>
      <trkpt lat="45.71345" lon="3.27262">
        <ele>412.8</ele>
        <time>2026-07-02T10:22:44.000Z</time>
      </trkpt>
      <trkpt lat="45.71336" lon="3.2726">
        <ele>413</ele>
        <time>2026-07-02T10:22:46.000Z</time>
      </trkpt>
      <trkpt lat="45.71328" lon="3.27258">
        <ele>413.2</ele>
        <time>2026-07-02T10:22:48.000Z</time>
      </trkpt>
      <trkpt lat="45.7132" lon="3.27256">
        <ele>413.4</ele>
        <time>2026-07-02T10:22:50.000Z</time>
      </trkpt>
      <trkpt lat="45.71312" lon="3.27254">
        <ele>413.6</ele>
        <time>2026-07-02T10:22:52.000Z</time>
      </trkpt>
      <trkpt lat="45.71304" lon="3.27252">
        <ele>413.8</ele>
        <time>2026-07-02T10:22:54.000Z</time>
      </trkpt>
      <trkpt lat="45.71296" lon="3.2725">
        <ele>414</ele>
        <time>2026-07-02T10:22:56.000Z</time>
      </trkpt>
      <trkpt lat="45.71288" lon="3.27247">
        <ele>414.2</ele>
        <time>2026-07-02T10:22:58.000Z</time>
      </trkpt>
      <trkpt lat="45.71279" lon="3.27245">
        <ele>414.2</ele>
        <time>2026-07-02T10:23:00.000Z</time>
      </trkpt>
      <trkpt lat="45.71271" lon="3.27242">
        <ele>414.4</ele>
        <time>2026-07-02T10:23:02.000Z</time>
      </trkpt>
      <trkpt lat="45.71264" lon="3.2724">
        <ele>414.6</ele>
        <time>2026-07-02T10:23:04.000Z</time>
      </trkpt>
      <trkpt lat="45.71257" lon="3.27238">
        <ele>414.8</ele>
        <time>2026-07-02T10:23:06.000Z</time>
      </trkpt>
      <trkpt lat="45.7125" lon="3.27236">
        <ele>415</ele>
        <time>2026-07-02T10:23:08.000Z</time>
      </trkpt>
      <trkpt lat="45.71242" lon="3.27234">
        <ele>415.2</ele>
        <time>2026-07-02T10:23:10.000Z</time>
      </trkpt>
      <trkpt lat="45.71234" lon="3.27232">
        <ele>415.4</ele>
        <time>2026-07-02T10:23:12.000Z</time>
      </trkpt>
      <trkpt lat="45.71226" lon="3.2723">
        <ele>415.4</ele>
        <time>2026-07-02T10:23:14.000Z</time>
      </trkpt>
      <trkpt lat="45.71218" lon="3.27227">
        <ele>415.6</ele>
        <time>2026-07-02T10:23:16.000Z</time>
      </trkpt>
      <trkpt lat="45.7121" lon="3.27225">
        <ele>415.8</ele>
        <time>2026-07-02T10:23:18.000Z</time>
      </trkpt>
      <trkpt lat="45.71203" lon="3.27222">
        <ele>416</ele>
        <time>2026-07-02T10:23:20.000Z</time>
      </trkpt>
      <trkpt lat="45.71195" lon="3.2722">
        <ele>416.2</ele>
        <time>2026-07-02T10:23:22.000Z</time>
      </trkpt>
      <trkpt lat="45.71187" lon="3.27218">
        <ele>416.4</ele>
        <time>2026-07-02T10:23:24.000Z</time>
      </trkpt>
      <trkpt lat="45.7118" lon="3.27216">
        <ele>416.6</ele>
        <time>2026-07-02T10:23:26.000Z</time>
      </trkpt>
      <trkpt lat="45.71173" lon="3.27214">
        <ele>416.8</ele>
        <time>2026-07-02T10:23:28.000Z</time>
      </trkpt>
      <trkpt lat="45.71166" lon="3.27212">
        <ele>417</ele>
        <time>2026-07-02T10:23:30.000Z</time>
      </trkpt>
      <trkpt lat="45.7116" lon="3.2721">
        <ele>417.2</ele>
        <time>2026-07-02T10:23:32.000Z</time>
      </trkpt>
      <trkpt lat="45.71154" lon="3.27209">
        <ele>417.4</ele>
        <time>2026-07-02T10:23:34.000Z</time>
      </trkpt>
      <trkpt lat="45.7115" lon="3.27208">
        <ele>417.8</ele>
        <time>2026-07-02T10:23:36.000Z</time>
      </trkpt>
      <trkpt lat="45.71146" lon="3.27207">
        <ele>418</ele>
        <time>2026-07-02T10:23:38.000Z</time>
      </trkpt>
      <trkpt lat="45.71144" lon="3.27206">
        <ele>418.2</ele>
        <time>2026-07-02T10:23:40.000Z</time>
      </trkpt>
      <trkpt lat="45.71142" lon="3.27205">
        <ele>418.4</ele>
        <time>2026-07-02T10:23:42.000Z</time>
      </trkpt>
      <trkpt lat="45.71139" lon="3.27203">
        <ele>418.6</ele>
        <time>2026-07-02T10:23:44.000Z</time>
      </trkpt>
      <trkpt lat="45.71137" lon="3.27201">
        <ele>418.8</ele>
        <time>2026-07-02T10:23:46.000Z</time>
      </trkpt>
      <trkpt lat="45.71134" lon="3.272">
        <ele>418.8</ele>
        <time>2026-07-02T10:23:48.000Z</time>
      </trkpt>
      <trkpt lat="45.71133" lon="3.27199">
        <ele>418.8</ele>
        <time>2026-07-02T10:23:50.000Z</time>
      </trkpt>
      <trkpt lat="45.71132" lon="3.27198">
        <ele>419</ele>
        <time>2026-07-02T10:23:52.000Z</time>
      </trkpt>
      <trkpt lat="45.7113" lon="3.27196">
        <ele>418.8</ele>
        <time>2026-07-02T10:23:54.000Z</time>
      </trkpt>
      <trkpt lat="45.71126" lon="3.27193">
        <ele>419</ele>
        <time>2026-07-02T10:23:56.000Z</time>
      </trkpt>
      <trkpt lat="45.7112" lon="3.27188">
        <ele>419.2</ele>
        <time>2026-07-02T10:23:58.000Z</time>
      </trkpt>
      <trkpt lat="45.71114" lon="3.27182">
        <ele>419.2</ele>
        <time>2026-07-02T10:24:00.000Z</time>
      </trkpt>
      <trkpt lat="45.71108" lon="3.27177">
        <ele>419.2</ele>
        <time>2026-07-02T10:24:02.000Z</time>
      </trkpt>
      <trkpt lat="45.71103" lon="3.27172">
        <ele>419.4</ele>
        <time>2026-07-02T10:24:04.000Z</time>
      </trkpt>
      <trkpt lat="45.71098" lon="3.27167">
        <ele>419.6</ele>
        <time>2026-07-02T10:24:06.000Z</time>
      </trkpt>
      <trkpt lat="45.71092" lon="3.27162">
        <ele>419.8</ele>
        <time>2026-07-02T10:24:08.000Z</time>
      </trkpt>
      <trkpt lat="45.71086" lon="3.27156">
        <ele>420.2</ele>
        <time>2026-07-02T10:24:10.000Z</time>
      </trkpt>
      <trkpt lat="45.7108" lon="3.27151">
        <ele>420.6</ele>
        <time>2026-07-02T10:24:12.000Z</time>
      </trkpt>
      <trkpt lat="45.71074" lon="3.27145">
        <ele>420.8</ele>
        <time>2026-07-02T10:24:14.000Z</time>
      </trkpt>
      <trkpt lat="45.71068" lon="3.2714">
        <ele>421.2</ele>
        <time>2026-07-02T10:24:16.000Z</time>
      </trkpt>
      <trkpt lat="45.71062" lon="3.27134">
        <ele>421.6</ele>
        <time>2026-07-02T10:24:18.000Z</time>
      </trkpt>
      <trkpt lat="45.71057" lon="3.27128">
        <ele>421.8</ele>
        <time>2026-07-02T10:24:20.000Z</time>
      </trkpt>
      <trkpt lat="45.71051" lon="3.27121">
        <ele>422.2</ele>
        <time>2026-07-02T10:24:22.000Z</time>
      </trkpt>
      <trkpt lat="45.71046" lon="3.27115">
        <ele>422.6</ele>
        <time>2026-07-02T10:24:24.000Z</time>
      </trkpt>
      <trkpt lat="45.71041" lon="3.27108">
        <ele>422.8</ele>
        <time>2026-07-02T10:24:26.000Z</time>
      </trkpt>
      <trkpt lat="45.71035" lon="3.27101">
        <ele>423</ele>
        <time>2026-07-02T10:24:28.000Z</time>
      </trkpt>
      <trkpt lat="45.7103" lon="3.27095">
        <ele>423.4</ele>
        <time>2026-07-02T10:24:30.000Z</time>
      </trkpt>
      <trkpt lat="45.71024" lon="3.27088">
        <ele>423.6</ele>
        <time>2026-07-02T10:24:32.000Z</time>
      </trkpt>
      <trkpt lat="45.71018" lon="3.27081">
        <ele>424</ele>
        <time>2026-07-02T10:24:34.000Z</time>
      </trkpt>
      <trkpt lat="45.71012" lon="3.27076">
        <ele>424.2</ele>
        <time>2026-07-02T10:24:36.000Z</time>
      </trkpt>
      <trkpt lat="45.71006" lon="3.2707">
        <ele>424.4</ele>
        <time>2026-07-02T10:24:38.000Z</time>
      </trkpt>
      <trkpt lat="45.71" lon="3.27065">
        <ele>424.8</ele>
        <time>2026-07-02T10:24:40.000Z</time>
      </trkpt>
      <trkpt lat="45.70995" lon="3.2706">
        <ele>425</ele>
        <time>2026-07-02T10:24:42.000Z</time>
      </trkpt>
      <trkpt lat="45.70989" lon="3.27055">
        <ele>425.4</ele>
        <time>2026-07-02T10:24:44.000Z</time>
      </trkpt>
      <trkpt lat="45.70983" lon="3.2705">
        <ele>425.6</ele>
        <time>2026-07-02T10:24:46.000Z</time>
      </trkpt>
      <trkpt lat="45.70977" lon="3.27045">
        <ele>425.8</ele>
        <time>2026-07-02T10:24:48.000Z</time>
      </trkpt>
      <trkpt lat="45.70971" lon="3.2704">
        <ele>426</ele>
        <time>2026-07-02T10:24:50.000Z</time>
      </trkpt>
      <trkpt lat="45.70965" lon="3.27035">
        <ele>426.4</ele>
        <time>2026-07-02T10:24:52.000Z</time>
      </trkpt>
      <trkpt lat="45.70959" lon="3.2703">
        <ele>426.8</ele>
        <time>2026-07-02T10:24:54.000Z</time>
      </trkpt>
      <trkpt lat="45.70954" lon="3.27026">
        <ele>427.2</ele>
        <time>2026-07-02T10:24:56.000Z</time>
      </trkpt>
      <trkpt lat="45.70948" lon="3.27021">
        <ele>427.6</ele>
        <time>2026-07-02T10:24:58.000Z</time>
      </trkpt>
      <trkpt lat="45.70943" lon="3.27016">
        <ele>428</ele>
        <time>2026-07-02T10:25:00.000Z</time>
      </trkpt>
      <trkpt lat="45.70938" lon="3.27012">
        <ele>428.4</ele>
        <time>2026-07-02T10:25:02.000Z</time>
      </trkpt>
      <trkpt lat="45.70932" lon="3.27007">
        <ele>428.8</ele>
        <time>2026-07-02T10:25:04.000Z</time>
      </trkpt>
      <trkpt lat="45.70927" lon="3.27003">
        <ele>429.2</ele>
        <time>2026-07-02T10:25:06.000Z</time>
      </trkpt>
      <trkpt lat="45.70921" lon="3.26999">
        <ele>429.8</ele>
        <time>2026-07-02T10:25:08.000Z</time>
      </trkpt>
      <trkpt lat="45.70915" lon="3.26995">
        <ele>430.2</ele>
        <time>2026-07-02T10:25:10.000Z</time>
      </trkpt>
      <trkpt lat="45.70909" lon="3.26993">
        <ele>430.6</ele>
        <time>2026-07-02T10:25:12.000Z</time>
      </trkpt>
      <trkpt lat="45.70902" lon="3.26992">
        <ele>431</ele>
        <time>2026-07-02T10:25:14.000Z</time>
      </trkpt>
      <trkpt lat="45.70895" lon="3.26993">
        <ele>431.4</ele>
        <time>2026-07-02T10:25:16.000Z</time>
      </trkpt>
      <trkpt lat="45.70888" lon="3.26995">
        <ele>431.8</ele>
        <time>2026-07-02T10:25:18.000Z</time>
      </trkpt>
      <trkpt lat="45.70882" lon="3.26998">
        <ele>432</ele>
        <time>2026-07-02T10:25:20.000Z</time>
      </trkpt>
      <trkpt lat="45.70875" lon="3.27003">
        <ele>432.2</ele>
        <time>2026-07-02T10:25:22.000Z</time>
      </trkpt>
      <trkpt lat="45.70869" lon="3.27009">
        <ele>432.4</ele>
        <time>2026-07-02T10:25:24.000Z</time>
      </trkpt>
      <trkpt lat="45.70863" lon="3.27018">
        <ele>432.6</ele>
        <time>2026-07-02T10:25:26.000Z</time>
      </trkpt>
      <trkpt lat="45.70859" lon="3.27027">
        <ele>432.8</ele>
        <time>2026-07-02T10:25:28.000Z</time>
      </trkpt>
      <trkpt lat="45.70855" lon="3.27038">
        <ele>432.8</ele>
        <time>2026-07-02T10:25:30.000Z</time>
      </trkpt>
      <trkpt lat="45.70851" lon="3.27049">
        <ele>432.8</ele>
        <time>2026-07-02T10:25:32.000Z</time>
      </trkpt>
      <trkpt lat="45.70848" lon="3.27062">
        <ele>432.6</ele>
        <time>2026-07-02T10:25:34.000Z</time>
      </trkpt>
      <trkpt lat="45.70845" lon="3.27075">
        <ele>432.4</ele>
        <time>2026-07-02T10:25:36.000Z</time>
      </trkpt>
      <trkpt lat="45.7084" lon="3.27089">
        <ele>432</ele>
        <time>2026-07-02T10:25:38.000Z</time>
      </trkpt>
      <trkpt lat="45.70836" lon="3.27105">
        <ele>431.6</ele>
        <time>2026-07-02T10:25:40.000Z</time>
      </trkpt>
      <trkpt lat="45.70831" lon="3.27122">
        <ele>430.8</ele>
        <time>2026-07-02T10:25:42.000Z</time>
      </trkpt>
      <trkpt lat="45.70826" lon="3.2714">
        <ele>430</ele>
        <time>2026-07-02T10:25:44.000Z</time>
      </trkpt>
      <trkpt lat="45.7082" lon="3.2716">
        <ele>429.2</ele>
        <time>2026-07-02T10:25:46.000Z</time>
      </trkpt>
      <trkpt lat="45.70814" lon="3.27182">
        <ele>428.2</ele>
        <time>2026-07-02T10:25:48.000Z</time>
      </trkpt>
      <trkpt lat="45.70807" lon="3.27206">
        <ele>427</ele>
        <time>2026-07-02T10:25:50.000Z</time>
      </trkpt>
      <trkpt lat="45.70801" lon="3.27228">
        <ele>426</ele>
        <time>2026-07-02T10:25:52.000Z</time>
      </trkpt>
      <trkpt lat="45.70796" lon="3.2725">
        <ele>424.6</ele>
        <time>2026-07-02T10:25:54.000Z</time>
      </trkpt>
      <trkpt lat="45.70791" lon="3.27272">
        <ele>423.4</ele>
        <time>2026-07-02T10:25:56.000Z</time>
      </trkpt>
      <trkpt lat="45.70786" lon="3.27294">
        <ele>422.4</ele>
        <time>2026-07-02T10:25:58.000Z</time>
      </trkpt>
      <trkpt lat="45.70779" lon="3.27314">
        <ele>421.6</ele>
        <time>2026-07-02T10:26:00.000Z</time>
      </trkpt>
      <trkpt lat="45.70771" lon="3.27334">
        <ele>421</ele>
        <time>2026-07-02T10:26:02.000Z</time>
      </trkpt>
      <trkpt lat="45.70761" lon="3.27351">
        <ele>420.6</ele>
        <time>2026-07-02T10:26:04.000Z</time>
      </trkpt>
      <trkpt lat="45.70752" lon="3.27368">
        <ele>420.2</ele>
        <time>2026-07-02T10:26:06.000Z</time>
      </trkpt>
      <trkpt lat="45.70743" lon="3.27385">
        <ele>419.8</ele>
        <time>2026-07-02T10:26:08.000Z</time>
      </trkpt>
      <trkpt lat="45.70736" lon="3.274">
        <ele>419.6</ele>
        <time>2026-07-02T10:26:10.000Z</time>
      </trkpt>
      <trkpt lat="45.70729" lon="3.27415">
        <ele>419.2</ele>
        <time>2026-07-02T10:26:12.000Z</time>
      </trkpt>
      <trkpt lat="45.70724" lon="3.27429">
        <ele>418.8</ele>
        <time>2026-07-02T10:26:14.000Z</time>
      </trkpt>
      <trkpt lat="45.70719" lon="3.27443">
        <ele>418.8</ele>
        <time>2026-07-02T10:26:16.000Z</time>
      </trkpt>
      <trkpt lat="45.70716" lon="3.27457">
        <ele>418.6</ele>
        <time>2026-07-02T10:26:18.000Z</time>
      </trkpt>
      <trkpt lat="45.70712" lon="3.27471">
        <ele>418.6</ele>
        <time>2026-07-02T10:26:20.000Z</time>
      </trkpt>
      <trkpt lat="45.7071" lon="3.27484">
        <ele>418.6</ele>
        <time>2026-07-02T10:26:22.000Z</time>
      </trkpt>
      <trkpt lat="45.70707" lon="3.27497">
        <ele>419</ele>
        <time>2026-07-02T10:26:24.000Z</time>
      </trkpt>
      <trkpt lat="45.70705" lon="3.27509">
        <ele>419.2</ele>
        <time>2026-07-02T10:26:27.000Z</time>
      </trkpt>
      <trkpt lat="45.70702" lon="3.27521">
        <ele>419.6</ele>
        <time>2026-07-02T10:26:29.000Z</time>
      </trkpt>
      <trkpt lat="45.70698" lon="3.27533">
        <ele>419.8</ele>
        <time>2026-07-02T10:26:31.000Z</time>
      </trkpt>
      <trkpt lat="45.70694" lon="3.27545">
        <ele>420</ele>
        <time>2026-07-02T10:26:33.000Z</time>
      </trkpt>
      <trkpt lat="45.7069" lon="3.27555">
        <ele>420.4</ele>
        <time>2026-07-02T10:26:35.000Z</time>
      </trkpt>
      <trkpt lat="45.70686" lon="3.27565">
        <ele>420.6</ele>
        <time>2026-07-02T10:26:37.000Z</time>
      </trkpt>
      <trkpt lat="45.70682" lon="3.27574">
        <ele>421</ele>
        <time>2026-07-02T10:26:39.000Z</time>
      </trkpt>
      <trkpt lat="45.70678" lon="3.27584">
        <ele>421.4</ele>
        <time>2026-07-02T10:26:41.000Z</time>
      </trkpt>
      <trkpt lat="45.70674" lon="3.27593">
        <ele>422</ele>
        <time>2026-07-02T10:26:43.000Z</time>
      </trkpt>
      <trkpt lat="45.70671" lon="3.27602">
        <ele>422.4</ele>
        <time>2026-07-02T10:26:45.000Z</time>
      </trkpt>
      <trkpt lat="45.70667" lon="3.2761">
        <ele>422.8</ele>
        <time>2026-07-02T10:26:47.000Z</time>
      </trkpt>
      <trkpt lat="45.70663" lon="3.27617">
        <ele>423.2</ele>
        <time>2026-07-02T10:26:49.000Z</time>
      </trkpt>
      <trkpt lat="45.70658" lon="3.27624">
        <ele>423.8</ele>
        <time>2026-07-02T10:26:51.000Z</time>
      </trkpt>
      <trkpt lat="45.70654" lon="3.27631">
        <ele>424.2</ele>
        <time>2026-07-02T10:26:53.000Z</time>
      </trkpt>
      <trkpt lat="45.7065" lon="3.27637">
        <ele>424.6</ele>
        <time>2026-07-02T10:26:55.000Z</time>
      </trkpt>
      <trkpt lat="45.70645" lon="3.27643">
        <ele>425</ele>
        <time>2026-07-02T10:26:57.000Z</time>
      </trkpt>
      <trkpt lat="45.70641" lon="3.27648">
        <ele>425.4</ele>
        <time>2026-07-02T10:26:59.000Z</time>
      </trkpt>
      <trkpt lat="45.70636" lon="3.27654">
        <ele>426</ele>
        <time>2026-07-02T10:27:01.000Z</time>
      </trkpt>
      <trkpt lat="45.7063" lon="3.27659">
        <ele>426.2</ele>
        <time>2026-07-02T10:27:03.000Z</time>
      </trkpt>
      <trkpt lat="45.70626" lon="3.27665">
        <ele>426.6</ele>
        <time>2026-07-02T10:27:05.000Z</time>
      </trkpt>
      <trkpt lat="45.70621" lon="3.27671">
        <ele>427.2</ele>
        <time>2026-07-02T10:27:07.000Z</time>
      </trkpt>
      <trkpt lat="45.70616" lon="3.27677">
        <ele>427.8</ele>
        <time>2026-07-02T10:27:09.000Z</time>
      </trkpt>
      <trkpt lat="45.70612" lon="3.27684">
        <ele>428.2</ele>
        <time>2026-07-02T10:27:11.000Z</time>
      </trkpt>
      <trkpt lat="45.70608" lon="3.2769">
        <ele>428.6</ele>
        <time>2026-07-02T10:27:13.000Z</time>
      </trkpt>
      <trkpt lat="45.70604" lon="3.27697">
        <ele>429</ele>
        <time>2026-07-02T10:27:15.000Z</time>
      </trkpt>
      <trkpt lat="45.70601" lon="3.27705">
        <ele>429.6</ele>
        <time>2026-07-02T10:27:17.000Z</time>
      </trkpt>
      <trkpt lat="45.70597" lon="3.27713">
        <ele>429.8</ele>
        <time>2026-07-02T10:27:19.000Z</time>
      </trkpt>
      <trkpt lat="45.70595" lon="3.27722">
        <ele>430.2</ele>
        <time>2026-07-02T10:27:21.000Z</time>
      </trkpt>
      <trkpt lat="45.70592" lon="3.2773">
        <ele>430.6</ele>
        <time>2026-07-02T10:27:23.000Z</time>
      </trkpt>
      <trkpt lat="45.70591" lon="3.27739">
        <ele>430.8</ele>
        <time>2026-07-02T10:27:25.000Z</time>
      </trkpt>
      <trkpt lat="45.7059" lon="3.27748">
        <ele>431.2</ele>
        <time>2026-07-02T10:27:27.000Z</time>
      </trkpt>
      <trkpt lat="45.7059" lon="3.27757">
        <ele>431.6</ele>
        <time>2026-07-02T10:27:29.000Z</time>
      </trkpt>
      <trkpt lat="45.70591" lon="3.27766">
        <ele>432</ele>
        <time>2026-07-02T10:27:31.000Z</time>
      </trkpt>
      <trkpt lat="45.70591" lon="3.27774">
        <ele>432.4</ele>
        <time>2026-07-02T10:27:33.000Z</time>
      </trkpt>
      <trkpt lat="45.70593" lon="3.27781">
        <ele>432.8</ele>
        <time>2026-07-02T10:27:35.000Z</time>
      </trkpt>
      <trkpt lat="45.70594" lon="3.27789">
        <ele>433.2</ele>
        <time>2026-07-02T10:27:37.000Z</time>
      </trkpt>
      <trkpt lat="45.70596" lon="3.27796">
        <ele>433.6</ele>
        <time>2026-07-02T10:27:39.000Z</time>
      </trkpt>
      <trkpt lat="45.70599" lon="3.27803">
        <ele>434</ele>
        <time>2026-07-02T10:27:41.000Z</time>
      </trkpt>
      <trkpt lat="45.70601" lon="3.27811">
        <ele>434.4</ele>
        <time>2026-07-02T10:27:43.000Z</time>
      </trkpt>
      <trkpt lat="45.70604" lon="3.27818">
        <ele>434.8</ele>
        <time>2026-07-02T10:27:45.000Z</time>
      </trkpt>
      <trkpt lat="45.70606" lon="3.27825">
        <ele>435.2</ele>
        <time>2026-07-02T10:27:47.000Z</time>
      </trkpt>
      <trkpt lat="45.70608" lon="3.27832">
        <ele>435.6</ele>
        <time>2026-07-02T10:27:49.000Z</time>
      </trkpt>
      <trkpt lat="45.7061" lon="3.27839">
        <ele>435.8</ele>
        <time>2026-07-02T10:27:51.000Z</time>
      </trkpt>
      <trkpt lat="45.70612" lon="3.27846">
        <ele>436</ele>
        <time>2026-07-02T10:27:53.000Z</time>
      </trkpt>
      <trkpt lat="45.70614" lon="3.27854">
        <ele>436.2</ele>
        <time>2026-07-02T10:27:55.000Z</time>
      </trkpt>
      <trkpt lat="45.70616" lon="3.27862">
        <ele>436.6</ele>
        <time>2026-07-02T10:27:57.000Z</time>
      </trkpt>
      <trkpt lat="45.70617" lon="3.2787">
        <ele>437</ele>
        <time>2026-07-02T10:27:59.000Z</time>
      </trkpt>
      <trkpt lat="45.70617" lon="3.27878">
        <ele>437.6</ele>
        <time>2026-07-02T10:28:01.000Z</time>
      </trkpt>
      <trkpt lat="45.70618" lon="3.27887">
        <ele>438</ele>
        <time>2026-07-02T10:28:03.000Z</time>
      </trkpt>
      <trkpt lat="45.70619" lon="3.27895">
        <ele>438.4</ele>
        <time>2026-07-02T10:28:05.000Z</time>
      </trkpt>
      <trkpt lat="45.70618" lon="3.27904">
        <ele>438.8</ele>
        <time>2026-07-02T10:28:07.000Z</time>
      </trkpt>
      <trkpt lat="45.70618" lon="3.27912">
        <ele>439.2</ele>
        <time>2026-07-02T10:28:09.000Z</time>
      </trkpt>
      <trkpt lat="45.70619" lon="3.27921">
        <ele>439.6</ele>
        <time>2026-07-02T10:28:11.000Z</time>
      </trkpt>
      <trkpt lat="45.70619" lon="3.27929">
        <ele>440</ele>
        <time>2026-07-02T10:28:13.000Z</time>
      </trkpt>
      <trkpt lat="45.70619" lon="3.27937">
        <ele>440.2</ele>
        <time>2026-07-02T10:28:15.000Z</time>
      </trkpt>
      <trkpt lat="45.7062" lon="3.27945">
        <ele>440.8</ele>
        <time>2026-07-02T10:28:17.000Z</time>
      </trkpt>
      <trkpt lat="45.70621" lon="3.27953">
        <ele>441.2</ele>
        <time>2026-07-02T10:28:19.000Z</time>
      </trkpt>
      <trkpt lat="45.70621" lon="3.27961">
        <ele>441.4</ele>
        <time>2026-07-02T10:28:21.000Z</time>
      </trkpt>
      <trkpt lat="45.70622" lon="3.27969">
        <ele>441.8</ele>
        <time>2026-07-02T10:28:23.000Z</time>
      </trkpt>
      <trkpt lat="45.70622" lon="3.27977">
        <ele>442.2</ele>
        <time>2026-07-02T10:28:25.000Z</time>
      </trkpt>
      <trkpt lat="45.70622" lon="3.27984">
        <ele>442.6</ele>
        <time>2026-07-02T10:28:27.000Z</time>
      </trkpt>
      <trkpt lat="45.70622" lon="3.27992">
        <ele>443</ele>
        <time>2026-07-02T10:28:29.000Z</time>
      </trkpt>
      <trkpt lat="45.70622" lon="3.28001">
        <ele>443.4</ele>
        <time>2026-07-02T10:28:31.000Z</time>
      </trkpt>
      <trkpt lat="45.70621" lon="3.28009">
        <ele>443.8</ele>
        <time>2026-07-02T10:28:33.000Z</time>
      </trkpt>
      <trkpt lat="45.7062" lon="3.28017">
        <ele>444.2</ele>
        <time>2026-07-02T10:28:35.000Z</time>
      </trkpt>
      <trkpt lat="45.70618" lon="3.28025">
        <ele>444.6</ele>
        <time>2026-07-02T10:28:37.000Z</time>
      </trkpt>
      <trkpt lat="45.70616" lon="3.28033">
        <ele>444.8</ele>
        <time>2026-07-02T10:28:39.000Z</time>
      </trkpt>
      <trkpt lat="45.70614" lon="3.28041">
        <ele>445.4</ele>
        <time>2026-07-02T10:28:41.000Z</time>
      </trkpt>
      <trkpt lat="45.70612" lon="3.28049">
        <ele>445.6</ele>
        <time>2026-07-02T10:28:43.000Z</time>
      </trkpt>
      <trkpt lat="45.7061" lon="3.28057">
        <ele>446</ele>
        <time>2026-07-02T10:28:45.000Z</time>
      </trkpt>
      <trkpt lat="45.70607" lon="3.28066">
        <ele>446.2</ele>
        <time>2026-07-02T10:28:47.000Z</time>
      </trkpt>
      <trkpt lat="45.70605" lon="3.28075">
        <ele>446.4</ele>
        <time>2026-07-02T10:28:49.000Z</time>
      </trkpt>
      <trkpt lat="45.70602" lon="3.28084">
        <ele>446.8</ele>
        <time>2026-07-02T10:28:51.000Z</time>
      </trkpt>
      <trkpt lat="45.70599" lon="3.28093">
        <ele>447</ele>
        <time>2026-07-02T10:28:53.000Z</time>
      </trkpt>
      <trkpt lat="45.70596" lon="3.28103">
        <ele>447</ele>
        <time>2026-07-02T10:28:55.000Z</time>
      </trkpt>
      <trkpt lat="45.70593" lon="3.28113">
        <ele>447.2</ele>
        <time>2026-07-02T10:28:57.000Z</time>
      </trkpt>
      <trkpt lat="45.70588" lon="3.28124">
        <ele>447.2</ele>
        <time>2026-07-02T10:28:59.000Z</time>
      </trkpt>
      <trkpt lat="45.70584" lon="3.28135">
        <ele>447.2</ele>
        <time>2026-07-02T10:29:01.000Z</time>
      </trkpt>
      <trkpt lat="45.7058" lon="3.28147">
        <ele>447</ele>
        <time>2026-07-02T10:29:03.000Z</time>
      </trkpt>
      <trkpt lat="45.70575" lon="3.28159">
        <ele>447</ele>
        <time>2026-07-02T10:29:05.000Z</time>
      </trkpt>
      <trkpt lat="45.7057" lon="3.2817">
        <ele>447</ele>
        <time>2026-07-02T10:29:07.000Z</time>
      </trkpt>
      <trkpt lat="45.70565" lon="3.28183">
        <ele>447</ele>
        <time>2026-07-02T10:29:09.000Z</time>
      </trkpt>
      <trkpt lat="45.7056" lon="3.28196">
        <ele>447</ele>
        <time>2026-07-02T10:29:11.000Z</time>
      </trkpt>
      <trkpt lat="45.70555" lon="3.28209">
        <ele>446.6</ele>
        <time>2026-07-02T10:29:13.000Z</time>
      </trkpt>
      <trkpt lat="45.7055" lon="3.28223">
        <ele>446.4</ele>
        <time>2026-07-02T10:29:15.000Z</time>
      </trkpt>
      <trkpt lat="45.70546" lon="3.28236">
        <ele>446.4</ele>
        <time>2026-07-02T10:29:17.000Z</time>
      </trkpt>
      <trkpt lat="45.70544" lon="3.2825">
        <ele>446.4</ele>
        <time>2026-07-02T10:29:19.000Z</time>
      </trkpt>
      <trkpt lat="45.70542" lon="3.28264">
        <ele>446.4</ele>
        <time>2026-07-02T10:29:21.000Z</time>
      </trkpt>
      <trkpt lat="45.70541" lon="3.28277">
        <ele>446.4</ele>
        <time>2026-07-02T10:29:23.000Z</time>
      </trkpt>
      <trkpt lat="45.7054" lon="3.28289">
        <ele>446.6</ele>
        <time>2026-07-02T10:29:25.000Z</time>
      </trkpt>
      <trkpt lat="45.7054" lon="3.28302">
        <ele>446.8</ele>
        <time>2026-07-02T10:29:27.000Z</time>
      </trkpt>
      <trkpt lat="45.70538" lon="3.28314">
        <ele>447</ele>
        <time>2026-07-02T10:29:29.000Z</time>
      </trkpt>
      <trkpt lat="45.70536" lon="3.28327">
        <ele>447</ele>
        <time>2026-07-02T10:29:31.000Z</time>
      </trkpt>
      <trkpt lat="45.70533" lon="3.28339">
        <ele>447.2</ele>
        <time>2026-07-02T10:29:33.000Z</time>
      </trkpt>
      <trkpt lat="45.7053" lon="3.28351">
        <ele>447.2</ele>
        <time>2026-07-02T10:29:35.000Z</time>
      </trkpt>
      <trkpt lat="45.70526" lon="3.28362">
        <ele>447.4</ele>
        <time>2026-07-02T10:29:37.000Z</time>
      </trkpt>
      <trkpt lat="45.70521" lon="3.28373">
        <ele>447.4</ele>
        <time>2026-07-02T10:29:39.000Z</time>
      </trkpt>
      <trkpt lat="45.70517" lon="3.28384">
        <ele>447.6</ele>
        <time>2026-07-02T10:29:41.000Z</time>
      </trkpt>
      <trkpt lat="45.70512" lon="3.28395">
        <ele>447.8</ele>
        <time>2026-07-02T10:29:43.000Z</time>
      </trkpt>
      <trkpt lat="45.70506" lon="3.28406">
        <ele>447.8</ele>
        <time>2026-07-02T10:29:45.000Z</time>
      </trkpt>
      <trkpt lat="45.705" lon="3.28418">
        <ele>448</ele>
        <time>2026-07-02T10:29:47.000Z</time>
      </trkpt>
      <trkpt lat="45.70494" lon="3.28429">
        <ele>448.2</ele>
        <time>2026-07-02T10:29:49.000Z</time>
      </trkpt>
      <trkpt lat="45.70488" lon="3.2844">
        <ele>448.2</ele>
        <time>2026-07-02T10:29:51.000Z</time>
      </trkpt>
      <trkpt lat="45.70481" lon="3.2845">
        <ele>448.4</ele>
        <time>2026-07-02T10:29:53.000Z</time>
      </trkpt>
      <trkpt lat="45.70475" lon="3.2846">
        <ele>448.4</ele>
        <time>2026-07-02T10:29:55.000Z</time>
      </trkpt>
      <trkpt lat="45.70468" lon="3.28471">
        <ele>448.4</ele>
        <time>2026-07-02T10:29:57.000Z</time>
      </trkpt>
      <trkpt lat="45.70462" lon="3.28481">
        <ele>448.4</ele>
        <time>2026-07-02T10:29:59.000Z</time>
      </trkpt>
      <trkpt lat="45.70456" lon="3.28493">
        <ele>448.4</ele>
        <time>2026-07-02T10:30:01.000Z</time>
      </trkpt>
      <trkpt lat="45.70451" lon="3.28504">
        <ele>448.4</ele>
        <time>2026-07-02T10:30:03.000Z</time>
      </trkpt>
      <trkpt lat="45.70446" lon="3.28517">
        <ele>448.4</ele>
        <time>2026-07-02T10:30:05.000Z</time>
      </trkpt>
      <trkpt lat="45.70442" lon="3.2853">
        <ele>448.4</ele>
        <time>2026-07-02T10:30:07.000Z</time>
      </trkpt>
      <trkpt lat="45.70438" lon="3.28543">
        <ele>448.4</ele>
        <time>2026-07-02T10:30:09.000Z</time>
      </trkpt>
      <trkpt lat="45.70434" lon="3.28557">
        <ele>448.4</ele>
        <time>2026-07-02T10:30:11.000Z</time>
      </trkpt>
      <trkpt lat="45.70429" lon="3.2857">
        <ele>448.4</ele>
        <time>2026-07-02T10:30:13.000Z</time>
      </trkpt>
      <trkpt lat="45.70423" lon="3.28582">
        <ele>448.2</ele>
        <time>2026-07-02T10:30:15.000Z</time>
      </trkpt>
      <trkpt lat="45.70415" lon="3.28592">
        <ele>448.2</ele>
        <time>2026-07-02T10:30:17.000Z</time>
      </trkpt>
      <trkpt lat="45.70407" lon="3.286">
        <ele>448</ele>
        <time>2026-07-02T10:30:19.000Z</time>
      </trkpt>
      <trkpt lat="45.70397" lon="3.28607">
        <ele>448</ele>
        <time>2026-07-02T10:30:21.000Z</time>
      </trkpt>
      <trkpt lat="45.70388" lon="3.28614">
        <ele>448</ele>
        <time>2026-07-02T10:30:23.000Z</time>
      </trkpt>
      <trkpt lat="45.70378" lon="3.2862">
        <ele>447.8</ele>
        <time>2026-07-02T10:30:25.000Z</time>
      </trkpt>
      <trkpt lat="45.70369" lon="3.28627">
        <ele>447.8</ele>
        <time>2026-07-02T10:30:27.000Z</time>
      </trkpt>
      <trkpt lat="45.7036" lon="3.28634">
        <ele>447.6</ele>
        <time>2026-07-02T10:30:29.000Z</time>
      </trkpt>
      <trkpt lat="45.7035" lon="3.2864">
        <ele>447.6</ele>
        <time>2026-07-02T10:30:31.000Z</time>
      </trkpt>
      <trkpt lat="45.70342" lon="3.28646">
        <ele>447.6</ele>
        <time>2026-07-02T10:30:33.000Z</time>
      </trkpt>
      <trkpt lat="45.70333" lon="3.28652">
        <ele>447.6</ele>
        <time>2026-07-02T10:30:35.000Z</time>
      </trkpt>
      <trkpt lat="45.70325" lon="3.2866">
        <ele>447.8</ele>
        <time>2026-07-02T10:30:37.000Z</time>
      </trkpt>
      <trkpt lat="45.70318" lon="3.28668">
        <ele>448</ele>
        <time>2026-07-02T10:30:39.000Z</time>
      </trkpt>
      <trkpt lat="45.70311" lon="3.28676">
        <ele>448.2</ele>
        <time>2026-07-02T10:30:41.000Z</time>
      </trkpt>
      <trkpt lat="45.70304" lon="3.28685">
        <ele>448.4</ele>
        <time>2026-07-02T10:30:43.000Z</time>
      </trkpt>
      <trkpt lat="45.70298" lon="3.28694">
        <ele>448.6</ele>
        <time>2026-07-02T10:30:45.000Z</time>
      </trkpt>
      <trkpt lat="45.70293" lon="3.28703">
        <ele>448.8</ele>
        <time>2026-07-02T10:30:47.000Z</time>
      </trkpt>
      <trkpt lat="45.70288" lon="3.28712">
        <ele>449.2</ele>
        <time>2026-07-02T10:30:49.000Z</time>
      </trkpt>
      <trkpt lat="45.70285" lon="3.28721">
        <ele>449.4</ele>
        <time>2026-07-02T10:30:51.000Z</time>
      </trkpt>
      <trkpt lat="45.70282" lon="3.28732">
        <ele>449.8</ele>
        <time>2026-07-02T10:30:53.000Z</time>
      </trkpt>
      <trkpt lat="45.7028" lon="3.28743">
        <ele>450.2</ele>
        <time>2026-07-02T10:30:55.000Z</time>
      </trkpt>
      <trkpt lat="45.70278" lon="3.28753">
        <ele>450.6</ele>
        <time>2026-07-02T10:30:57.000Z</time>
      </trkpt>
      <trkpt lat="45.70277" lon="3.28763">
        <ele>451</ele>
        <time>2026-07-02T10:30:59.000Z</time>
      </trkpt>
      <trkpt lat="45.70274" lon="3.28773">
        <ele>451.6</ele>
        <time>2026-07-02T10:31:01.000Z</time>
      </trkpt>
      <trkpt lat="45.70271" lon="3.28783">
        <ele>452.2</ele>
        <time>2026-07-02T10:31:03.000Z</time>
      </trkpt>
      <trkpt lat="45.70268" lon="3.28792">
        <ele>452.8</ele>
        <time>2026-07-02T10:31:05.000Z</time>
      </trkpt>
      <trkpt lat="45.70263" lon="3.288">
        <ele>453.6</ele>
        <time>2026-07-02T10:31:07.000Z</time>
      </trkpt>
      <trkpt lat="45.70258" lon="3.28808">
        <ele>454.2</ele>
        <time>2026-07-02T10:31:09.000Z</time>
      </trkpt>
      <trkpt lat="45.70254" lon="3.28815">
        <ele>454.8</ele>
        <time>2026-07-02T10:31:11.000Z</time>
      </trkpt>
      <trkpt lat="45.70249" lon="3.28823">
        <ele>455.2</ele>
        <time>2026-07-02T10:31:13.000Z</time>
      </trkpt>
      <trkpt lat="45.70245" lon="3.28831">
        <ele>455.8</ele>
        <time>2026-07-02T10:31:15.000Z</time>
      </trkpt>
      <trkpt lat="45.70242" lon="3.28841">
        <ele>456.4</ele>
        <time>2026-07-02T10:31:17.000Z</time>
      </trkpt>
      <trkpt lat="45.70241" lon="3.28851">
        <ele>457.4</ele>
        <time>2026-07-02T10:31:19.000Z</time>
      </trkpt>
      <trkpt lat="45.70241" lon="3.28861">
        <ele>458.2</ele>
        <time>2026-07-02T10:31:21.000Z</time>
      </trkpt>
      <trkpt lat="45.70241" lon="3.28871">
        <ele>458.8</ele>
        <time>2026-07-02T10:31:23.000Z</time>
      </trkpt>
      <trkpt lat="45.70241" lon="3.28881">
        <ele>459.2</ele>
        <time>2026-07-02T10:31:25.000Z</time>
      </trkpt>
      <trkpt lat="45.70241" lon="3.28891">
        <ele>459.8</ele>
        <time>2026-07-02T10:31:27.000Z</time>
      </trkpt>
      <trkpt lat="45.70242" lon="3.28901">
        <ele>460.2</ele>
        <time>2026-07-02T10:31:29.000Z</time>
      </trkpt>
      <trkpt lat="45.70242" lon="3.28911">
        <ele>460.8</ele>
        <time>2026-07-02T10:31:31.000Z</time>
      </trkpt>
      <trkpt lat="45.70241" lon="3.28921">
        <ele>461.2</ele>
        <time>2026-07-02T10:31:33.000Z</time>
      </trkpt>
      <trkpt lat="45.70238" lon="3.28931">
        <ele>461.6</ele>
        <time>2026-07-02T10:31:35.000Z</time>
      </trkpt>
      <trkpt lat="45.70235" lon="3.28939">
        <ele>462.2</ele>
        <time>2026-07-02T10:31:37.000Z</time>
      </trkpt>
      <trkpt lat="45.70231" lon="3.28948">
        <ele>462.6</ele>
        <time>2026-07-02T10:31:39.000Z</time>
      </trkpt>
      <trkpt lat="45.70228" lon="3.28956">
        <ele>463.2</ele>
        <time>2026-07-02T10:31:41.000Z</time>
      </trkpt>
      <trkpt lat="45.70225" lon="3.28964">
        <ele>463.8</ele>
        <time>2026-07-02T10:31:43.000Z</time>
      </trkpt>
      <trkpt lat="45.70221" lon="3.28972">
        <ele>464.2</ele>
        <time>2026-07-02T10:31:45.000Z</time>
      </trkpt>
      <trkpt lat="45.70218" lon="3.2898">
        <ele>464.8</ele>
        <time>2026-07-02T10:31:47.000Z</time>
      </trkpt>
      <trkpt lat="45.70214" lon="3.28988">
        <ele>465.2</ele>
        <time>2026-07-02T10:31:49.000Z</time>
      </trkpt>
      <trkpt lat="45.7021" lon="3.28996">
        <ele>465.6</ele>
        <time>2026-07-02T10:31:51.000Z</time>
      </trkpt>
      <trkpt lat="45.70206" lon="3.29004">
        <ele>466</ele>
        <time>2026-07-02T10:31:53.000Z</time>
      </trkpt>
      <trkpt lat="45.70203" lon="3.29012">
        <ele>466.4</ele>
        <time>2026-07-02T10:31:55.000Z</time>
      </trkpt>
      <trkpt lat="45.70199" lon="3.2902">
        <ele>466.6</ele>
        <time>2026-07-02T10:31:57.000Z</time>
      </trkpt>
      <trkpt lat="45.70196" lon="3.29028">
        <ele>467</ele>
        <time>2026-07-02T10:31:59.000Z</time>
      </trkpt>
      <trkpt lat="45.70193" lon="3.29036">
        <ele>467.4</ele>
        <time>2026-07-02T10:32:01.000Z</time>
      </trkpt>
      <trkpt lat="45.70189" lon="3.29043">
        <ele>467.8</ele>
        <time>2026-07-02T10:32:03.000Z</time>
      </trkpt>
      <trkpt lat="45.70186" lon="3.2905">
        <ele>468.2</ele>
        <time>2026-07-02T10:32:05.000Z</time>
      </trkpt>
      <trkpt lat="45.70182" lon="3.29057">
        <ele>468.4</ele>
        <time>2026-07-02T10:32:07.000Z</time>
      </trkpt>
      <trkpt lat="45.70179" lon="3.29064">
        <ele>468.8</ele>
        <time>2026-07-02T10:32:09.000Z</time>
      </trkpt>
      <trkpt lat="45.70176" lon="3.29071">
        <ele>469</ele>
        <time>2026-07-02T10:32:11.000Z</time>
      </trkpt>
      <trkpt lat="45.70174" lon="3.29078">
        <ele>469.4</ele>
        <time>2026-07-02T10:32:13.000Z</time>
      </trkpt>
      <trkpt lat="45.70172" lon="3.29083">
        <ele>469.6</ele>
        <time>2026-07-02T10:32:15.000Z</time>
      </trkpt>
      <trkpt lat="45.70171" lon="3.29087">
        <ele>469.8</ele>
        <time>2026-07-02T10:32:17.000Z</time>
      </trkpt>
      <trkpt lat="45.7017" lon="3.29088">
        <ele>469.8</ele>
        <time>2026-07-02T10:32:19.000Z</time>
      </trkpt>
      <trkpt lat="45.70171" lon="3.29103">
        <ele>470</ele>
        <time>2026-07-02T10:33:25.000Z</time>
      </trkpt>
      <trkpt lat="45.70172" lon="3.29115">
        <ele>470</ele>
        <time>2026-07-02T10:33:27.000Z</time>
      </trkpt>
      <trkpt lat="45.70174" lon="3.29129">
        <ele>469.8</ele>
        <time>2026-07-02T10:33:29.000Z</time>
      </trkpt>
      <trkpt lat="45.70175" lon="3.29144">
        <ele>469.4</ele>
        <time>2026-07-02T10:33:31.000Z</time>
      </trkpt>
      <trkpt lat="45.70178" lon="3.29159">
        <ele>469.2</ele>
        <time>2026-07-02T10:33:33.000Z</time>
      </trkpt>
      <trkpt lat="45.70183" lon="3.29173">
        <ele>469</ele>
        <time>2026-07-02T10:33:35.000Z</time>
      </trkpt>
      <trkpt lat="45.7019" lon="3.29188">
        <ele>468.8</ele>
        <time>2026-07-02T10:33:37.000Z</time>
      </trkpt>
      <trkpt lat="45.70199" lon="3.29204">
        <ele>468.4</ele>
        <time>2026-07-02T10:33:39.000Z</time>
      </trkpt>
      <trkpt lat="45.70208" lon="3.29222">
        <ele>467.8</ele>
        <time>2026-07-02T10:33:41.000Z</time>
      </trkpt>
      <trkpt lat="45.70215" lon="3.29243">
        <ele>467</ele>
        <time>2026-07-02T10:33:43.000Z</time>
      </trkpt>
      <trkpt lat="45.70219" lon="3.29269">
        <ele>465.8</ele>
        <time>2026-07-02T10:33:45.000Z</time>
      </trkpt>
      <trkpt lat="45.70218" lon="3.29296">
        <ele>464.8</ele>
        <time>2026-07-02T10:33:47.000Z</time>
      </trkpt>
      <trkpt lat="45.70215" lon="3.29322">
        <ele>463.6</ele>
        <time>2026-07-02T10:33:49.000Z</time>
      </trkpt>
      <trkpt lat="45.70209" lon="3.29348">
        <ele>462.2</ele>
        <time>2026-07-02T10:33:51.000Z</time>
      </trkpt>
      <trkpt lat="45.70204" lon="3.29374">
        <ele>460.8</ele>
        <time>2026-07-02T10:33:53.000Z</time>
      </trkpt>
      <trkpt lat="45.70195" lon="3.294">
        <ele>459.4</ele>
        <time>2026-07-02T10:33:55.000Z</time>
      </trkpt>
      <trkpt lat="45.70181" lon="3.29423">
        <ele>457.8</ele>
        <time>2026-07-02T10:33:57.000Z</time>
      </trkpt>
      <trkpt lat="45.70165" lon="3.29444">
        <ele>456.6</ele>
        <time>2026-07-02T10:33:59.000Z</time>
      </trkpt>
      <trkpt lat="45.70149" lon="3.29467">
        <ele>455.4</ele>
        <time>2026-07-02T10:34:01.000Z</time>
      </trkpt>
      <trkpt lat="45.70134" lon="3.29489">
        <ele>454.2</ele>
        <time>2026-07-02T10:34:03.000Z</time>
      </trkpt>
      <trkpt lat="45.70121" lon="3.29514">
        <ele>453</ele>
        <time>2026-07-02T10:34:05.000Z</time>
      </trkpt>
      <trkpt lat="45.70111" lon="3.2954">
        <ele>452.2</ele>
        <time>2026-07-02T10:34:07.000Z</time>
      </trkpt>
      <trkpt lat="45.70102" lon="3.29566">
        <ele>451.8</ele>
        <time>2026-07-02T10:34:09.000Z</time>
      </trkpt>
      <trkpt lat="45.70096" lon="3.29591">
        <ele>451.4</ele>
        <time>2026-07-02T10:34:11.000Z</time>
      </trkpt>
      <trkpt lat="45.70094" lon="3.29616">
        <ele>451.2</ele>
        <time>2026-07-02T10:34:13.000Z</time>
      </trkpt>
      <trkpt lat="45.70093" lon="3.29641">
        <ele>451.2</ele>
        <time>2026-07-02T10:34:15.000Z</time>
      </trkpt>
      <trkpt lat="45.70093" lon="3.29665">
        <ele>451</ele>
        <time>2026-07-02T10:34:17.000Z</time>
      </trkpt>
      <trkpt lat="45.70091" lon="3.29688">
        <ele>450.8</ele>
        <time>2026-07-02T10:34:19.000Z</time>
      </trkpt>
      <trkpt lat="45.7009" lon="3.29711">
        <ele>450.4</ele>
        <time>2026-07-02T10:34:21.000Z</time>
      </trkpt>
      <trkpt lat="45.70088" lon="3.29733">
        <ele>450</ele>
        <time>2026-07-02T10:34:23.000Z</time>
      </trkpt>
      <trkpt lat="45.70087" lon="3.29754">
        <ele>449.4</ele>
        <time>2026-07-02T10:34:25.000Z</time>
      </trkpt>
      <trkpt lat="45.70086" lon="3.29775">
        <ele>449</ele>
        <time>2026-07-02T10:34:27.000Z</time>
      </trkpt>
      <trkpt lat="45.70087" lon="3.29796">
        <ele>448.6</ele>
        <time>2026-07-02T10:34:29.000Z</time>
      </trkpt>
      <trkpt lat="45.70089" lon="3.29818">
        <ele>448</ele>
        <time>2026-07-02T10:34:31.000Z</time>
      </trkpt>
      <trkpt lat="45.70093" lon="3.2984">
        <ele>447.4</ele>
        <time>2026-07-02T10:34:33.000Z</time>
      </trkpt>
      <trkpt lat="45.70097" lon="3.29862">
        <ele>447</ele>
        <time>2026-07-02T10:34:35.000Z</time>
      </trkpt>
      <trkpt lat="45.70099" lon="3.29885">
        <ele>446.2</ele>
        <time>2026-07-02T10:34:37.000Z</time>
      </trkpt>
      <trkpt lat="45.701" lon="3.29908">
        <ele>445.6</ele>
        <time>2026-07-02T10:34:39.000Z</time>
      </trkpt>
      <trkpt lat="45.701" lon="3.29932">
        <ele>444.8</ele>
        <time>2026-07-02T10:34:41.000Z</time>
      </trkpt>
      <trkpt lat="45.701" lon="3.29955">
        <ele>444.2</ele>
        <time>2026-07-02T10:34:43.000Z</time>
      </trkpt>
      <trkpt lat="45.70099" lon="3.29977">
        <ele>443.4</ele>
        <time>2026-07-02T10:34:45.000Z</time>
      </trkpt>
      <trkpt lat="45.70098" lon="3.29999">
        <ele>442.6</ele>
        <time>2026-07-02T10:34:47.000Z</time>
      </trkpt>
      <trkpt lat="45.70095" lon="3.30021">
        <ele>442</ele>
        <time>2026-07-02T10:34:49.000Z</time>
      </trkpt>
      <trkpt lat="45.70092" lon="3.30043">
        <ele>441.6</ele>
        <time>2026-07-02T10:34:51.000Z</time>
      </trkpt>
      <trkpt lat="45.70088" lon="3.30065">
        <ele>441.4</ele>
        <time>2026-07-02T10:34:53.000Z</time>
      </trkpt>
      <trkpt lat="45.70084" lon="3.30087">
        <ele>441</ele>
        <time>2026-07-02T10:34:55.000Z</time>
      </trkpt>
      <trkpt lat="45.70081" lon="3.30109">
        <ele>440.6</ele>
        <time>2026-07-02T10:34:57.000Z</time>
      </trkpt>
      <trkpt lat="45.70077" lon="3.30131">
        <ele>440.2</ele>
        <time>2026-07-02T10:34:59.000Z</time>
      </trkpt>
      <trkpt lat="45.70073" lon="3.30154">
        <ele>439.8</ele>
        <time>2026-07-02T10:35:01.000Z</time>
      </trkpt>
      <trkpt lat="45.7007" lon="3.30177">
        <ele>439.6</ele>
        <time>2026-07-02T10:35:03.000Z</time>
      </trkpt>
      <trkpt lat="45.70066" lon="3.30201">
        <ele>439.2</ele>
        <time>2026-07-02T10:35:05.000Z</time>
      </trkpt>
      <trkpt lat="45.70062" lon="3.30226">
        <ele>438.6</ele>
        <time>2026-07-02T10:35:07.000Z</time>
      </trkpt>
      <trkpt lat="45.70058" lon="3.30251">
        <ele>438</ele>
        <time>2026-07-02T10:35:09.000Z</time>
      </trkpt>
      <trkpt lat="45.70055" lon="3.30275">
        <ele>437.6</ele>
        <time>2026-07-02T10:35:11.000Z</time>
      </trkpt>
      <trkpt lat="45.70052" lon="3.30297">
        <ele>437.2</ele>
        <time>2026-07-02T10:35:13.000Z</time>
      </trkpt>
      <trkpt lat="45.70051" lon="3.30316">
        <ele>437</ele>
        <time>2026-07-02T10:35:15.000Z</time>
      </trkpt>
      <trkpt lat="45.70052" lon="3.30332">
        <ele>437</ele>
        <time>2026-07-02T10:35:17.000Z</time>
      </trkpt>
      <trkpt lat="45.70053" lon="3.30346">
        <ele>437.4</ele>
        <time>2026-07-02T10:35:19.000Z</time>
      </trkpt>
      <trkpt lat="45.70055" lon="3.30358">
        <ele>437.6</ele>
        <time>2026-07-02T10:35:21.000Z</time>
      </trkpt>
      <trkpt lat="45.70058" lon="3.30369">
        <ele>438</ele>
        <time>2026-07-02T10:35:23.000Z</time>
      </trkpt>
      <trkpt lat="45.7006" lon="3.30379">
        <ele>438.4</ele>
        <time>2026-07-02T10:35:25.000Z</time>
      </trkpt>
      <trkpt lat="45.70062" lon="3.30389">
        <ele>439</ele>
        <time>2026-07-02T10:35:27.000Z</time>
      </trkpt>
      <trkpt lat="45.70064" lon="3.30399">
        <ele>439.8</ele>
        <time>2026-07-02T10:35:29.000Z</time>
      </trkpt>
      <trkpt lat="45.70064" lon="3.3041">
        <ele>440</ele>
        <time>2026-07-02T10:35:31.000Z</time>
      </trkpt>
      <trkpt lat="45.70064" lon="3.30421">
        <ele>440.6</ele>
        <time>2026-07-02T10:35:33.000Z</time>
      </trkpt>
      <trkpt lat="45.70061" lon="3.30431">
        <ele>441</ele>
        <time>2026-07-02T10:35:35.000Z</time>
      </trkpt>
      <trkpt lat="45.70056" lon="3.30437">
        <ele>441.2</ele>
        <time>2026-07-02T10:35:37.000Z</time>
      </trkpt>
      <trkpt lat="45.70052" lon="3.3044">
        <ele>441.4</ele>
        <time>2026-07-02T10:35:39.000Z</time>
      </trkpt>
      <trkpt lat="45.70048" lon="3.30443">
        <ele>441.4</ele>
        <time>2026-07-02T10:35:41.000Z</time>
      </trkpt>
      <trkpt lat="45.70044" lon="3.30446">
        <ele>441.4</ele>
        <time>2026-07-02T10:35:43.000Z</time>
      </trkpt>
      <trkpt lat="45.7004" lon="3.30451">
        <ele>441.6</ele>
        <time>2026-07-02T10:35:45.000Z</time>
      </trkpt>
      <trkpt lat="45.70036" lon="3.30459">
        <ele>441.6</ele>
        <time>2026-07-02T10:35:47.000Z</time>
      </trkpt>
      <trkpt lat="45.70029" lon="3.30477">
        <ele>442</ele>
        <time>2026-07-02T10:35:50.000Z</time>
      </trkpt>
      <trkpt lat="45.70025" lon="3.30486">
        <ele>442.2</ele>
        <time>2026-07-02T10:35:52.000Z</time>
      </trkpt>
      <trkpt lat="45.70019" lon="3.30492">
        <ele>442.4</ele>
        <time>2026-07-02T10:35:54.000Z</time>
      </trkpt>
      <trkpt lat="45.70012" lon="3.30496">
        <ele>442.8</ele>
        <time>2026-07-02T10:35:56.000Z</time>
      </trkpt>
      <trkpt lat="45.70005" lon="3.30499">
        <ele>443.2</ele>
        <time>2026-07-02T10:35:58.000Z</time>
      </trkpt>
      <trkpt lat="45.69997" lon="3.30502">
        <ele>443.6</ele>
        <time>2026-07-02T10:36:00.000Z</time>
      </trkpt>
      <trkpt lat="45.69991" lon="3.30506">
        <ele>444</ele>
        <time>2026-07-02T10:36:02.000Z</time>
      </trkpt>
      <trkpt lat="45.69984" lon="3.30509">
        <ele>444.2</ele>
        <time>2026-07-02T10:36:04.000Z</time>
      </trkpt>
      <trkpt lat="45.69977" lon="3.30512">
        <ele>444.6</ele>
        <time>2026-07-02T10:36:06.000Z</time>
      </trkpt>
      <trkpt lat="45.6997" lon="3.30515">
        <ele>444.8</ele>
        <time>2026-07-02T10:36:08.000Z</time>
      </trkpt>
      <trkpt lat="45.69963" lon="3.30517">
        <ele>445.4</ele>
        <time>2026-07-02T10:36:10.000Z</time>
      </trkpt>
      <trkpt lat="45.69957" lon="3.3052">
        <ele>445.8</ele>
        <time>2026-07-02T10:36:12.000Z</time>
      </trkpt>
      <trkpt lat="45.6995" lon="3.30523">
        <ele>446.2</ele>
        <time>2026-07-02T10:36:14.000Z</time>
      </trkpt>
      <trkpt lat="45.69943" lon="3.30526">
        <ele>446.4</ele>
        <time>2026-07-02T10:36:16.000Z</time>
      </trkpt>
      <trkpt lat="45.69937" lon="3.30529">
        <ele>446.8</ele>
        <time>2026-07-02T10:36:18.000Z</time>
      </trkpt>
      <trkpt lat="45.6993" lon="3.30532">
        <ele>447.2</ele>
        <time>2026-07-02T10:36:20.000Z</time>
      </trkpt>
      <trkpt lat="45.69923" lon="3.30535">
        <ele>447.6</ele>
        <time>2026-07-02T10:36:22.000Z</time>
      </trkpt>
      <trkpt lat="45.69917" lon="3.30538">
        <ele>447.8</ele>
        <time>2026-07-02T10:36:24.000Z</time>
      </trkpt>
      <trkpt lat="45.6991" lon="3.30541">
        <ele>448.2</ele>
        <time>2026-07-02T10:36:26.000Z</time>
      </trkpt>
      <trkpt lat="45.69904" lon="3.30543">
        <ele>448.6</ele>
        <time>2026-07-02T10:36:28.000Z</time>
      </trkpt>
      <trkpt lat="45.69897" lon="3.30544">
        <ele>448.8</ele>
        <time>2026-07-02T10:36:30.000Z</time>
      </trkpt>
      <trkpt lat="45.6989" lon="3.30544">
        <ele>449</ele>
        <time>2026-07-02T10:36:32.000Z</time>
      </trkpt>
      <trkpt lat="45.69882" lon="3.30542">
        <ele>449.4</ele>
        <time>2026-07-02T10:36:34.000Z</time>
      </trkpt>
      <trkpt lat="45.69875" lon="3.3054">
        <ele>449.4</ele>
        <time>2026-07-02T10:36:36.000Z</time>
      </trkpt>
      <trkpt lat="45.69868" lon="3.30535">
        <ele>449.6</ele>
        <time>2026-07-02T10:36:38.000Z</time>
      </trkpt>
      <trkpt lat="45.69861" lon="3.3053">
        <ele>449.8</ele>
        <time>2026-07-02T10:36:40.000Z</time>
      </trkpt>
      <trkpt lat="45.69854" lon="3.30526">
        <ele>450</ele>
        <time>2026-07-02T10:36:42.000Z</time>
      </trkpt>
      <trkpt lat="45.69845" lon="3.30525">
        <ele>450.2</ele>
        <time>2026-07-02T10:36:44.000Z</time>
      </trkpt>
      <trkpt lat="45.69838" lon="3.30528">
        <ele>450.4</ele>
        <time>2026-07-02T10:36:46.000Z</time>
      </trkpt>
      <trkpt lat="45.69831" lon="3.30532">
        <ele>450.6</ele>
        <time>2026-07-02T10:36:48.000Z</time>
      </trkpt>
      <trkpt lat="45.69824" lon="3.30536">
        <ele>450.8</ele>
        <time>2026-07-02T10:36:50.000Z</time>
      </trkpt>
      <trkpt lat="45.69818" lon="3.3054">
        <ele>451.4</ele>
        <time>2026-07-02T10:36:52.000Z</time>
      </trkpt>
      <trkpt lat="45.69813" lon="3.30545">
        <ele>451.8</ele>
        <time>2026-07-02T10:36:54.000Z</time>
      </trkpt>
      <trkpt lat="45.69807" lon="3.30552">
        <ele>452.2</ele>
        <time>2026-07-02T10:36:56.000Z</time>
      </trkpt>
      <trkpt lat="45.69803" lon="3.30559">
        <ele>452.4</ele>
        <time>2026-07-02T10:36:58.000Z</time>
      </trkpt>
      <trkpt lat="45.69798" lon="3.30568">
        <ele>452.6</ele>
        <time>2026-07-02T10:37:00.000Z</time>
      </trkpt>
      <trkpt lat="45.69793" lon="3.30576">
        <ele>452.8</ele>
        <time>2026-07-02T10:37:02.000Z</time>
      </trkpt>
      <trkpt lat="45.69789" lon="3.30585">
        <ele>453</ele>
        <time>2026-07-02T10:37:04.000Z</time>
      </trkpt>
      <trkpt lat="45.69783" lon="3.30596">
        <ele>453</ele>
        <time>2026-07-02T10:37:06.000Z</time>
      </trkpt>
      <trkpt lat="45.69777" lon="3.30608">
        <ele>453</ele>
        <time>2026-07-02T10:37:08.000Z</time>
      </trkpt>
      <trkpt lat="45.69767" lon="3.30622">
        <ele>452.4</ele>
        <time>2026-07-02T10:37:10.000Z</time>
      </trkpt>
      <trkpt lat="45.69755" lon="3.30637">
        <ele>451.6</ele>
        <time>2026-07-02T10:37:12.000Z</time>
      </trkpt>
      <trkpt lat="45.69742" lon="3.3065">
        <ele>450.4</ele>
        <time>2026-07-02T10:37:14.000Z</time>
      </trkpt>
      <trkpt lat="45.69727" lon="3.30664">
        <ele>449</ele>
        <time>2026-07-02T10:37:16.000Z</time>
      </trkpt>
      <trkpt lat="45.69713" lon="3.30677">
        <ele>447.2</ele>
        <time>2026-07-02T10:37:18.000Z</time>
      </trkpt>
      <trkpt lat="45.69699" lon="3.30692">
        <ele>445.6</ele>
        <time>2026-07-02T10:37:20.000Z</time>
      </trkpt>
      <trkpt lat="45.69684" lon="3.30707">
        <ele>444</ele>
        <time>2026-07-02T10:37:22.000Z</time>
      </trkpt>
      <trkpt lat="45.6967" lon="3.30719">
        <ele>442.6</ele>
        <time>2026-07-02T10:37:24.000Z</time>
      </trkpt>
      <trkpt lat="45.69655" lon="3.30729">
        <ele>441.2</ele>
        <time>2026-07-02T10:37:26.000Z</time>
      </trkpt>
      <trkpt lat="45.69639" lon="3.30737">
        <ele>440.2</ele>
        <time>2026-07-02T10:37:28.000Z</time>
      </trkpt>
      <trkpt lat="45.69623" lon="3.30743">
        <ele>439.6</ele>
        <time>2026-07-02T10:37:30.000Z</time>
      </trkpt>
      <trkpt lat="45.69607" lon="3.30748">
        <ele>439</ele>
        <time>2026-07-02T10:37:32.000Z</time>
      </trkpt>
      <trkpt lat="45.69591" lon="3.30754">
        <ele>438.4</ele>
        <time>2026-07-02T10:37:34.000Z</time>
      </trkpt>
      <trkpt lat="45.69575" lon="3.30761">
        <ele>438.2</ele>
        <time>2026-07-02T10:37:36.000Z</time>
      </trkpt>
      <trkpt lat="45.69561" lon="3.30771">
        <ele>437.6</ele>
        <time>2026-07-02T10:37:38.000Z</time>
      </trkpt>
      <trkpt lat="45.69547" lon="3.30783">
        <ele>437.2</ele>
        <time>2026-07-02T10:37:40.000Z</time>
      </trkpt>
      <trkpt lat="45.69533" lon="3.30792">
        <ele>436.6</ele>
        <time>2026-07-02T10:37:42.000Z</time>
      </trkpt>
      <trkpt lat="45.69518" lon="3.308">
        <ele>436.2</ele>
        <time>2026-07-02T10:37:44.000Z</time>
      </trkpt>
      <trkpt lat="45.69503" lon="3.30807">
        <ele>435.8</ele>
        <time>2026-07-02T10:37:46.000Z</time>
      </trkpt>
      <trkpt lat="45.69488" lon="3.30816">
        <ele>435.6</ele>
        <time>2026-07-02T10:37:48.000Z</time>
      </trkpt>
      <trkpt lat="45.69475" lon="3.30826">
        <ele>435.6</ele>
        <time>2026-07-02T10:37:50.000Z</time>
      </trkpt>
      <trkpt lat="45.69464" lon="3.3084">
        <ele>435.6</ele>
        <time>2026-07-02T10:37:52.000Z</time>
      </trkpt>
      <trkpt lat="45.69457" lon="3.30857">
        <ele>435.6</ele>
        <time>2026-07-02T10:37:54.000Z</time>
      </trkpt>
      <trkpt lat="45.69454" lon="3.30875">
        <ele>435.6</ele>
        <time>2026-07-02T10:37:56.000Z</time>
      </trkpt>
      <trkpt lat="45.69453" lon="3.30893">
        <ele>435.4</ele>
        <time>2026-07-02T10:37:58.000Z</time>
      </trkpt>
      <trkpt lat="45.69452" lon="3.30909">
        <ele>435.4</ele>
        <time>2026-07-02T10:38:00.000Z</time>
      </trkpt>
      <trkpt lat="45.6945" lon="3.30921">
        <ele>435.4</ele>
        <time>2026-07-02T10:38:02.000Z</time>
      </trkpt>
      <trkpt lat="45.69449" lon="3.30931">
        <ele>435.6</ele>
        <time>2026-07-02T10:38:04.000Z</time>
      </trkpt>
      <trkpt lat="45.69449" lon="3.30941">
        <ele>435.8</ele>
        <time>2026-07-02T10:38:06.000Z</time>
      </trkpt>
      <trkpt lat="45.69448" lon="3.30949">
        <ele>435.8</ele>
        <time>2026-07-02T10:38:08.000Z</time>
      </trkpt>
      <trkpt lat="45.69448" lon="3.30954">
        <ele>436</ele>
        <time>2026-07-02T10:38:10.000Z</time>
      </trkpt>
      <trkpt lat="45.69445" lon="3.30958">
        <ele>436.2</ele>
        <time>2026-07-02T10:38:12.000Z</time>
      </trkpt>
      <trkpt lat="45.69441" lon="3.30962">
        <ele>436.4</ele>
        <time>2026-07-02T10:38:14.000Z</time>
      </trkpt>
      <trkpt lat="45.69436" lon="3.30966">
        <ele>436.8</ele>
        <time>2026-07-02T10:38:16.000Z</time>
      </trkpt>
      <trkpt lat="45.69432" lon="3.30972">
        <ele>437</ele>
        <time>2026-07-02T10:38:18.000Z</time>
      </trkpt>
      <trkpt lat="45.6943" lon="3.30977">
        <ele>437.2</ele>
        <time>2026-07-02T10:38:20.000Z</time>
      </trkpt>
      <trkpt lat="45.6943" lon="3.30981">
        <ele>437.2</ele>
        <time>2026-07-02T10:38:22.000Z</time>
      </trkpt>
      <trkpt lat="45.69432" lon="3.30982">
        <ele>437.2</ele>
        <time>2026-07-02T10:38:24.000Z</time>
      </trkpt>
      <trkpt lat="45.69435" lon="3.30978">
        <ele>437.2</ele>
        <time>2026-07-02T10:38:26.000Z</time>
      </trkpt>
      <trkpt lat="45.69435" lon="3.30972">
        <ele>437.2</ele>
        <time>2026-07-02T10:38:28.000Z</time>
      </trkpt>
      <trkpt lat="45.69434" lon="3.30966">
        <ele>437.2</ele>
        <time>2026-07-02T10:38:30.000Z</time>
      </trkpt>
      <trkpt lat="45.69429" lon="3.30961">
        <ele>437.2</ele>
        <time>2026-07-02T10:38:32.000Z</time>
      </trkpt>
      <trkpt lat="45.69423" lon="3.30959">
        <ele>437.2</ele>
        <time>2026-07-02T10:38:34.000Z</time>
      </trkpt>
      <trkpt lat="45.69415" lon="3.30963">
        <ele>437.4</ele>
        <time>2026-07-02T10:38:36.000Z</time>
      </trkpt>
      <trkpt lat="45.69409" lon="3.30961">
        <ele>437.4</ele>
        <time>2026-07-02T10:38:38.000Z</time>
      </trkpt>
      <trkpt lat="45.69402" lon="3.30958">
        <ele>437.6</ele>
        <time>2026-07-02T10:38:40.000Z</time>
      </trkpt>
      <trkpt lat="45.69394" lon="3.30956">
        <ele>438</ele>
        <time>2026-07-02T10:38:42.000Z</time>
      </trkpt>
      <trkpt lat="45.69387" lon="3.30955">
        <ele>438.4</ele>
        <time>2026-07-02T10:38:44.000Z</time>
      </trkpt>
      <trkpt lat="45.6938" lon="3.30953">
        <ele>438.8</ele>
        <time>2026-07-02T10:38:46.000Z</time>
      </trkpt>
      <trkpt lat="45.69373" lon="3.30952">
        <ele>439.2</ele>
        <time>2026-07-02T10:38:48.000Z</time>
      </trkpt>
      <trkpt lat="45.69366" lon="3.30953">
        <ele>439.6</ele>
        <time>2026-07-02T10:38:50.000Z</time>
      </trkpt>
      <trkpt lat="45.69359" lon="3.30957">
        <ele>440</ele>
        <time>2026-07-02T10:38:52.000Z</time>
      </trkpt>
      <trkpt lat="45.69352" lon="3.30962">
        <ele>440.2</ele>
        <time>2026-07-02T10:38:54.000Z</time>
      </trkpt>
      <trkpt lat="45.69346" lon="3.30968">
        <ele>440.6</ele>
        <time>2026-07-02T10:38:56.000Z</time>
      </trkpt>
      <trkpt lat="45.6934" lon="3.30975">
        <ele>440.8</ele>
        <time>2026-07-02T10:38:58.000Z</time>
      </trkpt>
      <trkpt lat="45.69335" lon="3.30982">
        <ele>441.2</ele>
        <time>2026-07-02T10:39:00.000Z</time>
      </trkpt>
      <trkpt lat="45.69329" lon="3.3099">
        <ele>441.4</ele>
        <time>2026-07-02T10:39:02.000Z</time>
      </trkpt>
      <trkpt lat="45.69323" lon="3.30997">
        <ele>441.6</ele>
        <time>2026-07-02T10:39:04.000Z</time>
      </trkpt>
      <trkpt lat="45.69316" lon="3.31002">
        <ele>441.8</ele>
        <time>2026-07-02T10:39:06.000Z</time>
      </trkpt>
      <trkpt lat="45.69309" lon="3.31008">
        <ele>442.2</ele>
        <time>2026-07-02T10:39:08.000Z</time>
      </trkpt>
      <trkpt lat="45.69301" lon="3.31014">
        <ele>442.4</ele>
        <time>2026-07-02T10:39:10.000Z</time>
      </trkpt>
      <trkpt lat="45.69293" lon="3.31019">
        <ele>442.6</ele>
        <time>2026-07-02T10:39:12.000Z</time>
      </trkpt>
      <trkpt lat="45.69287" lon="3.31028">
        <ele>442.8</ele>
        <time>2026-07-02T10:39:14.000Z</time>
      </trkpt>
      <trkpt lat="45.69284" lon="3.31041">
        <ele>443</ele>
        <time>2026-07-02T10:39:16.000Z</time>
      </trkpt>
      <trkpt lat="45.69279" lon="3.31053">
        <ele>443.2</ele>
        <time>2026-07-02T10:39:18.000Z</time>
      </trkpt>
      <trkpt lat="45.69273" lon="3.31064">
        <ele>443.2</ele>
        <time>2026-07-02T10:39:20.000Z</time>
      </trkpt>
      <trkpt lat="45.69266" lon="3.31073">
        <ele>443.4</ele>
        <time>2026-07-02T10:39:22.000Z</time>
      </trkpt>
      <trkpt lat="45.69259" lon="3.31081">
        <ele>443.4</ele>
        <time>2026-07-02T10:39:24.000Z</time>
      </trkpt>
      <trkpt lat="45.69252" lon="3.31087">
        <ele>443.6</ele>
        <time>2026-07-02T10:39:26.000Z</time>
      </trkpt>
      <trkpt lat="45.69244" lon="3.31093">
        <ele>443.8</ele>
        <time>2026-07-02T10:39:28.000Z</time>
      </trkpt>
      <trkpt lat="45.69236" lon="3.31098">
        <ele>444</ele>
        <time>2026-07-02T10:39:30.000Z</time>
      </trkpt>
      <trkpt lat="45.69227" lon="3.31104">
        <ele>444</ele>
        <time>2026-07-02T10:39:32.000Z</time>
      </trkpt>
      <trkpt lat="45.6922" lon="3.31111">
        <ele>444.2</ele>
        <time>2026-07-02T10:39:34.000Z</time>
      </trkpt>
      <trkpt lat="45.69212" lon="3.31119">
        <ele>444.4</ele>
        <time>2026-07-02T10:39:36.000Z</time>
      </trkpt>
      <trkpt lat="45.69206" lon="3.31127">
        <ele>444.4</ele>
        <time>2026-07-02T10:39:38.000Z</time>
      </trkpt>
      <trkpt lat="45.69199" lon="3.31136">
        <ele>444.6</ele>
        <time>2026-07-02T10:39:40.000Z</time>
      </trkpt>
      <trkpt lat="45.69192" lon="3.31145">
        <ele>444.8</ele>
        <time>2026-07-02T10:39:42.000Z</time>
      </trkpt>
      <trkpt lat="45.69186" lon="3.31154">
        <ele>445</ele>
        <time>2026-07-02T10:39:44.000Z</time>
      </trkpt>
      <trkpt lat="45.69179" lon="3.31162">
        <ele>445.2</ele>
        <time>2026-07-02T10:39:46.000Z</time>
      </trkpt>
      <trkpt lat="45.69172" lon="3.31169">
        <ele>445.4</ele>
        <time>2026-07-02T10:39:48.000Z</time>
      </trkpt>
      <trkpt lat="45.69164" lon="3.31175">
        <ele>445.6</ele>
        <time>2026-07-02T10:39:50.000Z</time>
      </trkpt>
      <trkpt lat="45.69156" lon="3.3118">
        <ele>445.8</ele>
        <time>2026-07-02T10:39:52.000Z</time>
      </trkpt>
      <trkpt lat="45.69149" lon="3.31184">
        <ele>446</ele>
        <time>2026-07-02T10:39:54.000Z</time>
      </trkpt>
      <trkpt lat="45.69141" lon="3.31187">
        <ele>446.2</ele>
        <time>2026-07-02T10:39:56.000Z</time>
      </trkpt>
      <trkpt lat="45.69134" lon="3.3119">
        <ele>446.6</ele>
        <time>2026-07-02T10:39:58.000Z</time>
      </trkpt>
      <trkpt lat="45.69126" lon="3.31194">
        <ele>447</ele>
        <time>2026-07-02T10:40:00.000Z</time>
      </trkpt>
      <trkpt lat="45.69119" lon="3.31197">
        <ele>447.2</ele>
        <time>2026-07-02T10:40:02.000Z</time>
      </trkpt>
      <trkpt lat="45.69112" lon="3.312">
        <ele>447.6</ele>
        <time>2026-07-02T10:40:04.000Z</time>
      </trkpt>
      <trkpt lat="45.69105" lon="3.31203">
        <ele>448</ele>
        <time>2026-07-02T10:40:06.000Z</time>
      </trkpt>
      <trkpt lat="45.69098" lon="3.31206">
        <ele>448.2</ele>
        <time>2026-07-02T10:40:08.000Z</time>
      </trkpt>
      <trkpt lat="45.69091" lon="3.31209">
        <ele>448.6</ele>
        <time>2026-07-02T10:40:10.000Z</time>
      </trkpt>
      <trkpt lat="45.69084" lon="3.31211">
        <ele>448.8</ele>
        <time>2026-07-02T10:40:12.000Z</time>
      </trkpt>
      <trkpt lat="45.69077" lon="3.31214">
        <ele>449.2</ele>
        <time>2026-07-02T10:40:14.000Z</time>
      </trkpt>
      <trkpt lat="45.6907" lon="3.31217">
        <ele>449.4</ele>
        <time>2026-07-02T10:40:16.000Z</time>
      </trkpt>
      <trkpt lat="45.69063" lon="3.31221">
        <ele>449.8</ele>
        <time>2026-07-02T10:40:18.000Z</time>
      </trkpt>
      <trkpt lat="45.69057" lon="3.31224">
        <ele>450</ele>
        <time>2026-07-02T10:40:20.000Z</time>
      </trkpt>
      <trkpt lat="45.6905" lon="3.31229">
        <ele>450.6</ele>
        <time>2026-07-02T10:40:22.000Z</time>
      </trkpt>
      <trkpt lat="45.69044" lon="3.31233">
        <ele>451</ele>
        <time>2026-07-02T10:40:24.000Z</time>
      </trkpt>
      <trkpt lat="45.69038" lon="3.31238">
        <ele>451.2</ele>
        <time>2026-07-02T10:40:26.000Z</time>
      </trkpt>
      <trkpt lat="45.69032" lon="3.31244">
        <ele>451.6</ele>
        <time>2026-07-02T10:40:28.000Z</time>
      </trkpt>
      <trkpt lat="45.69027" lon="3.3125">
        <ele>452</ele>
        <time>2026-07-02T10:40:30.000Z</time>
      </trkpt>
      <trkpt lat="45.69022" lon="3.31256">
        <ele>452.4</ele>
        <time>2026-07-02T10:40:33.000Z</time>
      </trkpt>
      <trkpt lat="45.69017" lon="3.31262">
        <ele>452.8</ele>
        <time>2026-07-02T10:40:35.000Z</time>
      </trkpt>
      <trkpt lat="45.69011" lon="3.31268">
        <ele>453.2</ele>
        <time>2026-07-02T10:40:37.000Z</time>
      </trkpt>
      <trkpt lat="45.69005" lon="3.31273">
        <ele>453.4</ele>
        <time>2026-07-02T10:40:39.000Z</time>
      </trkpt>
      <trkpt lat="45.68999" lon="3.31276">
        <ele>453.8</ele>
        <time>2026-07-02T10:40:41.000Z</time>
      </trkpt>
      <trkpt lat="45.68992" lon="3.3128">
        <ele>454</ele>
        <time>2026-07-02T10:40:43.000Z</time>
      </trkpt>
      <trkpt lat="45.68986" lon="3.31282">
        <ele>454.4</ele>
        <time>2026-07-02T10:40:45.000Z</time>
      </trkpt>
      <trkpt lat="45.68979" lon="3.31283">
        <ele>454.6</ele>
        <time>2026-07-02T10:40:47.000Z</time>
      </trkpt>
      <trkpt lat="45.68973" lon="3.31284">
        <ele>454.8</ele>
        <time>2026-07-02T10:40:49.000Z</time>
      </trkpt>
      <trkpt lat="45.68966" lon="3.31285">
        <ele>455.2</ele>
        <time>2026-07-02T10:40:51.000Z</time>
      </trkpt>
      <trkpt lat="45.68959" lon="3.31286">
        <ele>455.4</ele>
        <time>2026-07-02T10:40:53.000Z</time>
      </trkpt>
      <trkpt lat="45.68953" lon="3.31287">
        <ele>455.8</ele>
        <time>2026-07-02T10:40:55.000Z</time>
      </trkpt>
      <trkpt lat="45.68946" lon="3.31288">
        <ele>456</ele>
        <time>2026-07-02T10:40:57.000Z</time>
      </trkpt>
      <trkpt lat="45.6894" lon="3.31289">
        <ele>456.4</ele>
        <time>2026-07-02T10:40:59.000Z</time>
      </trkpt>
      <trkpt lat="45.68934" lon="3.3129">
        <ele>456.6</ele>
        <time>2026-07-02T10:41:01.000Z</time>
      </trkpt>
      <trkpt lat="45.68928" lon="3.31292">
        <ele>457</ele>
        <time>2026-07-02T10:41:03.000Z</time>
      </trkpt>
      <trkpt lat="45.68922" lon="3.31293">
        <ele>457.6</ele>
        <time>2026-07-02T10:41:05.000Z</time>
      </trkpt>
      <trkpt lat="45.68915" lon="3.31294">
        <ele>457.8</ele>
        <time>2026-07-02T10:41:07.000Z</time>
      </trkpt>
      <trkpt lat="45.68909" lon="3.31295">
        <ele>458.2</ele>
        <time>2026-07-02T10:41:09.000Z</time>
      </trkpt>
      <trkpt lat="45.68902" lon="3.31295">
        <ele>458.6</ele>
        <time>2026-07-02T10:41:11.000Z</time>
      </trkpt>
      <trkpt lat="45.68896" lon="3.31296">
        <ele>458.8</ele>
        <time>2026-07-02T10:41:13.000Z</time>
      </trkpt>
      <trkpt lat="45.6889" lon="3.31298">
        <ele>459.2</ele>
        <time>2026-07-02T10:41:15.000Z</time>
      </trkpt>
      <trkpt lat="45.68884" lon="3.31298">
        <ele>459.4</ele>
        <time>2026-07-02T10:41:17.000Z</time>
      </trkpt>
      <trkpt lat="45.68879" lon="3.31299">
        <ele>459.8</ele>
        <time>2026-07-02T10:41:19.000Z</time>
      </trkpt>
      <trkpt lat="45.68873" lon="3.31299">
        <ele>460.2</ele>
        <time>2026-07-02T10:41:21.000Z</time>
      </trkpt>
      <trkpt lat="45.68867" lon="3.313">
        <ele>460.6</ele>
        <time>2026-07-02T10:41:23.000Z</time>
      </trkpt>
      <trkpt lat="45.68861" lon="3.313">
        <ele>461</ele>
        <time>2026-07-02T10:41:25.000Z</time>
      </trkpt>
      <trkpt lat="45.68855" lon="3.313">
        <ele>461.4</ele>
        <time>2026-07-02T10:41:27.000Z</time>
      </trkpt>
      <trkpt lat="45.6885" lon="3.31301">
        <ele>461.8</ele>
        <time>2026-07-02T10:41:29.000Z</time>
      </trkpt>
      <trkpt lat="45.68844" lon="3.31301">
        <ele>462.2</ele>
        <time>2026-07-02T10:41:31.000Z</time>
      </trkpt>
      <trkpt lat="45.68839" lon="3.31301">
        <ele>462.6</ele>
        <time>2026-07-02T10:41:33.000Z</time>
      </trkpt>
      <trkpt lat="45.68833" lon="3.31302">
        <ele>463</ele>
        <time>2026-07-02T10:41:35.000Z</time>
      </trkpt>
      <trkpt lat="45.68828" lon="3.31303">
        <ele>463.4</ele>
        <time>2026-07-02T10:41:37.000Z</time>
      </trkpt>
      <trkpt lat="45.68822" lon="3.31303">
        <ele>464</ele>
        <time>2026-07-02T10:41:39.000Z</time>
      </trkpt>
      <trkpt lat="45.68817" lon="3.31304">
        <ele>464.4</ele>
        <time>2026-07-02T10:41:41.000Z</time>
      </trkpt>
      <trkpt lat="45.68811" lon="3.31303">
        <ele>464.8</ele>
        <time>2026-07-02T10:41:43.000Z</time>
      </trkpt>
      <trkpt lat="45.68805" lon="3.31304">
        <ele>465</ele>
        <time>2026-07-02T10:41:45.000Z</time>
      </trkpt>
      <trkpt lat="45.68799" lon="3.31304">
        <ele>465.6</ele>
        <time>2026-07-02T10:41:47.000Z</time>
      </trkpt>
      <trkpt lat="45.68794" lon="3.31304">
        <ele>466</ele>
        <time>2026-07-02T10:41:49.000Z</time>
      </trkpt>
      <trkpt lat="45.68788" lon="3.31304">
        <ele>466.4</ele>
        <time>2026-07-02T10:41:51.000Z</time>
      </trkpt>
      <trkpt lat="45.68783" lon="3.31304">
        <ele>466.8</ele>
        <time>2026-07-02T10:41:53.000Z</time>
      </trkpt>
      <trkpt lat="45.68777" lon="3.31305">
        <ele>467.2</ele>
        <time>2026-07-02T10:41:55.000Z</time>
      </trkpt>
      <trkpt lat="45.68771" lon="3.31305">
        <ele>467.6</ele>
        <time>2026-07-02T10:41:57.000Z</time>
      </trkpt>
      <trkpt lat="45.68765" lon="3.31305">
        <ele>468</ele>
        <time>2026-07-02T10:41:59.000Z</time>
      </trkpt>
      <trkpt lat="45.6876" lon="3.31304">
        <ele>468.4</ele>
        <time>2026-07-02T10:42:01.000Z</time>
      </trkpt>
      <trkpt lat="45.68754" lon="3.31304">
        <ele>468.8</ele>
        <time>2026-07-02T10:42:03.000Z</time>
      </trkpt>
      <trkpt lat="45.68748" lon="3.31303">
        <ele>469.2</ele>
        <time>2026-07-02T10:42:05.000Z</time>
      </trkpt>
      <trkpt lat="45.68743" lon="3.31301">
        <ele>469.6</ele>
        <time>2026-07-02T10:42:07.000Z</time>
      </trkpt>
      <trkpt lat="45.68737" lon="3.313">
        <ele>470</ele>
        <time>2026-07-02T10:42:09.000Z</time>
      </trkpt>
      <trkpt lat="45.68732" lon="3.31298">
        <ele>470.4</ele>
        <time>2026-07-02T10:42:11.000Z</time>
      </trkpt>
      <trkpt lat="45.68727" lon="3.31296">
        <ele>470.8</ele>
        <time>2026-07-02T10:42:13.000Z</time>
      </trkpt>
      <trkpt lat="45.68722" lon="3.31294">
        <ele>471.2</ele>
        <time>2026-07-02T10:42:15.000Z</time>
      </trkpt>
      <trkpt lat="45.68717" lon="3.31292">
        <ele>471.6</ele>
        <time>2026-07-02T10:42:17.000Z</time>
      </trkpt>
      <trkpt lat="45.68712" lon="3.3129">
        <ele>472</ele>
        <time>2026-07-02T10:42:19.000Z</time>
      </trkpt>
      <trkpt lat="45.68706" lon="3.31288">
        <ele>472.2</ele>
        <time>2026-07-02T10:42:21.000Z</time>
      </trkpt>
      <trkpt lat="45.68701" lon="3.31286">
        <ele>472.6</ele>
        <time>2026-07-02T10:42:23.000Z</time>
      </trkpt>
      <trkpt lat="45.68696" lon="3.31284">
        <ele>473</ele>
        <time>2026-07-02T10:42:25.000Z</time>
      </trkpt>
      <trkpt lat="45.68691" lon="3.31282">
        <ele>473.4</ele>
        <time>2026-07-02T10:42:27.000Z</time>
      </trkpt>
      <trkpt lat="45.68685" lon="3.31279">
        <ele>474</ele>
        <time>2026-07-02T10:42:29.000Z</time>
      </trkpt>
      <trkpt lat="45.6868" lon="3.31277">
        <ele>474.4</ele>
        <time>2026-07-02T10:42:31.000Z</time>
      </trkpt>
      <trkpt lat="45.68674" lon="3.31275">
        <ele>474.8</ele>
        <time>2026-07-02T10:42:33.000Z</time>
      </trkpt>
      <trkpt lat="45.68669" lon="3.31273">
        <ele>475.2</ele>
        <time>2026-07-02T10:42:35.000Z</time>
      </trkpt>
      <trkpt lat="45.68664" lon="3.31272">
        <ele>475.4</ele>
        <time>2026-07-02T10:42:37.000Z</time>
      </trkpt>
      <trkpt lat="45.68659" lon="3.31271">
        <ele>475.8</ele>
        <time>2026-07-02T10:42:39.000Z</time>
      </trkpt>
      <trkpt lat="45.68654" lon="3.3127">
        <ele>476.2</ele>
        <time>2026-07-02T10:42:41.000Z</time>
      </trkpt>
      <trkpt lat="45.68649" lon="3.3127">
        <ele>476.6</ele>
        <time>2026-07-02T10:42:43.000Z</time>
      </trkpt>
      <trkpt lat="45.68644" lon="3.31269">
        <ele>477</ele>
        <time>2026-07-02T10:42:45.000Z</time>
      </trkpt>
      <trkpt lat="45.68639" lon="3.31269">
        <ele>477.4</ele>
        <time>2026-07-02T10:42:47.000Z</time>
      </trkpt>
      <trkpt lat="45.68634" lon="3.31269">
        <ele>477.8</ele>
        <time>2026-07-02T10:42:49.000Z</time>
      </trkpt>
      <trkpt lat="45.68629" lon="3.31269">
        <ele>478.2</ele>
        <time>2026-07-02T10:42:51.000Z</time>
      </trkpt>
      <trkpt lat="45.68624" lon="3.3127">
        <ele>478.6</ele>
        <time>2026-07-02T10:42:53.000Z</time>
      </trkpt>
      <trkpt lat="45.68619" lon="3.3127">
        <ele>479</ele>
        <time>2026-07-02T10:42:55.000Z</time>
      </trkpt>
      <trkpt lat="45.68614" lon="3.31271">
        <ele>479.4</ele>
        <time>2026-07-02T10:42:57.000Z</time>
      </trkpt>
      <trkpt lat="45.68609" lon="3.31273">
        <ele>479.8</ele>
        <time>2026-07-02T10:42:59.000Z</time>
      </trkpt>
      <trkpt lat="45.68604" lon="3.31275">
        <ele>480.2</ele>
        <time>2026-07-02T10:43:01.000Z</time>
      </trkpt>
      <trkpt lat="45.68599" lon="3.31276">
        <ele>480.4</ele>
        <time>2026-07-02T10:43:03.000Z</time>
      </trkpt>
      <trkpt lat="45.68594" lon="3.31277">
        <ele>480.8</ele>
        <time>2026-07-02T10:43:05.000Z</time>
      </trkpt>
      <trkpt lat="45.68589" lon="3.31279">
        <ele>481</ele>
        <time>2026-07-02T10:43:07.000Z</time>
      </trkpt>
      <trkpt lat="45.68584" lon="3.31281">
        <ele>481.4</ele>
        <time>2026-07-02T10:43:09.000Z</time>
      </trkpt>
      <trkpt lat="45.68579" lon="3.31284">
        <ele>482</ele>
        <time>2026-07-02T10:43:11.000Z</time>
      </trkpt>
      <trkpt lat="45.68574" lon="3.31286">
        <ele>482.4</ele>
        <time>2026-07-02T10:43:13.000Z</time>
      </trkpt>
      <trkpt lat="45.68569" lon="3.31288">
        <ele>482.8</ele>
        <time>2026-07-02T10:43:15.000Z</time>
      </trkpt>
      <trkpt lat="45.68564" lon="3.31291">
        <ele>483</ele>
        <time>2026-07-02T10:43:17.000Z</time>
      </trkpt>
      <trkpt lat="45.68559" lon="3.31293">
        <ele>483.4</ele>
        <time>2026-07-02T10:43:19.000Z</time>
      </trkpt>
      <trkpt lat="45.68554" lon="3.31296">
        <ele>483.6</ele>
        <time>2026-07-02T10:43:21.000Z</time>
      </trkpt>
      <trkpt lat="45.68549" lon="3.31298">
        <ele>484</ele>
        <time>2026-07-02T10:43:23.000Z</time>
      </trkpt>
      <trkpt lat="45.68544" lon="3.313">
        <ele>484.4</ele>
        <time>2026-07-02T10:43:25.000Z</time>
      </trkpt>
      <trkpt lat="45.6854" lon="3.31302">
        <ele>484.8</ele>
        <time>2026-07-02T10:43:27.000Z</time>
      </trkpt>
      <trkpt lat="45.68535" lon="3.31304">
        <ele>485.2</ele>
        <time>2026-07-02T10:43:29.000Z</time>
      </trkpt>
      <trkpt lat="45.68529" lon="3.31305">
        <ele>485.4</ele>
        <time>2026-07-02T10:43:31.000Z</time>
      </trkpt>
      <trkpt lat="45.68524" lon="3.31305">
        <ele>485.8</ele>
        <time>2026-07-02T10:43:33.000Z</time>
      </trkpt>
      <trkpt lat="45.68518" lon="3.31306">
        <ele>486.2</ele>
        <time>2026-07-02T10:43:35.000Z</time>
      </trkpt>
      <trkpt lat="45.68513" lon="3.31306">
        <ele>486.6</ele>
        <time>2026-07-02T10:43:37.000Z</time>
      </trkpt>
      <trkpt lat="45.68508" lon="3.31306">
        <ele>487</ele>
        <time>2026-07-02T10:43:39.000Z</time>
      </trkpt>
      <trkpt lat="45.68502" lon="3.31305">
        <ele>487.4</ele>
        <time>2026-07-02T10:43:41.000Z</time>
      </trkpt>
      <trkpt lat="45.68497" lon="3.31303">
        <ele>487.8</ele>
        <time>2026-07-02T10:43:43.000Z</time>
      </trkpt>
      <trkpt lat="45.68492" lon="3.31303">
        <ele>488.2</ele>
        <time>2026-07-02T10:43:45.000Z</time>
      </trkpt>
      <trkpt lat="45.68487" lon="3.31302">
        <ele>488.6</ele>
        <time>2026-07-02T10:43:47.000Z</time>
      </trkpt>
      <trkpt lat="45.68483" lon="3.31301">
        <ele>488.8</ele>
        <time>2026-07-02T10:43:49.000Z</time>
      </trkpt>
      <trkpt lat="45.68478" lon="3.313">
        <ele>489.2</ele>
        <time>2026-07-02T10:43:51.000Z</time>
      </trkpt>
      <trkpt lat="45.68473" lon="3.31301">
        <ele>489.8</ele>
        <time>2026-07-02T10:43:53.000Z</time>
      </trkpt>
      <trkpt lat="45.68468" lon="3.31301">
        <ele>490.2</ele>
        <time>2026-07-02T10:43:55.000Z</time>
      </trkpt>
      <trkpt lat="45.68463" lon="3.31302">
        <ele>490.6</ele>
        <time>2026-07-02T10:43:57.000Z</time>
      </trkpt>
      <trkpt lat="45.68458" lon="3.31304">
        <ele>491</ele>
        <time>2026-07-02T10:43:59.000Z</time>
      </trkpt>
      <trkpt lat="45.68452" lon="3.31306">
        <ele>491.4</ele>
        <time>2026-07-02T10:44:01.000Z</time>
      </trkpt>
      <trkpt lat="45.68447" lon="3.31308">
        <ele>491.8</ele>
        <time>2026-07-02T10:44:03.000Z</time>
      </trkpt>
      <trkpt lat="45.68442" lon="3.3131">
        <ele>492.2</ele>
        <time>2026-07-02T10:44:05.000Z</time>
      </trkpt>
      <trkpt lat="45.68437" lon="3.31314">
        <ele>492.4</ele>
        <time>2026-07-02T10:44:07.000Z</time>
      </trkpt>
      <trkpt lat="45.68432" lon="3.31317">
        <ele>492.6</ele>
        <time>2026-07-02T10:44:09.000Z</time>
      </trkpt>
      <trkpt lat="45.68427" lon="3.31321">
        <ele>493</ele>
        <time>2026-07-02T10:44:11.000Z</time>
      </trkpt>
      <trkpt lat="45.68423" lon="3.31325">
        <ele>493.4</ele>
        <time>2026-07-02T10:44:13.000Z</time>
      </trkpt>
      <trkpt lat="45.68419" lon="3.3133">
        <ele>493.8</ele>
        <time>2026-07-02T10:44:15.000Z</time>
      </trkpt>
      <trkpt lat="45.68415" lon="3.31334">
        <ele>494</ele>
        <time>2026-07-02T10:44:17.000Z</time>
      </trkpt>
      <trkpt lat="45.68411" lon="3.31338">
        <ele>494.4</ele>
        <time>2026-07-02T10:44:19.000Z</time>
      </trkpt>
      <trkpt lat="45.68407" lon="3.31342">
        <ele>494.8</ele>
        <time>2026-07-02T10:44:21.000Z</time>
      </trkpt>
      <trkpt lat="45.68403" lon="3.31346">
        <ele>495</ele>
        <time>2026-07-02T10:44:23.000Z</time>
      </trkpt>
      <trkpt lat="45.68399" lon="3.3135">
        <ele>495.4</ele>
        <time>2026-07-02T10:44:25.000Z</time>
      </trkpt>
      <trkpt lat="45.68394" lon="3.31352">
        <ele>496</ele>
        <time>2026-07-02T10:44:27.000Z</time>
      </trkpt>
      <trkpt lat="45.68388" lon="3.31356">
        <ele>496.4</ele>
        <time>2026-07-02T10:44:29.000Z</time>
      </trkpt>
      <trkpt lat="45.68383" lon="3.31359">
        <ele>497</ele>
        <time>2026-07-02T10:44:31.000Z</time>
      </trkpt>
      <trkpt lat="45.68378" lon="3.31362">
        <ele>497.4</ele>
        <time>2026-07-02T10:44:33.000Z</time>
      </trkpt>
      <trkpt lat="45.68373" lon="3.31365">
        <ele>497.8</ele>
        <time>2026-07-02T10:44:35.000Z</time>
      </trkpt>
      <trkpt lat="45.68368" lon="3.31367">
        <ele>498.2</ele>
        <time>2026-07-02T10:44:37.000Z</time>
      </trkpt>
      <trkpt lat="45.68363" lon="3.3137">
        <ele>498.6</ele>
        <time>2026-07-02T10:44:39.000Z</time>
      </trkpt>
      <trkpt lat="45.68359" lon="3.31372">
        <ele>499</ele>
        <time>2026-07-02T10:44:41.000Z</time>
      </trkpt>
      <trkpt lat="45.68354" lon="3.31375">
        <ele>499.4</ele>
        <time>2026-07-02T10:44:43.000Z</time>
      </trkpt>
      <trkpt lat="45.68349" lon="3.31378">
        <ele>499.8</ele>
        <time>2026-07-02T10:44:45.000Z</time>
      </trkpt>
      <trkpt lat="45.68344" lon="3.31381">
        <ele>500.2</ele>
        <time>2026-07-02T10:44:47.000Z</time>
      </trkpt>
      <trkpt lat="45.68339" lon="3.31383">
        <ele>500.4</ele>
        <time>2026-07-02T10:44:49.000Z</time>
      </trkpt>
      <trkpt lat="45.68335" lon="3.31385">
        <ele>500.6</ele>
        <time>2026-07-02T10:44:51.000Z</time>
      </trkpt>
      <trkpt lat="45.6833" lon="3.31388">
        <ele>500.8</ele>
        <time>2026-07-02T10:44:53.000Z</time>
      </trkpt>
      <trkpt lat="45.68324" lon="3.31391">
        <ele>500.8</ele>
        <time>2026-07-02T10:44:55.000Z</time>
      </trkpt>
      <trkpt lat="45.68317" lon="3.31394">
        <ele>500.8</ele>
        <time>2026-07-02T10:44:57.000Z</time>
      </trkpt>
      <trkpt lat="45.68308" lon="3.31398">
        <ele>500.6</ele>
        <time>2026-07-02T10:44:59.000Z</time>
      </trkpt>
      <trkpt lat="45.68298" lon="3.31401">
        <ele>500.2</ele>
        <time>2026-07-02T10:45:01.000Z</time>
      </trkpt>
      <trkpt lat="45.68287" lon="3.31402">
        <ele>499.8</ele>
        <time>2026-07-02T10:45:03.000Z</time>
      </trkpt>
      <trkpt lat="45.68277" lon="3.314">
        <ele>499.6</ele>
        <time>2026-07-02T10:45:05.000Z</time>
      </trkpt>
      <trkpt lat="45.68268" lon="3.31399">
        <ele>499.6</ele>
        <time>2026-07-02T10:45:07.000Z</time>
      </trkpt>
      <trkpt lat="45.6826" lon="3.31397">
        <ele>499.6</ele>
        <time>2026-07-02T10:45:09.000Z</time>
      </trkpt>
      <trkpt lat="45.68252" lon="3.31396">
        <ele>500</ele>
        <time>2026-07-02T10:45:11.000Z</time>
      </trkpt>
      <trkpt lat="45.68245" lon="3.31397">
        <ele>500.4</ele>
        <time>2026-07-02T10:45:13.000Z</time>
      </trkpt>
      <trkpt lat="45.68238" lon="3.31398">
        <ele>500.8</ele>
        <time>2026-07-02T10:45:15.000Z</time>
      </trkpt>
      <trkpt lat="45.6823" lon="3.31399">
        <ele>501.2</ele>
        <time>2026-07-02T10:45:17.000Z</time>
      </trkpt>
      <trkpt lat="45.68223" lon="3.314">
        <ele>501.6</ele>
        <time>2026-07-02T10:45:19.000Z</time>
      </trkpt>
      <trkpt lat="45.68215" lon="3.314">
        <ele>501.8</ele>
        <time>2026-07-02T10:45:21.000Z</time>
      </trkpt>
      <trkpt lat="45.68208" lon="3.314">
        <ele>502</ele>
        <time>2026-07-02T10:45:23.000Z</time>
      </trkpt>
      <trkpt lat="45.682" lon="3.31398">
        <ele>502.2</ele>
        <time>2026-07-02T10:45:25.000Z</time>
      </trkpt>
      <trkpt lat="45.68193" lon="3.31395">
        <ele>502.4</ele>
        <time>2026-07-02T10:45:27.000Z</time>
      </trkpt>
      <trkpt lat="45.68185" lon="3.31392">
        <ele>502.6</ele>
        <time>2026-07-02T10:45:29.000Z</time>
      </trkpt>
      <trkpt lat="45.68177" lon="3.31388">
        <ele>502.8</ele>
        <time>2026-07-02T10:45:31.000Z</time>
      </trkpt>
      <trkpt lat="45.68169" lon="3.31384">
        <ele>503</ele>
        <time>2026-07-02T10:45:33.000Z</time>
      </trkpt>
      <trkpt lat="45.68162" lon="3.31381">
        <ele>503.2</ele>
        <time>2026-07-02T10:45:35.000Z</time>
      </trkpt>
      <trkpt lat="45.68155" lon="3.31378">
        <ele>503.4</ele>
        <time>2026-07-02T10:45:37.000Z</time>
      </trkpt>
      <trkpt lat="45.68148" lon="3.31374">
        <ele>503.4</ele>
        <time>2026-07-02T10:45:39.000Z</time>
      </trkpt>
      <trkpt lat="45.6814" lon="3.3137">
        <ele>503.6</ele>
        <time>2026-07-02T10:45:41.000Z</time>
      </trkpt>
      <trkpt lat="45.68133" lon="3.31367">
        <ele>503.8</ele>
        <time>2026-07-02T10:45:43.000Z</time>
      </trkpt>
      <trkpt lat="45.68125" lon="3.31364">
        <ele>504.2</ele>
        <time>2026-07-02T10:45:45.000Z</time>
      </trkpt>
      <trkpt lat="45.68118" lon="3.31361">
        <ele>504.4</ele>
        <time>2026-07-02T10:45:47.000Z</time>
      </trkpt>
      <trkpt lat="45.68111" lon="3.31358">
        <ele>504.6</ele>
        <time>2026-07-02T10:45:49.000Z</time>
      </trkpt>
      <trkpt lat="45.68104" lon="3.31355">
        <ele>504.8</ele>
        <time>2026-07-02T10:45:51.000Z</time>
      </trkpt>
      <trkpt lat="45.68097" lon="3.31352">
        <ele>505</ele>
        <time>2026-07-02T10:45:53.000Z</time>
      </trkpt>
      <trkpt lat="45.6809" lon="3.31349">
        <ele>505.2</ele>
        <time>2026-07-02T10:45:55.000Z</time>
      </trkpt>
      <trkpt lat="45.68084" lon="3.31346">
        <ele>505.4</ele>
        <time>2026-07-02T10:45:57.000Z</time>
      </trkpt>
      <trkpt lat="45.68077" lon="3.31344">
        <ele>505.6</ele>
        <time>2026-07-02T10:45:59.000Z</time>
      </trkpt>
      <trkpt lat="45.6807" lon="3.31341">
        <ele>506</ele>
        <time>2026-07-02T10:46:01.000Z</time>
      </trkpt>
      <trkpt lat="45.68064" lon="3.31338">
        <ele>506.4</ele>
        <time>2026-07-02T10:46:03.000Z</time>
      </trkpt>
      <trkpt lat="45.68058" lon="3.31335">
        <ele>506.8</ele>
        <time>2026-07-02T10:46:05.000Z</time>
      </trkpt>
      <trkpt lat="45.68051" lon="3.31333">
        <ele>507.2</ele>
        <time>2026-07-02T10:46:07.000Z</time>
      </trkpt>
      <trkpt lat="45.68045" lon="3.3133">
        <ele>507.6</ele>
        <time>2026-07-02T10:46:09.000Z</time>
      </trkpt>
      <trkpt lat="45.68039" lon="3.31328">
        <ele>508</ele>
        <time>2026-07-02T10:46:11.000Z</time>
      </trkpt>
      <trkpt lat="45.68032" lon="3.31326">
        <ele>508.4</ele>
        <time>2026-07-02T10:46:13.000Z</time>
      </trkpt>
      <trkpt lat="45.68026" lon="3.31324">
        <ele>508.8</ele>
        <time>2026-07-02T10:46:15.000Z</time>
      </trkpt>
      <trkpt lat="45.6802" lon="3.31323">
        <ele>509.2</ele>
        <time>2026-07-02T10:46:17.000Z</time>
      </trkpt>
      <trkpt lat="45.68014" lon="3.31321">
        <ele>509.6</ele>
        <time>2026-07-02T10:46:19.000Z</time>
      </trkpt>
      <trkpt lat="45.68008" lon="3.31319">
        <ele>510</ele>
        <time>2026-07-02T10:46:21.000Z</time>
      </trkpt>
      <trkpt lat="45.68002" lon="3.31318">
        <ele>510.2</ele>
        <time>2026-07-02T10:46:23.000Z</time>
      </trkpt>
      <trkpt lat="45.67996" lon="3.31317">
        <ele>510.6</ele>
        <time>2026-07-02T10:46:25.000Z</time>
      </trkpt>
      <trkpt lat="45.6799" lon="3.31315">
        <ele>511</ele>
        <time>2026-07-02T10:46:27.000Z</time>
      </trkpt>
      <trkpt lat="45.67984" lon="3.31314">
        <ele>511.2</ele>
        <time>2026-07-02T10:46:29.000Z</time>
      </trkpt>
      <trkpt lat="45.67978" lon="3.31312">
        <ele>511.6</ele>
        <time>2026-07-02T10:46:31.000Z</time>
      </trkpt>
      <trkpt lat="45.67972" lon="3.31311">
        <ele>512</ele>
        <time>2026-07-02T10:46:33.000Z</time>
      </trkpt>
      <trkpt lat="45.67966" lon="3.31309">
        <ele>512.2</ele>
        <time>2026-07-02T10:46:35.000Z</time>
      </trkpt>
      <trkpt lat="45.6796" lon="3.31308">
        <ele>512.6</ele>
        <time>2026-07-02T10:46:37.000Z</time>
      </trkpt>
      <trkpt lat="45.67954" lon="3.31306">
        <ele>512.8</ele>
        <time>2026-07-02T10:46:39.000Z</time>
      </trkpt>
      <trkpt lat="45.67948" lon="3.31304">
        <ele>513.4</ele>
        <time>2026-07-02T10:46:41.000Z</time>
      </trkpt>
      <trkpt lat="45.67943" lon="3.31302">
        <ele>513.6</ele>
        <time>2026-07-02T10:46:43.000Z</time>
      </trkpt>
      <trkpt lat="45.67938" lon="3.313">
        <ele>514</ele>
        <time>2026-07-02T10:46:45.000Z</time>
      </trkpt>
      <trkpt lat="45.67932" lon="3.31297">
        <ele>514.2</ele>
        <time>2026-07-02T10:46:47.000Z</time>
      </trkpt>
      <trkpt lat="45.67927" lon="3.31294">
        <ele>514.4</ele>
        <time>2026-07-02T10:46:49.000Z</time>
      </trkpt>
      <trkpt lat="45.67921" lon="3.31291">
        <ele>514.8</ele>
        <time>2026-07-02T10:46:51.000Z</time>
      </trkpt>
      <trkpt lat="45.67916" lon="3.31286">
        <ele>515</ele>
        <time>2026-07-02T10:46:53.000Z</time>
      </trkpt>
      <trkpt lat="45.6791" lon="3.31283">
        <ele>515.4</ele>
        <time>2026-07-02T10:46:55.000Z</time>
      </trkpt>
      <trkpt lat="45.67904" lon="3.3128">
        <ele>515.6</ele>
        <time>2026-07-02T10:46:57.000Z</time>
      </trkpt>
      <trkpt lat="45.67898" lon="3.31277">
        <ele>516</ele>
        <time>2026-07-02T10:46:59.000Z</time>
      </trkpt>
      <trkpt lat="45.67892" lon="3.31275">
        <ele>516.2</ele>
        <time>2026-07-02T10:47:01.000Z</time>
      </trkpt>
      <trkpt lat="45.67886" lon="3.31272">
        <ele>516.4</ele>
        <time>2026-07-02T10:47:03.000Z</time>
      </trkpt>
      <trkpt lat="45.6788" lon="3.3127">
        <ele>516.6</ele>
        <time>2026-07-02T10:47:05.000Z</time>
      </trkpt>
      <trkpt lat="45.67874" lon="3.31269">
        <ele>516.8</ele>
        <time>2026-07-02T10:47:07.000Z</time>
      </trkpt>
      <trkpt lat="45.67869" lon="3.31267">
        <ele>517.2</ele>
        <time>2026-07-02T10:47:09.000Z</time>
      </trkpt>
      <trkpt lat="45.67863" lon="3.31267">
        <ele>517.6</ele>
        <time>2026-07-02T10:47:11.000Z</time>
      </trkpt>
      <trkpt lat="45.67857" lon="3.31266">
        <ele>517.8</ele>
        <time>2026-07-02T10:47:13.000Z</time>
      </trkpt>
      <trkpt lat="45.67852" lon="3.31265">
        <ele>518.2</ele>
        <time>2026-07-02T10:47:15.000Z</time>
      </trkpt>
      <trkpt lat="45.67846" lon="3.31264">
        <ele>518.6</ele>
        <time>2026-07-02T10:47:17.000Z</time>
      </trkpt>
      <trkpt lat="45.67841" lon="3.31264">
        <ele>519</ele>
        <time>2026-07-02T10:47:19.000Z</time>
      </trkpt>
      <trkpt lat="45.67835" lon="3.31264">
        <ele>519.4</ele>
        <time>2026-07-02T10:47:21.000Z</time>
      </trkpt>
      <trkpt lat="45.6783" lon="3.31264">
        <ele>519.8</ele>
        <time>2026-07-02T10:47:23.000Z</time>
      </trkpt>
      <trkpt lat="45.67825" lon="3.31264">
        <ele>520.2</ele>
        <time>2026-07-02T10:47:25.000Z</time>
      </trkpt>
      <trkpt lat="45.67819" lon="3.31263">
        <ele>520.6</ele>
        <time>2026-07-02T10:47:27.000Z</time>
      </trkpt>
      <trkpt lat="45.67814" lon="3.31263">
        <ele>521</ele>
        <time>2026-07-02T10:47:29.000Z</time>
      </trkpt>
      <trkpt lat="45.67809" lon="3.31262">
        <ele>521.2</ele>
        <time>2026-07-02T10:47:31.000Z</time>
      </trkpt>
      <trkpt lat="45.67804" lon="3.31261">
        <ele>521.8</ele>
        <time>2026-07-02T10:47:33.000Z</time>
      </trkpt>
      <trkpt lat="45.67799" lon="3.31258">
        <ele>522.2</ele>
        <time>2026-07-02T10:47:35.000Z</time>
      </trkpt>
      <trkpt lat="45.67795" lon="3.31256">
        <ele>522.4</ele>
        <time>2026-07-02T10:47:37.000Z</time>
      </trkpt>
      <trkpt lat="45.6779" lon="3.31253">
        <ele>522.8</ele>
        <time>2026-07-02T10:47:39.000Z</time>
      </trkpt>
      <trkpt lat="45.67786" lon="3.31251">
        <ele>523.2</ele>
        <time>2026-07-02T10:47:41.000Z</time>
      </trkpt>
      <trkpt lat="45.67781" lon="3.31249">
        <ele>523.6</ele>
        <time>2026-07-02T10:47:43.000Z</time>
      </trkpt>
      <trkpt lat="45.67775" lon="3.31248">
        <ele>524</ele>
        <time>2026-07-02T10:47:45.000Z</time>
      </trkpt>
      <trkpt lat="45.6777" lon="3.31248">
        <ele>524.4</ele>
        <time>2026-07-02T10:47:47.000Z</time>
      </trkpt>
      <trkpt lat="45.67766" lon="3.31247">
        <ele>524.6</ele>
        <time>2026-07-02T10:47:49.000Z</time>
      </trkpt>
      <trkpt lat="45.67761" lon="3.31247">
        <ele>525</ele>
        <time>2026-07-02T10:47:51.000Z</time>
      </trkpt>
      <trkpt lat="45.67755" lon="3.31248">
        <ele>525.4</ele>
        <time>2026-07-02T10:47:53.000Z</time>
      </trkpt>
      <trkpt lat="45.6775" lon="3.31249">
        <ele>525.6</ele>
        <time>2026-07-02T10:47:55.000Z</time>
      </trkpt>
      <trkpt lat="45.67745" lon="3.3125">
        <ele>526</ele>
        <time>2026-07-02T10:47:57.000Z</time>
      </trkpt>
      <trkpt lat="45.6774" lon="3.31251">
        <ele>526.4</ele>
        <time>2026-07-02T10:47:59.000Z</time>
      </trkpt>
      <trkpt lat="45.67734" lon="3.31252">
        <ele>526.6</ele>
        <time>2026-07-02T10:48:01.000Z</time>
      </trkpt>
      <trkpt lat="45.67729" lon="3.31253">
        <ele>527</ele>
        <time>2026-07-02T10:48:03.000Z</time>
      </trkpt>
      <trkpt lat="45.67724" lon="3.31254">
        <ele>527.6</ele>
        <time>2026-07-02T10:48:05.000Z</time>
      </trkpt>
      <trkpt lat="45.67718" lon="3.31254">
        <ele>528</ele>
        <time>2026-07-02T10:48:07.000Z</time>
      </trkpt>
      <trkpt lat="45.67713" lon="3.31255">
        <ele>528.2</ele>
        <time>2026-07-02T10:48:09.000Z</time>
      </trkpt>
      <trkpt lat="45.67708" lon="3.31256">
        <ele>528.6</ele>
        <time>2026-07-02T10:48:11.000Z</time>
      </trkpt>
      <trkpt lat="45.67703" lon="3.31257">
        <ele>529</ele>
        <time>2026-07-02T10:48:13.000Z</time>
      </trkpt>
      <trkpt lat="45.67698" lon="3.31258">
        <ele>529.4</ele>
        <time>2026-07-02T10:48:15.000Z</time>
      </trkpt>
      <trkpt lat="45.67693" lon="3.3126">
        <ele>529.8</ele>
        <time>2026-07-02T10:48:17.000Z</time>
      </trkpt>
      <trkpt lat="45.67687" lon="3.31261">
        <ele>530.2</ele>
        <time>2026-07-02T10:48:19.000Z</time>
      </trkpt>
      <trkpt lat="45.67682" lon="3.31262">
        <ele>530.6</ele>
        <time>2026-07-02T10:48:21.000Z</time>
      </trkpt>
      <trkpt lat="45.67678" lon="3.31263">
        <ele>530.8</ele>
        <time>2026-07-02T10:48:23.000Z</time>
      </trkpt>
      <trkpt lat="45.67673" lon="3.31264">
        <ele>531.2</ele>
        <time>2026-07-02T10:48:25.000Z</time>
      </trkpt>
      <trkpt lat="45.67668" lon="3.31265">
        <ele>531.6</ele>
        <time>2026-07-02T10:48:27.000Z</time>
      </trkpt>
      <trkpt lat="45.67663" lon="3.31266">
        <ele>531.8</ele>
        <time>2026-07-02T10:48:29.000Z</time>
      </trkpt>
      <trkpt lat="45.67657" lon="3.31268">
        <ele>532.2</ele>
        <time>2026-07-02T10:48:31.000Z</time>
      </trkpt>
      <trkpt lat="45.67652" lon="3.31269">
        <ele>532.6</ele>
        <time>2026-07-02T10:48:33.000Z</time>
      </trkpt>
      <trkpt lat="45.67647" lon="3.3127">
        <ele>532.8</ele>
        <time>2026-07-02T10:48:35.000Z</time>
      </trkpt>
      <trkpt lat="45.67642" lon="3.31272">
        <ele>533.2</ele>
        <time>2026-07-02T10:48:37.000Z</time>
      </trkpt>
      <trkpt lat="45.67637" lon="3.31272">
        <ele>533.6</ele>
        <time>2026-07-02T10:48:39.000Z</time>
      </trkpt>
      <trkpt lat="45.67632" lon="3.31274">
        <ele>534</ele>
        <time>2026-07-02T10:48:41.000Z</time>
      </trkpt>
      <trkpt lat="45.67627" lon="3.31275">
        <ele>534.4</ele>
        <time>2026-07-02T10:48:43.000Z</time>
      </trkpt>
      <trkpt lat="45.67622" lon="3.31275">
        <ele>534.8</ele>
        <time>2026-07-02T10:48:45.000Z</time>
      </trkpt>
      <trkpt lat="45.67617" lon="3.31275">
        <ele>535.4</ele>
        <time>2026-07-02T10:48:47.000Z</time>
      </trkpt>
      <trkpt lat="45.67612" lon="3.31275">
        <ele>535.8</ele>
        <time>2026-07-02T10:48:49.000Z</time>
      </trkpt>
      <trkpt lat="45.67608" lon="3.31275">
        <ele>536.2</ele>
        <time>2026-07-02T10:48:51.000Z</time>
      </trkpt>
      <trkpt lat="45.67603" lon="3.31275">
        <ele>536.6</ele>
        <time>2026-07-02T10:48:53.000Z</time>
      </trkpt>
      <trkpt lat="45.67599" lon="3.31275">
        <ele>536.8</ele>
        <time>2026-07-02T10:48:55.000Z</time>
      </trkpt>
      <trkpt lat="45.67594" lon="3.31275">
        <ele>537.2</ele>
        <time>2026-07-02T10:48:57.000Z</time>
      </trkpt>
      <trkpt lat="45.67589" lon="3.31275">
        <ele>537.6</ele>
        <time>2026-07-02T10:48:59.000Z</time>
      </trkpt>
      <trkpt lat="45.67584" lon="3.31276">
        <ele>538</ele>
        <time>2026-07-02T10:49:01.000Z</time>
      </trkpt>
      <trkpt lat="45.67579" lon="3.31278">
        <ele>538.4</ele>
        <time>2026-07-02T10:49:03.000Z</time>
      </trkpt>
      <trkpt lat="45.67574" lon="3.31281">
        <ele>538.6</ele>
        <time>2026-07-02T10:49:05.000Z</time>
      </trkpt>
      <trkpt lat="45.67569" lon="3.31285">
        <ele>539</ele>
        <time>2026-07-02T10:49:07.000Z</time>
      </trkpt>
      <trkpt lat="45.67565" lon="3.3129">
        <ele>539.4</ele>
        <time>2026-07-02T10:49:09.000Z</time>
      </trkpt>
      <trkpt lat="45.67561" lon="3.31295">
        <ele>539.8</ele>
        <time>2026-07-02T10:49:11.000Z</time>
      </trkpt>
      <trkpt lat="45.67557" lon="3.31301">
        <ele>540</ele>
        <time>2026-07-02T10:49:13.000Z</time>
      </trkpt>
      <trkpt lat="45.67554" lon="3.31305">
        <ele>540.4</ele>
        <time>2026-07-02T10:49:15.000Z</time>
      </trkpt>
      <trkpt lat="45.6755" lon="3.31309">
        <ele>541</ele>
        <time>2026-07-02T10:49:17.000Z</time>
      </trkpt>
      <trkpt lat="45.67546" lon="3.31314">
        <ele>541.4</ele>
        <time>2026-07-02T10:49:19.000Z</time>
      </trkpt>
      <trkpt lat="45.67542" lon="3.31318">
        <ele>541.6</ele>
        <time>2026-07-02T10:49:21.000Z</time>
      </trkpt>
      <trkpt lat="45.67538" lon="3.31323">
        <ele>542</ele>
        <time>2026-07-02T10:49:23.000Z</time>
      </trkpt>
      <trkpt lat="45.67534" lon="3.31328">
        <ele>542.4</ele>
        <time>2026-07-02T10:49:25.000Z</time>
      </trkpt>
      <trkpt lat="45.6753" lon="3.31332">
        <ele>542.8</ele>
        <time>2026-07-02T10:49:27.000Z</time>
      </trkpt>
      <trkpt lat="45.67526" lon="3.31337">
        <ele>543.4</ele>
        <time>2026-07-02T10:49:29.000Z</time>
      </trkpt>
      <trkpt lat="45.67522" lon="3.31341">
        <ele>543.6</ele>
        <time>2026-07-02T10:49:31.000Z</time>
      </trkpt>
      <trkpt lat="45.67518" lon="3.31345">
        <ele>544</ele>
        <time>2026-07-02T10:49:33.000Z</time>
      </trkpt>
      <trkpt lat="45.67514" lon="3.31349">
        <ele>544.2</ele>
        <time>2026-07-02T10:49:35.000Z</time>
      </trkpt>
      <trkpt lat="45.6751" lon="3.31353">
        <ele>544.6</ele>
        <time>2026-07-02T10:49:37.000Z</time>
      </trkpt>
      <trkpt lat="45.67506" lon="3.31358">
        <ele>544.8</ele>
        <time>2026-07-02T10:49:39.000Z</time>
      </trkpt>
      <trkpt lat="45.67503" lon="3.31363">
        <ele>545.2</ele>
        <time>2026-07-02T10:49:41.000Z</time>
      </trkpt>
      <trkpt lat="45.67499" lon="3.31368">
        <ele>545.6</ele>
        <time>2026-07-02T10:49:43.000Z</time>
      </trkpt>
      <trkpt lat="45.67495" lon="3.31372">
        <ele>546.2</ele>
        <time>2026-07-02T10:49:45.000Z</time>
      </trkpt>
      <trkpt lat="45.67492" lon="3.31377">
        <ele>546.6</ele>
        <time>2026-07-02T10:49:47.000Z</time>
      </trkpt>
      <trkpt lat="45.67488" lon="3.31382">
        <ele>547.2</ele>
        <time>2026-07-02T10:49:49.000Z</time>
      </trkpt>
      <trkpt lat="45.67485" lon="3.31387">
        <ele>547.4</ele>
        <time>2026-07-02T10:49:51.000Z</time>
      </trkpt>
      <trkpt lat="45.6748" lon="3.31391">
        <ele>547.8</ele>
        <time>2026-07-02T10:49:53.000Z</time>
      </trkpt>
      <trkpt lat="45.67476" lon="3.31394">
        <ele>548</ele>
        <time>2026-07-02T10:49:55.000Z</time>
      </trkpt>
      <trkpt lat="45.67471" lon="3.31397">
        <ele>548.4</ele>
        <time>2026-07-02T10:49:57.000Z</time>
      </trkpt>
      <trkpt lat="45.67466" lon="3.314">
        <ele>548.6</ele>
        <time>2026-07-02T10:49:59.000Z</time>
      </trkpt>
      <trkpt lat="45.67461" lon="3.31403">
        <ele>548.8</ele>
        <time>2026-07-02T10:50:01.000Z</time>
      </trkpt>
      <trkpt lat="45.67456" lon="3.31404">
        <ele>549</ele>
        <time>2026-07-02T10:50:03.000Z</time>
      </trkpt>
      <trkpt lat="45.67451" lon="3.31405">
        <ele>549.2</ele>
        <time>2026-07-02T10:50:05.000Z</time>
      </trkpt>
      <trkpt lat="45.67446" lon="3.31406">
        <ele>549.4</ele>
        <time>2026-07-02T10:50:07.000Z</time>
      </trkpt>
      <trkpt lat="45.67442" lon="3.31408">
        <ele>549.8</ele>
        <time>2026-07-02T10:50:09.000Z</time>
      </trkpt>
      <trkpt lat="45.67438" lon="3.31408">
        <ele>550.2</ele>
        <time>2026-07-02T10:50:11.000Z</time>
      </trkpt>
      <trkpt lat="45.67433" lon="3.31408">
        <ele>550.4</ele>
        <time>2026-07-02T10:50:13.000Z</time>
      </trkpt>
      <trkpt lat="45.67428" lon="3.31409">
        <ele>550.8</ele>
        <time>2026-07-02T10:50:15.000Z</time>
      </trkpt>
      <trkpt lat="45.67422" lon="3.31409">
        <ele>551.2</ele>
        <time>2026-07-02T10:50:17.000Z</time>
      </trkpt>
      <trkpt lat="45.67418" lon="3.31407">
        <ele>551.6</ele>
        <time>2026-07-02T10:50:19.000Z</time>
      </trkpt>
      <trkpt lat="45.67413" lon="3.31405">
        <ele>552</ele>
        <time>2026-07-02T10:50:21.000Z</time>
      </trkpt>
      <trkpt lat="45.67409" lon="3.31403">
        <ele>552.4</ele>
        <time>2026-07-02T10:50:23.000Z</time>
      </trkpt>
      <trkpt lat="45.67404" lon="3.31401">
        <ele>552.8</ele>
        <time>2026-07-02T10:50:25.000Z</time>
      </trkpt>
      <trkpt lat="45.67399" lon="3.314">
        <ele>553.2</ele>
        <time>2026-07-02T10:50:27.000Z</time>
      </trkpt>
      <trkpt lat="45.67394" lon="3.31399">
        <ele>553.4</ele>
        <time>2026-07-02T10:50:29.000Z</time>
      </trkpt>
      <trkpt lat="45.67389" lon="3.31398">
        <ele>553.8</ele>
        <time>2026-07-02T10:50:31.000Z</time>
      </trkpt>
      <trkpt lat="45.67383" lon="3.31398">
        <ele>554.2</ele>
        <time>2026-07-02T10:50:33.000Z</time>
      </trkpt>
      <trkpt lat="45.67378" lon="3.31401">
        <ele>554.4</ele>
        <time>2026-07-02T10:50:35.000Z</time>
      </trkpt>
      <trkpt lat="45.67373" lon="3.31404">
        <ele>554.8</ele>
        <time>2026-07-02T10:50:37.000Z</time>
      </trkpt>
      <trkpt lat="45.67367" lon="3.3141">
        <ele>555.4</ele>
        <time>2026-07-02T10:50:39.000Z</time>
      </trkpt>
      <trkpt lat="45.67361" lon="3.31419">
        <ele>556</ele>
        <time>2026-07-02T10:50:43.000Z</time>
      </trkpt>
      <trkpt lat="45.67357" lon="3.31428">
        <ele>556.4</ele>
        <time>2026-07-02T10:50:46.000Z</time>
      </trkpt>
      <trkpt lat="45.67353" lon="3.31439">
        <ele>557</ele>
        <time>2026-07-02T10:50:49.000Z</time>
      </trkpt>
      <trkpt lat="45.67351" lon="3.31451">
        <ele>557.6</ele>
        <time>2026-07-02T10:50:51.000Z</time>
      </trkpt>
      <trkpt lat="45.6735" lon="3.31458">
        <ele>558</ele>
        <time>2026-07-02T10:50:53.000Z</time>
      </trkpt>
      <trkpt lat="45.67349" lon="3.31467">
        <ele>558.2</ele>
        <time>2026-07-02T10:50:55.000Z</time>
      </trkpt>
      <trkpt lat="45.67348" lon="3.31475">
        <ele>558.6</ele>
        <time>2026-07-02T10:50:57.000Z</time>
      </trkpt>
      <trkpt lat="45.67346" lon="3.31483">
        <ele>558.8</ele>
        <time>2026-07-02T10:50:59.000Z</time>
      </trkpt>
      <trkpt lat="45.67345" lon="3.31492">
        <ele>559.2</ele>
        <time>2026-07-02T10:51:01.000Z</time>
      </trkpt>
      <trkpt lat="45.67344" lon="3.315">
        <ele>559.4</ele>
        <time>2026-07-02T10:51:03.000Z</time>
      </trkpt>
      <trkpt lat="45.67343" lon="3.31508">
        <ele>559.6</ele>
        <time>2026-07-02T10:51:05.000Z</time>
      </trkpt>
      <trkpt lat="45.67342" lon="3.31517">
        <ele>560</ele>
        <time>2026-07-02T10:51:07.000Z</time>
      </trkpt>
      <trkpt lat="45.6734" lon="3.31524">
        <ele>560.2</ele>
        <time>2026-07-02T10:51:09.000Z</time>
      </trkpt>
      <trkpt lat="45.67338" lon="3.31531">
        <ele>560.4</ele>
        <time>2026-07-02T10:51:11.000Z</time>
      </trkpt>
      <trkpt lat="45.67336" lon="3.31537">
        <ele>560.8</ele>
        <time>2026-07-02T10:51:13.000Z</time>
      </trkpt>
      <trkpt lat="45.67332" lon="3.31544">
        <ele>561</ele>
        <time>2026-07-02T10:51:15.000Z</time>
      </trkpt>
      <trkpt lat="45.67329" lon="3.31551">
        <ele>561.4</ele>
        <time>2026-07-02T10:51:17.000Z</time>
      </trkpt>
      <trkpt lat="45.67325" lon="3.31557">
        <ele>561.6</ele>
        <time>2026-07-02T10:51:19.000Z</time>
      </trkpt>
      <trkpt lat="45.67321" lon="3.31561">
        <ele>562</ele>
        <time>2026-07-02T10:51:21.000Z</time>
      </trkpt>
      <trkpt lat="45.67316" lon="3.31566">
        <ele>562.4</ele>
        <time>2026-07-02T10:51:23.000Z</time>
      </trkpt>
      <trkpt lat="45.67311" lon="3.31569">
        <ele>562.6</ele>
        <time>2026-07-02T10:51:25.000Z</time>
      </trkpt>
      <trkpt lat="45.67305" lon="3.31572">
        <ele>563</ele>
        <time>2026-07-02T10:51:27.000Z</time>
      </trkpt>
      <trkpt lat="45.673" lon="3.31574">
        <ele>563.4</ele>
        <time>2026-07-02T10:51:29.000Z</time>
      </trkpt>
      <trkpt lat="45.67294" lon="3.31576">
        <ele>563.6</ele>
        <time>2026-07-02T10:51:31.000Z</time>
      </trkpt>
      <trkpt lat="45.67288" lon="3.31578">
        <ele>564.2</ele>
        <time>2026-07-02T10:51:33.000Z</time>
      </trkpt>
      <trkpt lat="45.67283" lon="3.3158">
        <ele>564.4</ele>
        <time>2026-07-02T10:51:35.000Z</time>
      </trkpt>
      <trkpt lat="45.67277" lon="3.3158">
        <ele>564.8</ele>
        <time>2026-07-02T10:51:37.000Z</time>
      </trkpt>
      <trkpt lat="45.67271" lon="3.31581">
        <ele>565.2</ele>
        <time>2026-07-02T10:51:39.000Z</time>
      </trkpt>
      <trkpt lat="45.67265" lon="3.31581">
        <ele>565.4</ele>
        <time>2026-07-02T10:51:41.000Z</time>
      </trkpt>
      <trkpt lat="45.6726" lon="3.31581">
        <ele>565.8</ele>
        <time>2026-07-02T10:51:43.000Z</time>
      </trkpt>
      <trkpt lat="45.67254" lon="3.3158">
        <ele>566.2</ele>
        <time>2026-07-02T10:51:45.000Z</time>
      </trkpt>
      <trkpt lat="45.67249" lon="3.31579">
        <ele>566.6</ele>
        <time>2026-07-02T10:51:47.000Z</time>
      </trkpt>
      <trkpt lat="45.67243" lon="3.31579">
        <ele>566.8</ele>
        <time>2026-07-02T10:51:49.000Z</time>
      </trkpt>
      <trkpt lat="45.67237" lon="3.31579">
        <ele>567.2</ele>
        <time>2026-07-02T10:51:51.000Z</time>
      </trkpt>
      <trkpt lat="45.67231" lon="3.31578">
        <ele>567.6</ele>
        <time>2026-07-02T10:51:53.000Z</time>
      </trkpt>
      <trkpt lat="45.67225" lon="3.31577">
        <ele>567.8</ele>
        <time>2026-07-02T10:51:55.000Z</time>
      </trkpt>
      <trkpt lat="45.6722" lon="3.31576">
        <ele>568.2</ele>
        <time>2026-07-02T10:51:57.000Z</time>
      </trkpt>
      <trkpt lat="45.67215" lon="3.31573">
        <ele>568.4</ele>
        <time>2026-07-02T10:51:59.000Z</time>
      </trkpt>
      <trkpt lat="45.67209" lon="3.31571">
        <ele>568.6</ele>
        <time>2026-07-02T10:52:01.000Z</time>
      </trkpt>
      <trkpt lat="45.67203" lon="3.31569">
        <ele>568.8</ele>
        <time>2026-07-02T10:52:03.000Z</time>
      </trkpt>
      <trkpt lat="45.67198" lon="3.31566">
        <ele>569</ele>
        <time>2026-07-02T10:52:05.000Z</time>
      </trkpt>
      <trkpt lat="45.67192" lon="3.31562">
        <ele>569.4</ele>
        <time>2026-07-02T10:52:07.000Z</time>
      </trkpt>
      <trkpt lat="45.67187" lon="3.31557">
        <ele>569.6</ele>
        <time>2026-07-02T10:52:09.000Z</time>
      </trkpt>
      <trkpt lat="45.67182" lon="3.31552">
        <ele>569.8</ele>
        <time>2026-07-02T10:52:11.000Z</time>
      </trkpt>
      <trkpt lat="45.67177" lon="3.31546">
        <ele>570</ele>
        <time>2026-07-02T10:52:13.000Z</time>
      </trkpt>
      <trkpt lat="45.67171" lon="3.3154">
        <ele>570.4</ele>
        <time>2026-07-02T10:52:15.000Z</time>
      </trkpt>
      <trkpt lat="45.67166" lon="3.31535">
        <ele>570.6</ele>
        <time>2026-07-02T10:52:17.000Z</time>
      </trkpt>
      <trkpt lat="45.67161" lon="3.31529">
        <ele>570.8</ele>
        <time>2026-07-02T10:52:19.000Z</time>
      </trkpt>
      <trkpt lat="45.67157" lon="3.31523">
        <ele>571.2</ele>
        <time>2026-07-02T10:52:21.000Z</time>
      </trkpt>
      <trkpt lat="45.67152" lon="3.31518">
        <ele>571.4</ele>
        <time>2026-07-02T10:52:23.000Z</time>
      </trkpt>
      <trkpt lat="45.67146" lon="3.31512">
        <ele>571.6</ele>
        <time>2026-07-02T10:52:25.000Z</time>
      </trkpt>
      <trkpt lat="45.67142" lon="3.31507">
        <ele>572</ele>
        <time>2026-07-02T10:52:27.000Z</time>
      </trkpt>
      <trkpt lat="45.67137" lon="3.31502">
        <ele>572.2</ele>
        <time>2026-07-02T10:52:29.000Z</time>
      </trkpt>
      <trkpt lat="45.67131" lon="3.31498">
        <ele>572.6</ele>
        <time>2026-07-02T10:52:31.000Z</time>
      </trkpt>
      <trkpt lat="45.67125" lon="3.31494">
        <ele>572.8</ele>
        <time>2026-07-02T10:52:33.000Z</time>
      </trkpt>
      <trkpt lat="45.6712" lon="3.3149">
        <ele>573.2</ele>
        <time>2026-07-02T10:52:35.000Z</time>
      </trkpt>
      <trkpt lat="45.67114" lon="3.31486">
        <ele>573.4</ele>
        <time>2026-07-02T10:52:37.000Z</time>
      </trkpt>
      <trkpt lat="45.67109" lon="3.31482">
        <ele>573.8</ele>
        <time>2026-07-02T10:52:39.000Z</time>
      </trkpt>
      <trkpt lat="45.67105" lon="3.31478">
        <ele>574.2</ele>
        <time>2026-07-02T10:52:41.000Z</time>
      </trkpt>
      <trkpt lat="45.67099" lon="3.31474">
        <ele>574.4</ele>
        <time>2026-07-02T10:52:43.000Z</time>
      </trkpt>
      <trkpt lat="45.67094" lon="3.31469">
        <ele>574.8</ele>
        <time>2026-07-02T10:52:45.000Z</time>
      </trkpt>
      <trkpt lat="45.6709" lon="3.31464">
        <ele>575</ele>
        <time>2026-07-02T10:52:47.000Z</time>
      </trkpt>
      <trkpt lat="45.67085" lon="3.31458">
        <ele>575.4</ele>
        <time>2026-07-02T10:52:49.000Z</time>
      </trkpt>
      <trkpt lat="45.67081" lon="3.31452">
        <ele>575.8</ele>
        <time>2026-07-02T10:52:51.000Z</time>
      </trkpt>
      <trkpt lat="45.67076" lon="3.31446">
        <ele>576</ele>
        <time>2026-07-02T10:52:53.000Z</time>
      </trkpt>
      <trkpt lat="45.67071" lon="3.31439">
        <ele>576.4</ele>
        <time>2026-07-02T10:52:55.000Z</time>
      </trkpt>
      <trkpt lat="45.67067" lon="3.31433">
        <ele>576.8</ele>
        <time>2026-07-02T10:52:57.000Z</time>
      </trkpt>
      <trkpt lat="45.67062" lon="3.31426">
        <ele>577</ele>
        <time>2026-07-02T10:52:59.000Z</time>
      </trkpt>
      <trkpt lat="45.67058" lon="3.3142">
        <ele>577.2</ele>
        <time>2026-07-02T10:53:01.000Z</time>
      </trkpt>
      <trkpt lat="45.67053" lon="3.31414">
        <ele>577.6</ele>
        <time>2026-07-02T10:53:03.000Z</time>
      </trkpt>
      <trkpt lat="45.67049" lon="3.31407">
        <ele>577.8</ele>
        <time>2026-07-02T10:53:05.000Z</time>
      </trkpt>
      <trkpt lat="45.67045" lon="3.314">
        <ele>578</ele>
        <time>2026-07-02T10:53:07.000Z</time>
      </trkpt>
      <trkpt lat="45.6704" lon="3.31393">
        <ele>578.2</ele>
        <time>2026-07-02T10:53:09.000Z</time>
      </trkpt>
      <trkpt lat="45.67035" lon="3.31387">
        <ele>578.4</ele>
        <time>2026-07-02T10:53:11.000Z</time>
      </trkpt>
      <trkpt lat="45.6703" lon="3.31382">
        <ele>578.8</ele>
        <time>2026-07-02T10:53:13.000Z</time>
      </trkpt>
      <trkpt lat="45.67026" lon="3.31376">
        <ele>579</ele>
        <time>2026-07-02T10:53:15.000Z</time>
      </trkpt>
      <trkpt lat="45.67022" lon="3.3137">
        <ele>579.4</ele>
        <time>2026-07-02T10:53:17.000Z</time>
      </trkpt>
      <trkpt lat="45.67016" lon="3.31364">
        <ele>579.6</ele>
        <time>2026-07-02T10:53:19.000Z</time>
      </trkpt>
      <trkpt lat="45.67012" lon="3.31358">
        <ele>579.6</ele>
        <time>2026-07-02T10:53:21.000Z</time>
      </trkpt>
      <trkpt lat="45.67007" lon="3.31351">
        <ele>579.6</ele>
        <time>2026-07-02T10:53:23.000Z</time>
      </trkpt>
      <trkpt lat="45.67003" lon="3.31343">
        <ele>579.8</ele>
        <time>2026-07-02T10:53:25.000Z</time>
      </trkpt>
      <trkpt lat="45.66999" lon="3.31336">
        <ele>580</ele>
        <time>2026-07-02T10:53:27.000Z</time>
      </trkpt>
      <trkpt lat="45.66995" lon="3.3133">
        <ele>580.2</ele>
        <time>2026-07-02T10:53:29.000Z</time>
      </trkpt>
      <trkpt lat="45.6699" lon="3.31323">
        <ele>580.4</ele>
        <time>2026-07-02T10:53:31.000Z</time>
      </trkpt>
      <trkpt lat="45.66985" lon="3.31318">
        <ele>580.8</ele>
        <time>2026-07-02T10:53:33.000Z</time>
      </trkpt>
      <trkpt lat="45.6698" lon="3.31312">
        <ele>581</ele>
        <time>2026-07-02T10:53:35.000Z</time>
      </trkpt>
      <trkpt lat="45.66975" lon="3.31307">
        <ele>581.2</ele>
        <time>2026-07-02T10:53:37.000Z</time>
      </trkpt>
      <trkpt lat="45.66969" lon="3.31302">
        <ele>581.6</ele>
        <time>2026-07-02T10:53:39.000Z</time>
      </trkpt>
      <trkpt lat="45.66962" lon="3.31298">
        <ele>581.8</ele>
        <time>2026-07-02T10:53:41.000Z</time>
      </trkpt>
      <trkpt lat="45.66956" lon="3.31296">
        <ele>582</ele>
        <time>2026-07-02T10:53:43.000Z</time>
      </trkpt>
      <trkpt lat="45.66948" lon="3.31296">
        <ele>582</ele>
        <time>2026-07-02T10:53:45.000Z</time>
      </trkpt>
      <trkpt lat="45.6694" lon="3.31297">
        <ele>581.8</ele>
        <time>2026-07-02T10:53:47.000Z</time>
      </trkpt>
      <trkpt lat="45.66932" lon="3.31299">
        <ele>581.8</ele>
        <time>2026-07-02T10:53:49.000Z</time>
      </trkpt>
      <trkpt lat="45.66923" lon="3.31303">
        <ele>581.4</ele>
        <time>2026-07-02T10:53:51.000Z</time>
      </trkpt>
      <trkpt lat="45.66913" lon="3.31307">
        <ele>581.2</ele>
        <time>2026-07-02T10:53:53.000Z</time>
      </trkpt>
      <trkpt lat="45.66904" lon="3.3131">
        <ele>580.8</ele>
        <time>2026-07-02T10:53:55.000Z</time>
      </trkpt>
      <trkpt lat="45.66894" lon="3.31314">
        <ele>580.6</ele>
        <time>2026-07-02T10:53:57.000Z</time>
      </trkpt>
      <trkpt lat="45.66885" lon="3.31317">
        <ele>580.4</ele>
        <time>2026-07-02T10:53:59.000Z</time>
      </trkpt>
      <trkpt lat="45.66877" lon="3.3132">
        <ele>580.2</ele>
        <time>2026-07-02T10:54:01.000Z</time>
      </trkpt>
      <trkpt lat="45.66869" lon="3.31322">
        <ele>580.2</ele>
        <time>2026-07-02T10:54:03.000Z</time>
      </trkpt>
      <trkpt lat="45.66862" lon="3.31323">
        <ele>580.4</ele>
        <time>2026-07-02T10:54:05.000Z</time>
      </trkpt>
      <trkpt lat="45.66856" lon="3.31324">
        <ele>580.6</ele>
        <time>2026-07-02T10:54:07.000Z</time>
      </trkpt>
      <trkpt lat="45.66849" lon="3.31324">
        <ele>580.8</ele>
        <time>2026-07-02T10:54:09.000Z</time>
      </trkpt>
      <trkpt lat="45.66843" lon="3.31324">
        <ele>581.2</ele>
        <time>2026-07-02T10:54:11.000Z</time>
      </trkpt>
      <trkpt lat="45.66836" lon="3.31324">
        <ele>581.6</ele>
        <time>2026-07-02T10:54:13.000Z</time>
      </trkpt>
      <trkpt lat="45.6683" lon="3.31322">
        <ele>582</ele>
        <time>2026-07-02T10:54:15.000Z</time>
      </trkpt>
      <trkpt lat="45.66824" lon="3.3132">
        <ele>582.6</ele>
        <time>2026-07-02T10:54:17.000Z</time>
      </trkpt>
      <trkpt lat="45.66818" lon="3.31317">
        <ele>583</ele>
        <time>2026-07-02T10:54:19.000Z</time>
      </trkpt>
      <trkpt lat="45.66813" lon="3.31315">
        <ele>583.8</ele>
        <time>2026-07-02T10:54:21.000Z</time>
      </trkpt>
      <trkpt lat="45.66807" lon="3.31313">
        <ele>584.2</ele>
        <time>2026-07-02T10:54:23.000Z</time>
      </trkpt>
      <trkpt lat="45.66802" lon="3.3131">
        <ele>584.6</ele>
        <time>2026-07-02T10:54:25.000Z</time>
      </trkpt>
      <trkpt lat="45.66796" lon="3.31307">
        <ele>585</ele>
        <time>2026-07-02T10:54:27.000Z</time>
      </trkpt>
      <trkpt lat="45.66791" lon="3.31304">
        <ele>585.4</ele>
        <time>2026-07-02T10:54:29.000Z</time>
      </trkpt>
      <trkpt lat="45.66785" lon="3.31301">
        <ele>585.8</ele>
        <time>2026-07-02T10:54:31.000Z</time>
      </trkpt>
      <trkpt lat="45.6678" lon="3.31298">
        <ele>586.2</ele>
        <time>2026-07-02T10:54:33.000Z</time>
      </trkpt>
      <trkpt lat="45.66775" lon="3.31295">
        <ele>586.6</ele>
        <time>2026-07-02T10:54:35.000Z</time>
      </trkpt>
      <trkpt lat="45.66769" lon="3.31291">
        <ele>587</ele>
        <time>2026-07-02T10:54:37.000Z</time>
      </trkpt>
      <trkpt lat="45.66763" lon="3.31288">
        <ele>587.4</ele>
        <time>2026-07-02T10:54:39.000Z</time>
      </trkpt>
      <trkpt lat="45.66757" lon="3.31283">
        <ele>587.6</ele>
        <time>2026-07-02T10:54:42.000Z</time>
      </trkpt>
      <trkpt lat="45.66751" lon="3.31279">
        <ele>588</ele>
        <time>2026-07-02T10:54:44.000Z</time>
      </trkpt>
      <trkpt lat="45.66745" lon="3.31276">
        <ele>588.4</ele>
        <time>2026-07-02T10:54:46.000Z</time>
      </trkpt>
      <trkpt lat="45.6674" lon="3.31272">
        <ele>588.8</ele>
        <time>2026-07-02T10:54:48.000Z</time>
      </trkpt>
      <trkpt lat="45.66734" lon="3.31268">
        <ele>589.2</ele>
        <time>2026-07-02T10:54:50.000Z</time>
      </trkpt>
      <trkpt lat="45.66729" lon="3.31264">
        <ele>589.8</ele>
        <time>2026-07-02T10:54:52.000Z</time>
      </trkpt>
      <trkpt lat="45.66723" lon="3.3126">
        <ele>590.2</ele>
        <time>2026-07-02T10:54:54.000Z</time>
      </trkpt>
      <trkpt lat="45.66717" lon="3.31256">
        <ele>590.4</ele>
        <time>2026-07-02T10:54:56.000Z</time>
      </trkpt>
      <trkpt lat="45.66711" lon="3.31251">
        <ele>590.8</ele>
        <time>2026-07-02T10:54:58.000Z</time>
      </trkpt>
      <trkpt lat="45.66706" lon="3.31247">
        <ele>591.2</ele>
        <time>2026-07-02T10:55:00.000Z</time>
      </trkpt>
      <trkpt lat="45.66701" lon="3.31243">
        <ele>591.6</ele>
        <time>2026-07-02T10:55:02.000Z</time>
      </trkpt>
      <trkpt lat="45.66696" lon="3.3124">
        <ele>592.4</ele>
        <time>2026-07-02T10:55:04.000Z</time>
      </trkpt>
      <trkpt lat="45.66691" lon="3.31236">
        <ele>592.6</ele>
        <time>2026-07-02T10:55:06.000Z</time>
      </trkpt>
      <trkpt lat="45.66686" lon="3.31232">
        <ele>593</ele>
        <time>2026-07-02T10:55:08.000Z</time>
      </trkpt>
      <trkpt lat="45.66681" lon="3.31229">
        <ele>593.2</ele>
        <time>2026-07-02T10:55:10.000Z</time>
      </trkpt>
      <trkpt lat="45.66676" lon="3.31225">
        <ele>593.6</ele>
        <time>2026-07-02T10:55:12.000Z</time>
      </trkpt>
      <trkpt lat="45.66672" lon="3.31222">
        <ele>593.8</ele>
        <time>2026-07-02T10:55:14.000Z</time>
      </trkpt>
      <trkpt lat="45.66667" lon="3.31219">
        <ele>594.2</ele>
        <time>2026-07-02T10:55:16.000Z</time>
      </trkpt>
      <trkpt lat="45.66662" lon="3.31215">
        <ele>594.4</ele>
        <time>2026-07-02T10:55:18.000Z</time>
      </trkpt>
      <trkpt lat="45.66657" lon="3.31211">
        <ele>594.6</ele>
        <time>2026-07-02T10:55:20.000Z</time>
      </trkpt>
      <trkpt lat="45.66651" lon="3.31208">
        <ele>594.8</ele>
        <time>2026-07-02T10:55:22.000Z</time>
      </trkpt>
      <trkpt lat="45.66646" lon="3.31204">
        <ele>595</ele>
        <time>2026-07-02T10:55:24.000Z</time>
      </trkpt>
      <trkpt lat="45.66641" lon="3.31199">
        <ele>595.4</ele>
        <time>2026-07-02T10:55:26.000Z</time>
      </trkpt>
      <trkpt lat="45.66635" lon="3.31196">
        <ele>595.6</ele>
        <time>2026-07-02T10:55:28.000Z</time>
      </trkpt>
      <trkpt lat="45.6663" lon="3.31192">
        <ele>596</ele>
        <time>2026-07-02T10:55:30.000Z</time>
      </trkpt>
      <trkpt lat="45.66625" lon="3.31188">
        <ele>596.2</ele>
        <time>2026-07-02T10:55:32.000Z</time>
      </trkpt>
      <trkpt lat="45.6662" lon="3.31185">
        <ele>596.4</ele>
        <time>2026-07-02T10:55:34.000Z</time>
      </trkpt>
      <trkpt lat="45.66615" lon="3.31181">
        <ele>596.8</ele>
        <time>2026-07-02T10:55:36.000Z</time>
      </trkpt>
      <trkpt lat="45.66611" lon="3.31178">
        <ele>597</ele>
        <time>2026-07-02T10:55:38.000Z</time>
      </trkpt>
      <trkpt lat="45.66606" lon="3.31174">
        <ele>597.4</ele>
        <time>2026-07-02T10:55:40.000Z</time>
      </trkpt>
      <trkpt lat="45.66602" lon="3.31171">
        <ele>597.6</ele>
        <time>2026-07-02T10:55:42.000Z</time>
      </trkpt>
      <trkpt lat="45.66598" lon="3.31167">
        <ele>598</ele>
        <time>2026-07-02T10:55:44.000Z</time>
      </trkpt>
      <trkpt lat="45.66594" lon="3.31164">
        <ele>598.4</ele>
        <time>2026-07-02T10:55:46.000Z</time>
      </trkpt>
      <trkpt lat="45.66591" lon="3.31162">
        <ele>598.8</ele>
        <time>2026-07-02T10:55:48.000Z</time>
      </trkpt>
      <trkpt lat="45.66587" lon="3.3116">
        <ele>599</ele>
        <time>2026-07-02T10:55:50.000Z</time>
      </trkpt>
      <trkpt lat="45.66583" lon="3.31158">
        <ele>599.2</ele>
        <time>2026-07-02T10:55:52.000Z</time>
      </trkpt>
      <trkpt lat="45.66578" lon="3.31155">
        <ele>599.4</ele>
        <time>2026-07-02T10:55:54.000Z</time>
      </trkpt>
      <trkpt lat="45.66573" lon="3.31152">
        <ele>599.8</ele>
        <time>2026-07-02T10:55:56.000Z</time>
      </trkpt>
      <trkpt lat="45.66568" lon="3.3115">
        <ele>600</ele>
        <time>2026-07-02T10:55:58.000Z</time>
      </trkpt>
      <trkpt lat="45.66563" lon="3.31147">
        <ele>600.4</ele>
        <time>2026-07-02T10:56:00.000Z</time>
      </trkpt>
      <trkpt lat="45.66558" lon="3.31145">
        <ele>600.6</ele>
        <time>2026-07-02T10:56:02.000Z</time>
      </trkpt>
      <trkpt lat="45.66552" lon="3.31144">
        <ele>601</ele>
        <time>2026-07-02T10:56:04.000Z</time>
      </trkpt>
      <trkpt lat="45.66546" lon="3.31142">
        <ele>601.4</ele>
        <time>2026-07-02T10:56:06.000Z</time>
      </trkpt>
      <trkpt lat="45.66541" lon="3.3114">
        <ele>601.8</ele>
        <time>2026-07-02T10:56:08.000Z</time>
      </trkpt>
      <trkpt lat="45.66535" lon="3.31139">
        <ele>602.2</ele>
        <time>2026-07-02T10:56:10.000Z</time>
      </trkpt>
      <trkpt lat="45.6653" lon="3.31139">
        <ele>602.6</ele>
        <time>2026-07-02T10:56:12.000Z</time>
      </trkpt>
      <trkpt lat="45.66524" lon="3.31138">
        <ele>603</ele>
        <time>2026-07-02T10:56:14.000Z</time>
      </trkpt>
      <trkpt lat="45.66518" lon="3.31138">
        <ele>603.4</ele>
        <time>2026-07-02T10:56:16.000Z</time>
      </trkpt>
      <trkpt lat="45.66512" lon="3.31138">
        <ele>603.8</ele>
        <time>2026-07-02T10:56:18.000Z</time>
      </trkpt>
      <trkpt lat="45.66506" lon="3.31138">
        <ele>604</ele>
        <time>2026-07-02T10:56:20.000Z</time>
      </trkpt>
      <trkpt lat="45.66501" lon="3.31139">
        <ele>604.4</ele>
        <time>2026-07-02T10:56:22.000Z</time>
      </trkpt>
      <trkpt lat="45.66495" lon="3.3114">
        <ele>604.8</ele>
        <time>2026-07-02T10:56:24.000Z</time>
      </trkpt>
      <trkpt lat="45.66489" lon="3.31141">
        <ele>605.2</ele>
        <time>2026-07-02T10:56:26.000Z</time>
      </trkpt>
      <trkpt lat="45.66483" lon="3.31142">
        <ele>606</ele>
        <time>2026-07-02T10:56:28.000Z</time>
      </trkpt>
      <trkpt lat="45.66478" lon="3.31145">
        <ele>606.4</ele>
        <time>2026-07-02T10:56:30.000Z</time>
      </trkpt>
      <trkpt lat="45.66472" lon="3.31148">
        <ele>606.8</ele>
        <time>2026-07-02T10:56:32.000Z</time>
      </trkpt>
      <trkpt lat="45.66466" lon="3.31151">
        <ele>607</ele>
        <time>2026-07-02T10:56:34.000Z</time>
      </trkpt>
      <trkpt lat="45.66461" lon="3.31154">
        <ele>607.4</ele>
        <time>2026-07-02T10:56:36.000Z</time>
      </trkpt>
      <trkpt lat="45.66456" lon="3.31157">
        <ele>607.6</ele>
        <time>2026-07-02T10:56:38.000Z</time>
      </trkpt>
      <trkpt lat="45.6645" lon="3.3116">
        <ele>608</ele>
        <time>2026-07-02T10:56:40.000Z</time>
      </trkpt>
      <trkpt lat="45.66445" lon="3.31163">
        <ele>608.2</ele>
        <time>2026-07-02T10:56:42.000Z</time>
      </trkpt>
      <trkpt lat="45.6644" lon="3.31166">
        <ele>608.8</ele>
        <time>2026-07-02T10:56:44.000Z</time>
      </trkpt>
      <trkpt lat="45.66435" lon="3.31169">
        <ele>609.2</ele>
        <time>2026-07-02T10:56:46.000Z</time>
      </trkpt>
      <trkpt lat="45.66429" lon="3.31173">
        <ele>609.6</ele>
        <time>2026-07-02T10:56:48.000Z</time>
      </trkpt>
      <trkpt lat="45.66424" lon="3.31177">
        <ele>610</ele>
        <time>2026-07-02T10:56:50.000Z</time>
      </trkpt>
      <trkpt lat="45.66419" lon="3.3118">
        <ele>610.6</ele>
        <time>2026-07-02T10:56:52.000Z</time>
      </trkpt>
      <trkpt lat="45.66415" lon="3.31184">
        <ele>610.8</ele>
        <time>2026-07-02T10:56:54.000Z</time>
      </trkpt>
      <trkpt lat="45.6641" lon="3.31187">
        <ele>611.2</ele>
        <time>2026-07-02T10:56:56.000Z</time>
      </trkpt>
      <trkpt lat="45.66405" lon="3.31191">
        <ele>611.8</ele>
        <time>2026-07-02T10:56:58.000Z</time>
      </trkpt>
      <trkpt lat="45.66401" lon="3.31195">
        <ele>612.2</ele>
        <time>2026-07-02T10:57:00.000Z</time>
      </trkpt>
      <trkpt lat="45.66396" lon="3.31199">
        <ele>612.6</ele>
        <time>2026-07-02T10:57:02.000Z</time>
      </trkpt>
      <trkpt lat="45.66392" lon="3.31203">
        <ele>613</ele>
        <time>2026-07-02T10:57:04.000Z</time>
      </trkpt>
      <trkpt lat="45.66388" lon="3.31207">
        <ele>613.4</ele>
        <time>2026-07-02T10:57:06.000Z</time>
      </trkpt>
      <trkpt lat="45.66384" lon="3.31211">
        <ele>613.8</ele>
        <time>2026-07-02T10:57:08.000Z</time>
      </trkpt>
      <trkpt lat="45.6638" lon="3.31215">
        <ele>614.4</ele>
        <time>2026-07-02T10:57:10.000Z</time>
      </trkpt>
      <trkpt lat="45.66377" lon="3.3122">
        <ele>614.8</ele>
        <time>2026-07-02T10:57:12.000Z</time>
      </trkpt>
      <trkpt lat="45.66372" lon="3.31224">
        <ele>615</ele>
        <time>2026-07-02T10:57:14.000Z</time>
      </trkpt>
      <trkpt lat="45.66368" lon="3.3123">
        <ele>615.4</ele>
        <time>2026-07-02T10:57:16.000Z</time>
      </trkpt>
      <trkpt lat="45.66364" lon="3.31235">
        <ele>615.8</ele>
        <time>2026-07-02T10:57:18.000Z</time>
      </trkpt>
      <trkpt lat="45.6636" lon="3.31241">
        <ele>616</ele>
        <time>2026-07-02T10:57:20.000Z</time>
      </trkpt>
      <trkpt lat="45.66356" lon="3.31247">
        <ele>616.4</ele>
        <time>2026-07-02T10:57:22.000Z</time>
      </trkpt>
      <trkpt lat="45.66352" lon="3.31253">
        <ele>616.8</ele>
        <time>2026-07-02T10:57:24.000Z</time>
      </trkpt>
      <trkpt lat="45.66347" lon="3.31259">
        <ele>617.2</ele>
        <time>2026-07-02T10:57:26.000Z</time>
      </trkpt>
      <trkpt lat="45.66343" lon="3.31265">
        <ele>617.6</ele>
        <time>2026-07-02T10:57:28.000Z</time>
      </trkpt>
      <trkpt lat="45.66339" lon="3.31271">
        <ele>618</ele>
        <time>2026-07-02T10:57:30.000Z</time>
      </trkpt>
      <trkpt lat="45.66335" lon="3.31278">
        <ele>618.6</ele>
        <time>2026-07-02T10:57:32.000Z</time>
      </trkpt>
      <trkpt lat="45.6633" lon="3.31283">
        <ele>619</ele>
        <time>2026-07-02T10:57:34.000Z</time>
      </trkpt>
      <trkpt lat="45.66327" lon="3.31289">
        <ele>619.4</ele>
        <time>2026-07-02T10:57:36.000Z</time>
      </trkpt>
      <trkpt lat="45.66323" lon="3.31294">
        <ele>619.8</ele>
        <time>2026-07-02T10:57:38.000Z</time>
      </trkpt>
      <trkpt lat="45.6632" lon="3.31299">
        <ele>620.2</ele>
        <time>2026-07-02T10:57:40.000Z</time>
      </trkpt>
      <trkpt lat="45.66316" lon="3.31304">
        <ele>620.6</ele>
        <time>2026-07-02T10:57:42.000Z</time>
      </trkpt>
      <trkpt lat="45.66313" lon="3.31309">
        <ele>621</ele>
        <time>2026-07-02T10:57:44.000Z</time>
      </trkpt>
      <trkpt lat="45.66309" lon="3.31314">
        <ele>621.4</ele>
        <time>2026-07-02T10:57:46.000Z</time>
      </trkpt>
      <trkpt lat="45.66305" lon="3.31319">
        <ele>621.8</ele>
        <time>2026-07-02T10:57:48.000Z</time>
      </trkpt>
      <trkpt lat="45.66301" lon="3.31324">
        <ele>622.2</ele>
        <time>2026-07-02T10:57:50.000Z</time>
      </trkpt>
      <trkpt lat="45.66298" lon="3.31329">
        <ele>622.6</ele>
        <time>2026-07-02T10:57:52.000Z</time>
      </trkpt>
      <trkpt lat="45.66294" lon="3.31334">
        <ele>622.8</ele>
        <time>2026-07-02T10:57:54.000Z</time>
      </trkpt>
      <trkpt lat="45.66291" lon="3.31339">
        <ele>623</ele>
        <time>2026-07-02T10:57:56.000Z</time>
      </trkpt>
      <trkpt lat="45.66288" lon="3.31344">
        <ele>623.2</ele>
        <time>2026-07-02T10:57:58.000Z</time>
      </trkpt>
      <trkpt lat="45.66284" lon="3.31348">
        <ele>623.6</ele>
        <time>2026-07-02T10:58:00.000Z</time>
      </trkpt>
      <trkpt lat="45.66281" lon="3.31353">
        <ele>623.8</ele>
        <time>2026-07-02T10:58:02.000Z</time>
      </trkpt>
      <trkpt lat="45.66278" lon="3.31357">
        <ele>624</ele>
        <time>2026-07-02T10:58:04.000Z</time>
      </trkpt>
      <trkpt lat="45.66275" lon="3.31362">
        <ele>624.4</ele>
        <time>2026-07-02T10:58:06.000Z</time>
      </trkpt>
      <trkpt lat="45.66272" lon="3.31366">
        <ele>624.6</ele>
        <time>2026-07-02T10:58:08.000Z</time>
      </trkpt>
      <trkpt lat="45.6627" lon="3.31371">
        <ele>624.8</ele>
        <time>2026-07-02T10:58:10.000Z</time>
      </trkpt>
      <trkpt lat="45.66266" lon="3.31375">
        <ele>625.2</ele>
        <time>2026-07-02T10:58:12.000Z</time>
      </trkpt>
      <trkpt lat="45.66263" lon="3.31381">
        <ele>625.6</ele>
        <time>2026-07-02T10:58:14.000Z</time>
      </trkpt>
      <trkpt lat="45.6626" lon="3.31386">
        <ele>625.8</ele>
        <time>2026-07-02T10:58:16.000Z</time>
      </trkpt>
      <trkpt lat="45.66258" lon="3.31391">
        <ele>626.2</ele>
        <time>2026-07-02T10:58:18.000Z</time>
      </trkpt>
      <trkpt lat="45.66255" lon="3.31397">
        <ele>626.6</ele>
        <time>2026-07-02T10:58:20.000Z</time>
      </trkpt>
      <trkpt lat="45.66252" lon="3.31404">
        <ele>626.8</ele>
        <time>2026-07-02T10:58:22.000Z</time>
      </trkpt>
      <trkpt lat="45.66249" lon="3.31411">
        <ele>627</ele>
        <time>2026-07-02T10:58:24.000Z</time>
      </trkpt>
      <trkpt lat="45.66246" lon="3.31417">
        <ele>627.2</ele>
        <time>2026-07-02T10:58:26.000Z</time>
      </trkpt>
      <trkpt lat="45.66243" lon="3.31424">
        <ele>627.4</ele>
        <time>2026-07-02T10:58:28.000Z</time>
      </trkpt>
      <trkpt lat="45.6624" lon="3.31432">
        <ele>627.6</ele>
        <time>2026-07-02T10:58:30.000Z</time>
      </trkpt>
      <trkpt lat="45.66237" lon="3.3144">
        <ele>628</ele>
        <time>2026-07-02T10:58:32.000Z</time>
      </trkpt>
      <trkpt lat="45.66234" lon="3.31448">
        <ele>628.2</ele>
        <time>2026-07-02T10:58:34.000Z</time>
      </trkpt>
      <trkpt lat="45.66231" lon="3.31456">
        <ele>628.4</ele>
        <time>2026-07-02T10:58:36.000Z</time>
      </trkpt>
      <trkpt lat="45.66228" lon="3.31463">
        <ele>628.8</ele>
        <time>2026-07-02T10:58:38.000Z</time>
      </trkpt>
      <trkpt lat="45.66225" lon="3.3147">
        <ele>629</ele>
        <time>2026-07-02T10:58:40.000Z</time>
      </trkpt>
      <trkpt lat="45.66222" lon="3.31478">
        <ele>629.4</ele>
        <time>2026-07-02T10:58:42.000Z</time>
      </trkpt>
      <trkpt lat="45.66219" lon="3.31485">
        <ele>629.8</ele>
        <time>2026-07-02T10:58:44.000Z</time>
      </trkpt>
      <trkpt lat="45.66216" lon="3.31493">
        <ele>630</ele>
        <time>2026-07-02T10:58:46.000Z</time>
      </trkpt>
      <trkpt lat="45.66214" lon="3.315">
        <ele>630.4</ele>
        <time>2026-07-02T10:58:48.000Z</time>
      </trkpt>
      <trkpt lat="45.6621" lon="3.31507">
        <ele>631</ele>
        <time>2026-07-02T10:58:50.000Z</time>
      </trkpt>
      <trkpt lat="45.66208" lon="3.31514">
        <ele>631.4</ele>
        <time>2026-07-02T10:58:52.000Z</time>
      </trkpt>
      <trkpt lat="45.66206" lon="3.31519">
        <ele>632</ele>
        <time>2026-07-02T10:58:54.000Z</time>
      </trkpt>
      <trkpt lat="45.66204" lon="3.31523">
        <ele>632.4</ele>
        <time>2026-07-02T10:58:56.000Z</time>
      </trkpt>
      <trkpt lat="45.66202" lon="3.31528">
        <ele>632.8</ele>
        <time>2026-07-02T10:58:58.000Z</time>
      </trkpt>
      <trkpt lat="45.66199" lon="3.31533">
        <ele>633.2</ele>
        <time>2026-07-02T10:59:00.000Z</time>
      </trkpt>
      <trkpt lat="45.66197" lon="3.3154">
        <ele>633.6</ele>
        <time>2026-07-02T10:59:02.000Z</time>
      </trkpt>
      <trkpt lat="45.66194" lon="3.31547">
        <ele>634</ele>
        <time>2026-07-02T10:59:04.000Z</time>
      </trkpt>
      <trkpt lat="45.66191" lon="3.31553">
        <ele>634.4</ele>
        <time>2026-07-02T10:59:06.000Z</time>
      </trkpt>
      <trkpt lat="45.66189" lon="3.31559">
        <ele>634.8</ele>
        <time>2026-07-02T10:59:08.000Z</time>
      </trkpt>
      <trkpt lat="45.66186" lon="3.31566">
        <ele>635.4</ele>
        <time>2026-07-02T10:59:10.000Z</time>
      </trkpt>
      <trkpt lat="45.66183" lon="3.31573">
        <ele>635.8</ele>
        <time>2026-07-02T10:59:12.000Z</time>
      </trkpt>
      <trkpt lat="45.66181" lon="3.31579">
        <ele>636.2</ele>
        <time>2026-07-02T10:59:14.000Z</time>
      </trkpt>
      <trkpt lat="45.66178" lon="3.31586">
        <ele>636.6</ele>
        <time>2026-07-02T10:59:16.000Z</time>
      </trkpt>
      <trkpt lat="45.66176" lon="3.31591">
        <ele>636.8</ele>
        <time>2026-07-02T10:59:18.000Z</time>
      </trkpt>
      <trkpt lat="45.66174" lon="3.31596">
        <ele>637.2</ele>
        <time>2026-07-02T10:59:20.000Z</time>
      </trkpt>
      <trkpt lat="45.66172" lon="3.31602">
        <ele>637.4</ele>
        <time>2026-07-02T10:59:22.000Z</time>
      </trkpt>
      <trkpt lat="45.66169" lon="3.31607">
        <ele>637.6</ele>
        <time>2026-07-02T10:59:24.000Z</time>
      </trkpt>
      <trkpt lat="45.66167" lon="3.31613">
        <ele>638</ele>
        <time>2026-07-02T10:59:26.000Z</time>
      </trkpt>
      <trkpt lat="45.66165" lon="3.31619">
        <ele>638.2</ele>
        <time>2026-07-02T10:59:28.000Z</time>
      </trkpt>
      <trkpt lat="45.66163" lon="3.31625">
        <ele>638.4</ele>
        <time>2026-07-02T10:59:30.000Z</time>
      </trkpt>
      <trkpt lat="45.6616" lon="3.31631">
        <ele>638.8</ele>
        <time>2026-07-02T10:59:32.000Z</time>
      </trkpt>
      <trkpt lat="45.66157" lon="3.31637">
        <ele>639.2</ele>
        <time>2026-07-02T10:59:34.000Z</time>
      </trkpt>
      <trkpt lat="45.66155" lon="3.31643">
        <ele>639.4</ele>
        <time>2026-07-02T10:59:36.000Z</time>
      </trkpt>
      <trkpt lat="45.66152" lon="3.3165">
        <ele>639.8</ele>
        <time>2026-07-02T10:59:38.000Z</time>
      </trkpt>
      <trkpt lat="45.6615" lon="3.31657">
        <ele>640.2</ele>
        <time>2026-07-02T10:59:40.000Z</time>
      </trkpt>
      <trkpt lat="45.66147" lon="3.31663">
        <ele>640.6</ele>
        <time>2026-07-02T10:59:42.000Z</time>
      </trkpt>
      <trkpt lat="45.66144" lon="3.3167">
        <ele>641</ele>
        <time>2026-07-02T10:59:44.000Z</time>
      </trkpt>
      <trkpt lat="45.66142" lon="3.31675">
        <ele>641.4</ele>
        <time>2026-07-02T10:59:46.000Z</time>
      </trkpt>
      <trkpt lat="45.66139" lon="3.31682">
        <ele>641.8</ele>
        <time>2026-07-02T10:59:48.000Z</time>
      </trkpt>
      <trkpt lat="45.66136" lon="3.31689">
        <ele>642</ele>
        <time>2026-07-02T10:59:50.000Z</time>
      </trkpt>
      <trkpt lat="45.66134" lon="3.31696">
        <ele>642.4</ele>
        <time>2026-07-02T10:59:52.000Z</time>
      </trkpt>
      <trkpt lat="45.66131" lon="3.31702">
        <ele>642.8</ele>
        <time>2026-07-02T10:59:54.000Z</time>
      </trkpt>
      <trkpt lat="45.66128" lon="3.31709">
        <ele>643.4</ele>
        <time>2026-07-02T10:59:56.000Z</time>
      </trkpt>
      <trkpt lat="45.66125" lon="3.31715">
        <ele>643.8</ele>
        <time>2026-07-02T10:59:58.000Z</time>
      </trkpt>
      <trkpt lat="45.66123" lon="3.31722">
        <ele>644.4</ele>
        <time>2026-07-02T11:00:00.000Z</time>
      </trkpt>
      <trkpt lat="45.6612" lon="3.31729">
        <ele>644.8</ele>
        <time>2026-07-02T11:00:02.000Z</time>
      </trkpt>
      <trkpt lat="45.66117" lon="3.31735">
        <ele>645.2</ele>
        <time>2026-07-02T11:00:04.000Z</time>
      </trkpt>
      <trkpt lat="45.66115" lon="3.31741">
        <ele>645.6</ele>
        <time>2026-07-02T11:00:06.000Z</time>
      </trkpt>
      <trkpt lat="45.66113" lon="3.31746">
        <ele>646</ele>
        <time>2026-07-02T11:00:08.000Z</time>
      </trkpt>
      <trkpt lat="45.66111" lon="3.31751">
        <ele>646.4</ele>
        <time>2026-07-02T11:00:10.000Z</time>
      </trkpt>
      <trkpt lat="45.66109" lon="3.31757">
        <ele>646.8</ele>
        <time>2026-07-02T11:00:12.000Z</time>
      </trkpt>
      <trkpt lat="45.66107" lon="3.31761">
        <ele>647</ele>
        <time>2026-07-02T11:00:14.000Z</time>
      </trkpt>
      <trkpt lat="45.66105" lon="3.31767">
        <ele>647.4</ele>
        <time>2026-07-02T11:00:16.000Z</time>
      </trkpt>
      <trkpt lat="45.66103" lon="3.31772">
        <ele>647.6</ele>
        <time>2026-07-02T11:00:18.000Z</time>
      </trkpt>
      <trkpt lat="45.661" lon="3.31778">
        <ele>647.6</ele>
        <time>2026-07-02T11:00:20.000Z</time>
      </trkpt>
      <trkpt lat="45.66098" lon="3.31784">
        <ele>647.8</ele>
        <time>2026-07-02T11:00:22.000Z</time>
      </trkpt>
      <trkpt lat="45.66096" lon="3.3179">
        <ele>648</ele>
        <time>2026-07-02T11:00:24.000Z</time>
      </trkpt>
      <trkpt lat="45.66093" lon="3.31796">
        <ele>648.2</ele>
        <time>2026-07-02T11:00:26.000Z</time>
      </trkpt>
      <trkpt lat="45.6609" lon="3.31802">
        <ele>648.2</ele>
        <time>2026-07-02T11:00:28.000Z</time>
      </trkpt>
      <trkpt lat="45.66088" lon="3.31809">
        <ele>648.4</ele>
        <time>2026-07-02T11:00:30.000Z</time>
      </trkpt>
      <trkpt lat="45.66086" lon="3.31815">
        <ele>648.4</ele>
        <time>2026-07-02T11:00:32.000Z</time>
      </trkpt>
      <trkpt lat="45.66083" lon="3.31821">
        <ele>648.6</ele>
        <time>2026-07-02T11:00:34.000Z</time>
      </trkpt>
      <trkpt lat="45.6608" lon="3.31827">
        <ele>648.8</ele>
        <time>2026-07-02T11:00:36.000Z</time>
      </trkpt>
      <trkpt lat="45.66077" lon="3.31835">
        <ele>649</ele>
        <time>2026-07-02T11:00:38.000Z</time>
      </trkpt>
      <trkpt lat="45.66075" lon="3.31841">
        <ele>649</ele>
        <time>2026-07-02T11:00:40.000Z</time>
      </trkpt>
      <trkpt lat="45.66072" lon="3.31847">
        <ele>649.2</ele>
        <time>2026-07-02T11:00:42.000Z</time>
      </trkpt>
      <trkpt lat="45.6607" lon="3.31852">
        <ele>649.2</ele>
        <time>2026-07-02T11:00:44.000Z</time>
      </trkpt>
      <trkpt lat="45.66067" lon="3.31857">
        <ele>649.4</ele>
        <time>2026-07-02T11:00:46.000Z</time>
      </trkpt>
      <trkpt lat="45.66064" lon="3.31861">
        <ele>649.4</ele>
        <time>2026-07-02T11:00:48.000Z</time>
      </trkpt>
      <trkpt lat="45.66061" lon="3.31867">
        <ele>649.4</ele>
        <time>2026-07-02T11:00:50.000Z</time>
      </trkpt>
      <trkpt lat="45.66058" lon="3.3187">
        <ele>649.4</ele>
        <time>2026-07-02T11:00:52.000Z</time>
      </trkpt>
      <trkpt lat="45.66056" lon="3.31873">
        <ele>649.2</ele>
        <time>2026-07-02T11:00:54.000Z</time>
      </trkpt>
      <trkpt lat="45.66053" lon="3.3188">
        <ele>649</ele>
        <time>2026-07-02T11:05:52.000Z</time>
      </trkpt>
      <trkpt lat="45.66047" lon="3.31886">
        <ele>649</ele>
        <time>2026-07-02T11:05:54.000Z</time>
      </trkpt>
      <trkpt lat="45.66042" lon="3.31892">
        <ele>649</ele>
        <time>2026-07-02T11:05:56.000Z</time>
      </trkpt>
      <trkpt lat="45.66035" lon="3.31896">
        <ele>649</ele>
        <time>2026-07-02T11:05:58.000Z</time>
      </trkpt>
      <trkpt lat="45.66028" lon="3.31899">
        <ele>649</ele>
        <time>2026-07-02T11:06:00.000Z</time>
      </trkpt>
      <trkpt lat="45.66024" lon="3.31901">
        <ele>648.8</ele>
        <time>2026-07-02T11:06:02.000Z</time>
      </trkpt>
      <trkpt lat="45.66024" lon="3.31901">
        <ele>648.6</ele>
        <time>2026-07-02T11:06:04.000Z</time>
      </trkpt>
      <trkpt lat="45.66019" lon="3.31905">
        <ele>647.8</ele>
        <time>2026-07-02T11:07:26.000Z</time>
      </trkpt>
      <trkpt lat="45.66014" lon="3.31908">
        <ele>647.6</ele>
        <time>2026-07-02T11:07:28.000Z</time>
      </trkpt>
      <trkpt lat="45.66008" lon="3.31911">
        <ele>647.4</ele>
        <time>2026-07-02T11:07:30.000Z</time>
      </trkpt>
      <trkpt lat="45.66001" lon="3.31915">
        <ele>647.2</ele>
        <time>2026-07-02T11:07:32.000Z</time>
      </trkpt>
      <trkpt lat="45.65993" lon="3.3192">
        <ele>647</ele>
        <time>2026-07-02T11:07:34.000Z</time>
      </trkpt>
      <trkpt lat="45.65985" lon="3.31926">
        <ele>646.6</ele>
        <time>2026-07-02T11:07:36.000Z</time>
      </trkpt>
      <trkpt lat="45.65976" lon="3.31931">
        <ele>646.2</ele>
        <time>2026-07-02T11:07:38.000Z</time>
      </trkpt>
      <trkpt lat="45.65966" lon="3.31937">
        <ele>645.6</ele>
        <time>2026-07-02T11:07:40.000Z</time>
      </trkpt>
      <trkpt lat="45.65954" lon="3.31945">
        <ele>645</ele>
        <time>2026-07-02T11:07:42.000Z</time>
      </trkpt>
      <trkpt lat="45.65941" lon="3.31953">
        <ele>644.4</ele>
        <time>2026-07-02T11:07:44.000Z</time>
      </trkpt>
      <trkpt lat="45.65926" lon="3.31962">
        <ele>643.6</ele>
        <time>2026-07-02T11:07:46.000Z</time>
      </trkpt>
      <trkpt lat="45.6591" lon="3.31972">
        <ele>642.6</ele>
        <time>2026-07-02T11:07:48.000Z</time>
      </trkpt>
      <trkpt lat="45.65893" lon="3.31983">
        <ele>641.6</ele>
        <time>2026-07-02T11:07:50.000Z</time>
      </trkpt>
      <trkpt lat="45.65874" lon="3.31995">
        <ele>640.6</ele>
        <time>2026-07-02T11:07:52.000Z</time>
      </trkpt>
      <trkpt lat="45.65855" lon="3.32007">
        <ele>639.6</ele>
        <time>2026-07-02T11:07:54.000Z</time>
      </trkpt>
      <trkpt lat="45.65835" lon="3.32018">
        <ele>638.6</ele>
        <time>2026-07-02T11:07:56.000Z</time>
      </trkpt>
      <trkpt lat="45.65815" lon="3.3203">
        <ele>637.6</ele>
        <time>2026-07-02T11:07:58.000Z</time>
      </trkpt>
      <trkpt lat="45.65796" lon="3.32042">
        <ele>636.8</ele>
        <time>2026-07-02T11:08:00.000Z</time>
      </trkpt>
      <trkpt lat="45.65775" lon="3.32055">
        <ele>635.8</ele>
        <time>2026-07-02T11:08:02.000Z</time>
      </trkpt>
      <trkpt lat="45.65757" lon="3.32069">
        <ele>634.8</ele>
        <time>2026-07-02T11:08:04.000Z</time>
      </trkpt>
      <trkpt lat="45.65741" lon="3.32085">
        <ele>634.2</ele>
        <time>2026-07-02T11:08:06.000Z</time>
      </trkpt>
      <trkpt lat="45.65728" lon="3.321">
        <ele>633.6</ele>
        <time>2026-07-02T11:08:08.000Z</time>
      </trkpt>
      <trkpt lat="45.65717" lon="3.32115">
        <ele>633</ele>
        <time>2026-07-02T11:08:10.000Z</time>
      </trkpt>
      <trkpt lat="45.65706" lon="3.32126">
        <ele>632.6</ele>
        <time>2026-07-02T11:08:12.000Z</time>
      </trkpt>
      <trkpt lat="45.65696" lon="3.32141">
        <ele>632.4</ele>
        <time>2026-07-02T11:08:14.000Z</time>
      </trkpt>
      <trkpt lat="45.65689" lon="3.32162">
        <ele>632.2</ele>
        <time>2026-07-02T11:08:16.000Z</time>
      </trkpt>
      <trkpt lat="45.65686" lon="3.32186">
        <ele>631.8</ele>
        <time>2026-07-02T11:08:18.000Z</time>
      </trkpt>
      <trkpt lat="45.65683" lon="3.32211">
        <ele>631.4</ele>
        <time>2026-07-02T11:08:20.000Z</time>
      </trkpt>
      <trkpt lat="45.65681" lon="3.32235">
        <ele>631.2</ele>
        <time>2026-07-02T11:08:22.000Z</time>
      </trkpt>
      <trkpt lat="45.65677" lon="3.3226">
        <ele>630.8</ele>
        <time>2026-07-02T11:08:24.000Z</time>
      </trkpt>
      <trkpt lat="45.65671" lon="3.32285">
        <ele>630.4</ele>
        <time>2026-07-02T11:08:26.000Z</time>
      </trkpt>
      <trkpt lat="45.65664" lon="3.32312">
        <ele>629.8</ele>
        <time>2026-07-02T11:08:28.000Z</time>
      </trkpt>
      <trkpt lat="45.65657" lon="3.32339">
        <ele>629</ele>
        <time>2026-07-02T11:08:30.000Z</time>
      </trkpt>
      <trkpt lat="45.6565" lon="3.32368">
        <ele>628</ele>
        <time>2026-07-02T11:08:32.000Z</time>
      </trkpt>
      <trkpt lat="45.65644" lon="3.32397">
        <ele>626.8</ele>
        <time>2026-07-02T11:08:34.000Z</time>
      </trkpt>
      <trkpt lat="45.65638" lon="3.32425">
        <ele>625.6</ele>
        <time>2026-07-02T11:08:36.000Z</time>
      </trkpt>
      <trkpt lat="45.6563" lon="3.32452">
        <ele>624.2</ele>
        <time>2026-07-02T11:08:38.000Z</time>
      </trkpt>
      <trkpt lat="45.65617" lon="3.32473">
        <ele>623</ele>
        <time>2026-07-02T11:08:40.000Z</time>
      </trkpt>
      <trkpt lat="45.65599" lon="3.32488">
        <ele>621.6</ele>
        <time>2026-07-02T11:08:42.000Z</time>
      </trkpt>
      <trkpt lat="45.65579" lon="3.32499">
        <ele>620.4</ele>
        <time>2026-07-02T11:08:44.000Z</time>
      </trkpt>
      <trkpt lat="45.65559" lon="3.32509">
        <ele>619.2</ele>
        <time>2026-07-02T11:08:46.000Z</time>
      </trkpt>
      <trkpt lat="45.65539" lon="3.32517">
        <ele>618.4</ele>
        <time>2026-07-02T11:08:49.000Z</time>
      </trkpt>
      <trkpt lat="45.65519" lon="3.32524">
        <ele>617.2</ele>
        <time>2026-07-02T11:08:51.000Z</time>
      </trkpt>
      <trkpt lat="45.65501" lon="3.32533">
        <ele>616.2</ele>
        <time>2026-07-02T11:08:53.000Z</time>
      </trkpt>
      <trkpt lat="45.65484" lon="3.32543">
        <ele>615</ele>
        <time>2026-07-02T11:08:55.000Z</time>
      </trkpt>
      <trkpt lat="45.65466" lon="3.32557">
        <ele>613.8</ele>
        <time>2026-07-02T11:08:57.000Z</time>
      </trkpt>
      <trkpt lat="45.6545" lon="3.32572">
        <ele>612.6</ele>
        <time>2026-07-02T11:08:59.000Z</time>
      </trkpt>
      <trkpt lat="45.65434" lon="3.3259">
        <ele>611</ele>
        <time>2026-07-02T11:09:01.000Z</time>
      </trkpt>
      <trkpt lat="45.6542" lon="3.32612">
        <ele>610.2</ele>
        <time>2026-07-02T11:09:03.000Z</time>
      </trkpt>
      <trkpt lat="45.65409" lon="3.32635">
        <ele>609.4</ele>
        <time>2026-07-02T11:09:05.000Z</time>
      </trkpt>
      <trkpt lat="45.65397" lon="3.32659">
        <ele>608.4</ele>
        <time>2026-07-02T11:09:07.000Z</time>
      </trkpt>
      <trkpt lat="45.65381" lon="3.32681">
        <ele>607.4</ele>
        <time>2026-07-02T11:09:09.000Z</time>
      </trkpt>
      <trkpt lat="45.65362" lon="3.32699">
        <ele>606.2</ele>
        <time>2026-07-02T11:09:11.000Z</time>
      </trkpt>
      <trkpt lat="45.65343" lon="3.32715">
        <ele>604.8</ele>
        <time>2026-07-02T11:09:13.000Z</time>
      </trkpt>
      <trkpt lat="45.65324" lon="3.32731">
        <ele>603.6</ele>
        <time>2026-07-02T11:09:15.000Z</time>
      </trkpt>
      <trkpt lat="45.65306" lon="3.32746">
        <ele>602.4</ele>
        <time>2026-07-02T11:09:17.000Z</time>
      </trkpt>
      <trkpt lat="45.6529" lon="3.32761">
        <ele>601.2</ele>
        <time>2026-07-02T11:09:19.000Z</time>
      </trkpt>
      <trkpt lat="45.65274" lon="3.32778">
        <ele>599.8</ele>
        <time>2026-07-02T11:09:21.000Z</time>
      </trkpt>
      <trkpt lat="45.6526" lon="3.32799">
        <ele>598.8</ele>
        <time>2026-07-02T11:09:23.000Z</time>
      </trkpt>
      <trkpt lat="45.65248" lon="3.32822">
        <ele>597.6</ele>
        <time>2026-07-02T11:09:25.000Z</time>
      </trkpt>
      <trkpt lat="45.65233" lon="3.32841">
        <ele>596.4</ele>
        <time>2026-07-02T11:09:27.000Z</time>
      </trkpt>
      <trkpt lat="45.65215" lon="3.32853">
        <ele>595.4</ele>
        <time>2026-07-02T11:09:29.000Z</time>
      </trkpt>
      <trkpt lat="45.65199" lon="3.32856">
        <ele>594.2</ele>
        <time>2026-07-02T11:09:31.000Z</time>
      </trkpt>
      <trkpt lat="45.65185" lon="3.32853">
        <ele>593.2</ele>
        <time>2026-07-02T11:09:33.000Z</time>
      </trkpt>
      <trkpt lat="45.65173" lon="3.32843">
        <ele>592.2</ele>
        <time>2026-07-02T11:09:35.000Z</time>
      </trkpt>
      <trkpt lat="45.6516" lon="3.32838">
        <ele>591.2</ele>
        <time>2026-07-02T11:09:37.000Z</time>
      </trkpt>
      <trkpt lat="45.65146" lon="3.32842">
        <ele>590.4</ele>
        <time>2026-07-02T11:09:39.000Z</time>
      </trkpt>
      <trkpt lat="45.65131" lon="3.32848">
        <ele>589.8</ele>
        <time>2026-07-02T11:09:41.000Z</time>
      </trkpt>
      <trkpt lat="45.65119" lon="3.32857">
        <ele>588.8</ele>
        <time>2026-07-02T11:09:43.000Z</time>
      </trkpt>
      <trkpt lat="45.6511" lon="3.32868">
        <ele>588.2</ele>
        <time>2026-07-02T11:09:45.000Z</time>
      </trkpt>
      <trkpt lat="45.65102" lon="3.32881">
        <ele>587.8</ele>
        <time>2026-07-02T11:09:47.000Z</time>
      </trkpt>
      <trkpt lat="45.65095" lon="3.32895">
        <ele>587.4</ele>
        <time>2026-07-02T11:09:49.000Z</time>
      </trkpt>
      <trkpt lat="45.6509" lon="3.32909">
        <ele>587</ele>
        <time>2026-07-02T11:09:51.000Z</time>
      </trkpt>
      <trkpt lat="45.65087" lon="3.32922">
        <ele>586.6</ele>
        <time>2026-07-02T11:09:53.000Z</time>
      </trkpt>
      <trkpt lat="45.65083" lon="3.32934">
        <ele>586</ele>
        <time>2026-07-02T11:09:55.000Z</time>
      </trkpt>
      <trkpt lat="45.65075" lon="3.32942">
        <ele>585.4</ele>
        <time>2026-07-02T11:09:57.000Z</time>
      </trkpt>
      <trkpt lat="45.65064" lon="3.32946">
        <ele>584.4</ele>
        <time>2026-07-02T11:09:59.000Z</time>
      </trkpt>
      <trkpt lat="45.65051" lon="3.32948">
        <ele>583.2</ele>
        <time>2026-07-02T11:10:01.000Z</time>
      </trkpt>
      <trkpt lat="45.65038" lon="3.32949">
        <ele>582</ele>
        <time>2026-07-02T11:10:03.000Z</time>
      </trkpt>
      <trkpt lat="45.65028" lon="3.32948">
        <ele>580.8</ele>
        <time>2026-07-02T11:10:05.000Z</time>
      </trkpt>
      <trkpt lat="45.65022" lon="3.32946">
        <ele>579.6</ele>
        <time>2026-07-02T11:10:07.000Z</time>
      </trkpt>
      <trkpt lat="45.65019" lon="3.32944">
        <ele>578.6</ele>
        <time>2026-07-02T11:10:09.000Z</time>
      </trkpt>
      <trkpt lat="45.65019" lon="3.32941">
        <ele>577.6</ele>
        <time>2026-07-02T11:10:11.000Z</time>
      </trkpt>
      <trkpt lat="45.65019" lon="3.32936">
        <ele>576.8</ele>
        <time>2026-07-02T11:10:13.000Z</time>
      </trkpt>
      <trkpt lat="45.65021" lon="3.3293">
        <ele>576.2</ele>
        <time>2026-07-02T11:10:15.000Z</time>
      </trkpt>
      <trkpt lat="45.65022" lon="3.32922">
        <ele>575.8</ele>
        <time>2026-07-02T11:10:17.000Z</time>
      </trkpt>
      <trkpt lat="45.65024" lon="3.32911">
        <ele>575.6</ele>
        <time>2026-07-02T11:10:19.000Z</time>
      </trkpt>
      <trkpt lat="45.65024" lon="3.329">
        <ele>575.4</ele>
        <time>2026-07-02T11:10:21.000Z</time>
      </trkpt>
      <trkpt lat="45.65023" lon="3.32889">
        <ele>575.2</ele>
        <time>2026-07-02T11:10:23.000Z</time>
      </trkpt>
      <trkpt lat="45.65019" lon="3.32878">
        <ele>574.8</ele>
        <time>2026-07-02T11:10:25.000Z</time>
      </trkpt>
      <trkpt lat="45.65015" lon="3.32863">
        <ele>574.4</ele>
        <time>2026-07-02T11:10:27.000Z</time>
      </trkpt>
      <trkpt lat="45.6501" lon="3.32847">
        <ele>574</ele>
        <time>2026-07-02T11:10:29.000Z</time>
      </trkpt>
      <trkpt lat="45.65004" lon="3.3283">
        <ele>573.4</ele>
        <time>2026-07-02T11:10:31.000Z</time>
      </trkpt>
      <trkpt lat="45.64997" lon="3.32811">
        <ele>572.8</ele>
        <time>2026-07-02T11:10:33.000Z</time>
      </trkpt>
      <trkpt lat="45.64994" lon="3.32791">
        <ele>572.2</ele>
        <time>2026-07-02T11:10:35.000Z</time>
      </trkpt>
      <trkpt lat="45.64997" lon="3.32771">
        <ele>571.6</ele>
        <time>2026-07-02T11:10:37.000Z</time>
      </trkpt>
      <trkpt lat="45.65005" lon="3.32754">
        <ele>571</ele>
        <time>2026-07-02T11:10:39.000Z</time>
      </trkpt>
      <trkpt lat="45.6501" lon="3.32735">
        <ele>570.8</ele>
        <time>2026-07-02T11:10:41.000Z</time>
      </trkpt>
      <trkpt lat="45.65011" lon="3.32716">
        <ele>570.4</ele>
        <time>2026-07-02T11:10:43.000Z</time>
      </trkpt>
      <trkpt lat="45.65005" lon="3.32699">
        <ele>570</ele>
        <time>2026-07-02T11:10:45.000Z</time>
      </trkpt>
      <trkpt lat="45.64994" lon="3.32687">
        <ele>569.6</ele>
        <time>2026-07-02T11:10:47.000Z</time>
      </trkpt>
      <trkpt lat="45.64981" lon="3.32683">
        <ele>569.2</ele>
        <time>2026-07-02T11:10:49.000Z</time>
      </trkpt>
      <trkpt lat="45.64971" lon="3.32685">
        <ele>568.4</ele>
        <time>2026-07-02T11:10:51.000Z</time>
      </trkpt>
      <trkpt lat="45.64964" lon="3.32687">
        <ele>567.6</ele>
        <time>2026-07-02T11:10:53.000Z</time>
      </trkpt>
      <trkpt lat="45.6496" lon="3.32687">
        <ele>566.8</ele>
        <time>2026-07-02T11:10:55.000Z</time>
      </trkpt>
      <trkpt lat="45.64957" lon="3.32688">
        <ele>566</ele>
        <time>2026-07-02T11:10:57.000Z</time>
      </trkpt>
      <trkpt lat="45.64956" lon="3.32693">
        <ele>565.4</ele>
        <time>2026-07-02T11:10:59.000Z</time>
      </trkpt>
      <trkpt lat="45.64955" lon="3.32701">
        <ele>565.2</ele>
        <time>2026-07-02T11:11:01.000Z</time>
      </trkpt>
      <trkpt lat="45.64952" lon="3.32711">
        <ele>564.8</ele>
        <time>2026-07-02T11:11:03.000Z</time>
      </trkpt>
      <trkpt lat="45.64949" lon="3.32725">
        <ele>564.8</ele>
        <time>2026-07-02T11:11:05.000Z</time>
      </trkpt>
      <trkpt lat="45.64944" lon="3.32742">
        <ele>564.4</ele>
        <time>2026-07-02T11:11:07.000Z</time>
      </trkpt>
      <trkpt lat="45.64939" lon="3.32761">
        <ele>563.8</ele>
        <time>2026-07-02T11:11:09.000Z</time>
      </trkpt>
      <trkpt lat="45.64934" lon="3.32781">
        <ele>563.2</ele>
        <time>2026-07-02T11:11:11.000Z</time>
      </trkpt>
      <trkpt lat="45.64927" lon="3.32801">
        <ele>562.4</ele>
        <time>2026-07-02T11:11:13.000Z</time>
      </trkpt>
      <trkpt lat="45.6492" lon="3.32823">
        <ele>561.6</ele>
        <time>2026-07-02T11:11:15.000Z</time>
      </trkpt>
      <trkpt lat="45.64914" lon="3.32845">
        <ele>560.8</ele>
        <time>2026-07-02T11:11:17.000Z</time>
      </trkpt>
      <trkpt lat="45.64908" lon="3.32866">
        <ele>559.8</ele>
        <time>2026-07-02T11:11:19.000Z</time>
      </trkpt>
      <trkpt lat="45.64898" lon="3.32887">
        <ele>558.6</ele>
        <time>2026-07-02T11:11:21.000Z</time>
      </trkpt>
      <trkpt lat="45.64885" lon="3.32906">
        <ele>557.6</ele>
        <time>2026-07-02T11:11:23.000Z</time>
      </trkpt>
      <trkpt lat="45.64872" lon="3.32921">
        <ele>556.2</ele>
        <time>2026-07-02T11:11:25.000Z</time>
      </trkpt>
      <trkpt lat="45.64857" lon="3.32934">
        <ele>555</ele>
        <time>2026-07-02T11:11:27.000Z</time>
      </trkpt>
      <trkpt lat="45.64841" lon="3.32945">
        <ele>553.8</ele>
        <time>2026-07-02T11:11:29.000Z</time>
      </trkpt>
      <trkpt lat="45.64823" lon="3.32955">
        <ele>552.8</ele>
        <time>2026-07-02T11:11:31.000Z</time>
      </trkpt>
      <trkpt lat="45.64804" lon="3.32963">
        <ele>551.4</ele>
        <time>2026-07-02T11:11:33.000Z</time>
      </trkpt>
      <trkpt lat="45.64784" lon="3.32969">
        <ele>550.2</ele>
        <time>2026-07-02T11:11:35.000Z</time>
      </trkpt>
      <trkpt lat="45.64763" lon="3.32973">
        <ele>549.2</ele>
        <time>2026-07-02T11:11:37.000Z</time>
      </trkpt>
      <trkpt lat="45.64742" lon="3.32976">
        <ele>548.2</ele>
        <time>2026-07-02T11:11:39.000Z</time>
      </trkpt>
      <trkpt lat="45.64724" lon="3.32977">
        <ele>547.4</ele>
        <time>2026-07-02T11:11:41.000Z</time>
      </trkpt>
      <trkpt lat="45.64705" lon="3.32977">
        <ele>546.6</ele>
        <time>2026-07-02T11:11:43.000Z</time>
      </trkpt>
      <trkpt lat="45.64687" lon="3.32976">
        <ele>546</ele>
        <time>2026-07-02T11:11:45.000Z</time>
      </trkpt>
      <trkpt lat="45.64671" lon="3.32975">
        <ele>545.2</ele>
        <time>2026-07-02T11:11:47.000Z</time>
      </trkpt>
      <trkpt lat="45.64657" lon="3.32975">
        <ele>544.2</ele>
        <time>2026-07-02T11:11:49.000Z</time>
      </trkpt>
      <trkpt lat="45.64646" lon="3.32973">
        <ele>543.6</ele>
        <time>2026-07-02T11:11:51.000Z</time>
      </trkpt>
      <trkpt lat="45.64637" lon="3.32966">
        <ele>543.2</ele>
        <time>2026-07-02T11:11:53.000Z</time>
      </trkpt>
      <trkpt lat="45.64632" lon="3.3295">
        <ele>542.8</ele>
        <time>2026-07-02T11:11:55.000Z</time>
      </trkpt>
      <trkpt lat="45.64629" lon="3.32932">
        <ele>542.6</ele>
        <time>2026-07-02T11:11:57.000Z</time>
      </trkpt>
      <trkpt lat="45.64627" lon="3.32913">
        <ele>542.4</ele>
        <time>2026-07-02T11:11:59.000Z</time>
      </trkpt>
      <trkpt lat="45.64624" lon="3.32894">
        <ele>542.2</ele>
        <time>2026-07-02T11:12:01.000Z</time>
      </trkpt>
      <trkpt lat="45.64622" lon="3.32875">
        <ele>542</ele>
        <time>2026-07-02T11:12:03.000Z</time>
      </trkpt>
      <trkpt lat="45.64619" lon="3.32856">
        <ele>541.6</ele>
        <time>2026-07-02T11:12:05.000Z</time>
      </trkpt>
      <trkpt lat="45.64617" lon="3.32838">
        <ele>541.4</ele>
        <time>2026-07-02T11:12:07.000Z</time>
      </trkpt>
      <trkpt lat="45.64613" lon="3.32821">
        <ele>541.4</ele>
        <time>2026-07-02T11:12:09.000Z</time>
      </trkpt>
      <trkpt lat="45.64608" lon="3.32805">
        <ele>541.4</ele>
        <time>2026-07-02T11:12:11.000Z</time>
      </trkpt>
      <trkpt lat="45.64602" lon="3.32791">
        <ele>541.4</ele>
        <time>2026-07-02T11:12:13.000Z</time>
      </trkpt>
      <trkpt lat="45.64595" lon="3.32777">
        <ele>541.4</ele>
        <time>2026-07-02T11:12:15.000Z</time>
      </trkpt>
      <trkpt lat="45.64588" lon="3.32763">
        <ele>541.2</ele>
        <time>2026-07-02T11:12:17.000Z</time>
      </trkpt>
      <trkpt lat="45.64581" lon="3.32749">
        <ele>541.2</ele>
        <time>2026-07-02T11:12:19.000Z</time>
      </trkpt>
      <trkpt lat="45.64574" lon="3.32735">
        <ele>541.2</ele>
        <time>2026-07-02T11:12:21.000Z</time>
      </trkpt>
      <trkpt lat="45.64567" lon="3.32722">
        <ele>541.4</ele>
        <time>2026-07-02T11:12:23.000Z</time>
      </trkpt>
      <trkpt lat="45.6456" lon="3.3271">
        <ele>541.6</ele>
        <time>2026-07-02T11:12:25.000Z</time>
      </trkpt>
      <trkpt lat="45.64554" lon="3.32697">
        <ele>541.8</ele>
        <time>2026-07-02T11:12:27.000Z</time>
      </trkpt>
      <trkpt lat="45.64548" lon="3.32684">
        <ele>542.2</ele>
        <time>2026-07-02T11:12:29.000Z</time>
      </trkpt>
      <trkpt lat="45.64541" lon="3.32672">
        <ele>542.8</ele>
        <time>2026-07-02T11:12:31.000Z</time>
      </trkpt>
      <trkpt lat="45.64535" lon="3.3266">
        <ele>543.2</ele>
        <time>2026-07-02T11:12:33.000Z</time>
      </trkpt>
      <trkpt lat="45.64529" lon="3.32649">
        <ele>543.4</ele>
        <time>2026-07-02T11:12:35.000Z</time>
      </trkpt>
      <trkpt lat="45.64522" lon="3.32638">
        <ele>543.8</ele>
        <time>2026-07-02T11:12:37.000Z</time>
      </trkpt>
      <trkpt lat="45.64516" lon="3.32628">
        <ele>544.2</ele>
        <time>2026-07-02T11:12:39.000Z</time>
      </trkpt>
      <trkpt lat="45.6451" lon="3.32619">
        <ele>544.4</ele>
        <time>2026-07-02T11:12:41.000Z</time>
      </trkpt>
      <trkpt lat="45.64503" lon="3.3261">
        <ele>544.8</ele>
        <time>2026-07-02T11:12:43.000Z</time>
      </trkpt>
      <trkpt lat="45.64496" lon="3.326">
        <ele>545</ele>
        <time>2026-07-02T11:12:45.000Z</time>
      </trkpt>
      <trkpt lat="45.64488" lon="3.32591">
        <ele>545.2</ele>
        <time>2026-07-02T11:12:47.000Z</time>
      </trkpt>
      <trkpt lat="45.64481" lon="3.3258">
        <ele>545.4</ele>
        <time>2026-07-02T11:12:49.000Z</time>
      </trkpt>
      <trkpt lat="45.64473" lon="3.32568">
        <ele>545.4</ele>
        <time>2026-07-02T11:12:51.000Z</time>
      </trkpt>
      <trkpt lat="45.64464" lon="3.32556">
        <ele>545.2</ele>
        <time>2026-07-02T11:12:53.000Z</time>
      </trkpt>
      <trkpt lat="45.64456" lon="3.32542">
        <ele>544.8</ele>
        <time>2026-07-02T11:12:55.000Z</time>
      </trkpt>
      <trkpt lat="45.64449" lon="3.32528">
        <ele>544.6</ele>
        <time>2026-07-02T11:12:57.000Z</time>
      </trkpt>
      <trkpt lat="45.64443" lon="3.32512">
        <ele>544.2</ele>
        <time>2026-07-02T11:12:59.000Z</time>
      </trkpt>
      <trkpt lat="45.64437" lon="3.32496">
        <ele>543.8</ele>
        <time>2026-07-02T11:13:01.000Z</time>
      </trkpt>
      <trkpt lat="45.64433" lon="3.32481">
        <ele>543.6</ele>
        <time>2026-07-02T11:13:03.000Z</time>
      </trkpt>
      <trkpt lat="45.64428" lon="3.32466">
        <ele>543.4</ele>
        <time>2026-07-02T11:13:05.000Z</time>
      </trkpt>
      <trkpt lat="45.64424" lon="3.32451">
        <ele>543.4</ele>
        <time>2026-07-02T11:13:07.000Z</time>
      </trkpt>
      <trkpt lat="45.64419" lon="3.32437">
        <ele>543.4</ele>
        <time>2026-07-02T11:13:09.000Z</time>
      </trkpt>
      <trkpt lat="45.64413" lon="3.32424">
        <ele>543.6</ele>
        <time>2026-07-02T11:13:11.000Z</time>
      </trkpt>
      <trkpt lat="45.64405" lon="3.32414">
        <ele>543.8</ele>
        <time>2026-07-02T11:13:13.000Z</time>
      </trkpt>
      <trkpt lat="45.64397" lon="3.32406">
        <ele>544</ele>
        <time>2026-07-02T11:13:15.000Z</time>
      </trkpt>
      <trkpt lat="45.64388" lon="3.324">
        <ele>544.4</ele>
        <time>2026-07-02T11:13:17.000Z</time>
      </trkpt>
      <trkpt lat="45.6438" lon="3.32397">
        <ele>544.8</ele>
        <time>2026-07-02T11:13:19.000Z</time>
      </trkpt>
      <trkpt lat="45.64372" lon="3.32396">
        <ele>545.2</ele>
        <time>2026-07-02T11:13:21.000Z</time>
      </trkpt>
      <trkpt lat="45.64364" lon="3.32397">
        <ele>545.6</ele>
        <time>2026-07-02T11:13:23.000Z</time>
      </trkpt>
      <trkpt lat="45.64356" lon="3.32398">
        <ele>546</ele>
        <time>2026-07-02T11:13:25.000Z</time>
      </trkpt>
      <trkpt lat="45.64348" lon="3.324">
        <ele>546.4</ele>
        <time>2026-07-02T11:13:27.000Z</time>
      </trkpt>
      <trkpt lat="45.6434" lon="3.32401">
        <ele>546.8</ele>
        <time>2026-07-02T11:13:29.000Z</time>
      </trkpt>
      <trkpt lat="45.64333" lon="3.32402">
        <ele>547.2</ele>
        <time>2026-07-02T11:13:31.000Z</time>
      </trkpt>
      <trkpt lat="45.64325" lon="3.32403">
        <ele>547.6</ele>
        <time>2026-07-02T11:13:33.000Z</time>
      </trkpt>
      <trkpt lat="45.64318" lon="3.32402">
        <ele>548</ele>
        <time>2026-07-02T11:13:35.000Z</time>
      </trkpt>
      <trkpt lat="45.6431" lon="3.324">
        <ele>548.4</ele>
        <time>2026-07-02T11:13:37.000Z</time>
      </trkpt>
      <trkpt lat="45.64302" lon="3.32397">
        <ele>548.8</ele>
        <time>2026-07-02T11:13:39.000Z</time>
      </trkpt>
      <trkpt lat="45.64295" lon="3.32393">
        <ele>549.2</ele>
        <time>2026-07-02T11:13:41.000Z</time>
      </trkpt>
      <trkpt lat="45.64288" lon="3.32389">
        <ele>549.6</ele>
        <time>2026-07-02T11:13:43.000Z</time>
      </trkpt>
      <trkpt lat="45.64281" lon="3.32385">
        <ele>550</ele>
        <time>2026-07-02T11:13:45.000Z</time>
      </trkpt>
      <trkpt lat="45.64274" lon="3.3238">
        <ele>550.4</ele>
        <time>2026-07-02T11:13:47.000Z</time>
      </trkpt>
      <trkpt lat="45.64267" lon="3.32376">
        <ele>550.6</ele>
        <time>2026-07-02T11:13:49.000Z</time>
      </trkpt>
      <trkpt lat="45.6426" lon="3.32372">
        <ele>551</ele>
        <time>2026-07-02T11:13:51.000Z</time>
      </trkpt>
      <trkpt lat="45.64254" lon="3.32367">
        <ele>551.2</ele>
        <time>2026-07-02T11:13:53.000Z</time>
      </trkpt>
      <trkpt lat="45.64247" lon="3.32363">
        <ele>551.8</ele>
        <time>2026-07-02T11:13:55.000Z</time>
      </trkpt>
      <trkpt lat="45.6424" lon="3.32358">
        <ele>552.2</ele>
        <time>2026-07-02T11:13:57.000Z</time>
      </trkpt>
      <trkpt lat="45.64234" lon="3.32354">
        <ele>552.4</ele>
        <time>2026-07-02T11:13:59.000Z</time>
      </trkpt>
      <trkpt lat="45.64227" lon="3.32349">
        <ele>552.8</ele>
        <time>2026-07-02T11:14:01.000Z</time>
      </trkpt>
      <trkpt lat="45.6422" lon="3.32345">
        <ele>553</ele>
        <time>2026-07-02T11:14:03.000Z</time>
      </trkpt>
      <trkpt lat="45.64213" lon="3.32341">
        <ele>553.4</ele>
        <time>2026-07-02T11:14:05.000Z</time>
      </trkpt>
      <trkpt lat="45.64206" lon="3.32336">
        <ele>553.6</ele>
        <time>2026-07-02T11:14:07.000Z</time>
      </trkpt>
      <trkpt lat="45.64199" lon="3.32332">
        <ele>553.8</ele>
        <time>2026-07-02T11:14:09.000Z</time>
      </trkpt>
      <trkpt lat="45.64191" lon="3.32327">
        <ele>554</ele>
        <time>2026-07-02T11:14:11.000Z</time>
      </trkpt>
      <trkpt lat="45.64184" lon="3.32322">
        <ele>554.2</ele>
        <time>2026-07-02T11:14:13.000Z</time>
      </trkpt>
      <trkpt lat="45.64176" lon="3.32318">
        <ele>554.2</ele>
        <time>2026-07-02T11:14:15.000Z</time>
      </trkpt>
      <trkpt lat="45.64169" lon="3.32313">
        <ele>554.4</ele>
        <time>2026-07-02T11:14:17.000Z</time>
      </trkpt>
      <trkpt lat="45.64161" lon="3.3231">
        <ele>554.4</ele>
        <time>2026-07-02T11:14:19.000Z</time>
      </trkpt>
      <trkpt lat="45.64153" lon="3.32307">
        <ele>554.6</ele>
        <time>2026-07-02T11:14:21.000Z</time>
      </trkpt>
      <trkpt lat="45.64146" lon="3.32304">
        <ele>554.8</ele>
        <time>2026-07-02T11:14:23.000Z</time>
      </trkpt>
      <trkpt lat="45.64138" lon="3.32301">
        <ele>555.2</ele>
        <time>2026-07-02T11:14:25.000Z</time>
      </trkpt>
      <trkpt lat="45.64131" lon="3.32298">
        <ele>555.4</ele>
        <time>2026-07-02T11:14:27.000Z</time>
      </trkpt>
      <trkpt lat="45.64123" lon="3.32296">
        <ele>555.6</ele>
        <time>2026-07-02T11:14:29.000Z</time>
      </trkpt>
      <trkpt lat="45.64115" lon="3.32293">
        <ele>556</ele>
        <time>2026-07-02T11:14:31.000Z</time>
      </trkpt>
      <trkpt lat="45.64107" lon="3.32289">
        <ele>556.2</ele>
        <time>2026-07-02T11:14:33.000Z</time>
      </trkpt>
      <trkpt lat="45.64099" lon="3.32286">
        <ele>556.4</ele>
        <time>2026-07-02T11:14:35.000Z</time>
      </trkpt>
      <trkpt lat="45.64091" lon="3.32283">
        <ele>556.8</ele>
        <time>2026-07-02T11:14:37.000Z</time>
      </trkpt>
      <trkpt lat="45.64083" lon="3.3228">
        <ele>556.8</ele>
        <time>2026-07-02T11:14:39.000Z</time>
      </trkpt>
      <trkpt lat="45.64074" lon="3.32277">
        <ele>557</ele>
        <time>2026-07-02T11:14:41.000Z</time>
      </trkpt>
      <trkpt lat="45.64065" lon="3.32273">
        <ele>557</ele>
        <time>2026-07-02T11:14:43.000Z</time>
      </trkpt>
      <trkpt lat="45.64056" lon="3.32271">
        <ele>557</ele>
        <time>2026-07-02T11:14:45.000Z</time>
      </trkpt>
      <trkpt lat="45.64047" lon="3.32267">
        <ele>557</ele>
        <time>2026-07-02T11:14:47.000Z</time>
      </trkpt>
      <trkpt lat="45.64036" lon="3.32265">
        <ele>556.8</ele>
        <time>2026-07-02T11:14:49.000Z</time>
      </trkpt>
      <trkpt lat="45.64025" lon="3.32262">
        <ele>556.8</ele>
        <time>2026-07-02T11:14:51.000Z</time>
      </trkpt>
      <trkpt lat="45.64013" lon="3.32259">
        <ele>556.8</ele>
        <time>2026-07-02T11:14:53.000Z</time>
      </trkpt>
      <trkpt lat="45.64001" lon="3.32255">
        <ele>556.6</ele>
        <time>2026-07-02T11:14:55.000Z</time>
      </trkpt>
      <trkpt lat="45.63989" lon="3.32253">
        <ele>556.4</ele>
        <time>2026-07-02T11:14:57.000Z</time>
      </trkpt>
      <trkpt lat="45.63977" lon="3.3225">
        <ele>556.4</ele>
        <time>2026-07-02T11:14:59.000Z</time>
      </trkpt>
      <trkpt lat="45.63965" lon="3.32247">
        <ele>556.2</ele>
        <time>2026-07-02T11:15:01.000Z</time>
      </trkpt>
      <trkpt lat="45.63954" lon="3.32243">
        <ele>556</ele>
        <time>2026-07-02T11:15:03.000Z</time>
      </trkpt>
      <trkpt lat="45.63942" lon="3.32238">
        <ele>555.8</ele>
        <time>2026-07-02T11:15:05.000Z</time>
      </trkpt>
      <trkpt lat="45.63931" lon="3.32231">
        <ele>555.8</ele>
        <time>2026-07-02T11:15:07.000Z</time>
      </trkpt>
      <trkpt lat="45.63919" lon="3.32222">
        <ele>555.6</ele>
        <time>2026-07-02T11:15:09.000Z</time>
      </trkpt>
      <trkpt lat="45.63908" lon="3.32213">
        <ele>555.6</ele>
        <time>2026-07-02T11:15:11.000Z</time>
      </trkpt>
      <trkpt lat="45.63898" lon="3.32203">
        <ele>555.4</ele>
        <time>2026-07-02T11:15:13.000Z</time>
      </trkpt>
      <trkpt lat="45.63888" lon="3.32193">
        <ele>555.6</ele>
        <time>2026-07-02T11:15:15.000Z</time>
      </trkpt>
      <trkpt lat="45.63878" lon="3.32184">
        <ele>555.6</ele>
        <time>2026-07-02T11:15:17.000Z</time>
      </trkpt>
      <trkpt lat="45.63869" lon="3.32175">
        <ele>555.6</ele>
        <time>2026-07-02T11:15:19.000Z</time>
      </trkpt>
      <trkpt lat="45.6386" lon="3.32166">
        <ele>555.8</ele>
        <time>2026-07-02T11:15:21.000Z</time>
      </trkpt>
      <trkpt lat="45.63851" lon="3.32157">
        <ele>555.6</ele>
        <time>2026-07-02T11:15:23.000Z</time>
      </trkpt>
      <trkpt lat="45.63841" lon="3.32148">
        <ele>555.8</ele>
        <time>2026-07-02T11:15:25.000Z</time>
      </trkpt>
      <trkpt lat="45.63831" lon="3.32138">
        <ele>556</ele>
        <time>2026-07-02T11:15:27.000Z</time>
      </trkpt>
      <trkpt lat="45.63823" lon="3.3213">
        <ele>556.2</ele>
        <time>2026-07-02T11:15:29.000Z</time>
      </trkpt>
      <trkpt lat="45.63814" lon="3.32122">
        <ele>556.4</ele>
        <time>2026-07-02T11:15:31.000Z</time>
      </trkpt>
      <trkpt lat="45.63806" lon="3.32114">
        <ele>556.6</ele>
        <time>2026-07-02T11:15:33.000Z</time>
      </trkpt>
      <trkpt lat="45.63798" lon="3.32107">
        <ele>556.8</ele>
        <time>2026-07-02T11:15:35.000Z</time>
      </trkpt>
      <trkpt lat="45.6379" lon="3.32101">
        <ele>557.2</ele>
        <time>2026-07-02T11:15:37.000Z</time>
      </trkpt>
      <trkpt lat="45.63783" lon="3.32096">
        <ele>557.4</ele>
        <time>2026-07-02T11:15:39.000Z</time>
      </trkpt>
      <trkpt lat="45.63775" lon="3.32091">
        <ele>557.6</ele>
        <time>2026-07-02T11:15:41.000Z</time>
      </trkpt>
      <trkpt lat="45.63767" lon="3.32086">
        <ele>558.2</ele>
        <time>2026-07-02T11:15:43.000Z</time>
      </trkpt>
      <trkpt lat="45.63759" lon="3.32081">
        <ele>558.4</ele>
        <time>2026-07-02T11:15:45.000Z</time>
      </trkpt>
      <trkpt lat="45.63751" lon="3.32076">
        <ele>558.8</ele>
        <time>2026-07-02T11:15:47.000Z</time>
      </trkpt>
      <trkpt lat="45.63743" lon="3.32071">
        <ele>559</ele>
        <time>2026-07-02T11:15:49.000Z</time>
      </trkpt>
      <trkpt lat="45.63735" lon="3.32065">
        <ele>559.2</ele>
        <time>2026-07-02T11:15:51.000Z</time>
      </trkpt>
      <trkpt lat="45.63726" lon="3.32059">
        <ele>559.4</ele>
        <time>2026-07-02T11:15:53.000Z</time>
      </trkpt>
      <trkpt lat="45.63717" lon="3.32054">
        <ele>559.4</ele>
        <time>2026-07-02T11:15:55.000Z</time>
      </trkpt>
      <trkpt lat="45.63707" lon="3.32051">
        <ele>559.4</ele>
        <time>2026-07-02T11:15:57.000Z</time>
      </trkpt>
      <trkpt lat="45.63698" lon="3.32051">
        <ele>559.6</ele>
        <time>2026-07-02T11:15:59.000Z</time>
      </trkpt>
      <trkpt lat="45.63689" lon="3.32052">
        <ele>559.8</ele>
        <time>2026-07-02T11:16:01.000Z</time>
      </trkpt>
      <trkpt lat="45.6368" lon="3.32055">
        <ele>559.8</ele>
        <time>2026-07-02T11:16:03.000Z</time>
      </trkpt>
      <trkpt lat="45.6367" lon="3.32058">
        <ele>559.8</ele>
        <time>2026-07-02T11:16:05.000Z</time>
      </trkpt>
      <trkpt lat="45.63658" lon="3.32059">
        <ele>559.8</ele>
        <time>2026-07-02T11:16:07.000Z</time>
      </trkpt>
      <trkpt lat="45.63646" lon="3.32057">
        <ele>559.6</ele>
        <time>2026-07-02T11:16:09.000Z</time>
      </trkpt>
      <trkpt lat="45.63635" lon="3.32052">
        <ele>559.4</ele>
        <time>2026-07-02T11:16:11.000Z</time>
      </trkpt>
      <trkpt lat="45.63625" lon="3.32043">
        <ele>559.2</ele>
        <time>2026-07-02T11:16:13.000Z</time>
      </trkpt>
      <trkpt lat="45.63616" lon="3.32032">
        <ele>559.2</ele>
        <time>2026-07-02T11:16:15.000Z</time>
      </trkpt>
      <trkpt lat="45.63608" lon="3.32021">
        <ele>559.2</ele>
        <time>2026-07-02T11:16:17.000Z</time>
      </trkpt>
      <trkpt lat="45.636" lon="3.32009">
        <ele>559.2</ele>
        <time>2026-07-02T11:16:19.000Z</time>
      </trkpt>
      <trkpt lat="45.63593" lon="3.31996">
        <ele>559.2</ele>
        <time>2026-07-02T11:16:21.000Z</time>
      </trkpt>
      <trkpt lat="45.63586" lon="3.31984">
        <ele>559.4</ele>
        <time>2026-07-02T11:16:23.000Z</time>
      </trkpt>
      <trkpt lat="45.63581" lon="3.31971">
        <ele>559.4</ele>
        <time>2026-07-02T11:16:25.000Z</time>
      </trkpt>
      <trkpt lat="45.63576" lon="3.31958">
        <ele>559.4</ele>
        <time>2026-07-02T11:16:27.000Z</time>
      </trkpt>
      <trkpt lat="45.63572" lon="3.31944">
        <ele>559.6</ele>
        <time>2026-07-02T11:16:29.000Z</time>
      </trkpt>
      <trkpt lat="45.6357" lon="3.31931">
        <ele>559.8</ele>
        <time>2026-07-02T11:16:31.000Z</time>
      </trkpt>
      <trkpt lat="45.6357" lon="3.31918">
        <ele>560</ele>
        <time>2026-07-02T11:16:33.000Z</time>
      </trkpt>
      <trkpt lat="45.6357" lon="3.31906">
        <ele>560.4</ele>
        <time>2026-07-02T11:16:35.000Z</time>
      </trkpt>
      <trkpt lat="45.63571" lon="3.31894">
        <ele>560.8</ele>
        <time>2026-07-02T11:16:37.000Z</time>
      </trkpt>
      <trkpt lat="45.63572" lon="3.31884">
        <ele>561.2</ele>
        <time>2026-07-02T11:16:39.000Z</time>
      </trkpt>
      <trkpt lat="45.63572" lon="3.31874">
        <ele>561.8</ele>
        <time>2026-07-02T11:16:41.000Z</time>
      </trkpt>
      <trkpt lat="45.63572" lon="3.31864">
        <ele>562.4</ele>
        <time>2026-07-02T11:16:43.000Z</time>
      </trkpt>
      <trkpt lat="45.63573" lon="3.31854">
        <ele>563</ele>
        <time>2026-07-02T11:16:45.000Z</time>
      </trkpt>
      <trkpt lat="45.63573" lon="3.31844">
        <ele>563.2</ele>
        <time>2026-07-02T11:16:47.000Z</time>
      </trkpt>
      <trkpt lat="45.63573" lon="3.31834">
        <ele>563.6</ele>
        <time>2026-07-02T11:16:49.000Z</time>
      </trkpt>
      <trkpt lat="45.63572" lon="3.31824">
        <ele>564</ele>
        <time>2026-07-02T11:16:51.000Z</time>
      </trkpt>
      <trkpt lat="45.63572" lon="3.31813">
        <ele>564.2</ele>
        <time>2026-07-02T11:16:53.000Z</time>
      </trkpt>
      <trkpt lat="45.63571" lon="3.31802">
        <ele>564.6</ele>
        <time>2026-07-02T11:16:55.000Z</time>
      </trkpt>
      <trkpt lat="45.63571" lon="3.31791">
        <ele>564.8</ele>
        <time>2026-07-02T11:16:57.000Z</time>
      </trkpt>
      <trkpt lat="45.6357" lon="3.3178">
        <ele>565</ele>
        <time>2026-07-02T11:16:59.000Z</time>
      </trkpt>
      <trkpt lat="45.63568" lon="3.3177">
        <ele>565.4</ele>
        <time>2026-07-02T11:17:01.000Z</time>
      </trkpt>
      <trkpt lat="45.63565" lon="3.3176">
        <ele>565.6</ele>
        <time>2026-07-02T11:17:03.000Z</time>
      </trkpt>
      <trkpt lat="45.63562" lon="3.31749">
        <ele>566</ele>
        <time>2026-07-02T11:17:05.000Z</time>
      </trkpt>
      <trkpt lat="45.63557" lon="3.3174">
        <ele>566.2</ele>
        <time>2026-07-02T11:17:07.000Z</time>
      </trkpt>
      <trkpt lat="45.63552" lon="3.31731">
        <ele>566.4</ele>
        <time>2026-07-02T11:17:09.000Z</time>
      </trkpt>
      <trkpt lat="45.63545" lon="3.31724">
        <ele>566.6</ele>
        <time>2026-07-02T11:17:11.000Z</time>
      </trkpt>
      <trkpt lat="45.63538" lon="3.31717">
        <ele>566.8</ele>
        <time>2026-07-02T11:17:13.000Z</time>
      </trkpt>
      <trkpt lat="45.63531" lon="3.31711">
        <ele>566.8</ele>
        <time>2026-07-02T11:17:15.000Z</time>
      </trkpt>
      <trkpt lat="45.63523" lon="3.31704">
        <ele>566.8</ele>
        <time>2026-07-02T11:17:17.000Z</time>
      </trkpt>
      <trkpt lat="45.63515" lon="3.31698">
        <ele>566.8</ele>
        <time>2026-07-02T11:17:19.000Z</time>
      </trkpt>
      <trkpt lat="45.63507" lon="3.31691">
        <ele>566.8</ele>
        <time>2026-07-02T11:17:21.000Z</time>
      </trkpt>
      <trkpt lat="45.63498" lon="3.31684">
        <ele>566.6</ele>
        <time>2026-07-02T11:17:23.000Z</time>
      </trkpt>
      <trkpt lat="45.6349" lon="3.31677">
        <ele>566.6</ele>
        <time>2026-07-02T11:17:25.000Z</time>
      </trkpt>
      <trkpt lat="45.63483" lon="3.31669">
        <ele>566.6</ele>
        <time>2026-07-02T11:17:27.000Z</time>
      </trkpt>
      <trkpt lat="45.63476" lon="3.3166">
        <ele>566.4</ele>
        <time>2026-07-02T11:17:29.000Z</time>
      </trkpt>
      <trkpt lat="45.63469" lon="3.31649">
        <ele>566.4</ele>
        <time>2026-07-02T11:17:31.000Z</time>
      </trkpt>
      <trkpt lat="45.63463" lon="3.31638">
        <ele>566.2</ele>
        <time>2026-07-02T11:17:33.000Z</time>
      </trkpt>
      <trkpt lat="45.63459" lon="3.31625">
        <ele>566.2</ele>
        <time>2026-07-02T11:17:35.000Z</time>
      </trkpt>
      <trkpt lat="45.63456" lon="3.31613">
        <ele>566</ele>
        <time>2026-07-02T11:17:37.000Z</time>
      </trkpt>
      <trkpt lat="45.63454" lon="3.31599">
        <ele>566.2</ele>
        <time>2026-07-02T11:17:39.000Z</time>
      </trkpt>
      <trkpt lat="45.63452" lon="3.31585">
        <ele>566</ele>
        <time>2026-07-02T11:17:41.000Z</time>
      </trkpt>
      <trkpt lat="45.6345" lon="3.31571">
        <ele>566</ele>
        <time>2026-07-02T11:17:43.000Z</time>
      </trkpt>
      <trkpt lat="45.63449" lon="3.31557">
        <ele>566</ele>
        <time>2026-07-02T11:17:45.000Z</time>
      </trkpt>
      <trkpt lat="45.63447" lon="3.31543">
        <ele>565.8</ele>
        <time>2026-07-02T11:17:47.000Z</time>
      </trkpt>
      <trkpt lat="45.63444" lon="3.3153">
        <ele>565.8</ele>
        <time>2026-07-02T11:17:49.000Z</time>
      </trkpt>
      <trkpt lat="45.63441" lon="3.31516">
        <ele>565.6</ele>
        <time>2026-07-02T11:17:51.000Z</time>
      </trkpt>
      <trkpt lat="45.63438" lon="3.31503">
        <ele>565.6</ele>
        <time>2026-07-02T11:17:53.000Z</time>
      </trkpt>
      <trkpt lat="45.63435" lon="3.31491">
        <ele>565.6</ele>
        <time>2026-07-02T11:17:55.000Z</time>
      </trkpt>
      <trkpt lat="45.63431" lon="3.31479">
        <ele>565.6</ele>
        <time>2026-07-02T11:17:57.000Z</time>
      </trkpt>
      <trkpt lat="45.63426" lon="3.31467">
        <ele>565.8</ele>
        <time>2026-07-02T11:17:59.000Z</time>
      </trkpt>
      <trkpt lat="45.63421" lon="3.31456">
        <ele>566</ele>
        <time>2026-07-02T11:18:01.000Z</time>
      </trkpt>
      <trkpt lat="45.63416" lon="3.31445">
        <ele>566.2</ele>
        <time>2026-07-02T11:18:03.000Z</time>
      </trkpt>
      <trkpt lat="45.63411" lon="3.31435">
        <ele>566.4</ele>
        <time>2026-07-02T11:18:05.000Z</time>
      </trkpt>
      <trkpt lat="45.63406" lon="3.31425">
        <ele>566.6</ele>
        <time>2026-07-02T11:18:07.000Z</time>
      </trkpt>
      <trkpt lat="45.63401" lon="3.31414">
        <ele>566.8</ele>
        <time>2026-07-02T11:18:09.000Z</time>
      </trkpt>
      <trkpt lat="45.63396" lon="3.31404">
        <ele>566.8</ele>
        <time>2026-07-02T11:18:11.000Z</time>
      </trkpt>
      <trkpt lat="45.63392" lon="3.31392">
        <ele>566.8</ele>
        <time>2026-07-02T11:18:13.000Z</time>
      </trkpt>
      <trkpt lat="45.63389" lon="3.31379">
        <ele>566.8</ele>
        <time>2026-07-02T11:18:15.000Z</time>
      </trkpt>
      <trkpt lat="45.63387" lon="3.31365">
        <ele>566.8</ele>
        <time>2026-07-02T11:18:17.000Z</time>
      </trkpt>
      <trkpt lat="45.63385" lon="3.31351">
        <ele>566.8</ele>
        <time>2026-07-02T11:18:19.000Z</time>
      </trkpt>
      <trkpt lat="45.63384" lon="3.31336">
        <ele>567</ele>
        <time>2026-07-02T11:18:21.000Z</time>
      </trkpt>
      <trkpt lat="45.63383" lon="3.31322">
        <ele>566.8</ele>
        <time>2026-07-02T11:18:23.000Z</time>
      </trkpt>
      <trkpt lat="45.63384" lon="3.31308">
        <ele>567</ele>
        <time>2026-07-02T11:18:25.000Z</time>
      </trkpt>
      <trkpt lat="45.63385" lon="3.31295">
        <ele>567</ele>
        <time>2026-07-02T11:18:27.000Z</time>
      </trkpt>
      <trkpt lat="45.63386" lon="3.31281">
        <ele>567</ele>
        <time>2026-07-02T11:18:29.000Z</time>
      </trkpt>
      <trkpt lat="45.63386" lon="3.31268">
        <ele>567.2</ele>
        <time>2026-07-02T11:18:31.000Z</time>
      </trkpt>
      <trkpt lat="45.63385" lon="3.31256">
        <ele>567.2</ele>
        <time>2026-07-02T11:18:33.000Z</time>
      </trkpt>
      <trkpt lat="45.63382" lon="3.31244">
        <ele>567.4</ele>
        <time>2026-07-02T11:18:35.000Z</time>
      </trkpt>
      <trkpt lat="45.63379" lon="3.31234">
        <ele>567.8</ele>
        <time>2026-07-02T11:18:37.000Z</time>
      </trkpt>
      <trkpt lat="45.63375" lon="3.31224">
        <ele>568</ele>
        <time>2026-07-02T11:18:39.000Z</time>
      </trkpt>
      <trkpt lat="45.6337" lon="3.31214">
        <ele>568.2</ele>
        <time>2026-07-02T11:18:41.000Z</time>
      </trkpt>
      <trkpt lat="45.63365" lon="3.31205">
        <ele>568.4</ele>
        <time>2026-07-02T11:18:43.000Z</time>
      </trkpt>
      <trkpt lat="45.63361" lon="3.31193">
        <ele>568.6</ele>
        <time>2026-07-02T11:18:45.000Z</time>
      </trkpt>
      <trkpt lat="45.63358" lon="3.31181">
        <ele>568.6</ele>
        <time>2026-07-02T11:18:47.000Z</time>
      </trkpt>
      <trkpt lat="45.63356" lon="3.31168">
        <ele>568.8</ele>
        <time>2026-07-02T11:18:49.000Z</time>
      </trkpt>
      <trkpt lat="45.63355" lon="3.31155">
        <ele>568.8</ele>
        <time>2026-07-02T11:18:51.000Z</time>
      </trkpt>
      <trkpt lat="45.63355" lon="3.31142">
        <ele>568.8</ele>
        <time>2026-07-02T11:18:53.000Z</time>
      </trkpt>
      <trkpt lat="45.63354" lon="3.3113">
        <ele>569</ele>
        <time>2026-07-02T11:18:55.000Z</time>
      </trkpt>
      <trkpt lat="45.63353" lon="3.31117">
        <ele>569.4</ele>
        <time>2026-07-02T11:18:57.000Z</time>
      </trkpt>
      <trkpt lat="45.63352" lon="3.31105">
        <ele>569.6</ele>
        <time>2026-07-02T11:18:59.000Z</time>
      </trkpt>
      <trkpt lat="45.63348" lon="3.31093">
        <ele>569.8</ele>
        <time>2026-07-02T11:19:01.000Z</time>
      </trkpt>
      <trkpt lat="45.63343" lon="3.31082">
        <ele>569.8</ele>
        <time>2026-07-02T11:19:03.000Z</time>
      </trkpt>
      <trkpt lat="45.63337" lon="3.31071">
        <ele>569.4</ele>
        <time>2026-07-02T11:19:05.000Z</time>
      </trkpt>
      <trkpt lat="45.6333" lon="3.31064">
        <ele>569</ele>
        <time>2026-07-02T11:19:07.000Z</time>
      </trkpt>
      <trkpt lat="45.63322" lon="3.31058">
        <ele>568.6</ele>
        <time>2026-07-02T11:19:09.000Z</time>
      </trkpt>
      <trkpt lat="45.63313" lon="3.31053">
        <ele>568.6</ele>
        <time>2026-07-02T11:19:11.000Z</time>
      </trkpt>
      <trkpt lat="45.63305" lon="3.31049">
        <ele>568.6</ele>
        <time>2026-07-02T11:19:13.000Z</time>
      </trkpt>
      <trkpt lat="45.63297" lon="3.31047">
        <ele>569</ele>
        <time>2026-07-02T11:19:15.000Z</time>
      </trkpt>
      <trkpt lat="45.63288" lon="3.31045">
        <ele>569.4</ele>
        <time>2026-07-02T11:19:17.000Z</time>
      </trkpt>
      <trkpt lat="45.63279" lon="3.31043">
        <ele>569.6</ele>
        <time>2026-07-02T11:19:19.000Z</time>
      </trkpt>
      <trkpt lat="45.63271" lon="3.31043">
        <ele>570</ele>
        <time>2026-07-02T11:19:21.000Z</time>
      </trkpt>
      <trkpt lat="45.63262" lon="3.31043">
        <ele>570.2</ele>
        <time>2026-07-02T11:19:23.000Z</time>
      </trkpt>
      <trkpt lat="45.63252" lon="3.31044">
        <ele>570.4</ele>
        <time>2026-07-02T11:19:25.000Z</time>
      </trkpt>
      <trkpt lat="45.63243" lon="3.31046">
        <ele>570.4</ele>
        <time>2026-07-02T11:19:27.000Z</time>
      </trkpt>
      <trkpt lat="45.63233" lon="3.31048">
        <ele>570.6</ele>
        <time>2026-07-02T11:19:29.000Z</time>
      </trkpt>
      <trkpt lat="45.63223" lon="3.31051">
        <ele>570.6</ele>
        <time>2026-07-02T11:19:31.000Z</time>
      </trkpt>
      <trkpt lat="45.63213" lon="3.31054">
        <ele>570.4</ele>
        <time>2026-07-02T11:19:33.000Z</time>
      </trkpt>
      <trkpt lat="45.63203" lon="3.31057">
        <ele>570.4</ele>
        <time>2026-07-02T11:19:35.000Z</time>
      </trkpt>
      <trkpt lat="45.63192" lon="3.3106">
        <ele>570.4</ele>
        <time>2026-07-02T11:19:37.000Z</time>
      </trkpt>
      <trkpt lat="45.63183" lon="3.31062">
        <ele>570.4</ele>
        <time>2026-07-02T11:19:39.000Z</time>
      </trkpt>
      <trkpt lat="45.63173" lon="3.31064">
        <ele>570.6</ele>
        <time>2026-07-02T11:19:41.000Z</time>
      </trkpt>
      <trkpt lat="45.63164" lon="3.31065">
        <ele>570.8</ele>
        <time>2026-07-02T11:19:43.000Z</time>
      </trkpt>
      <trkpt lat="45.63155" lon="3.31065">
        <ele>571.2</ele>
        <time>2026-07-02T11:19:45.000Z</time>
      </trkpt>
      <trkpt lat="45.63147" lon="3.31065">
        <ele>571.6</ele>
        <time>2026-07-02T11:19:47.000Z</time>
      </trkpt>
      <trkpt lat="45.63139" lon="3.31064">
        <ele>572</ele>
        <time>2026-07-02T11:19:49.000Z</time>
      </trkpt>
      <trkpt lat="45.63131" lon="3.31064">
        <ele>572.4</ele>
        <time>2026-07-02T11:19:51.000Z</time>
      </trkpt>
      <trkpt lat="45.63122" lon="3.31063">
        <ele>572.8</ele>
        <time>2026-07-02T11:19:53.000Z</time>
      </trkpt>
      <trkpt lat="45.63114" lon="3.31063">
        <ele>573.2</ele>
        <time>2026-07-02T11:19:55.000Z</time>
      </trkpt>
      <trkpt lat="45.63106" lon="3.31064">
        <ele>573.6</ele>
        <time>2026-07-02T11:19:57.000Z</time>
      </trkpt>
      <trkpt lat="45.63098" lon="3.31064">
        <ele>574</ele>
        <time>2026-07-02T11:19:59.000Z</time>
      </trkpt>
      <trkpt lat="45.63091" lon="3.31065">
        <ele>574.2</ele>
        <time>2026-07-02T11:20:01.000Z</time>
      </trkpt>
      <trkpt lat="45.63083" lon="3.31065">
        <ele>574.6</ele>
        <time>2026-07-02T11:20:03.000Z</time>
      </trkpt>
      <trkpt lat="45.63075" lon="3.31066">
        <ele>574.8</ele>
        <time>2026-07-02T11:20:05.000Z</time>
      </trkpt>
      <trkpt lat="45.63068" lon="3.31066">
        <ele>575.2</ele>
        <time>2026-07-02T11:20:07.000Z</time>
      </trkpt>
      <trkpt lat="45.6306" lon="3.31066">
        <ele>575.6</ele>
        <time>2026-07-02T11:20:09.000Z</time>
      </trkpt>
      <trkpt lat="45.63052" lon="3.31066">
        <ele>576</ele>
        <time>2026-07-02T11:20:11.000Z</time>
      </trkpt>
      <trkpt lat="45.63044" lon="3.31065">
        <ele>576.4</ele>
        <time>2026-07-02T11:20:13.000Z</time>
      </trkpt>
      <trkpt lat="45.63036" lon="3.31063">
        <ele>576.8</ele>
        <time>2026-07-02T11:20:15.000Z</time>
      </trkpt>
      <trkpt lat="45.63029" lon="3.31059">
        <ele>577.2</ele>
        <time>2026-07-02T11:20:17.000Z</time>
      </trkpt>
      <trkpt lat="45.63022" lon="3.31054">
        <ele>577.4</ele>
        <time>2026-07-02T11:20:19.000Z</time>
      </trkpt>
      <trkpt lat="45.63015" lon="3.31046">
        <ele>577.6</ele>
        <time>2026-07-02T11:20:21.000Z</time>
      </trkpt>
      <trkpt lat="45.63009" lon="3.31037">
        <ele>577.8</ele>
        <time>2026-07-02T11:20:23.000Z</time>
      </trkpt>
      <trkpt lat="45.63003" lon="3.31027">
        <ele>578</ele>
        <time>2026-07-02T11:20:25.000Z</time>
      </trkpt>
      <trkpt lat="45.62997" lon="3.31017">
        <ele>578</ele>
        <time>2026-07-02T11:20:27.000Z</time>
      </trkpt>
      <trkpt lat="45.62992" lon="3.31008">
        <ele>578</ele>
        <time>2026-07-02T11:20:29.000Z</time>
      </trkpt>
      <trkpt lat="45.62987" lon="3.30998">
        <ele>578</ele>
        <time>2026-07-02T11:20:31.000Z</time>
      </trkpt>
      <trkpt lat="45.62982" lon="3.30989">
        <ele>578</ele>
        <time>2026-07-02T11:20:33.000Z</time>
      </trkpt>
      <trkpt lat="45.62977" lon="3.30979">
        <ele>578</ele>
        <time>2026-07-02T11:20:35.000Z</time>
      </trkpt>
      <trkpt lat="45.62972" lon="3.3097">
        <ele>578</ele>
        <time>2026-07-02T11:20:37.000Z</time>
      </trkpt>
      <trkpt lat="45.62967" lon="3.3096">
        <ele>577.8</ele>
        <time>2026-07-02T11:20:39.000Z</time>
      </trkpt>
      <trkpt lat="45.62962" lon="3.3095">
        <ele>578</ele>
        <time>2026-07-02T11:20:41.000Z</time>
      </trkpt>
      <trkpt lat="45.62955" lon="3.30928">
        <ele>578.4</ele>
        <time>2026-07-02T11:20:44.000Z</time>
      </trkpt>
      <trkpt lat="45.62953" lon="3.30917">
        <ele>578.6</ele>
        <time>2026-07-02T11:20:46.000Z</time>
      </trkpt>
      <trkpt lat="45.6295" lon="3.30905">
        <ele>579</ele>
        <time>2026-07-02T11:20:48.000Z</time>
      </trkpt>
      <trkpt lat="45.62947" lon="3.30893">
        <ele>579.2</ele>
        <time>2026-07-02T11:20:50.000Z</time>
      </trkpt>
      <trkpt lat="45.62945" lon="3.30882">
        <ele>579.6</ele>
        <time>2026-07-02T11:20:52.000Z</time>
      </trkpt>
      <trkpt lat="45.62942" lon="3.3087">
        <ele>579.8</ele>
        <time>2026-07-02T11:20:54.000Z</time>
      </trkpt>
      <trkpt lat="45.62939" lon="3.30859">
        <ele>580</ele>
        <time>2026-07-02T11:20:56.000Z</time>
      </trkpt>
      <trkpt lat="45.62937" lon="3.30848">
        <ele>580.2</ele>
        <time>2026-07-02T11:20:58.000Z</time>
      </trkpt>
      <trkpt lat="45.62934" lon="3.30838">
        <ele>580.4</ele>
        <time>2026-07-02T11:21:00.000Z</time>
      </trkpt>
      <trkpt lat="45.62931" lon="3.30827">
        <ele>580.6</ele>
        <time>2026-07-02T11:21:02.000Z</time>
      </trkpt>
      <trkpt lat="45.62928" lon="3.30817">
        <ele>581</ele>
        <time>2026-07-02T11:21:04.000Z</time>
      </trkpt>
      <trkpt lat="45.62924" lon="3.30807">
        <ele>581.4</ele>
        <time>2026-07-02T11:21:06.000Z</time>
      </trkpt>
      <trkpt lat="45.62921" lon="3.30797">
        <ele>581.8</ele>
        <time>2026-07-02T11:21:08.000Z</time>
      </trkpt>
      <trkpt lat="45.62917" lon="3.30788">
        <ele>582.2</ele>
        <time>2026-07-02T11:21:10.000Z</time>
      </trkpt>
      <trkpt lat="45.62912" lon="3.30778">
        <ele>582.4</ele>
        <time>2026-07-02T11:21:12.000Z</time>
      </trkpt>
      <trkpt lat="45.62907" lon="3.30769">
        <ele>582.6</ele>
        <time>2026-07-02T11:21:14.000Z</time>
      </trkpt>
      <trkpt lat="45.62901" lon="3.3076">
        <ele>582.8</ele>
        <time>2026-07-02T11:21:16.000Z</time>
      </trkpt>
      <trkpt lat="45.62894" lon="3.30753">
        <ele>583</ele>
        <time>2026-07-02T11:21:18.000Z</time>
      </trkpt>
      <trkpt lat="45.62887" lon="3.30746">
        <ele>583.2</ele>
        <time>2026-07-02T11:21:20.000Z</time>
      </trkpt>
      <trkpt lat="45.6288" lon="3.30741">
        <ele>583.4</ele>
        <time>2026-07-02T11:21:22.000Z</time>
      </trkpt>
      <trkpt lat="45.62873" lon="3.30736">
        <ele>583.6</ele>
        <time>2026-07-02T11:21:24.000Z</time>
      </trkpt>
      <trkpt lat="45.62865" lon="3.30732">
        <ele>583.8</ele>
        <time>2026-07-02T11:21:26.000Z</time>
      </trkpt>
      <trkpt lat="45.62858" lon="3.30728">
        <ele>584</ele>
        <time>2026-07-02T11:21:28.000Z</time>
      </trkpt>
      <trkpt lat="45.6285" lon="3.30725">
        <ele>584</ele>
        <time>2026-07-02T11:21:30.000Z</time>
      </trkpt>
      <trkpt lat="45.62842" lon="3.30721">
        <ele>584.2</ele>
        <time>2026-07-02T11:21:32.000Z</time>
      </trkpt>
      <trkpt lat="45.62835" lon="3.30718">
        <ele>584.2</ele>
        <time>2026-07-02T11:21:34.000Z</time>
      </trkpt>
      <trkpt lat="45.62828" lon="3.30715">
        <ele>584.4</ele>
        <time>2026-07-02T11:21:36.000Z</time>
      </trkpt>
      <trkpt lat="45.6282" lon="3.30711">
        <ele>584.4</ele>
        <time>2026-07-02T11:21:38.000Z</time>
      </trkpt>
      <trkpt lat="45.62813" lon="3.30707">
        <ele>584.6</ele>
        <time>2026-07-02T11:21:40.000Z</time>
      </trkpt>
      <trkpt lat="45.62806" lon="3.30701">
        <ele>584.6</ele>
        <time>2026-07-02T11:21:42.000Z</time>
      </trkpt>
      <trkpt lat="45.62799" lon="3.30696">
        <ele>584.6</ele>
        <time>2026-07-02T11:21:44.000Z</time>
      </trkpt>
      <trkpt lat="45.62792" lon="3.30689">
        <ele>584.8</ele>
        <time>2026-07-02T11:21:46.000Z</time>
      </trkpt>
      <trkpt lat="45.62785" lon="3.30683">
        <ele>584.8</ele>
        <time>2026-07-02T11:21:48.000Z</time>
      </trkpt>
      <trkpt lat="45.62779" lon="3.30677">
        <ele>584.8</ele>
        <time>2026-07-02T11:21:50.000Z</time>
      </trkpt>
      <trkpt lat="45.62773" lon="3.30672">
        <ele>584.8</ele>
        <time>2026-07-02T11:21:52.000Z</time>
      </trkpt>
      <trkpt lat="45.62768" lon="3.30666">
        <ele>584.8</ele>
        <time>2026-07-02T11:21:54.000Z</time>
      </trkpt>
      <trkpt lat="45.62766" lon="3.30657">
        <ele>585</ele>
        <time>2026-07-02T11:21:56.000Z</time>
      </trkpt>
      <trkpt lat="45.62768" lon="3.30649">
        <ele>585.2</ele>
        <time>2026-07-02T11:21:58.000Z</time>
      </trkpt>
      <trkpt lat="45.62774" lon="3.30647">
        <ele>585.4</ele>
        <time>2026-07-02T11:22:00.000Z</time>
      </trkpt>
      <trkpt lat="45.6278" lon="3.30649">
        <ele>586</ele>
        <time>2026-07-02T11:22:02.000Z</time>
      </trkpt>
      <trkpt lat="45.62788" lon="3.3065">
        <ele>586.4</ele>
        <time>2026-07-02T11:22:04.000Z</time>
      </trkpt>
      <trkpt lat="45.62795" lon="3.30652">
        <ele>586.8</ele>
        <time>2026-07-02T11:22:06.000Z</time>
      </trkpt>
      <trkpt lat="45.62802" lon="3.30654">
        <ele>587.4</ele>
        <time>2026-07-02T11:22:08.000Z</time>
      </trkpt>
      <trkpt lat="45.62809" lon="3.30655">
        <ele>587.8</ele>
        <time>2026-07-02T11:22:10.000Z</time>
      </trkpt>
      <trkpt lat="45.62816" lon="3.30657">
        <ele>588.4</ele>
        <time>2026-07-02T11:22:12.000Z</time>
      </trkpt>
      <trkpt lat="45.62823" lon="3.30658">
        <ele>588.8</ele>
        <time>2026-07-02T11:22:14.000Z</time>
      </trkpt>
      <trkpt lat="45.6283" lon="3.3066">
        <ele>589.4</ele>
        <time>2026-07-02T11:22:16.000Z</time>
      </trkpt>
      <trkpt lat="45.62837" lon="3.30661">
        <ele>589.8</ele>
        <time>2026-07-02T11:22:18.000Z</time>
      </trkpt>
      <trkpt lat="45.62844" lon="3.30663">
        <ele>590</ele>
        <time>2026-07-02T11:22:20.000Z</time>
      </trkpt>
      <trkpt lat="45.62851" lon="3.30665">
        <ele>590.4</ele>
        <time>2026-07-02T11:22:22.000Z</time>
      </trkpt>
      <trkpt lat="45.62859" lon="3.30667">
        <ele>590.8</ele>
        <time>2026-07-02T11:22:24.000Z</time>
      </trkpt>
      <trkpt lat="45.62866" lon="3.30669">
        <ele>591.2</ele>
        <time>2026-07-02T11:22:26.000Z</time>
      </trkpt>
      <trkpt lat="45.62873" lon="3.30671">
        <ele>591.4</ele>
        <time>2026-07-02T11:22:28.000Z</time>
      </trkpt>
      <trkpt lat="45.6288" lon="3.30673">
        <ele>591.6</ele>
        <time>2026-07-02T11:22:30.000Z</time>
      </trkpt>
      <trkpt lat="45.62886" lon="3.30676">
        <ele>591.8</ele>
        <time>2026-07-02T11:22:32.000Z</time>
      </trkpt>
      <trkpt lat="45.62893" lon="3.3068">
        <ele>592</ele>
        <time>2026-07-02T11:22:34.000Z</time>
      </trkpt>
      <trkpt lat="45.62899" lon="3.30684">
        <ele>592</ele>
        <time>2026-07-02T11:22:36.000Z</time>
      </trkpt>
      <trkpt lat="45.62905" lon="3.30689">
        <ele>592.2</ele>
        <time>2026-07-02T11:22:38.000Z</time>
      </trkpt>
      <trkpt lat="45.62911" lon="3.30694">
        <ele>592.2</ele>
        <time>2026-07-02T11:22:40.000Z</time>
      </trkpt>
      <trkpt lat="45.62917" lon="3.30699">
        <ele>592.4</ele>
        <time>2026-07-02T11:22:42.000Z</time>
      </trkpt>
      <trkpt lat="45.62923" lon="3.30706">
        <ele>592.6</ele>
        <time>2026-07-02T11:22:44.000Z</time>
      </trkpt>
      <trkpt lat="45.62928" lon="3.30713">
        <ele>592.8</ele>
        <time>2026-07-02T11:22:46.000Z</time>
      </trkpt>
      <trkpt lat="45.62933" lon="3.3072">
        <ele>593</ele>
        <time>2026-07-02T11:22:48.000Z</time>
      </trkpt>
      <trkpt lat="45.62939" lon="3.30727">
        <ele>593.2</ele>
        <time>2026-07-02T11:22:50.000Z</time>
      </trkpt>
      <trkpt lat="45.62943" lon="3.30734">
        <ele>593.6</ele>
        <time>2026-07-02T11:22:52.000Z</time>
      </trkpt>
      <trkpt lat="45.62948" lon="3.30742">
        <ele>593.8</ele>
        <time>2026-07-02T11:22:54.000Z</time>
      </trkpt>
      <trkpt lat="45.62953" lon="3.30749">
        <ele>594</ele>
        <time>2026-07-02T11:22:57.000Z</time>
      </trkpt>
      <trkpt lat="45.62958" lon="3.30757">
        <ele>594.4</ele>
        <time>2026-07-02T11:22:59.000Z</time>
      </trkpt>
      <trkpt lat="45.62964" lon="3.30764">
        <ele>594.6</ele>
        <time>2026-07-02T11:23:01.000Z</time>
      </trkpt>
      <trkpt lat="45.62969" lon="3.30772">
        <ele>594.8</ele>
        <time>2026-07-02T11:23:03.000Z</time>
      </trkpt>
      <trkpt lat="45.62974" lon="3.3078">
        <ele>594.8</ele>
        <time>2026-07-02T11:23:05.000Z</time>
      </trkpt>
      <trkpt lat="45.6298" lon="3.30787">
        <ele>595</ele>
        <time>2026-07-02T11:23:07.000Z</time>
      </trkpt>
      <trkpt lat="45.62985" lon="3.30795">
        <ele>595.4</ele>
        <time>2026-07-02T11:23:09.000Z</time>
      </trkpt>
      <trkpt lat="45.6299" lon="3.30803">
        <ele>595.6</ele>
        <time>2026-07-02T11:23:11.000Z</time>
      </trkpt>
      <trkpt lat="45.62995" lon="3.3081">
        <ele>595.8</ele>
        <time>2026-07-02T11:23:13.000Z</time>
      </trkpt>
      <trkpt lat="45.63" lon="3.30818">
        <ele>596.2</ele>
        <time>2026-07-02T11:23:15.000Z</time>
      </trkpt>
      <trkpt lat="45.63006" lon="3.30825">
        <ele>596.4</ele>
        <time>2026-07-02T11:23:17.000Z</time>
      </trkpt>
      <trkpt lat="45.63011" lon="3.30832">
        <ele>596.8</ele>
        <time>2026-07-02T11:23:19.000Z</time>
      </trkpt>
      <trkpt lat="45.63017" lon="3.30839">
        <ele>597.2</ele>
        <time>2026-07-02T11:23:21.000Z</time>
      </trkpt>
      <trkpt lat="45.63023" lon="3.30846">
        <ele>597.6</ele>
        <time>2026-07-02T11:23:23.000Z</time>
      </trkpt>
      <trkpt lat="45.6303" lon="3.30852">
        <ele>597.8</ele>
        <time>2026-07-02T11:23:25.000Z</time>
      </trkpt>
      <trkpt lat="45.63036" lon="3.30858">
        <ele>598.2</ele>
        <time>2026-07-02T11:23:27.000Z</time>
      </trkpt>
      <trkpt lat="45.63043" lon="3.30863">
        <ele>598.4</ele>
        <time>2026-07-02T11:23:29.000Z</time>
      </trkpt>
      <trkpt lat="45.6305" lon="3.30867">
        <ele>598.8</ele>
        <time>2026-07-02T11:23:31.000Z</time>
      </trkpt>
      <trkpt lat="45.63057" lon="3.30871">
        <ele>599.2</ele>
        <time>2026-07-02T11:23:33.000Z</time>
      </trkpt>
      <trkpt lat="45.63063" lon="3.30874">
        <ele>599.4</ele>
        <time>2026-07-02T11:23:35.000Z</time>
      </trkpt>
      <trkpt lat="45.63071" lon="3.30877">
        <ele>599.6</ele>
        <time>2026-07-02T11:23:37.000Z</time>
      </trkpt>
      <trkpt lat="45.63078" lon="3.3088">
        <ele>599.8</ele>
        <time>2026-07-02T11:23:39.000Z</time>
      </trkpt>
      <trkpt lat="45.63086" lon="3.30881">
        <ele>600</ele>
        <time>2026-07-02T11:23:41.000Z</time>
      </trkpt>
      <trkpt lat="45.63093" lon="3.30882">
        <ele>600.2</ele>
        <time>2026-07-02T11:23:43.000Z</time>
      </trkpt>
      <trkpt lat="45.63101" lon="3.30882">
        <ele>600.6</ele>
        <time>2026-07-02T11:23:45.000Z</time>
      </trkpt>
      <trkpt lat="45.63108" lon="3.30881">
        <ele>600.8</ele>
        <time>2026-07-02T11:23:47.000Z</time>
      </trkpt>
      <trkpt lat="45.63116" lon="3.3088">
        <ele>601</ele>
        <time>2026-07-02T11:23:49.000Z</time>
      </trkpt>
      <trkpt lat="45.63123" lon="3.30879">
        <ele>601.2</ele>
        <time>2026-07-02T11:23:51.000Z</time>
      </trkpt>
      <trkpt lat="45.63131" lon="3.30877">
        <ele>601.4</ele>
        <time>2026-07-02T11:23:53.000Z</time>
      </trkpt>
      <trkpt lat="45.63138" lon="3.30875">
        <ele>601.6</ele>
        <time>2026-07-02T11:23:55.000Z</time>
      </trkpt>
      <trkpt lat="45.63146" lon="3.30873">
        <ele>601.8</ele>
        <time>2026-07-02T11:23:57.000Z</time>
      </trkpt>
      <trkpt lat="45.63153" lon="3.30871">
        <ele>602</ele>
        <time>2026-07-02T11:23:59.000Z</time>
      </trkpt>
      <trkpt lat="45.63161" lon="3.30869">
        <ele>602.2</ele>
        <time>2026-07-02T11:24:01.000Z</time>
      </trkpt>
      <trkpt lat="45.63169" lon="3.30866">
        <ele>602.4</ele>
        <time>2026-07-02T11:24:03.000Z</time>
      </trkpt>
      <trkpt lat="45.63177" lon="3.30863">
        <ele>602.6</ele>
        <time>2026-07-02T11:24:05.000Z</time>
      </trkpt>
      <trkpt lat="45.63184" lon="3.3086">
        <ele>602.8</ele>
        <time>2026-07-02T11:24:07.000Z</time>
      </trkpt>
      <trkpt lat="45.63192" lon="3.30857">
        <ele>603</ele>
        <time>2026-07-02T11:24:09.000Z</time>
      </trkpt>
      <trkpt lat="45.63199" lon="3.30854">
        <ele>603.2</ele>
        <time>2026-07-02T11:24:11.000Z</time>
      </trkpt>
      <trkpt lat="45.63206" lon="3.30851">
        <ele>603.6</ele>
        <time>2026-07-02T11:24:13.000Z</time>
      </trkpt>
      <trkpt lat="45.63213" lon="3.30847">
        <ele>604</ele>
        <time>2026-07-02T11:24:15.000Z</time>
      </trkpt>
      <trkpt lat="45.6322" lon="3.30843">
        <ele>604.2</ele>
        <time>2026-07-02T11:24:17.000Z</time>
      </trkpt>
      <trkpt lat="45.63226" lon="3.30839">
        <ele>604.4</ele>
        <time>2026-07-02T11:24:19.000Z</time>
      </trkpt>
      <trkpt lat="45.63233" lon="3.30835">
        <ele>604.6</ele>
        <time>2026-07-02T11:24:21.000Z</time>
      </trkpt>
      <trkpt lat="45.63239" lon="3.3083">
        <ele>605</ele>
        <time>2026-07-02T11:24:23.000Z</time>
      </trkpt>
      <trkpt lat="45.63245" lon="3.30825">
        <ele>605.4</ele>
        <time>2026-07-02T11:24:25.000Z</time>
      </trkpt>
      <trkpt lat="45.63251" lon="3.30819">
        <ele>605.6</ele>
        <time>2026-07-02T11:24:27.000Z</time>
      </trkpt>
      <trkpt lat="45.63257" lon="3.30813">
        <ele>605.8</ele>
        <time>2026-07-02T11:24:29.000Z</time>
      </trkpt>
      <trkpt lat="45.63263" lon="3.30806">
        <ele>606.2</ele>
        <time>2026-07-02T11:24:31.000Z</time>
      </trkpt>
      <trkpt lat="45.63269" lon="3.30798">
        <ele>606.4</ele>
        <time>2026-07-02T11:24:33.000Z</time>
      </trkpt>
      <trkpt lat="45.63275" lon="3.30791">
        <ele>606.6</ele>
        <time>2026-07-02T11:24:35.000Z</time>
      </trkpt>
      <trkpt lat="45.63279" lon="3.30782">
        <ele>606.8</ele>
        <time>2026-07-02T11:24:37.000Z</time>
      </trkpt>
      <trkpt lat="45.63284" lon="3.30774">
        <ele>607</ele>
        <time>2026-07-02T11:24:39.000Z</time>
      </trkpt>
      <trkpt lat="45.63289" lon="3.30765">
        <ele>607.2</ele>
        <time>2026-07-02T11:24:41.000Z</time>
      </trkpt>
      <trkpt lat="45.63293" lon="3.30757">
        <ele>607.4</ele>
        <time>2026-07-02T11:24:43.000Z</time>
      </trkpt>
      <trkpt lat="45.63297" lon="3.30748">
        <ele>607.6</ele>
        <time>2026-07-02T11:24:45.000Z</time>
      </trkpt>
      <trkpt lat="45.63302" lon="3.30739">
        <ele>607.8</ele>
        <time>2026-07-02T11:24:47.000Z</time>
      </trkpt>
      <trkpt lat="45.63306" lon="3.30731">
        <ele>608.2</ele>
        <time>2026-07-02T11:24:49.000Z</time>
      </trkpt>
      <trkpt lat="45.6331" lon="3.30722">
        <ele>608.6</ele>
        <time>2026-07-02T11:24:51.000Z</time>
      </trkpt>
      <trkpt lat="45.63315" lon="3.30714">
        <ele>608.8</ele>
        <time>2026-07-02T11:24:53.000Z</time>
      </trkpt>
      <trkpt lat="45.63319" lon="3.30705">
        <ele>609.2</ele>
        <time>2026-07-02T11:24:55.000Z</time>
      </trkpt>
      <trkpt lat="45.63323" lon="3.30696">
        <ele>609.6</ele>
        <time>2026-07-02T11:24:57.000Z</time>
      </trkpt>
      <trkpt lat="45.63327" lon="3.30687">
        <ele>610</ele>
        <time>2026-07-02T11:24:59.000Z</time>
      </trkpt>
      <trkpt lat="45.6333" lon="3.30679">
        <ele>610.2</ele>
        <time>2026-07-02T11:25:01.000Z</time>
      </trkpt>
      <trkpt lat="45.63335" lon="3.30671">
        <ele>610.6</ele>
        <time>2026-07-02T11:25:03.000Z</time>
      </trkpt>
      <trkpt lat="45.63338" lon="3.30663">
        <ele>610.8</ele>
        <time>2026-07-02T11:25:05.000Z</time>
      </trkpt>
      <trkpt lat="45.63342" lon="3.30655">
        <ele>611.2</ele>
        <time>2026-07-02T11:25:07.000Z</time>
      </trkpt>
      <trkpt lat="45.63346" lon="3.30647">
        <ele>611.4</ele>
        <time>2026-07-02T11:25:09.000Z</time>
      </trkpt>
      <trkpt lat="45.6335" lon="3.30639">
        <ele>611.6</ele>
        <time>2026-07-02T11:25:11.000Z</time>
      </trkpt>
      <trkpt lat="45.63355" lon="3.3063">
        <ele>612</ele>
        <time>2026-07-02T11:25:13.000Z</time>
      </trkpt>
      <trkpt lat="45.63358" lon="3.30622">
        <ele>612.2</ele>
        <time>2026-07-02T11:25:15.000Z</time>
      </trkpt>
      <trkpt lat="45.63362" lon="3.30614">
        <ele>612.4</ele>
        <time>2026-07-02T11:25:17.000Z</time>
      </trkpt>
      <trkpt lat="45.63365" lon="3.30605">
        <ele>612.4</ele>
        <time>2026-07-02T11:25:19.000Z</time>
      </trkpt>
      <trkpt lat="45.63368" lon="3.30596">
        <ele>612.6</ele>
        <time>2026-07-02T11:25:21.000Z</time>
      </trkpt>
      <trkpt lat="45.63371" lon="3.30588">
        <ele>613</ele>
        <time>2026-07-02T11:25:23.000Z</time>
      </trkpt>
      <trkpt lat="45.63374" lon="3.30578">
        <ele>613.2</ele>
        <time>2026-07-02T11:25:25.000Z</time>
      </trkpt>
      <trkpt lat="45.63376" lon="3.30568">
        <ele>613.6</ele>
        <time>2026-07-02T11:25:27.000Z</time>
      </trkpt>
      <trkpt lat="45.63377" lon="3.30558">
        <ele>613.8</ele>
        <time>2026-07-02T11:25:29.000Z</time>
      </trkpt>
      <trkpt lat="45.63379" lon="3.30548">
        <ele>614</ele>
        <time>2026-07-02T11:25:31.000Z</time>
      </trkpt>
      <trkpt lat="45.6338" lon="3.30537">
        <ele>614</ele>
        <time>2026-07-02T11:25:33.000Z</time>
      </trkpt>
      <trkpt lat="45.6338" lon="3.30527">
        <ele>614.2</ele>
        <time>2026-07-02T11:25:35.000Z</time>
      </trkpt>
      <trkpt lat="45.6338" lon="3.30517">
        <ele>614.4</ele>
        <time>2026-07-02T11:25:37.000Z</time>
      </trkpt>
      <trkpt lat="45.6338" lon="3.30506">
        <ele>614.6</ele>
        <time>2026-07-02T11:25:39.000Z</time>
      </trkpt>
      <trkpt lat="45.63381" lon="3.30495">
        <ele>614.8</ele>
        <time>2026-07-02T11:25:41.000Z</time>
      </trkpt>
      <trkpt lat="45.63381" lon="3.30484">
        <ele>614.8</ele>
        <time>2026-07-02T11:25:43.000Z</time>
      </trkpt>
      <trkpt lat="45.63382" lon="3.30473">
        <ele>615</ele>
        <time>2026-07-02T11:25:45.000Z</time>
      </trkpt>
      <trkpt lat="45.63383" lon="3.30462">
        <ele>615.4</ele>
        <time>2026-07-02T11:25:47.000Z</time>
      </trkpt>
      <trkpt lat="45.63384" lon="3.3045">
        <ele>615.6</ele>
        <time>2026-07-02T11:25:49.000Z</time>
      </trkpt>
      <trkpt lat="45.63386" lon="3.30439">
        <ele>615.8</ele>
        <time>2026-07-02T11:25:51.000Z</time>
      </trkpt>
      <trkpt lat="45.63388" lon="3.30429">
        <ele>616</ele>
        <time>2026-07-02T11:25:53.000Z</time>
      </trkpt>
      <trkpt lat="45.63391" lon="3.30419">
        <ele>616.2</ele>
        <time>2026-07-02T11:25:55.000Z</time>
      </trkpt>
      <trkpt lat="45.63395" lon="3.3041">
        <ele>616.4</ele>
        <time>2026-07-02T11:25:57.000Z</time>
      </trkpt>
      <trkpt lat="45.634" lon="3.30402">
        <ele>616.8</ele>
        <time>2026-07-02T11:25:59.000Z</time>
      </trkpt>
      <trkpt lat="45.63405" lon="3.30395">
        <ele>617.2</ele>
        <time>2026-07-02T11:26:01.000Z</time>
      </trkpt>
      <trkpt lat="45.63411" lon="3.30389">
        <ele>617.6</ele>
        <time>2026-07-02T11:26:03.000Z</time>
      </trkpt>
      <trkpt lat="45.63417" lon="3.30384">
        <ele>618</ele>
        <time>2026-07-02T11:26:05.000Z</time>
      </trkpt>
      <trkpt lat="45.63425" lon="3.30379">
        <ele>618.4</ele>
        <time>2026-07-02T11:26:07.000Z</time>
      </trkpt>
      <trkpt lat="45.63432" lon="3.30376">
        <ele>618.8</ele>
        <time>2026-07-02T11:26:09.000Z</time>
      </trkpt>
      <trkpt lat="45.6344" lon="3.30374">
        <ele>619</ele>
        <time>2026-07-02T11:26:11.000Z</time>
      </trkpt>
      <trkpt lat="45.63448" lon="3.30373">
        <ele>619.2</ele>
        <time>2026-07-02T11:26:13.000Z</time>
      </trkpt>
      <trkpt lat="45.63456" lon="3.30374">
        <ele>619.4</ele>
        <time>2026-07-02T11:26:15.000Z</time>
      </trkpt>
      <trkpt lat="45.63464" lon="3.30376">
        <ele>619.6</ele>
        <time>2026-07-02T11:26:17.000Z</time>
      </trkpt>
      <trkpt lat="45.63472" lon="3.30379">
        <ele>619.6</ele>
        <time>2026-07-02T11:26:19.000Z</time>
      </trkpt>
      <trkpt lat="45.63479" lon="3.30385">
        <ele>619.8</ele>
        <time>2026-07-02T11:26:21.000Z</time>
      </trkpt>
      <trkpt lat="45.63486" lon="3.30391">
        <ele>620</ele>
        <time>2026-07-02T11:26:23.000Z</time>
      </trkpt>
      <trkpt lat="45.63491" lon="3.30399">
        <ele>620.2</ele>
        <time>2026-07-02T11:26:25.000Z</time>
      </trkpt>
      <trkpt lat="45.63496" lon="3.30406">
        <ele>620.6</ele>
        <time>2026-07-02T11:26:27.000Z</time>
      </trkpt>
      <trkpt lat="45.63501" lon="3.30415">
        <ele>621</ele>
        <time>2026-07-02T11:26:29.000Z</time>
      </trkpt>
      <trkpt lat="45.63506" lon="3.30424">
        <ele>621.2</ele>
        <time>2026-07-02T11:26:31.000Z</time>
      </trkpt>
      <trkpt lat="45.6351" lon="3.30434">
        <ele>621.6</ele>
        <time>2026-07-02T11:26:33.000Z</time>
      </trkpt>
      <trkpt lat="45.63515" lon="3.30443">
        <ele>621.8</ele>
        <time>2026-07-02T11:26:35.000Z</time>
      </trkpt>
      <trkpt lat="45.63519" lon="3.30452">
        <ele>622</ele>
        <time>2026-07-02T11:26:37.000Z</time>
      </trkpt>
      <trkpt lat="45.63523" lon="3.30461">
        <ele>622.4</ele>
        <time>2026-07-02T11:26:39.000Z</time>
      </trkpt>
      <trkpt lat="45.63527" lon="3.3047">
        <ele>622.6</ele>
        <time>2026-07-02T11:26:41.000Z</time>
      </trkpt>
      <trkpt lat="45.63531" lon="3.3048">
        <ele>622.8</ele>
        <time>2026-07-02T11:26:43.000Z</time>
      </trkpt>
      <trkpt lat="45.63536" lon="3.30489">
        <ele>623.2</ele>
        <time>2026-07-02T11:26:45.000Z</time>
      </trkpt>
      <trkpt lat="45.6354" lon="3.30498">
        <ele>623.4</ele>
        <time>2026-07-02T11:26:47.000Z</time>
      </trkpt>
      <trkpt lat="45.63545" lon="3.30506">
        <ele>623.6</ele>
        <time>2026-07-02T11:26:49.000Z</time>
      </trkpt>
      <trkpt lat="45.63551" lon="3.30514">
        <ele>624</ele>
        <time>2026-07-02T11:26:51.000Z</time>
      </trkpt>
      <trkpt lat="45.63556" lon="3.30522">
        <ele>624.2</ele>
        <time>2026-07-02T11:26:53.000Z</time>
      </trkpt>
      <trkpt lat="45.63562" lon="3.30529">
        <ele>624.4</ele>
        <time>2026-07-02T11:26:55.000Z</time>
      </trkpt>
      <trkpt lat="45.63568" lon="3.30536">
        <ele>624.6</ele>
        <time>2026-07-02T11:26:57.000Z</time>
      </trkpt>
      <trkpt lat="45.63575" lon="3.30542">
        <ele>624.8</ele>
        <time>2026-07-02T11:26:59.000Z</time>
      </trkpt>
      <trkpt lat="45.63581" lon="3.30548">
        <ele>625.2</ele>
        <time>2026-07-02T11:27:01.000Z</time>
      </trkpt>
      <trkpt lat="45.63588" lon="3.30552">
        <ele>625.4</ele>
        <time>2026-07-02T11:27:03.000Z</time>
      </trkpt>
      <trkpt lat="45.63594" lon="3.30556">
        <ele>625.6</ele>
        <time>2026-07-02T11:27:05.000Z</time>
      </trkpt>
      <trkpt lat="45.63601" lon="3.3056">
        <ele>626</ele>
        <time>2026-07-02T11:27:07.000Z</time>
      </trkpt>
      <trkpt lat="45.63608" lon="3.30563">
        <ele>626.2</ele>
        <time>2026-07-02T11:27:09.000Z</time>
      </trkpt>
      <trkpt lat="45.63615" lon="3.30565">
        <ele>626.6</ele>
        <time>2026-07-02T11:27:11.000Z</time>
      </trkpt>
      <trkpt lat="45.63622" lon="3.30567">
        <ele>626.8</ele>
        <time>2026-07-02T11:27:13.000Z</time>
      </trkpt>
      <trkpt lat="45.6363" lon="3.30569">
        <ele>627</ele>
        <time>2026-07-02T11:27:15.000Z</time>
      </trkpt>
      <trkpt lat="45.63637" lon="3.3057">
        <ele>627.4</ele>
        <time>2026-07-02T11:27:17.000Z</time>
      </trkpt>
      <trkpt lat="45.63645" lon="3.30572">
        <ele>627.6</ele>
        <time>2026-07-02T11:27:19.000Z</time>
      </trkpt>
      <trkpt lat="45.63653" lon="3.30572">
        <ele>627.8</ele>
        <time>2026-07-02T11:27:21.000Z</time>
      </trkpt>
      <trkpt lat="45.6366" lon="3.30571">
        <ele>628.2</ele>
        <time>2026-07-02T11:27:23.000Z</time>
      </trkpt>
      <trkpt lat="45.63668" lon="3.3057">
        <ele>628.4</ele>
        <time>2026-07-02T11:27:25.000Z</time>
      </trkpt>
      <trkpt lat="45.63675" lon="3.30569">
        <ele>628.8</ele>
        <time>2026-07-02T11:27:27.000Z</time>
      </trkpt>
      <trkpt lat="45.63683" lon="3.30567">
        <ele>629</ele>
        <time>2026-07-02T11:27:29.000Z</time>
      </trkpt>
      <trkpt lat="45.63692" lon="3.30563">
        <ele>629.4</ele>
        <time>2026-07-02T11:27:31.000Z</time>
      </trkpt>
      <trkpt lat="45.637" lon="3.30558">
        <ele>629.6</ele>
        <time>2026-07-02T11:27:33.000Z</time>
      </trkpt>
      <trkpt lat="45.63709" lon="3.30552">
        <ele>629.8</ele>
        <time>2026-07-02T11:27:35.000Z</time>
      </trkpt>
      <trkpt lat="45.63718" lon="3.30544">
        <ele>629.8</ele>
        <time>2026-07-02T11:27:37.000Z</time>
      </trkpt>
      <trkpt lat="45.63727" lon="3.30535">
        <ele>630</ele>
        <time>2026-07-02T11:27:39.000Z</time>
      </trkpt>
      <trkpt lat="45.63736" lon="3.30526">
        <ele>630</ele>
        <time>2026-07-02T11:27:41.000Z</time>
      </trkpt>
      <trkpt lat="45.63745" lon="3.30516">
        <ele>630.2</ele>
        <time>2026-07-02T11:27:43.000Z</time>
      </trkpt>
      <trkpt lat="45.63753" lon="3.30505">
        <ele>630.2</ele>
        <time>2026-07-02T11:27:45.000Z</time>
      </trkpt>
      <trkpt lat="45.63762" lon="3.30495">
        <ele>630.2</ele>
        <time>2026-07-02T11:27:47.000Z</time>
      </trkpt>
      <trkpt lat="45.6377" lon="3.30484">
        <ele>630</ele>
        <time>2026-07-02T11:27:49.000Z</time>
      </trkpt>
      <trkpt lat="45.63778" lon="3.30474">
        <ele>630</ele>
        <time>2026-07-02T11:27:51.000Z</time>
      </trkpt>
      <trkpt lat="45.63786" lon="3.30464">
        <ele>629.8</ele>
        <time>2026-07-02T11:27:53.000Z</time>
      </trkpt>
      <trkpt lat="45.63793" lon="3.30453">
        <ele>629.6</ele>
        <time>2026-07-02T11:27:55.000Z</time>
      </trkpt>
      <trkpt lat="45.63802" lon="3.30443">
        <ele>629.4</ele>
        <time>2026-07-02T11:27:57.000Z</time>
      </trkpt>
      <trkpt lat="45.6381" lon="3.30432">
        <ele>629.4</ele>
        <time>2026-07-02T11:27:59.000Z</time>
      </trkpt>
      <trkpt lat="45.63818" lon="3.30421">
        <ele>629.2</ele>
        <time>2026-07-02T11:28:01.000Z</time>
      </trkpt>
      <trkpt lat="45.63826" lon="3.3041">
        <ele>629</ele>
        <time>2026-07-02T11:28:03.000Z</time>
      </trkpt>
      <trkpt lat="45.63835" lon="3.30399">
        <ele>629</ele>
        <time>2026-07-02T11:28:05.000Z</time>
      </trkpt>
      <trkpt lat="45.63844" lon="3.30386">
        <ele>629</ele>
        <time>2026-07-02T11:28:07.000Z</time>
      </trkpt>
      <trkpt lat="45.63853" lon="3.30373">
        <ele>629</ele>
        <time>2026-07-02T11:28:09.000Z</time>
      </trkpt>
      <trkpt lat="45.63861" lon="3.3036">
        <ele>629</ele>
        <time>2026-07-02T11:28:11.000Z</time>
      </trkpt>
      <trkpt lat="45.63869" lon="3.30347">
        <ele>629</ele>
        <time>2026-07-02T11:28:13.000Z</time>
      </trkpt>
      <trkpt lat="45.63876" lon="3.30334">
        <ele>629</ele>
        <time>2026-07-02T11:28:15.000Z</time>
      </trkpt>
      <trkpt lat="45.63884" lon="3.3032">
        <ele>628.8</ele>
        <time>2026-07-02T11:28:17.000Z</time>
      </trkpt>
      <trkpt lat="45.63891" lon="3.30306">
        <ele>628.8</ele>
        <time>2026-07-02T11:28:19.000Z</time>
      </trkpt>
      <trkpt lat="45.63899" lon="3.30291">
        <ele>628.8</ele>
        <time>2026-07-02T11:28:21.000Z</time>
      </trkpt>
      <trkpt lat="45.63905" lon="3.30277">
        <ele>628.8</ele>
        <time>2026-07-02T11:28:23.000Z</time>
      </trkpt>
      <trkpt lat="45.63912" lon="3.30262">
        <ele>628.6</ele>
        <time>2026-07-02T11:28:25.000Z</time>
      </trkpt>
      <trkpt lat="45.63917" lon="3.30247">
        <ele>628.6</ele>
        <time>2026-07-02T11:28:27.000Z</time>
      </trkpt>
      <trkpt lat="45.63923" lon="3.30232">
        <ele>628.4</ele>
        <time>2026-07-02T11:28:29.000Z</time>
      </trkpt>
      <trkpt lat="45.63929" lon="3.30217">
        <ele>628.2</ele>
        <time>2026-07-02T11:28:31.000Z</time>
      </trkpt>
      <trkpt lat="45.63935" lon="3.30201">
        <ele>628</ele>
        <time>2026-07-02T11:28:33.000Z</time>
      </trkpt>
      <trkpt lat="45.6394" lon="3.30184">
        <ele>628</ele>
        <time>2026-07-02T11:28:35.000Z</time>
      </trkpt>
      <trkpt lat="45.63943" lon="3.30167">
        <ele>627.8</ele>
        <time>2026-07-02T11:28:37.000Z</time>
      </trkpt>
      <trkpt lat="45.63948" lon="3.3015">
        <ele>627.6</ele>
        <time>2026-07-02T11:28:39.000Z</time>
      </trkpt>
      <trkpt lat="45.63952" lon="3.30132">
        <ele>627.4</ele>
        <time>2026-07-02T11:28:41.000Z</time>
      </trkpt>
      <trkpt lat="45.63957" lon="3.30114">
        <ele>627.2</ele>
        <time>2026-07-02T11:28:43.000Z</time>
      </trkpt>
      <trkpt lat="45.6396" lon="3.30096">
        <ele>627.2</ele>
        <time>2026-07-02T11:28:45.000Z</time>
      </trkpt>
      <trkpt lat="45.63964" lon="3.30077">
        <ele>627</ele>
        <time>2026-07-02T11:28:47.000Z</time>
      </trkpt>
      <trkpt lat="45.63967" lon="3.30058">
        <ele>626.8</ele>
        <time>2026-07-02T11:28:49.000Z</time>
      </trkpt>
      <trkpt lat="45.6397" lon="3.30039">
        <ele>626.6</ele>
        <time>2026-07-02T11:28:51.000Z</time>
      </trkpt>
      <trkpt lat="45.63973" lon="3.3002">
        <ele>626.4</ele>
        <time>2026-07-02T11:28:53.000Z</time>
      </trkpt>
      <trkpt lat="45.63976" lon="3.30001">
        <ele>626.2</ele>
        <time>2026-07-02T11:28:55.000Z</time>
      </trkpt>
      <trkpt lat="45.63978" lon="3.29982">
        <ele>626</ele>
        <time>2026-07-02T11:28:57.000Z</time>
      </trkpt>
      <trkpt lat="45.63981" lon="3.29963">
        <ele>625.8</ele>
        <time>2026-07-02T11:28:59.000Z</time>
      </trkpt>
      <trkpt lat="45.63983" lon="3.29945">
        <ele>625.4</ele>
        <time>2026-07-02T11:29:01.000Z</time>
      </trkpt>
      <trkpt lat="45.63986" lon="3.29926">
        <ele>625.2</ele>
        <time>2026-07-02T11:29:03.000Z</time>
      </trkpt>
      <trkpt lat="45.63989" lon="3.29907">
        <ele>624.8</ele>
        <time>2026-07-02T11:29:05.000Z</time>
      </trkpt>
      <trkpt lat="45.63992" lon="3.29887">
        <ele>624.6</ele>
        <time>2026-07-02T11:29:07.000Z</time>
      </trkpt>
      <trkpt lat="45.63995" lon="3.29868">
        <ele>624.4</ele>
        <time>2026-07-02T11:29:09.000Z</time>
      </trkpt>
      <trkpt lat="45.63998" lon="3.29847">
        <ele>624.2</ele>
        <time>2026-07-02T11:29:11.000Z</time>
      </trkpt>
      <trkpt lat="45.64001" lon="3.29826">
        <ele>624.2</ele>
        <time>2026-07-02T11:29:13.000Z</time>
      </trkpt>
      <trkpt lat="45.64004" lon="3.29805">
        <ele>624</ele>
        <time>2026-07-02T11:29:15.000Z</time>
      </trkpt>
      <trkpt lat="45.64005" lon="3.29784">
        <ele>623.8</ele>
        <time>2026-07-02T11:29:17.000Z</time>
      </trkpt>
      <trkpt lat="45.64006" lon="3.29762">
        <ele>623.6</ele>
        <time>2026-07-02T11:29:19.000Z</time>
      </trkpt>
      <trkpt lat="45.64005" lon="3.29741">
        <ele>623.4</ele>
        <time>2026-07-02T11:29:21.000Z</time>
      </trkpt>
      <trkpt lat="45.64002" lon="3.2972">
        <ele>623</ele>
        <time>2026-07-02T11:29:23.000Z</time>
      </trkpt>
      <trkpt lat="45.63998" lon="3.29698">
        <ele>622.8</ele>
        <time>2026-07-02T11:29:25.000Z</time>
      </trkpt>
      <trkpt lat="45.63994" lon="3.29676">
        <ele>622.4</ele>
        <time>2026-07-02T11:29:27.000Z</time>
      </trkpt>
      <trkpt lat="45.6399" lon="3.29654">
        <ele>622</ele>
        <time>2026-07-02T11:29:29.000Z</time>
      </trkpt>
      <trkpt lat="45.63986" lon="3.29631">
        <ele>621.6</ele>
        <time>2026-07-02T11:29:31.000Z</time>
      </trkpt>
      <trkpt lat="45.63985" lon="3.29609">
        <ele>621</ele>
        <time>2026-07-02T11:29:33.000Z</time>
      </trkpt>
      <trkpt lat="45.63985" lon="3.29585">
        <ele>620.6</ele>
        <time>2026-07-02T11:29:35.000Z</time>
      </trkpt>
      <trkpt lat="45.63987" lon="3.29562">
        <ele>620</ele>
        <time>2026-07-02T11:29:37.000Z</time>
      </trkpt>
      <trkpt lat="45.63991" lon="3.2954">
        <ele>619.4</ele>
        <time>2026-07-02T11:29:39.000Z</time>
      </trkpt>
      <trkpt lat="45.63997" lon="3.29518">
        <ele>619</ele>
        <time>2026-07-02T11:29:41.000Z</time>
      </trkpt>
      <trkpt lat="45.64004" lon="3.29498">
        <ele>618.4</ele>
        <time>2026-07-02T11:29:43.000Z</time>
      </trkpt>
      <trkpt lat="45.64014" lon="3.29479">
        <ele>617.8</ele>
        <time>2026-07-02T11:29:45.000Z</time>
      </trkpt>
      <trkpt lat="45.64025" lon="3.29461">
        <ele>617.2</ele>
        <time>2026-07-02T11:29:47.000Z</time>
      </trkpt>
      <trkpt lat="45.64038" lon="3.29443">
        <ele>616.6</ele>
        <time>2026-07-02T11:29:49.000Z</time>
      </trkpt>
      <trkpt lat="45.6405" lon="3.29423">
        <ele>616.2</ele>
        <time>2026-07-02T11:29:51.000Z</time>
      </trkpt>
      <trkpt lat="45.64059" lon="3.29402">
        <ele>615.6</ele>
        <time>2026-07-02T11:29:53.000Z</time>
      </trkpt>
      <trkpt lat="45.64067" lon="3.29378">
        <ele>615</ele>
        <time>2026-07-02T11:29:55.000Z</time>
      </trkpt>
      <trkpt lat="45.64073" lon="3.29354">
        <ele>614.4</ele>
        <time>2026-07-02T11:29:57.000Z</time>
      </trkpt>
      <trkpt lat="45.64078" lon="3.29329">
        <ele>613.6</ele>
        <time>2026-07-02T11:29:59.000Z</time>
      </trkpt>
      <trkpt lat="45.64079" lon="3.29303">
        <ele>612.8</ele>
        <time>2026-07-02T11:30:01.000Z</time>
      </trkpt>
      <trkpt lat="45.64078" lon="3.29277">
        <ele>612.2</ele>
        <time>2026-07-02T11:30:03.000Z</time>
      </trkpt>
      <trkpt lat="45.64076" lon="3.29251">
        <ele>611.6</ele>
        <time>2026-07-02T11:30:05.000Z</time>
      </trkpt>
      <trkpt lat="45.64075" lon="3.29223">
        <ele>611</ele>
        <time>2026-07-02T11:30:07.000Z</time>
      </trkpt>
      <trkpt lat="45.64078" lon="3.29194">
        <ele>610.4</ele>
        <time>2026-07-02T11:30:09.000Z</time>
      </trkpt>
      <trkpt lat="45.64086" lon="3.29165">
        <ele>609.6</ele>
        <time>2026-07-02T11:30:11.000Z</time>
      </trkpt>
      <trkpt lat="45.64097" lon="3.29139">
        <ele>609</ele>
        <time>2026-07-02T11:30:13.000Z</time>
      </trkpt>
      <trkpt lat="45.64112" lon="3.29114">
        <ele>608.2</ele>
        <time>2026-07-02T11:30:15.000Z</time>
      </trkpt>
      <trkpt lat="45.64128" lon="3.29091">
        <ele>607.6</ele>
        <time>2026-07-02T11:30:17.000Z</time>
      </trkpt>
      <trkpt lat="45.64144" lon="3.29066">
        <ele>607</ele>
        <time>2026-07-02T11:30:19.000Z</time>
      </trkpt>
      <trkpt lat="45.64157" lon="3.2904">
        <ele>606</ele>
        <time>2026-07-02T11:30:21.000Z</time>
      </trkpt>
      <trkpt lat="45.64165" lon="3.2901">
        <ele>605</ele>
        <time>2026-07-02T11:30:23.000Z</time>
      </trkpt>
      <trkpt lat="45.64168" lon="3.28978">
        <ele>604</ele>
        <time>2026-07-02T11:30:25.000Z</time>
      </trkpt>
      <trkpt lat="45.6417" lon="3.28945">
        <ele>603</ele>
        <time>2026-07-02T11:30:27.000Z</time>
      </trkpt>
      <trkpt lat="45.6417" lon="3.28911">
        <ele>601.8</ele>
        <time>2026-07-02T11:30:29.000Z</time>
      </trkpt>
      <trkpt lat="45.64171" lon="3.28878">
        <ele>601</ele>
        <time>2026-07-02T11:30:31.000Z</time>
      </trkpt>
      <trkpt lat="45.64171" lon="3.28848">
        <ele>600</ele>
        <time>2026-07-02T11:30:33.000Z</time>
      </trkpt>
      <trkpt lat="45.64172" lon="3.28818">
        <ele>599.2</ele>
        <time>2026-07-02T11:30:35.000Z</time>
      </trkpt>
      <trkpt lat="45.64173" lon="3.28789">
        <ele>598.4</ele>
        <time>2026-07-02T11:30:37.000Z</time>
      </trkpt>
      <trkpt lat="45.64174" lon="3.28761">
        <ele>597.6</ele>
        <time>2026-07-02T11:30:39.000Z</time>
      </trkpt>
      <trkpt lat="45.64174" lon="3.28734">
        <ele>596.6</ele>
        <time>2026-07-02T11:30:41.000Z</time>
      </trkpt>
      <trkpt lat="45.64175" lon="3.28706">
        <ele>596.2</ele>
        <time>2026-07-02T11:30:43.000Z</time>
      </trkpt>
      <trkpt lat="45.64175" lon="3.28679">
        <ele>595.6</ele>
        <time>2026-07-02T11:30:45.000Z</time>
      </trkpt>
      <trkpt lat="45.64176" lon="3.28651">
        <ele>595.2</ele>
        <time>2026-07-02T11:30:47.000Z</time>
      </trkpt>
      <trkpt lat="45.64177" lon="3.28624">
        <ele>594.6</ele>
        <time>2026-07-02T11:30:49.000Z</time>
      </trkpt>
      <trkpt lat="45.64178" lon="3.28596">
        <ele>593.8</ele>
        <time>2026-07-02T11:30:51.000Z</time>
      </trkpt>
      <trkpt lat="45.64178" lon="3.28569">
        <ele>593</ele>
        <time>2026-07-02T11:30:53.000Z</time>
      </trkpt>
      <trkpt lat="45.64179" lon="3.28542">
        <ele>592.4</ele>
        <time>2026-07-02T11:30:55.000Z</time>
      </trkpt>
      <trkpt lat="45.6418" lon="3.28516">
        <ele>591.6</ele>
        <time>2026-07-02T11:30:57.000Z</time>
      </trkpt>
      <trkpt lat="45.6418" lon="3.28489">
        <ele>591</ele>
        <time>2026-07-02T11:30:59.000Z</time>
      </trkpt>
      <trkpt lat="45.6418" lon="3.28462">
        <ele>590.6</ele>
        <time>2026-07-02T11:31:01.000Z</time>
      </trkpt>
      <trkpt lat="45.64181" lon="3.28436">
        <ele>590</ele>
        <time>2026-07-02T11:31:03.000Z</time>
      </trkpt>
      <trkpt lat="45.64182" lon="3.28409">
        <ele>589.6</ele>
        <time>2026-07-02T11:31:05.000Z</time>
      </trkpt>
      <trkpt lat="45.64183" lon="3.28382">
        <ele>589</ele>
        <time>2026-07-02T11:31:07.000Z</time>
      </trkpt>
      <trkpt lat="45.64186" lon="3.28353">
        <ele>588.4</ele>
        <time>2026-07-02T11:31:09.000Z</time>
      </trkpt>
      <trkpt lat="45.64189" lon="3.28324">
        <ele>587.8</ele>
        <time>2026-07-02T11:31:11.000Z</time>
      </trkpt>
      <trkpt lat="45.64194" lon="3.28294">
        <ele>587.2</ele>
        <time>2026-07-02T11:31:13.000Z</time>
      </trkpt>
      <trkpt lat="45.64202" lon="3.28265">
        <ele>586.6</ele>
        <time>2026-07-02T11:31:15.000Z</time>
      </trkpt>
      <trkpt lat="45.6421" lon="3.28237">
        <ele>586</ele>
        <time>2026-07-02T11:31:17.000Z</time>
      </trkpt>
      <trkpt lat="45.6422" lon="3.28209">
        <ele>585.4</ele>
        <time>2026-07-02T11:31:19.000Z</time>
      </trkpt>
      <trkpt lat="45.64231" lon="3.28181">
        <ele>584.8</ele>
        <time>2026-07-02T11:31:21.000Z</time>
      </trkpt>
      <trkpt lat="45.64242" lon="3.28152">
        <ele>583.4</ele>
        <time>2026-07-02T11:31:23.000Z</time>
      </trkpt>
      <trkpt lat="45.64254" lon="3.28123">
        <ele>582.6</ele>
        <time>2026-07-02T11:31:25.000Z</time>
      </trkpt>
      <trkpt lat="45.64265" lon="3.28093">
        <ele>581.6</ele>
        <time>2026-07-02T11:31:27.000Z</time>
      </trkpt>
      <trkpt lat="45.64276" lon="3.28061">
        <ele>580.6</ele>
        <time>2026-07-02T11:31:29.000Z</time>
      </trkpt>
      <trkpt lat="45.64286" lon="3.28029">
        <ele>579.6</ele>
        <time>2026-07-02T11:31:31.000Z</time>
      </trkpt>
      <trkpt lat="45.64296" lon="3.27996">
        <ele>578.6</ele>
        <time>2026-07-02T11:31:33.000Z</time>
      </trkpt>
      <trkpt lat="45.64304" lon="3.27964">
        <ele>577.6</ele>
        <time>2026-07-02T11:31:35.000Z</time>
      </trkpt>
      <trkpt lat="45.64311" lon="3.27931">
        <ele>576.4</ele>
        <time>2026-07-02T11:31:37.000Z</time>
      </trkpt>
      <trkpt lat="45.64318" lon="3.27898">
        <ele>575.4</ele>
        <time>2026-07-02T11:31:39.000Z</time>
      </trkpt>
      <trkpt lat="45.64324" lon="3.27865">
        <ele>574.2</ele>
        <time>2026-07-02T11:31:41.000Z</time>
      </trkpt>
      <trkpt lat="45.6433" lon="3.27832">
        <ele>573.2</ele>
        <time>2026-07-02T11:31:43.000Z</time>
      </trkpt>
      <trkpt lat="45.64336" lon="3.27798">
        <ele>572.2</ele>
        <time>2026-07-02T11:31:45.000Z</time>
      </trkpt>
      <trkpt lat="45.6434" lon="3.27765">
        <ele>571.2</ele>
        <time>2026-07-02T11:31:47.000Z</time>
      </trkpt>
      <trkpt lat="45.64345" lon="3.27732">
        <ele>570.2</ele>
        <time>2026-07-02T11:31:49.000Z</time>
      </trkpt>
      <trkpt lat="45.6435" lon="3.27701">
        <ele>569.2</ele>
        <time>2026-07-02T11:31:51.000Z</time>
      </trkpt>
      <trkpt lat="45.64354" lon="3.2767">
        <ele>568.2</ele>
        <time>2026-07-02T11:31:53.000Z</time>
      </trkpt>
      <trkpt lat="45.64355" lon="3.27637">
        <ele>567.4</ele>
        <time>2026-07-02T11:31:55.000Z</time>
      </trkpt>
      <trkpt lat="45.64353" lon="3.27605">
        <ele>566.8</ele>
        <time>2026-07-02T11:31:57.000Z</time>
      </trkpt>
      <trkpt lat="45.64349" lon="3.27572">
        <ele>566.2</ele>
        <time>2026-07-02T11:31:59.000Z</time>
      </trkpt>
      <trkpt lat="45.64344" lon="3.2754">
        <ele>565.6</ele>
        <time>2026-07-02T11:32:01.000Z</time>
      </trkpt>
      <trkpt lat="45.64339" lon="3.27506">
        <ele>564.8</ele>
        <time>2026-07-02T11:32:03.000Z</time>
      </trkpt>
      <trkpt lat="45.64333" lon="3.27472">
        <ele>563.2</ele>
        <time>2026-07-02T11:32:05.000Z</time>
      </trkpt>
      <trkpt lat="45.64328" lon="3.27437">
        <ele>561.8</ele>
        <time>2026-07-02T11:32:07.000Z</time>
      </trkpt>
      <trkpt lat="45.64324" lon="3.27402">
        <ele>560.4</ele>
        <time>2026-07-02T11:32:09.000Z</time>
      </trkpt>
      <trkpt lat="45.64323" lon="3.27365">
        <ele>559</ele>
        <time>2026-07-02T11:32:11.000Z</time>
      </trkpt>
      <trkpt lat="45.64328" lon="3.27328">
        <ele>557.4</ele>
        <time>2026-07-02T11:32:13.000Z</time>
      </trkpt>
      <trkpt lat="45.64337" lon="3.27294">
        <ele>556.2</ele>
        <time>2026-07-02T11:32:15.000Z</time>
      </trkpt>
      <trkpt lat="45.64349" lon="3.27264">
        <ele>555</ele>
        <time>2026-07-02T11:32:17.000Z</time>
      </trkpt>
      <trkpt lat="45.64365" lon="3.27238">
        <ele>554</ele>
        <time>2026-07-02T11:32:19.000Z</time>
      </trkpt>
      <trkpt lat="45.64384" lon="3.27216">
        <ele>553</ele>
        <time>2026-07-02T11:32:21.000Z</time>
      </trkpt>
      <trkpt lat="45.64402" lon="3.27196">
        <ele>552</ele>
        <time>2026-07-02T11:32:23.000Z</time>
      </trkpt>
      <trkpt lat="45.6442" lon="3.27174">
        <ele>551</ele>
        <time>2026-07-02T11:32:25.000Z</time>
      </trkpt>
      <trkpt lat="45.64433" lon="3.27147">
        <ele>550.2</ele>
        <time>2026-07-02T11:32:27.000Z</time>
      </trkpt>
      <trkpt lat="45.64439" lon="3.27116">
        <ele>549.4</ele>
        <time>2026-07-02T11:32:29.000Z</time>
      </trkpt>
      <trkpt lat="45.6444" lon="3.27083">
        <ele>548.2</ele>
        <time>2026-07-02T11:32:31.000Z</time>
      </trkpt>
      <trkpt lat="45.64439" lon="3.27051">
        <ele>547.2</ele>
        <time>2026-07-02T11:32:33.000Z</time>
      </trkpt>
      <trkpt lat="45.64437" lon="3.27018">
        <ele>545.6</ele>
        <time>2026-07-02T11:32:35.000Z</time>
      </trkpt>
      <trkpt lat="45.64435" lon="3.26985">
        <ele>544.2</ele>
        <time>2026-07-02T11:32:37.000Z</time>
      </trkpt>
      <trkpt lat="45.64434" lon="3.26952">
        <ele>542.8</ele>
        <time>2026-07-02T11:32:39.000Z</time>
      </trkpt>
      <trkpt lat="45.64435" lon="3.2692">
        <ele>541.6</ele>
        <time>2026-07-02T11:32:41.000Z</time>
      </trkpt>
      <trkpt lat="45.64441" lon="3.26888">
        <ele>540.6</ele>
        <time>2026-07-02T11:32:43.000Z</time>
      </trkpt>
      <trkpt lat="45.64452" lon="3.2686">
        <ele>539.8</ele>
        <time>2026-07-02T11:32:45.000Z</time>
      </trkpt>
      <trkpt lat="45.64466" lon="3.26835">
        <ele>538.4</ele>
        <time>2026-07-02T11:32:47.000Z</time>
      </trkpt>
      <trkpt lat="45.64481" lon="3.26812">
        <ele>537.4</ele>
        <time>2026-07-02T11:32:49.000Z</time>
      </trkpt>
      <trkpt lat="45.64496" lon="3.26789">
        <ele>536.6</ele>
        <time>2026-07-02T11:32:51.000Z</time>
      </trkpt>
      <trkpt lat="45.6451" lon="3.26764">
        <ele>535.4</ele>
        <time>2026-07-02T11:32:53.000Z</time>
      </trkpt>
      <trkpt lat="45.64519" lon="3.26736">
        <ele>534.6</ele>
        <time>2026-07-02T11:32:55.000Z</time>
      </trkpt>
      <trkpt lat="45.64525" lon="3.26704">
        <ele>533.4</ele>
        <time>2026-07-02T11:32:57.000Z</time>
      </trkpt>
      <trkpt lat="45.64525" lon="3.26672">
        <ele>532.2</ele>
        <time>2026-07-02T11:32:59.000Z</time>
      </trkpt>
      <trkpt lat="45.6452" lon="3.2664">
        <ele>531</ele>
        <time>2026-07-02T11:33:01.000Z</time>
      </trkpt>
      <trkpt lat="45.6451" lon="3.26611">
        <ele>529.8</ele>
        <time>2026-07-02T11:33:03.000Z</time>
      </trkpt>
      <trkpt lat="45.64495" lon="3.26585">
        <ele>528.6</ele>
        <time>2026-07-02T11:33:05.000Z</time>
      </trkpt>
      <trkpt lat="45.64477" lon="3.26565">
        <ele>527.4</ele>
        <time>2026-07-02T11:33:07.000Z</time>
      </trkpt>
      <trkpt lat="45.64455" lon="3.26552">
        <ele>526</ele>
        <time>2026-07-02T11:33:09.000Z</time>
      </trkpt>
      <trkpt lat="45.64433" lon="3.26543">
        <ele>525</ele>
        <time>2026-07-02T11:33:11.000Z</time>
      </trkpt>
      <trkpt lat="45.64411" lon="3.26536">
        <ele>523.6</ele>
        <time>2026-07-02T11:33:13.000Z</time>
      </trkpt>
      <trkpt lat="45.64388" lon="3.26529">
        <ele>522.6</ele>
        <time>2026-07-02T11:33:15.000Z</time>
      </trkpt>
      <trkpt lat="45.64365" lon="3.26523">
        <ele>521.6</ele>
        <time>2026-07-02T11:33:17.000Z</time>
      </trkpt>
      <trkpt lat="45.64342" lon="3.26516">
        <ele>520.4</ele>
        <time>2026-07-02T11:33:19.000Z</time>
      </trkpt>
      <trkpt lat="45.64318" lon="3.26507">
        <ele>519.4</ele>
        <time>2026-07-02T11:33:21.000Z</time>
      </trkpt>
      <trkpt lat="45.64296" lon="3.26494">
        <ele>518.4</ele>
        <time>2026-07-02T11:33:23.000Z</time>
      </trkpt>
      <trkpt lat="45.64274" lon="3.26477">
        <ele>517.2</ele>
        <time>2026-07-02T11:33:25.000Z</time>
      </trkpt>
      <trkpt lat="45.64255" lon="3.26455">
        <ele>515.8</ele>
        <time>2026-07-02T11:33:27.000Z</time>
      </trkpt>
      <trkpt lat="45.64238" lon="3.26429">
        <ele>513.8</ele>
        <time>2026-07-02T11:33:29.000Z</time>
      </trkpt>
      <trkpt lat="45.64224" lon="3.264">
        <ele>512.6</ele>
        <time>2026-07-02T11:33:31.000Z</time>
      </trkpt>
      <trkpt lat="45.64213" lon="3.26368">
        <ele>511.4</ele>
        <time>2026-07-02T11:33:33.000Z</time>
      </trkpt>
      <trkpt lat="45.64206" lon="3.26334">
        <ele>510.2</ele>
        <time>2026-07-02T11:33:35.000Z</time>
      </trkpt>
      <trkpt lat="45.64203" lon="3.26299">
        <ele>509</ele>
        <time>2026-07-02T11:33:37.000Z</time>
      </trkpt>
      <trkpt lat="45.64204" lon="3.26263">
        <ele>508</ele>
        <time>2026-07-02T11:33:39.000Z</time>
      </trkpt>
      <trkpt lat="45.64208" lon="3.26229">
        <ele>507</ele>
        <time>2026-07-02T11:33:41.000Z</time>
      </trkpt>
      <trkpt lat="45.64214" lon="3.26195">
        <ele>506</ele>
        <time>2026-07-02T11:33:43.000Z</time>
      </trkpt>
      <trkpt lat="45.6422" lon="3.26161">
        <ele>504.8</ele>
        <time>2026-07-02T11:33:45.000Z</time>
      </trkpt>
      <trkpt lat="45.64226" lon="3.26127">
        <ele>503.8</ele>
        <time>2026-07-02T11:33:47.000Z</time>
      </trkpt>
      <trkpt lat="45.64232" lon="3.26093">
        <ele>502.8</ele>
        <time>2026-07-02T11:33:49.000Z</time>
      </trkpt>
      <trkpt lat="45.64238" lon="3.2606">
        <ele>501.6</ele>
        <time>2026-07-02T11:33:51.000Z</time>
      </trkpt>
      <trkpt lat="45.64244" lon="3.26026">
        <ele>500.4</ele>
        <time>2026-07-02T11:33:53.000Z</time>
      </trkpt>
      <trkpt lat="45.64249" lon="3.25992">
        <ele>499.6</ele>
        <time>2026-07-02T11:33:55.000Z</time>
      </trkpt>
      <trkpt lat="45.64254" lon="3.25956">
        <ele>498.6</ele>
        <time>2026-07-02T11:33:57.000Z</time>
      </trkpt>
      <trkpt lat="45.64258" lon="3.2592">
        <ele>497.8</ele>
        <time>2026-07-02T11:33:59.000Z</time>
      </trkpt>
      <trkpt lat="45.64262" lon="3.25883">
        <ele>497.2</ele>
        <time>2026-07-02T11:34:01.000Z</time>
      </trkpt>
      <trkpt lat="45.64267" lon="3.25846">
        <ele>496.8</ele>
        <time>2026-07-02T11:34:03.000Z</time>
      </trkpt>
      <trkpt lat="45.6427" lon="3.25811">
        <ele>496.8</ele>
        <time>2026-07-02T11:34:05.000Z</time>
      </trkpt>
      <trkpt lat="45.64272" lon="3.25779">
        <ele>496.8</ele>
        <time>2026-07-02T11:34:07.000Z</time>
      </trkpt>
      <trkpt lat="45.64273" lon="3.25749">
        <ele>496.6</ele>
        <time>2026-07-02T11:34:09.000Z</time>
      </trkpt>
      <trkpt lat="45.64275" lon="3.2572">
        <ele>496.2</ele>
        <time>2026-07-02T11:34:11.000Z</time>
      </trkpt>
      <trkpt lat="45.64276" lon="3.25692">
        <ele>495.4</ele>
        <time>2026-07-02T11:34:13.000Z</time>
      </trkpt>
      <trkpt lat="45.64277" lon="3.25666">
        <ele>494.8</ele>
        <time>2026-07-02T11:34:15.000Z</time>
      </trkpt>
      <trkpt lat="45.64278" lon="3.25641">
        <ele>494.6</ele>
        <time>2026-07-02T11:34:17.000Z</time>
      </trkpt>
      <trkpt lat="45.64278" lon="3.25617">
        <ele>494.2</ele>
        <time>2026-07-02T11:34:19.000Z</time>
      </trkpt>
      <trkpt lat="45.64279" lon="3.25594">
        <ele>494</ele>
        <time>2026-07-02T11:34:21.000Z</time>
      </trkpt>
      <trkpt lat="45.64281" lon="3.25571">
        <ele>493.6</ele>
        <time>2026-07-02T11:34:23.000Z</time>
      </trkpt>
      <trkpt lat="45.64283" lon="3.25549">
        <ele>493.4</ele>
        <time>2026-07-02T11:34:25.000Z</time>
      </trkpt>
      <trkpt lat="45.64284" lon="3.25526">
        <ele>493</ele>
        <time>2026-07-02T11:34:27.000Z</time>
      </trkpt>
      <trkpt lat="45.64285" lon="3.25504">
        <ele>493</ele>
        <time>2026-07-02T11:34:29.000Z</time>
      </trkpt>
      <trkpt lat="45.64286" lon="3.25482">
        <ele>492.8</ele>
        <time>2026-07-02T11:34:31.000Z</time>
      </trkpt>
      <trkpt lat="45.64286" lon="3.25462">
        <ele>492.4</ele>
        <time>2026-07-02T11:34:33.000Z</time>
      </trkpt>
      <trkpt lat="45.64286" lon="3.25442">
        <ele>492.2</ele>
        <time>2026-07-02T11:34:35.000Z</time>
      </trkpt>
      <trkpt lat="45.64287" lon="3.25423">
        <ele>492.2</ele>
        <time>2026-07-02T11:34:37.000Z</time>
      </trkpt>
      <trkpt lat="45.64288" lon="3.25403">
        <ele>492</ele>
        <time>2026-07-02T11:34:39.000Z</time>
      </trkpt>
      <trkpt lat="45.64288" lon="3.25386">
        <ele>491.8</ele>
        <time>2026-07-02T11:34:41.000Z</time>
      </trkpt>
      <trkpt lat="45.64289" lon="3.2537">
        <ele>491.4</ele>
        <time>2026-07-02T11:34:43.000Z</time>
      </trkpt>
      <trkpt lat="45.6429" lon="3.25359">
        <ele>491</ele>
        <time>2026-07-02T11:34:45.000Z</time>
      </trkpt>
      <trkpt lat="45.6429" lon="3.25352">
        <ele>490.8</ele>
        <time>2026-07-02T11:34:47.000Z</time>
      </trkpt>
      <trkpt lat="45.6429" lon="3.25352">
        <ele>490.4</ele>
        <time>2026-07-02T11:34:49.000Z</time>
      </trkpt>
      <trkpt lat="45.64289" lon="3.25332">
        <ele>489.8</ele>
        <time>2026-07-02T11:37:00.000Z</time>
      </trkpt>
      <trkpt lat="45.64282" lon="3.25327">
        <ele>489.8</ele>
        <time>2026-07-02T11:37:02.000Z</time>
      </trkpt>
      <trkpt lat="45.64274" lon="3.25326">
        <ele>489.6</ele>
        <time>2026-07-02T11:37:05.000Z</time>
      </trkpt>
      <trkpt lat="45.64264" lon="3.25324">
        <ele>489.6</ele>
        <time>2026-07-02T11:37:07.000Z</time>
      </trkpt>
      <trkpt lat="45.6425" lon="3.25323">
        <ele>489.6</ele>
        <time>2026-07-02T11:37:09.000Z</time>
      </trkpt>
      <trkpt lat="45.64235" lon="3.25321">
        <ele>489.4</ele>
        <time>2026-07-02T11:37:11.000Z</time>
      </trkpt>
      <trkpt lat="45.6422" lon="3.25319">
        <ele>489.6</ele>
        <time>2026-07-02T11:37:13.000Z</time>
      </trkpt>
      <trkpt lat="45.64205" lon="3.25317">
        <ele>489.6</ele>
        <time>2026-07-02T11:37:15.000Z</time>
      </trkpt>
      <trkpt lat="45.6419" lon="3.25313">
        <ele>489.6</ele>
        <time>2026-07-02T11:37:17.000Z</time>
      </trkpt>
      <trkpt lat="45.64175" lon="3.25308">
        <ele>489.6</ele>
        <time>2026-07-02T11:37:19.000Z</time>
      </trkpt>
      <trkpt lat="45.6416" lon="3.25302">
        <ele>489.2</ele>
        <time>2026-07-02T11:37:21.000Z</time>
      </trkpt>
      <trkpt lat="45.64144" lon="3.25293">
        <ele>488.6</ele>
        <time>2026-07-02T11:37:23.000Z</time>
      </trkpt>
      <trkpt lat="45.64128" lon="3.25282">
        <ele>488</ele>
        <time>2026-07-02T11:37:25.000Z</time>
      </trkpt>
      <trkpt lat="45.64112" lon="3.25268">
        <ele>487.6</ele>
        <time>2026-07-02T11:37:27.000Z</time>
      </trkpt>
      <trkpt lat="45.64096" lon="3.25252">
        <ele>487</ele>
        <time>2026-07-02T11:37:29.000Z</time>
      </trkpt>
      <trkpt lat="45.64082" lon="3.25233">
        <ele>486.4</ele>
        <time>2026-07-02T11:37:31.000Z</time>
      </trkpt>
      <trkpt lat="45.64067" lon="3.25212">
        <ele>485.8</ele>
        <time>2026-07-02T11:37:33.000Z</time>
      </trkpt>
      <trkpt lat="45.64053" lon="3.25188">
        <ele>485</ele>
        <time>2026-07-02T11:37:35.000Z</time>
      </trkpt>
      <trkpt lat="45.6404" lon="3.25164">
        <ele>484.4</ele>
        <time>2026-07-02T11:37:37.000Z</time>
      </trkpt>
      <trkpt lat="45.64026" lon="3.2514">
        <ele>483.8</ele>
        <time>2026-07-02T11:37:39.000Z</time>
      </trkpt>
      <trkpt lat="45.64013" lon="3.25115">
        <ele>482.8</ele>
        <time>2026-07-02T11:37:41.000Z</time>
      </trkpt>
      <trkpt lat="45.64" lon="3.25091">
        <ele>482.2</ele>
        <time>2026-07-02T11:37:43.000Z</time>
      </trkpt>
      <trkpt lat="45.63987" lon="3.25068">
        <ele>481.4</ele>
        <time>2026-07-02T11:37:45.000Z</time>
      </trkpt>
      <trkpt lat="45.63974" lon="3.25045">
        <ele>480.8</ele>
        <time>2026-07-02T11:37:47.000Z</time>
      </trkpt>
      <trkpt lat="45.63961" lon="3.25022">
        <ele>480.2</ele>
        <time>2026-07-02T11:37:49.000Z</time>
      </trkpt>
      <trkpt lat="45.63948" lon="3.24998">
        <ele>479.8</ele>
        <time>2026-07-02T11:37:51.000Z</time>
      </trkpt>
      <trkpt lat="45.63935" lon="3.24975">
        <ele>479.2</ele>
        <time>2026-07-02T11:37:53.000Z</time>
      </trkpt>
      <trkpt lat="45.63923" lon="3.24953">
        <ele>478.8</ele>
        <time>2026-07-02T11:37:55.000Z</time>
      </trkpt>
      <trkpt lat="45.63911" lon="3.24931">
        <ele>478.4</ele>
        <time>2026-07-02T11:37:57.000Z</time>
      </trkpt>
      <trkpt lat="45.63899" lon="3.24908">
        <ele>478</ele>
        <time>2026-07-02T11:37:59.000Z</time>
      </trkpt>
      <trkpt lat="45.63886" lon="3.24885">
        <ele>477.6</ele>
        <time>2026-07-02T11:38:01.000Z</time>
      </trkpt>
      <trkpt lat="45.63875" lon="3.24861">
        <ele>477</ele>
        <time>2026-07-02T11:38:03.000Z</time>
      </trkpt>
      <trkpt lat="45.63864" lon="3.24835">
        <ele>476.6</ele>
        <time>2026-07-02T11:38:05.000Z</time>
      </trkpt>
      <trkpt lat="45.63855" lon="3.24807">
        <ele>476.2</ele>
        <time>2026-07-02T11:38:07.000Z</time>
      </trkpt>
      <trkpt lat="45.63848" lon="3.24777">
        <ele>475.6</ele>
        <time>2026-07-02T11:38:09.000Z</time>
      </trkpt>
      <trkpt lat="45.63843" lon="3.24745">
        <ele>474.8</ele>
        <time>2026-07-02T11:38:11.000Z</time>
      </trkpt>
      <trkpt lat="45.6384" lon="3.24713">
        <ele>474.2</ele>
        <time>2026-07-02T11:38:13.000Z</time>
      </trkpt>
      <trkpt lat="45.6384" lon="3.24681">
        <ele>473.8</ele>
        <time>2026-07-02T11:38:15.000Z</time>
      </trkpt>
      <trkpt lat="45.63842" lon="3.24651">
        <ele>473.4</ele>
        <time>2026-07-02T11:38:17.000Z</time>
      </trkpt>
      <trkpt lat="45.63844" lon="3.24623">
        <ele>473</ele>
        <time>2026-07-02T11:38:19.000Z</time>
      </trkpt>
      <trkpt lat="45.63846" lon="3.24595">
        <ele>473</ele>
        <time>2026-07-02T11:38:21.000Z</time>
      </trkpt>
      <trkpt lat="45.63848" lon="3.24568">
        <ele>473.2</ele>
        <time>2026-07-02T11:38:23.000Z</time>
      </trkpt>
      <trkpt lat="45.6385" lon="3.24542">
        <ele>473.2</ele>
        <time>2026-07-02T11:38:25.000Z</time>
      </trkpt>
      <trkpt lat="45.63853" lon="3.24517">
        <ele>473.4</ele>
        <time>2026-07-02T11:38:27.000Z</time>
      </trkpt>
      <trkpt lat="45.63855" lon="3.24491">
        <ele>473.6</ele>
        <time>2026-07-02T11:38:29.000Z</time>
      </trkpt>
      <trkpt lat="45.63858" lon="3.24467">
        <ele>473.6</ele>
        <time>2026-07-02T11:38:31.000Z</time>
      </trkpt>
      <trkpt lat="45.63861" lon="3.24443">
        <ele>473.8</ele>
        <time>2026-07-02T11:38:33.000Z</time>
      </trkpt>
      <trkpt lat="45.63865" lon="3.2442">
        <ele>474</ele>
        <time>2026-07-02T11:38:35.000Z</time>
      </trkpt>
      <trkpt lat="45.6387" lon="3.24397">
        <ele>474.2</ele>
        <time>2026-07-02T11:38:37.000Z</time>
      </trkpt>
      <trkpt lat="45.63876" lon="3.24376">
        <ele>474.4</ele>
        <time>2026-07-02T11:38:39.000Z</time>
      </trkpt>
      <trkpt lat="45.63883" lon="3.24356">
        <ele>474.6</ele>
        <time>2026-07-02T11:38:41.000Z</time>
      </trkpt>
      <trkpt lat="45.6389" lon="3.24336">
        <ele>474.8</ele>
        <time>2026-07-02T11:38:43.000Z</time>
      </trkpt>
      <trkpt lat="45.63899" lon="3.24318">
        <ele>475</ele>
        <time>2026-07-02T11:38:45.000Z</time>
      </trkpt>
      <trkpt lat="45.63908" lon="3.24301">
        <ele>475.2</ele>
        <time>2026-07-02T11:38:47.000Z</time>
      </trkpt>
      <trkpt lat="45.63918" lon="3.24285">
        <ele>475.2</ele>
        <time>2026-07-02T11:38:49.000Z</time>
      </trkpt>
      <trkpt lat="45.63929" lon="3.24271">
        <ele>475.2</ele>
        <time>2026-07-02T11:38:51.000Z</time>
      </trkpt>
      <trkpt lat="45.6394" lon="3.24257">
        <ele>475.2</ele>
        <time>2026-07-02T11:38:53.000Z</time>
      </trkpt>
      <trkpt lat="45.63951" lon="3.24245">
        <ele>475</ele>
        <time>2026-07-02T11:38:55.000Z</time>
      </trkpt>
      <trkpt lat="45.63962" lon="3.24232">
        <ele>475.2</ele>
        <time>2026-07-02T11:38:57.000Z</time>
      </trkpt>
      <trkpt lat="45.63972" lon="3.2422">
        <ele>475.2</ele>
        <time>2026-07-02T11:38:59.000Z</time>
      </trkpt>
      <trkpt lat="45.63983" lon="3.24207">
        <ele>475.4</ele>
        <time>2026-07-02T11:39:01.000Z</time>
      </trkpt>
      <trkpt lat="45.63994" lon="3.24195">
        <ele>475.4</ele>
        <time>2026-07-02T11:39:03.000Z</time>
      </trkpt>
      <trkpt lat="45.64005" lon="3.24181">
        <ele>475.4</ele>
        <time>2026-07-02T11:39:05.000Z</time>
      </trkpt>
      <trkpt lat="45.64017" lon="3.24168">
        <ele>475.4</ele>
        <time>2026-07-02T11:39:07.000Z</time>
      </trkpt>
      <trkpt lat="45.64029" lon="3.24154">
        <ele>475.2</ele>
        <time>2026-07-02T11:39:09.000Z</time>
      </trkpt>
      <trkpt lat="45.64042" lon="3.24138">
        <ele>475</ele>
        <time>2026-07-02T11:39:11.000Z</time>
      </trkpt>
      <trkpt lat="45.64054" lon="3.24121">
        <ele>474.6</ele>
        <time>2026-07-02T11:39:13.000Z</time>
      </trkpt>
      <trkpt lat="45.64066" lon="3.24103">
        <ele>474.2</ele>
        <time>2026-07-02T11:39:15.000Z</time>
      </trkpt>
      <trkpt lat="45.64076" lon="3.24084">
        <ele>473.6</ele>
        <time>2026-07-02T11:39:17.000Z</time>
      </trkpt>
      <trkpt lat="45.64086" lon="3.24063">
        <ele>473</ele>
        <time>2026-07-02T11:39:19.000Z</time>
      </trkpt>
      <trkpt lat="45.64095" lon="3.24041">
        <ele>472.6</ele>
        <time>2026-07-02T11:39:21.000Z</time>
      </trkpt>
      <trkpt lat="45.64102" lon="3.24018">
        <ele>472.4</ele>
        <time>2026-07-02T11:39:23.000Z</time>
      </trkpt>
      <trkpt lat="45.64108" lon="3.23994">
        <ele>471.8</ele>
        <time>2026-07-02T11:39:25.000Z</time>
      </trkpt>
      <trkpt lat="45.64113" lon="3.23969">
        <ele>471.4</ele>
        <time>2026-07-02T11:39:27.000Z</time>
      </trkpt>
      <trkpt lat="45.64117" lon="3.23945">
        <ele>470.6</ele>
        <time>2026-07-02T11:39:29.000Z</time>
      </trkpt>
      <trkpt lat="45.6412" lon="3.23921">
        <ele>470</ele>
        <time>2026-07-02T11:39:31.000Z</time>
      </trkpt>
      <trkpt lat="45.64124" lon="3.23901">
        <ele>469.2</ele>
        <time>2026-07-02T11:39:33.000Z</time>
      </trkpt>
      <trkpt lat="45.64127" lon="3.23884">
        <ele>468.4</ele>
        <time>2026-07-02T11:39:35.000Z</time>
      </trkpt>
      <trkpt lat="45.64129" lon="3.23873">
        <ele>467.8</ele>
        <time>2026-07-02T11:39:37.000Z</time>
      </trkpt>
      <trkpt lat="45.64131" lon="3.23864">
        <ele>467.4</ele>
        <time>2026-07-02T11:39:39.000Z</time>
      </trkpt>
      <trkpt lat="45.64131" lon="3.23857">
        <ele>466.8</ele>
        <time>2026-07-02T11:39:41.000Z</time>
      </trkpt>
      <trkpt lat="45.64131" lon="3.23854">
        <ele>466.4</ele>
        <time>2026-07-02T11:39:43.000Z</time>
      </trkpt>
      <trkpt lat="45.64131" lon="3.23841">
        <ele>466.2</ele>
        <time>2026-07-02T11:40:38.000Z</time>
      </trkpt>
      <trkpt lat="45.64133" lon="3.23828">
        <ele>466</ele>
        <time>2026-07-02T11:40:40.000Z</time>
      </trkpt>
      <trkpt lat="45.64135" lon="3.23812">
        <ele>466</ele>
        <time>2026-07-02T11:40:42.000Z</time>
      </trkpt>
      <trkpt lat="45.64138" lon="3.23793">
        <ele>466</ele>
        <time>2026-07-02T11:40:44.000Z</time>
      </trkpt>
      <trkpt lat="45.64141" lon="3.23774">
        <ele>466</ele>
        <time>2026-07-02T11:40:46.000Z</time>
      </trkpt>
      <trkpt lat="45.64144" lon="3.23755">
        <ele>465.8</ele>
        <time>2026-07-02T11:40:48.000Z</time>
      </trkpt>
      <trkpt lat="45.64146" lon="3.23735">
        <ele>465.6</ele>
        <time>2026-07-02T11:40:50.000Z</time>
      </trkpt>
      <trkpt lat="45.64146" lon="3.23715">
        <ele>465.6</ele>
        <time>2026-07-02T11:40:52.000Z</time>
      </trkpt>
      <trkpt lat="45.64147" lon="3.23696">
        <ele>465.4</ele>
        <time>2026-07-02T11:40:54.000Z</time>
      </trkpt>
      <trkpt lat="45.64148" lon="3.23677">
        <ele>465</ele>
        <time>2026-07-02T11:40:56.000Z</time>
      </trkpt>
      <trkpt lat="45.64154" lon="3.23662">
        <ele>464.8</ele>
        <time>2026-07-02T11:40:58.000Z</time>
      </trkpt>
      <trkpt lat="45.64165" lon="3.23648">
        <ele>464.6</ele>
        <time>2026-07-02T11:41:00.000Z</time>
      </trkpt>
      <trkpt lat="45.64173" lon="3.23631">
        <ele>464.2</ele>
        <time>2026-07-02T11:41:02.000Z</time>
      </trkpt>
      <trkpt lat="45.64182" lon="3.23612">
        <ele>463.8</ele>
        <time>2026-07-02T11:41:04.000Z</time>
      </trkpt>
      <trkpt lat="45.6419" lon="3.23592">
        <ele>463.4</ele>
        <time>2026-07-02T11:41:06.000Z</time>
      </trkpt>
      <trkpt lat="45.64198" lon="3.23571">
        <ele>463</ele>
        <time>2026-07-02T11:41:08.000Z</time>
      </trkpt>
      <trkpt lat="45.64207" lon="3.23549">
        <ele>462.2</ele>
        <time>2026-07-02T11:41:10.000Z</time>
      </trkpt>
      <trkpt lat="45.64217" lon="3.23526">
        <ele>461.4</ele>
        <time>2026-07-02T11:41:12.000Z</time>
      </trkpt>
      <trkpt lat="45.64228" lon="3.23502">
        <ele>460.4</ele>
        <time>2026-07-02T11:41:14.000Z</time>
      </trkpt>
      <trkpt lat="45.6424" lon="3.23479">
        <ele>459.4</ele>
        <time>2026-07-02T11:41:16.000Z</time>
      </trkpt>
      <trkpt lat="45.64254" lon="3.23456">
        <ele>458.2</ele>
        <time>2026-07-02T11:41:18.000Z</time>
      </trkpt>
      <trkpt lat="45.64267" lon="3.23436">
        <ele>457.2</ele>
        <time>2026-07-02T11:41:20.000Z</time>
      </trkpt>
      <trkpt lat="45.64282" lon="3.23417">
        <ele>456.2</ele>
        <time>2026-07-02T11:41:22.000Z</time>
      </trkpt>
      <trkpt lat="45.64295" lon="3.23401">
        <ele>455.6</ele>
        <time>2026-07-02T11:41:24.000Z</time>
      </trkpt>
      <trkpt lat="45.64308" lon="3.23386">
        <ele>455.2</ele>
        <time>2026-07-02T11:41:26.000Z</time>
      </trkpt>
      <trkpt lat="45.64319" lon="3.23372">
        <ele>455</ele>
        <time>2026-07-02T11:41:28.000Z</time>
      </trkpt>
      <trkpt lat="45.6433" lon="3.23358">
        <ele>454.8</ele>
        <time>2026-07-02T11:41:30.000Z</time>
      </trkpt>
      <trkpt lat="45.64341" lon="3.23342">
        <ele>454.6</ele>
        <time>2026-07-02T11:41:32.000Z</time>
      </trkpt>
      <trkpt lat="45.6435" lon="3.23325">
        <ele>454.6</ele>
        <time>2026-07-02T11:41:34.000Z</time>
      </trkpt>
      <trkpt lat="45.64359" lon="3.23308">
        <ele>454.6</ele>
        <time>2026-07-02T11:41:36.000Z</time>
      </trkpt>
      <trkpt lat="45.64367" lon="3.2329">
        <ele>454.4</ele>
        <time>2026-07-02T11:41:38.000Z</time>
      </trkpt>
      <trkpt lat="45.64375" lon="3.23272">
        <ele>454.2</ele>
        <time>2026-07-02T11:41:40.000Z</time>
      </trkpt>
      <trkpt lat="45.64382" lon="3.23254">
        <ele>454</ele>
        <time>2026-07-02T11:41:42.000Z</time>
      </trkpt>
      <trkpt lat="45.64389" lon="3.23237">
        <ele>453.8</ele>
        <time>2026-07-02T11:41:44.000Z</time>
      </trkpt>
      <trkpt lat="45.64396" lon="3.23219">
        <ele>453.6</ele>
        <time>2026-07-02T11:41:46.000Z</time>
      </trkpt>
      <trkpt lat="45.64404" lon="3.23201">
        <ele>453.4</ele>
        <time>2026-07-02T11:41:48.000Z</time>
      </trkpt>
      <trkpt lat="45.64412" lon="3.23183">
        <ele>453.4</ele>
        <time>2026-07-02T11:41:50.000Z</time>
      </trkpt>
      <trkpt lat="45.64419" lon="3.23164">
        <ele>453.2</ele>
        <time>2026-07-02T11:41:52.000Z</time>
      </trkpt>
      <trkpt lat="45.64422" lon="3.23144">
        <ele>453.2</ele>
        <time>2026-07-02T11:41:54.000Z</time>
      </trkpt>
      <trkpt lat="45.64422" lon="3.23124">
        <ele>453</ele>
        <time>2026-07-02T11:41:56.000Z</time>
      </trkpt>
      <trkpt lat="45.64428" lon="3.23107">
        <ele>452.6</ele>
        <time>2026-07-02T11:41:58.000Z</time>
      </trkpt>
      <trkpt lat="45.64439" lon="3.23101">
        <ele>452.6</ele>
        <time>2026-07-02T11:42:00.000Z</time>
      </trkpt>
      <trkpt lat="45.64453" lon="3.23104">
        <ele>452</ele>
        <time>2026-07-02T11:42:02.000Z</time>
      </trkpt>
      <trkpt lat="45.64466" lon="3.23098">
        <ele>451.4</ele>
        <time>2026-07-02T11:42:04.000Z</time>
      </trkpt>
      <trkpt lat="45.64473" lon="3.23082">
        <ele>451.2</ele>
        <time>2026-07-02T11:42:06.000Z</time>
      </trkpt>
      <trkpt lat="45.64476" lon="3.23066">
        <ele>450.6</ele>
        <time>2026-07-02T11:42:08.000Z</time>
      </trkpt>
      <trkpt lat="45.64476" lon="3.2305">
        <ele>450.4</ele>
        <time>2026-07-02T11:42:10.000Z</time>
      </trkpt>
      <trkpt lat="45.6448" lon="3.23033">
        <ele>450.4</ele>
        <time>2026-07-02T11:42:12.000Z</time>
      </trkpt>
      <trkpt lat="45.64486" lon="3.23015">
        <ele>450.4</ele>
        <time>2026-07-02T11:42:14.000Z</time>
      </trkpt>
      <trkpt lat="45.64492" lon="3.22995">
        <ele>450.2</ele>
        <time>2026-07-02T11:42:16.000Z</time>
      </trkpt>
      <trkpt lat="45.64499" lon="3.22974">
        <ele>450</ele>
        <time>2026-07-02T11:42:18.000Z</time>
      </trkpt>
      <trkpt lat="45.64507" lon="3.22952">
        <ele>449.4</ele>
        <time>2026-07-02T11:42:20.000Z</time>
      </trkpt>
      <trkpt lat="45.64515" lon="3.2293">
        <ele>448.8</ele>
        <time>2026-07-02T11:42:22.000Z</time>
      </trkpt>
      <trkpt lat="45.64522" lon="3.22909">
        <ele>448</ele>
        <time>2026-07-02T11:42:24.000Z</time>
      </trkpt>
      <trkpt lat="45.6453" lon="3.22887">
        <ele>447.4</ele>
        <time>2026-07-02T11:42:26.000Z</time>
      </trkpt>
      <trkpt lat="45.64538" lon="3.22866">
        <ele>447</ele>
        <time>2026-07-02T11:42:28.000Z</time>
      </trkpt>
      <trkpt lat="45.64545" lon="3.22845">
        <ele>446.4</ele>
        <time>2026-07-02T11:42:30.000Z</time>
      </trkpt>
      <trkpt lat="45.64553" lon="3.22823">
        <ele>445.6</ele>
        <time>2026-07-02T11:42:32.000Z</time>
      </trkpt>
      <trkpt lat="45.64561" lon="3.22801">
        <ele>445</ele>
        <time>2026-07-02T11:42:34.000Z</time>
      </trkpt>
      <trkpt lat="45.64569" lon="3.22779">
        <ele>444.4</ele>
        <time>2026-07-02T11:42:36.000Z</time>
      </trkpt>
      <trkpt lat="45.64577" lon="3.22757">
        <ele>443.6</ele>
        <time>2026-07-02T11:42:38.000Z</time>
      </trkpt>
      <trkpt lat="45.64584" lon="3.22737">
        <ele>443</ele>
        <time>2026-07-02T11:42:40.000Z</time>
      </trkpt>
      <trkpt lat="45.64592" lon="3.22718">
        <ele>442.4</ele>
        <time>2026-07-02T11:42:42.000Z</time>
      </trkpt>
      <trkpt lat="45.64599" lon="3.227">
        <ele>441.6</ele>
        <time>2026-07-02T11:42:44.000Z</time>
      </trkpt>
      <trkpt lat="45.64606" lon="3.22682">
        <ele>440.8</ele>
        <time>2026-07-02T11:42:46.000Z</time>
      </trkpt>
      <trkpt lat="45.64614" lon="3.22664">
        <ele>440.2</ele>
        <time>2026-07-02T11:42:48.000Z</time>
      </trkpt>
      <trkpt lat="45.64621" lon="3.22644">
        <ele>439.4</ele>
        <time>2026-07-02T11:42:50.000Z</time>
      </trkpt>
      <trkpt lat="45.64628" lon="3.22624">
        <ele>438.8</ele>
        <time>2026-07-02T11:42:52.000Z</time>
      </trkpt>
      <trkpt lat="45.64636" lon="3.22604">
        <ele>438.2</ele>
        <time>2026-07-02T11:42:54.000Z</time>
      </trkpt>
      <trkpt lat="45.64644" lon="3.22583">
        <ele>437.8</ele>
        <time>2026-07-02T11:42:56.000Z</time>
      </trkpt>
      <trkpt lat="45.64652" lon="3.22563">
        <ele>437.4</ele>
        <time>2026-07-02T11:42:58.000Z</time>
      </trkpt>
      <trkpt lat="45.64659" lon="3.22543">
        <ele>437.2</ele>
        <time>2026-07-02T11:43:00.000Z</time>
      </trkpt>
      <trkpt lat="45.64665" lon="3.22523">
        <ele>437</ele>
        <time>2026-07-02T11:43:02.000Z</time>
      </trkpt>
      <trkpt lat="45.64673" lon="3.22503">
        <ele>436.8</ele>
        <time>2026-07-02T11:43:04.000Z</time>
      </trkpt>
      <trkpt lat="45.64682" lon="3.22483">
        <ele>436.4</ele>
        <time>2026-07-02T11:43:06.000Z</time>
      </trkpt>
      <trkpt lat="45.64691" lon="3.22463">
        <ele>436</ele>
        <time>2026-07-02T11:43:08.000Z</time>
      </trkpt>
      <trkpt lat="45.647" lon="3.22444">
        <ele>435.8</ele>
        <time>2026-07-02T11:43:10.000Z</time>
      </trkpt>
      <trkpt lat="45.64709" lon="3.22425">
        <ele>435.4</ele>
        <time>2026-07-02T11:43:12.000Z</time>
      </trkpt>
      <trkpt lat="45.64718" lon="3.22407">
        <ele>435</ele>
        <time>2026-07-02T11:43:14.000Z</time>
      </trkpt>
      <trkpt lat="45.64726" lon="3.22389">
        <ele>434.2</ele>
        <time>2026-07-02T11:43:16.000Z</time>
      </trkpt>
      <trkpt lat="45.64735" lon="3.22371">
        <ele>433.6</ele>
        <time>2026-07-02T11:43:18.000Z</time>
      </trkpt>
      <trkpt lat="45.64743" lon="3.22353">
        <ele>433.2</ele>
        <time>2026-07-02T11:43:20.000Z</time>
      </trkpt>
      <trkpt lat="45.64753" lon="3.22335">
        <ele>432.4</ele>
        <time>2026-07-02T11:43:22.000Z</time>
      </trkpt>
      <trkpt lat="45.64763" lon="3.22317">
        <ele>431.8</ele>
        <time>2026-07-02T11:43:24.000Z</time>
      </trkpt>
      <trkpt lat="45.64772" lon="3.22299">
        <ele>431.4</ele>
        <time>2026-07-02T11:43:26.000Z</time>
      </trkpt>
      <trkpt lat="45.64782" lon="3.2228">
        <ele>430.8</ele>
        <time>2026-07-02T11:43:28.000Z</time>
      </trkpt>
      <trkpt lat="45.64791" lon="3.22262">
        <ele>430.2</ele>
        <time>2026-07-02T11:43:30.000Z</time>
      </trkpt>
      <trkpt lat="45.64801" lon="3.22244">
        <ele>429.8</ele>
        <time>2026-07-02T11:43:32.000Z</time>
      </trkpt>
      <trkpt lat="45.64811" lon="3.22226">
        <ele>429.2</ele>
        <time>2026-07-02T11:43:34.000Z</time>
      </trkpt>
      <trkpt lat="45.6482" lon="3.22208">
        <ele>428.6</ele>
        <time>2026-07-02T11:43:36.000Z</time>
      </trkpt>
      <trkpt lat="45.6483" lon="3.22191">
        <ele>428.2</ele>
        <time>2026-07-02T11:43:38.000Z</time>
      </trkpt>
      <trkpt lat="45.6484" lon="3.22173">
        <ele>427.6</ele>
        <time>2026-07-02T11:43:40.000Z</time>
      </trkpt>
      <trkpt lat="45.6485" lon="3.22155">
        <ele>427.2</ele>
        <time>2026-07-02T11:43:42.000Z</time>
      </trkpt>
      <trkpt lat="45.64859" lon="3.22135">
        <ele>426.6</ele>
        <time>2026-07-02T11:43:44.000Z</time>
      </trkpt>
      <trkpt lat="45.64869" lon="3.22116">
        <ele>426.2</ele>
        <time>2026-07-02T11:43:46.000Z</time>
      </trkpt>
      <trkpt lat="45.64879" lon="3.22095">
        <ele>425.8</ele>
        <time>2026-07-02T11:43:48.000Z</time>
      </trkpt>
      <trkpt lat="45.64888" lon="3.22073">
        <ele>425.2</ele>
        <time>2026-07-02T11:43:50.000Z</time>
      </trkpt>
      <trkpt lat="45.64897" lon="3.22049">
        <ele>424.6</ele>
        <time>2026-07-02T11:43:52.000Z</time>
      </trkpt>
      <trkpt lat="45.64906" lon="3.22024">
        <ele>423.8</ele>
        <time>2026-07-02T11:43:54.000Z</time>
      </trkpt>
      <trkpt lat="45.64916" lon="3.21998">
        <ele>422.8</ele>
        <time>2026-07-02T11:43:56.000Z</time>
      </trkpt>
      <trkpt lat="45.64926" lon="3.21971">
        <ele>421</ele>
        <time>2026-07-02T11:43:58.000Z</time>
      </trkpt>
      <trkpt lat="45.64936" lon="3.21943">
        <ele>420</ele>
        <time>2026-07-02T11:44:00.000Z</time>
      </trkpt>
      <trkpt lat="45.64947" lon="3.21916">
        <ele>418.6</ele>
        <time>2026-07-02T11:44:02.000Z</time>
      </trkpt>
      <trkpt lat="45.64957" lon="3.21889">
        <ele>417.2</ele>
        <time>2026-07-02T11:44:04.000Z</time>
      </trkpt>
      <trkpt lat="45.64968" lon="3.21862">
        <ele>416</ele>
        <time>2026-07-02T11:44:06.000Z</time>
      </trkpt>
      <trkpt lat="45.64981" lon="3.21835">
        <ele>414.6</ele>
        <time>2026-07-02T11:44:08.000Z</time>
      </trkpt>
      <trkpt lat="45.64994" lon="3.21807">
        <ele>413.2</ele>
        <time>2026-07-02T11:44:10.000Z</time>
      </trkpt>
      <trkpt lat="45.65008" lon="3.21778">
        <ele>412</ele>
        <time>2026-07-02T11:44:12.000Z</time>
      </trkpt>
      <trkpt lat="45.65023" lon="3.21751">
        <ele>410.6</ele>
        <time>2026-07-02T11:44:14.000Z</time>
      </trkpt>
      <trkpt lat="45.65037" lon="3.21725">
        <ele>409</ele>
        <time>2026-07-02T11:44:16.000Z</time>
      </trkpt>
      <trkpt lat="45.65051" lon="3.21697">
        <ele>407.6</ele>
        <time>2026-07-02T11:44:18.000Z</time>
      </trkpt>
      <trkpt lat="45.65065" lon="3.21672">
        <ele>406.2</ele>
        <time>2026-07-02T11:44:20.000Z</time>
      </trkpt>
      <trkpt lat="45.65078" lon="3.21646">
        <ele>404.8</ele>
        <time>2026-07-02T11:44:22.000Z</time>
      </trkpt>
      <trkpt lat="45.65092" lon="3.2162">
        <ele>403.6</ele>
        <time>2026-07-02T11:44:24.000Z</time>
      </trkpt>
      <trkpt lat="45.65107" lon="3.21593">
        <ele>402.2</ele>
        <time>2026-07-02T11:44:26.000Z</time>
      </trkpt>
      <trkpt lat="45.65122" lon="3.21567">
        <ele>400.8</ele>
        <time>2026-07-02T11:44:28.000Z</time>
      </trkpt>
      <trkpt lat="45.65137" lon="3.21541">
        <ele>399.6</ele>
        <time>2026-07-02T11:44:30.000Z</time>
      </trkpt>
      <trkpt lat="45.65152" lon="3.21514">
        <ele>398.2</ele>
        <time>2026-07-02T11:44:32.000Z</time>
      </trkpt>
      <trkpt lat="45.65168" lon="3.21489">
        <ele>397</ele>
        <time>2026-07-02T11:44:34.000Z</time>
      </trkpt>
      <trkpt lat="45.65184" lon="3.21464">
        <ele>395.8</ele>
        <time>2026-07-02T11:44:36.000Z</time>
      </trkpt>
      <trkpt lat="45.65201" lon="3.2144">
        <ele>394.6</ele>
        <time>2026-07-02T11:44:38.000Z</time>
      </trkpt>
      <trkpt lat="45.65218" lon="3.21417">
        <ele>393.2</ele>
        <time>2026-07-02T11:44:40.000Z</time>
      </trkpt>
      <trkpt lat="45.65236" lon="3.21395">
        <ele>392.2</ele>
        <time>2026-07-02T11:44:42.000Z</time>
      </trkpt>
      <trkpt lat="45.65253" lon="3.21374">
        <ele>391.4</ele>
        <time>2026-07-02T11:44:44.000Z</time>
      </trkpt>
      <trkpt lat="45.65269" lon="3.21355">
        <ele>390.6</ele>
        <time>2026-07-02T11:44:46.000Z</time>
      </trkpt>
      <trkpt lat="45.65284" lon="3.21337">
        <ele>389.8</ele>
        <time>2026-07-02T11:44:48.000Z</time>
      </trkpt>
      <trkpt lat="45.65297" lon="3.21321">
        <ele>388.8</ele>
        <time>2026-07-02T11:44:50.000Z</time>
      </trkpt>
      <trkpt lat="45.65311" lon="3.21309">
        <ele>387.8</ele>
        <time>2026-07-02T11:44:52.000Z</time>
      </trkpt>
      <trkpt lat="45.65325" lon="3.21307">
        <ele>386.8</ele>
        <time>2026-07-02T11:44:54.000Z</time>
      </trkpt>
      <trkpt lat="45.65336" lon="3.21306">
        <ele>385.8</ele>
        <time>2026-07-02T11:44:56.000Z</time>
      </trkpt>
      <trkpt lat="45.65343" lon="3.21299">
        <ele>385.2</ele>
        <time>2026-07-02T11:44:58.000Z</time>
      </trkpt>
      <trkpt lat="45.65345" lon="3.21289">
        <ele>384.6</ele>
        <time>2026-07-02T11:45:00.000Z</time>
      </trkpt>
      <trkpt lat="45.65345" lon="3.21279">
        <ele>384.2</ele>
        <time>2026-07-02T11:45:02.000Z</time>
      </trkpt>
      <trkpt lat="45.65343" lon="3.21269">
        <ele>384</ele>
        <time>2026-07-02T11:45:04.000Z</time>
      </trkpt>
      <trkpt lat="45.65343" lon="3.21258">
        <ele>383.8</ele>
        <time>2026-07-02T11:45:06.000Z</time>
      </trkpt>
      <trkpt lat="45.65346" lon="3.21246">
        <ele>383.6</ele>
        <time>2026-07-02T11:45:08.000Z</time>
      </trkpt>
      <trkpt lat="45.65354" lon="3.21234">
        <ele>383.4</ele>
        <time>2026-07-02T11:45:10.000Z</time>
      </trkpt>
      <trkpt lat="45.65364" lon="3.21221">
        <ele>383.4</ele>
        <time>2026-07-02T11:45:12.000Z</time>
      </trkpt>
      <trkpt lat="45.65374" lon="3.21205">
        <ele>383</ele>
        <time>2026-07-02T11:45:14.000Z</time>
      </trkpt>
      <trkpt lat="45.65386" lon="3.2119">
        <ele>382.8</ele>
        <time>2026-07-02T11:45:16.000Z</time>
      </trkpt>
      <trkpt lat="45.65397" lon="3.21174">
        <ele>382.2</ele>
        <time>2026-07-02T11:45:18.000Z</time>
      </trkpt>
      <trkpt lat="45.65409" lon="3.21158">
        <ele>381.6</ele>
        <time>2026-07-02T11:45:20.000Z</time>
      </trkpt>
      <trkpt lat="45.65422" lon="3.21141">
        <ele>380.6</ele>
        <time>2026-07-02T11:45:22.000Z</time>
      </trkpt>
      <trkpt lat="45.65434" lon="3.21125">
        <ele>379.8</ele>
        <time>2026-07-02T11:45:24.000Z</time>
      </trkpt>
      <trkpt lat="45.65445" lon="3.21109">
        <ele>379.2</ele>
        <time>2026-07-02T11:45:26.000Z</time>
      </trkpt>
      <trkpt lat="45.65456" lon="3.21094">
        <ele>378.4</ele>
        <time>2026-07-02T11:45:28.000Z</time>
      </trkpt>
      <trkpt lat="45.65466" lon="3.21081">
        <ele>377.6</ele>
        <time>2026-07-02T11:45:30.000Z</time>
      </trkpt>
      <trkpt lat="45.65476" lon="3.21067">
        <ele>376.8</ele>
        <time>2026-07-02T11:45:32.000Z</time>
      </trkpt>
      <trkpt lat="45.65486" lon="3.21053">
        <ele>376</ele>
        <time>2026-07-02T11:45:34.000Z</time>
      </trkpt>
      <trkpt lat="45.65497" lon="3.21038">
        <ele>375.4</ele>
        <time>2026-07-02T11:45:36.000Z</time>
      </trkpt>
      <trkpt lat="45.65508" lon="3.21022">
        <ele>375</ele>
        <time>2026-07-02T11:45:38.000Z</time>
      </trkpt>
      <trkpt lat="45.6552" lon="3.21006">
        <ele>374.4</ele>
        <time>2026-07-02T11:45:40.000Z</time>
      </trkpt>
      <trkpt lat="45.65533" lon="3.20989">
        <ele>374</ele>
        <time>2026-07-02T11:45:42.000Z</time>
      </trkpt>
      <trkpt lat="45.65547" lon="3.20971">
        <ele>373.4</ele>
        <time>2026-07-02T11:45:44.000Z</time>
      </trkpt>
      <trkpt lat="45.6556" lon="3.20953">
        <ele>372.8</ele>
        <time>2026-07-02T11:45:46.000Z</time>
      </trkpt>
      <trkpt lat="45.65575" lon="3.20936">
        <ele>372.2</ele>
        <time>2026-07-02T11:45:48.000Z</time>
      </trkpt>
      <trkpt lat="45.65591" lon="3.20919">
        <ele>371.6</ele>
        <time>2026-07-02T11:45:50.000Z</time>
      </trkpt>
      <trkpt lat="45.65607" lon="3.20904">
        <ele>371</ele>
        <time>2026-07-02T11:45:52.000Z</time>
      </trkpt>
      <trkpt lat="45.65624" lon="3.20889">
        <ele>370.4</ele>
        <time>2026-07-02T11:45:54.000Z</time>
      </trkpt>
      <trkpt lat="45.65641" lon="3.20875">
        <ele>369.6</ele>
        <time>2026-07-02T11:45:56.000Z</time>
      </trkpt>
      <trkpt lat="45.65658" lon="3.20863">
        <ele>368.8</ele>
        <time>2026-07-02T11:45:58.000Z</time>
      </trkpt>
      <trkpt lat="45.65677" lon="3.2085">
        <ele>367.8</ele>
        <time>2026-07-02T11:46:00.000Z</time>
      </trkpt>
      <trkpt lat="45.65695" lon="3.20838">
        <ele>366.4</ele>
        <time>2026-07-02T11:46:02.000Z</time>
      </trkpt>
      <trkpt lat="45.65714" lon="3.20827">
        <ele>365.6</ele>
        <time>2026-07-02T11:46:04.000Z</time>
      </trkpt>
      <trkpt lat="45.65734" lon="3.20818">
        <ele>364.8</ele>
        <time>2026-07-02T11:46:06.000Z</time>
      </trkpt>
      <trkpt lat="45.65753" lon="3.2081">
        <ele>364</ele>
        <time>2026-07-02T11:46:08.000Z</time>
      </trkpt>
      <trkpt lat="45.65771" lon="3.20804">
        <ele>363.4</ele>
        <time>2026-07-02T11:46:10.000Z</time>
      </trkpt>
      <trkpt lat="45.65791" lon="3.20798">
        <ele>362.6</ele>
        <time>2026-07-02T11:46:12.000Z</time>
      </trkpt>
      <trkpt lat="45.6581" lon="3.20794">
        <ele>362</ele>
        <time>2026-07-02T11:46:14.000Z</time>
      </trkpt>
      <trkpt lat="45.65828" lon="3.20791">
        <ele>361.6</ele>
        <time>2026-07-02T11:46:16.000Z</time>
      </trkpt>
      <trkpt lat="45.65847" lon="3.20789">
        <ele>361</ele>
        <time>2026-07-02T11:46:18.000Z</time>
      </trkpt>
      <trkpt lat="45.65865" lon="3.20788">
        <ele>360.6</ele>
        <time>2026-07-02T11:46:20.000Z</time>
      </trkpt>
      <trkpt lat="45.65881" lon="3.20788">
        <ele>360.2</ele>
        <time>2026-07-02T11:46:22.000Z</time>
      </trkpt>
      <trkpt lat="45.65898" lon="3.20789">
        <ele>359.6</ele>
        <time>2026-07-02T11:46:24.000Z</time>
      </trkpt>
      <trkpt lat="45.65914" lon="3.20788">
        <ele>359.2</ele>
        <time>2026-07-02T11:46:26.000Z</time>
      </trkpt>
      <trkpt lat="45.65931" lon="3.20788">
        <ele>358.8</ele>
        <time>2026-07-02T11:46:28.000Z</time>
      </trkpt>
      <trkpt lat="45.65948" lon="3.20789">
        <ele>358.2</ele>
        <time>2026-07-02T11:46:30.000Z</time>
      </trkpt>
      <trkpt lat="45.65964" lon="3.20789">
        <ele>358</ele>
        <time>2026-07-02T11:46:32.000Z</time>
      </trkpt>
      <trkpt lat="45.6598" lon="3.20789">
        <ele>357.8</ele>
        <time>2026-07-02T11:46:34.000Z</time>
      </trkpt>
      <trkpt lat="45.65995" lon="3.2079">
        <ele>357.6</ele>
        <time>2026-07-02T11:46:36.000Z</time>
      </trkpt>
      <trkpt lat="45.66011" lon="3.20792">
        <ele>357.4</ele>
        <time>2026-07-02T11:46:38.000Z</time>
      </trkpt>
      <trkpt lat="45.66026" lon="3.20793">
        <ele>357.2</ele>
        <time>2026-07-02T11:46:40.000Z</time>
      </trkpt>
      <trkpt lat="45.6604" lon="3.20794">
        <ele>357</ele>
        <time>2026-07-02T11:46:42.000Z</time>
      </trkpt>
      <trkpt lat="45.66055" lon="3.20795">
        <ele>356.6</ele>
        <time>2026-07-02T11:46:44.000Z</time>
      </trkpt>
      <trkpt lat="45.6607" lon="3.20795">
        <ele>356.2</ele>
        <time>2026-07-02T11:46:46.000Z</time>
      </trkpt>
      <trkpt lat="45.66086" lon="3.20796">
        <ele>356.2</ele>
        <time>2026-07-02T11:46:48.000Z</time>
      </trkpt>
      <trkpt lat="45.66102" lon="3.20797">
        <ele>355.8</ele>
        <time>2026-07-02T11:46:50.000Z</time>
      </trkpt>
      <trkpt lat="45.66118" lon="3.20798">
        <ele>355.6</ele>
        <time>2026-07-02T11:46:52.000Z</time>
      </trkpt>
      <trkpt lat="45.66134" lon="3.20798">
        <ele>355.4</ele>
        <time>2026-07-02T11:46:54.000Z</time>
      </trkpt>
      <trkpt lat="45.66149" lon="3.20798">
        <ele>355.4</ele>
        <time>2026-07-02T11:46:56.000Z</time>
      </trkpt>
      <trkpt lat="45.66162" lon="3.20798">
        <ele>355.2</ele>
        <time>2026-07-02T11:46:58.000Z</time>
      </trkpt>
      <trkpt lat="45.66174" lon="3.20798">
        <ele>355</ele>
        <time>2026-07-02T11:47:00.000Z</time>
      </trkpt>
      <trkpt lat="45.66185" lon="3.20798">
        <ele>355</ele>
        <time>2026-07-02T11:47:02.000Z</time>
      </trkpt>
      <trkpt lat="45.66196" lon="3.20796">
        <ele>354.8</ele>
        <time>2026-07-02T11:47:04.000Z</time>
      </trkpt>
      <trkpt lat="45.66205" lon="3.20785">
        <ele>354.6</ele>
        <time>2026-07-02T11:47:06.000Z</time>
      </trkpt>
      <trkpt lat="45.66207" lon="3.20769">
        <ele>354.6</ele>
        <time>2026-07-02T11:47:08.000Z</time>
      </trkpt>
      <trkpt lat="45.66206" lon="3.20752">
        <ele>354.4</ele>
        <time>2026-07-02T11:47:10.000Z</time>
      </trkpt>
      <trkpt lat="45.66206" lon="3.20737">
        <ele>354.2</ele>
        <time>2026-07-02T11:47:12.000Z</time>
      </trkpt>
      <trkpt lat="45.66206" lon="3.20723">
        <ele>354</ele>
        <time>2026-07-02T11:47:14.000Z</time>
      </trkpt>
      <trkpt lat="45.66206" lon="3.20709">
        <ele>353.8</ele>
        <time>2026-07-02T11:47:16.000Z</time>
      </trkpt>
      <trkpt lat="45.66207" lon="3.20697">
        <ele>353.6</ele>
        <time>2026-07-02T11:47:18.000Z</time>
      </trkpt>
      <trkpt lat="45.66207" lon="3.20685">
        <ele>353.4</ele>
        <time>2026-07-02T11:47:20.000Z</time>
      </trkpt>
      <trkpt lat="45.66207" lon="3.20676">
        <ele>353.2</ele>
        <time>2026-07-02T11:47:22.000Z</time>
      </trkpt>
      <trkpt lat="45.66208" lon="3.2067">
        <ele>353</ele>
        <time>2026-07-02T11:47:24.000Z</time>
      </trkpt>
      <trkpt lat="45.66208" lon="3.20668">
        <ele>352.6</ele>
        <time>2026-07-02T11:47:26.000Z</time>
      </trkpt>
      <trkpt lat="45.66207" lon="3.20654">
        <ele>352.4</ele>
        <time>2026-07-02T11:47:49.000Z</time>
      </trkpt>
      <trkpt lat="45.66208" lon="3.20645">
        <ele>352.4</ele>
        <time>2026-07-02T11:47:51.000Z</time>
      </trkpt>
      <trkpt lat="45.66208" lon="3.20635">
        <ele>352.4</ele>
        <time>2026-07-02T11:47:53.000Z</time>
      </trkpt>
      <trkpt lat="45.66208" lon="3.20624">
        <ele>352.4</ele>
        <time>2026-07-02T11:47:55.000Z</time>
      </trkpt>
      <trkpt lat="45.66208" lon="3.20611">
        <ele>352.6</ele>
        <time>2026-07-02T11:47:57.000Z</time>
      </trkpt>
      <trkpt lat="45.66208" lon="3.20596">
        <ele>352.6</ele>
        <time>2026-07-02T11:47:59.000Z</time>
      </trkpt>
      <trkpt lat="45.66209" lon="3.2058">
        <ele>352.6</ele>
        <time>2026-07-02T11:48:01.000Z</time>
      </trkpt>
      <trkpt lat="45.66209" lon="3.20563">
        <ele>352.8</ele>
        <time>2026-07-02T11:48:03.000Z</time>
      </trkpt>
      <trkpt lat="45.6621" lon="3.20544">
        <ele>352.8</ele>
        <time>2026-07-02T11:48:05.000Z</time>
      </trkpt>
      <trkpt lat="45.6621" lon="3.20526">
        <ele>352.8</ele>
        <time>2026-07-02T11:48:07.000Z</time>
      </trkpt>
      <trkpt lat="45.6621" lon="3.20508">
        <ele>352.6</ele>
        <time>2026-07-02T11:48:09.000Z</time>
      </trkpt>
      <trkpt lat="45.66211" lon="3.20489">
        <ele>352.4</ele>
        <time>2026-07-02T11:48:11.000Z</time>
      </trkpt>
      <trkpt lat="45.66211" lon="3.2047">
        <ele>352.4</ele>
        <time>2026-07-02T11:48:13.000Z</time>
      </trkpt>
      <trkpt lat="45.66212" lon="3.20451">
        <ele>352.2</ele>
        <time>2026-07-02T11:48:15.000Z</time>
      </trkpt>
      <trkpt lat="45.66212" lon="3.2043">
        <ele>352</ele>
        <time>2026-07-02T11:48:17.000Z</time>
      </trkpt>
      <trkpt lat="45.66213" lon="3.20409">
        <ele>351.8</ele>
        <time>2026-07-02T11:48:19.000Z</time>
      </trkpt>
      <trkpt lat="45.66214" lon="3.20389">
        <ele>351.4</ele>
        <time>2026-07-02T11:48:21.000Z</time>
      </trkpt>
      <trkpt lat="45.66215" lon="3.20368">
        <ele>351.2</ele>
        <time>2026-07-02T11:48:23.000Z</time>
      </trkpt>
      <trkpt lat="45.66215" lon="3.20346">
        <ele>351</ele>
        <time>2026-07-02T11:48:25.000Z</time>
      </trkpt>
      <trkpt lat="45.66212" lon="3.20326">
        <ele>350.8</ele>
        <time>2026-07-02T11:48:27.000Z</time>
      </trkpt>
      <trkpt lat="45.66204" lon="3.20309">
        <ele>350.6</ele>
        <time>2026-07-02T11:48:29.000Z</time>
      </trkpt>
      <trkpt lat="45.66194" lon="3.20295">
        <ele>350.6</ele>
        <time>2026-07-02T11:48:31.000Z</time>
      </trkpt>
      <trkpt lat="45.66184" lon="3.20281">
        <ele>350.8</ele>
        <time>2026-07-02T11:48:33.000Z</time>
      </trkpt>
      <trkpt lat="45.66174" lon="3.20268">
        <ele>350.8</ele>
        <time>2026-07-02T11:48:35.000Z</time>
      </trkpt>
      <trkpt lat="45.66164" lon="3.20255">
        <ele>350.8</ele>
        <time>2026-07-02T11:48:37.000Z</time>
      </trkpt>
      <trkpt lat="45.66155" lon="3.20243">
        <ele>350.8</ele>
        <time>2026-07-02T11:48:39.000Z</time>
      </trkpt>
      <trkpt lat="45.66146" lon="3.20232">
        <ele>350.8</ele>
        <time>2026-07-02T11:48:41.000Z</time>
      </trkpt>
      <trkpt lat="45.66138" lon="3.20221">
        <ele>350.6</ele>
        <time>2026-07-02T11:48:43.000Z</time>
      </trkpt>
      <trkpt lat="45.66129" lon="3.2021">
        <ele>350.6</ele>
        <time>2026-07-02T11:48:45.000Z</time>
      </trkpt>
      <trkpt lat="45.66121" lon="3.20198">
        <ele>350.6</ele>
        <time>2026-07-02T11:48:47.000Z</time>
      </trkpt>
      <trkpt lat="45.66111" lon="3.20187">
        <ele>350.4</ele>
        <time>2026-07-02T11:48:49.000Z</time>
      </trkpt>
      <trkpt lat="45.661" lon="3.20176">
        <ele>350.2</ele>
        <time>2026-07-02T11:48:51.000Z</time>
      </trkpt>
      <trkpt lat="45.66087" lon="3.20172">
        <ele>350.2</ele>
        <time>2026-07-02T11:48:53.000Z</time>
      </trkpt>
      <trkpt lat="45.66075" lon="3.20175">
        <ele>350.2</ele>
        <time>2026-07-02T11:48:55.000Z</time>
      </trkpt>
      <trkpt lat="45.66064" lon="3.20185">
        <ele>350.4</ele>
        <time>2026-07-02T11:48:57.000Z</time>
      </trkpt>
      <trkpt lat="45.66054" lon="3.20197">
        <ele>350.8</ele>
        <time>2026-07-02T11:48:59.000Z</time>
      </trkpt>
      <trkpt lat="45.66045" lon="3.20209">
        <ele>351.2</ele>
        <time>2026-07-02T11:49:01.000Z</time>
      </trkpt>
      <trkpt lat="45.66035" lon="3.20221">
        <ele>351.6</ele>
        <time>2026-07-02T11:49:03.000Z</time>
      </trkpt>
      <trkpt lat="45.66024" lon="3.20227">
        <ele>352.2</ele>
        <time>2026-07-02T11:49:05.000Z</time>
      </trkpt>
      <trkpt lat="45.6601" lon="3.20226">
        <ele>352.6</ele>
        <time>2026-07-02T11:49:07.000Z</time>
      </trkpt>
      <trkpt lat="45.65997" lon="3.2022">
        <ele>353</ele>
        <time>2026-07-02T11:49:09.000Z</time>
      </trkpt>
      <trkpt lat="45.65987" lon="3.20207">
        <ele>353</ele>
        <time>2026-07-02T11:49:11.000Z</time>
      </trkpt>
      <trkpt lat="45.65978" lon="3.20194">
        <ele>353.2</ele>
        <time>2026-07-02T11:49:13.000Z</time>
      </trkpt>
      <trkpt lat="45.65968" lon="3.20183">
        <ele>353.2</ele>
        <time>2026-07-02T11:49:15.000Z</time>
      </trkpt>
      <trkpt lat="45.65958" lon="3.20173">
        <ele>353.2</ele>
        <time>2026-07-02T11:49:17.000Z</time>
      </trkpt>
      <trkpt lat="45.65948" lon="3.20162">
        <ele>353.2</ele>
        <time>2026-07-02T11:49:19.000Z</time>
      </trkpt>
      <trkpt lat="45.65938" lon="3.2015">
        <ele>353.2</ele>
        <time>2026-07-02T11:49:21.000Z</time>
      </trkpt>
      <trkpt lat="45.65928" lon="3.20138">
        <ele>353.2</ele>
        <time>2026-07-02T11:49:23.000Z</time>
      </trkpt>
      <trkpt lat="45.65919" lon="3.20125">
        <ele>353.4</ele>
        <time>2026-07-02T11:49:25.000Z</time>
      </trkpt>
      <trkpt lat="45.6591" lon="3.20109">
        <ele>353.6</ele>
        <time>2026-07-02T11:49:27.000Z</time>
      </trkpt>
      <trkpt lat="45.65904" lon="3.20092">
        <ele>353.6</ele>
        <time>2026-07-02T11:49:29.000Z</time>
      </trkpt>
      <trkpt lat="45.65899" lon="3.20074">
        <ele>353.8</ele>
        <time>2026-07-02T11:49:31.000Z</time>
      </trkpt>
      <trkpt lat="45.65896" lon="3.20055">
        <ele>353.8</ele>
        <time>2026-07-02T11:49:33.000Z</time>
      </trkpt>
      <trkpt lat="45.65895" lon="3.20035">
        <ele>353.8</ele>
        <time>2026-07-02T11:49:35.000Z</time>
      </trkpt>
      <trkpt lat="45.65895" lon="3.20016">
        <ele>353.8</ele>
        <time>2026-07-02T11:49:37.000Z</time>
      </trkpt>
      <trkpt lat="45.65895" lon="3.19997">
        <ele>354</ele>
        <time>2026-07-02T11:49:39.000Z</time>
      </trkpt>
      <trkpt lat="45.65896" lon="3.19977">
        <ele>354</ele>
        <time>2026-07-02T11:49:41.000Z</time>
      </trkpt>
      <trkpt lat="45.65897" lon="3.19958">
        <ele>354.2</ele>
        <time>2026-07-02T11:49:43.000Z</time>
      </trkpt>
      <trkpt lat="45.65897" lon="3.19938">
        <ele>354.4</ele>
        <time>2026-07-02T11:49:45.000Z</time>
      </trkpt>
      <trkpt lat="45.65896" lon="3.19918">
        <ele>354.4</ele>
        <time>2026-07-02T11:49:47.000Z</time>
      </trkpt>
      <trkpt lat="45.65894" lon="3.19897">
        <ele>354.4</ele>
        <time>2026-07-02T11:49:49.000Z</time>
      </trkpt>
      <trkpt lat="45.65891" lon="3.19878">
        <ele>354.4</ele>
        <time>2026-07-02T11:49:51.000Z</time>
      </trkpt>
      <trkpt lat="45.65885" lon="3.19858">
        <ele>354.4</ele>
        <time>2026-07-02T11:49:53.000Z</time>
      </trkpt>
      <trkpt lat="45.65879" lon="3.1984">
        <ele>354.4</ele>
        <time>2026-07-02T11:49:55.000Z</time>
      </trkpt>
      <trkpt lat="45.65871" lon="3.19823">
        <ele>354.2</ele>
        <time>2026-07-02T11:49:57.000Z</time>
      </trkpt>
      <trkpt lat="45.65861" lon="3.19807">
        <ele>353.8</ele>
        <time>2026-07-02T11:49:59.000Z</time>
      </trkpt>
      <trkpt lat="45.65852" lon="3.1979">
        <ele>353.6</ele>
        <time>2026-07-02T11:50:01.000Z</time>
      </trkpt>
      <trkpt lat="45.65843" lon="3.19773">
        <ele>353.4</ele>
        <time>2026-07-02T11:50:03.000Z</time>
      </trkpt>
      <trkpt lat="45.65834" lon="3.19756">
        <ele>353.4</ele>
        <time>2026-07-02T11:50:05.000Z</time>
      </trkpt>
      <trkpt lat="45.65825" lon="3.19739">
        <ele>353.4</ele>
        <time>2026-07-02T11:50:07.000Z</time>
      </trkpt>
      <trkpt lat="45.65816" lon="3.19723">
        <ele>353.6</ele>
        <time>2026-07-02T11:50:09.000Z</time>
      </trkpt>
      <trkpt lat="45.65806" lon="3.19707">
        <ele>353.8</ele>
        <time>2026-07-02T11:50:11.000Z</time>
      </trkpt>
      <trkpt lat="45.65796" lon="3.19691">
        <ele>353.6</ele>
        <time>2026-07-02T11:50:13.000Z</time>
      </trkpt>
      <trkpt lat="45.65785" lon="3.19678">
        <ele>353.6</ele>
        <time>2026-07-02T11:50:15.000Z</time>
      </trkpt>
      <trkpt lat="45.65774" lon="3.19665">
        <ele>353.6</ele>
        <time>2026-07-02T11:50:17.000Z</time>
      </trkpt>
      <trkpt lat="45.65763" lon="3.19654">
        <ele>353.4</ele>
        <time>2026-07-02T11:50:19.000Z</time>
      </trkpt>
      <trkpt lat="45.6575" lon="3.19643">
        <ele>353.6</ele>
        <time>2026-07-02T11:50:21.000Z</time>
      </trkpt>
      <trkpt lat="45.65739" lon="3.19632">
        <ele>353.6</ele>
        <time>2026-07-02T11:50:23.000Z</time>
      </trkpt>
      <trkpt lat="45.65727" lon="3.19621">
        <ele>353.6</ele>
        <time>2026-07-02T11:50:25.000Z</time>
      </trkpt>
      <trkpt lat="45.65709" lon="3.19605">
        <ele>353.8</ele>
        <time>2026-07-02T11:50:28.000Z</time>
      </trkpt>
      <trkpt lat="45.65691" lon="3.19588">
        <ele>354</ele>
        <time>2026-07-02T11:50:31.000Z</time>
      </trkpt>
      <trkpt lat="45.65672" lon="3.19571">
        <ele>354</ele>
        <time>2026-07-02T11:50:33.000Z</time>
      </trkpt>
      <trkpt lat="45.6566" lon="3.1956">
        <ele>354.2</ele>
        <time>2026-07-02T11:50:35.000Z</time>
      </trkpt>
      <trkpt lat="45.65647" lon="3.19548">
        <ele>354.2</ele>
        <time>2026-07-02T11:50:37.000Z</time>
      </trkpt>
      <trkpt lat="45.65635" lon="3.19536">
        <ele>354</ele>
        <time>2026-07-02T11:50:39.000Z</time>
      </trkpt>
      <trkpt lat="45.65623" lon="3.19525">
        <ele>354.2</ele>
        <time>2026-07-02T11:50:41.000Z</time>
      </trkpt>
      <trkpt lat="45.6561" lon="3.19513">
        <ele>354.2</ele>
        <time>2026-07-02T11:50:43.000Z</time>
      </trkpt>
      <trkpt lat="45.65598" lon="3.19502">
        <ele>354.4</ele>
        <time>2026-07-02T11:50:45.000Z</time>
      </trkpt>
      <trkpt lat="45.65587" lon="3.19491">
        <ele>354.6</ele>
        <time>2026-07-02T11:50:47.000Z</time>
      </trkpt>
      <trkpt lat="45.65575" lon="3.19481">
        <ele>354.8</ele>
        <time>2026-07-02T11:50:49.000Z</time>
      </trkpt>
      <trkpt lat="45.65563" lon="3.19471">
        <ele>354.8</ele>
        <time>2026-07-02T11:50:51.000Z</time>
      </trkpt>
      <trkpt lat="45.65549" lon="3.19463">
        <ele>354.8</ele>
        <time>2026-07-02T11:50:53.000Z</time>
      </trkpt>
      <trkpt lat="45.65536" lon="3.19456">
        <ele>354.6</ele>
        <time>2026-07-02T11:50:55.000Z</time>
      </trkpt>
      <trkpt lat="45.65522" lon="3.19449">
        <ele>354.6</ele>
        <time>2026-07-02T11:50:57.000Z</time>
      </trkpt>
      <trkpt lat="45.65508" lon="3.19442">
        <ele>354.4</ele>
        <time>2026-07-02T11:50:59.000Z</time>
      </trkpt>
      <trkpt lat="45.65495" lon="3.19437">
        <ele>354.4</ele>
        <time>2026-07-02T11:51:01.000Z</time>
      </trkpt>
      <trkpt lat="45.65481" lon="3.19432">
        <ele>354.2</ele>
        <time>2026-07-02T11:51:03.000Z</time>
      </trkpt>
      <trkpt lat="45.65466" lon="3.19428">
        <ele>354.2</ele>
        <time>2026-07-02T11:51:05.000Z</time>
      </trkpt>
      <trkpt lat="45.65452" lon="3.19421">
        <ele>354.2</ele>
        <time>2026-07-02T11:51:07.000Z</time>
      </trkpt>
      <trkpt lat="45.65439" lon="3.19412">
        <ele>354.4</ele>
        <time>2026-07-02T11:51:10.000Z</time>
      </trkpt>
      <trkpt lat="45.65427" lon="3.19401">
        <ele>354.6</ele>
        <time>2026-07-02T11:51:12.000Z</time>
      </trkpt>
      <trkpt lat="45.65416" lon="3.19388">
        <ele>354.6</ele>
        <time>2026-07-02T11:51:14.000Z</time>
      </trkpt>
      <trkpt lat="45.65405" lon="3.19374">
        <ele>354.6</ele>
        <time>2026-07-02T11:51:16.000Z</time>
      </trkpt>
      <trkpt lat="45.65395" lon="3.1936">
        <ele>354.6</ele>
        <time>2026-07-02T11:51:18.000Z</time>
      </trkpt>
      <trkpt lat="45.65385" lon="3.19347">
        <ele>354.6</ele>
        <time>2026-07-02T11:51:20.000Z</time>
      </trkpt>
      <trkpt lat="45.65374" lon="3.19333">
        <ele>354.4</ele>
        <time>2026-07-02T11:51:22.000Z</time>
      </trkpt>
      <trkpt lat="45.65364" lon="3.19318">
        <ele>354.4</ele>
        <time>2026-07-02T11:51:24.000Z</time>
      </trkpt>
      <trkpt lat="45.65354" lon="3.19302">
        <ele>354.4</ele>
        <time>2026-07-02T11:51:26.000Z</time>
      </trkpt>
      <trkpt lat="45.65345" lon="3.19285">
        <ele>354.4</ele>
        <time>2026-07-02T11:51:28.000Z</time>
      </trkpt>
      <trkpt lat="45.65337" lon="3.19266">
        <ele>354.2</ele>
        <time>2026-07-02T11:51:30.000Z</time>
      </trkpt>
      <trkpt lat="45.6533" lon="3.19248">
        <ele>354.2</ele>
        <time>2026-07-02T11:51:32.000Z</time>
      </trkpt>
      <trkpt lat="45.65324" lon="3.19229">
        <ele>354.2</ele>
        <time>2026-07-02T11:51:34.000Z</time>
      </trkpt>
      <trkpt lat="45.65317" lon="3.1921">
        <ele>354.2</ele>
        <time>2026-07-02T11:51:36.000Z</time>
      </trkpt>
      <trkpt lat="45.6531" lon="3.19191">
        <ele>354.2</ele>
        <time>2026-07-02T11:51:38.000Z</time>
      </trkpt>
      <trkpt lat="45.65302" lon="3.19172">
        <ele>354</ele>
        <time>2026-07-02T11:51:40.000Z</time>
      </trkpt>
      <trkpt lat="45.65293" lon="3.19155">
        <ele>354</ele>
        <time>2026-07-02T11:51:42.000Z</time>
      </trkpt>
      <trkpt lat="45.65281" lon="3.1914">
        <ele>354.2</ele>
        <time>2026-07-02T11:51:44.000Z</time>
      </trkpt>
      <trkpt lat="45.65268" lon="3.19128">
        <ele>354.2</ele>
        <time>2026-07-02T11:51:46.000Z</time>
      </trkpt>
      <trkpt lat="45.65253" lon="3.19118">
        <ele>354.2</ele>
        <time>2026-07-02T11:51:48.000Z</time>
      </trkpt>
      <trkpt lat="45.65238" lon="3.19108">
        <ele>353.8</ele>
        <time>2026-07-02T11:51:50.000Z</time>
      </trkpt>
      <trkpt lat="45.65222" lon="3.19098">
        <ele>353.6</ele>
        <time>2026-07-02T11:51:52.000Z</time>
      </trkpt>
      <trkpt lat="45.65206" lon="3.19088">
        <ele>353.2</ele>
        <time>2026-07-02T11:51:54.000Z</time>
      </trkpt>
      <trkpt lat="45.6519" lon="3.19077">
        <ele>353</ele>
        <time>2026-07-02T11:51:56.000Z</time>
      </trkpt>
      <trkpt lat="45.65174" lon="3.19067">
        <ele>352.6</ele>
        <time>2026-07-02T11:51:58.000Z</time>
      </trkpt>
      <trkpt lat="45.65158" lon="3.19057">
        <ele>352.4</ele>
        <time>2026-07-02T11:52:00.000Z</time>
      </trkpt>
      <trkpt lat="45.65143" lon="3.19046">
        <ele>352.2</ele>
        <time>2026-07-02T11:52:02.000Z</time>
      </trkpt>
      <trkpt lat="45.65127" lon="3.19036">
        <ele>351.8</ele>
        <time>2026-07-02T11:52:04.000Z</time>
      </trkpt>
      <trkpt lat="45.65112" lon="3.19025">
        <ele>351.4</ele>
        <time>2026-07-02T11:52:06.000Z</time>
      </trkpt>
      <trkpt lat="45.65097" lon="3.19012">
        <ele>351.2</ele>
        <time>2026-07-02T11:52:08.000Z</time>
      </trkpt>
      <trkpt lat="45.65083" lon="3.18999">
        <ele>351</ele>
        <time>2026-07-02T11:52:10.000Z</time>
      </trkpt>
      <trkpt lat="45.6507" lon="3.18987">
        <ele>351</ele>
        <time>2026-07-02T11:52:12.000Z</time>
      </trkpt>
      <trkpt lat="45.65057" lon="3.18975">
        <ele>351</ele>
        <time>2026-07-02T11:52:14.000Z</time>
      </trkpt>
      <trkpt lat="45.65045" lon="3.18963">
        <ele>351</ele>
        <time>2026-07-02T11:52:16.000Z</time>
      </trkpt>
      <trkpt lat="45.65032" lon="3.18951">
        <ele>351.2</ele>
        <time>2026-07-02T11:52:18.000Z</time>
      </trkpt>
      <trkpt lat="45.6502" lon="3.18939">
        <ele>351.4</ele>
        <time>2026-07-02T11:52:20.000Z</time>
      </trkpt>
      <trkpt lat="45.65007" lon="3.18927">
        <ele>351.4</ele>
        <time>2026-07-02T11:52:22.000Z</time>
      </trkpt>
      <trkpt lat="45.64995" lon="3.18915">
        <ele>351.4</ele>
        <time>2026-07-02T11:52:24.000Z</time>
      </trkpt>
      <trkpt lat="45.64982" lon="3.18903">
        <ele>351.6</ele>
        <time>2026-07-02T11:52:26.000Z</time>
      </trkpt>
      <trkpt lat="45.64969" lon="3.18891">
        <ele>351.6</ele>
        <time>2026-07-02T11:52:28.000Z</time>
      </trkpt>
      <trkpt lat="45.64956" lon="3.18881">
        <ele>351.8</ele>
        <time>2026-07-02T11:52:30.000Z</time>
      </trkpt>
      <trkpt lat="45.64942" lon="3.18871">
        <ele>351.8</ele>
        <time>2026-07-02T11:52:32.000Z</time>
      </trkpt>
      <trkpt lat="45.64929" lon="3.18862">
        <ele>352</ele>
        <time>2026-07-02T11:52:34.000Z</time>
      </trkpt>
      <trkpt lat="45.64914" lon="3.18855">
        <ele>352</ele>
        <time>2026-07-02T11:52:36.000Z</time>
      </trkpt>
      <trkpt lat="45.649" lon="3.18847">
        <ele>351.8</ele>
        <time>2026-07-02T11:52:38.000Z</time>
      </trkpt>
      <trkpt lat="45.64885" lon="3.18839">
        <ele>351.8</ele>
        <time>2026-07-02T11:52:40.000Z</time>
      </trkpt>
      <trkpt lat="45.6487" lon="3.18831">
        <ele>351.8</ele>
        <time>2026-07-02T11:52:42.000Z</time>
      </trkpt>
      <trkpt lat="45.64856" lon="3.18822">
        <ele>352</ele>
        <time>2026-07-02T11:52:44.000Z</time>
      </trkpt>
      <trkpt lat="45.64841" lon="3.18811">
        <ele>352.2</ele>
        <time>2026-07-02T11:52:46.000Z</time>
      </trkpt>
      <trkpt lat="45.64828" lon="3.188">
        <ele>352.2</ele>
        <time>2026-07-02T11:52:48.000Z</time>
      </trkpt>
      <trkpt lat="45.64816" lon="3.18788">
        <ele>352.2</ele>
        <time>2026-07-02T11:52:50.000Z</time>
      </trkpt>
      <trkpt lat="45.64803" lon="3.18777">
        <ele>352.4</ele>
        <time>2026-07-02T11:52:52.000Z</time>
      </trkpt>
      <trkpt lat="45.6479" lon="3.18769">
        <ele>352.6</ele>
        <time>2026-07-02T11:52:54.000Z</time>
      </trkpt>
      <trkpt lat="45.64776" lon="3.18765">
        <ele>352.8</ele>
        <time>2026-07-02T11:52:56.000Z</time>
      </trkpt>
      <trkpt lat="45.64762" lon="3.18763">
        <ele>353</ele>
        <time>2026-07-02T11:52:58.000Z</time>
      </trkpt>
      <trkpt lat="45.64749" lon="3.18763">
        <ele>353.2</ele>
        <time>2026-07-02T11:53:00.000Z</time>
      </trkpt>
      <trkpt lat="45.64736" lon="3.18763">
        <ele>353.6</ele>
        <time>2026-07-02T11:53:02.000Z</time>
      </trkpt>
      <trkpt lat="45.64724" lon="3.18763">
        <ele>353.8</ele>
        <time>2026-07-02T11:53:04.000Z</time>
      </trkpt>
      <trkpt lat="45.64712" lon="3.18762">
        <ele>354.2</ele>
        <time>2026-07-02T11:53:06.000Z</time>
      </trkpt>
      <trkpt lat="45.647" lon="3.18761">
        <ele>354.8</ele>
        <time>2026-07-02T11:53:08.000Z</time>
      </trkpt>
      <trkpt lat="45.64689" lon="3.18755">
        <ele>355.2</ele>
        <time>2026-07-02T11:53:10.000Z</time>
      </trkpt>
      <trkpt lat="45.64679" lon="3.18747">
        <ele>355.8</ele>
        <time>2026-07-02T11:53:12.000Z</time>
      </trkpt>
      <trkpt lat="45.64671" lon="3.18736">
        <ele>356.8</ele>
        <time>2026-07-02T11:53:14.000Z</time>
      </trkpt>
      <trkpt lat="45.64666" lon="3.18724">
        <ele>357.2</ele>
        <time>2026-07-02T11:53:16.000Z</time>
      </trkpt>
      <trkpt lat="45.64661" lon="3.18712">
        <ele>357.8</ele>
        <time>2026-07-02T11:53:18.000Z</time>
      </trkpt>
      <trkpt lat="45.64658" lon="3.18699">
        <ele>358.2</ele>
        <time>2026-07-02T11:53:20.000Z</time>
      </trkpt>
      <trkpt lat="45.64655" lon="3.18686">
        <ele>358.6</ele>
        <time>2026-07-02T11:53:22.000Z</time>
      </trkpt>
      <trkpt lat="45.64652" lon="3.18674">
        <ele>358.6</ele>
        <time>2026-07-02T11:53:24.000Z</time>
      </trkpt>
      <trkpt lat="45.64649" lon="3.18662">
        <ele>358.8</ele>
        <time>2026-07-02T11:53:26.000Z</time>
      </trkpt>
      <trkpt lat="45.64646" lon="3.18649">
        <ele>359</ele>
        <time>2026-07-02T11:53:28.000Z</time>
      </trkpt>
      <trkpt lat="45.64643" lon="3.18637">
        <ele>359</ele>
        <time>2026-07-02T11:53:30.000Z</time>
      </trkpt>
      <trkpt lat="45.6464" lon="3.18624">
        <ele>359</ele>
        <time>2026-07-02T11:53:32.000Z</time>
      </trkpt>
      <trkpt lat="45.64637" lon="3.18611">
        <ele>358.8</ele>
        <time>2026-07-02T11:53:34.000Z</time>
      </trkpt>
      <trkpt lat="45.64634" lon="3.18597">
        <ele>358.8</ele>
        <time>2026-07-02T11:53:36.000Z</time>
      </trkpt>
      <trkpt lat="45.64631" lon="3.18583">
        <ele>359</ele>
        <time>2026-07-02T11:53:38.000Z</time>
      </trkpt>
      <trkpt lat="45.64628" lon="3.18569">
        <ele>359</ele>
        <time>2026-07-02T11:53:40.000Z</time>
      </trkpt>
      <trkpt lat="45.64625" lon="3.18555">
        <ele>359.2</ele>
        <time>2026-07-02T11:53:42.000Z</time>
      </trkpt>
      <trkpt lat="45.64622" lon="3.18541">
        <ele>359.4</ele>
        <time>2026-07-02T11:53:44.000Z</time>
      </trkpt>
      <trkpt lat="45.64619" lon="3.18528">
        <ele>359.8</ele>
        <time>2026-07-02T11:53:46.000Z</time>
      </trkpt>
      <trkpt lat="45.64615" lon="3.18514">
        <ele>360</ele>
        <time>2026-07-02T11:53:48.000Z</time>
      </trkpt>
      <trkpt lat="45.64612" lon="3.18501">
        <ele>360.2</ele>
        <time>2026-07-02T11:53:50.000Z</time>
      </trkpt>
      <trkpt lat="45.64609" lon="3.18487">
        <ele>360.6</ele>
        <time>2026-07-02T11:53:52.000Z</time>
      </trkpt>
      <trkpt lat="45.64606" lon="3.18473">
        <ele>360.8</ele>
        <time>2026-07-02T11:53:54.000Z</time>
      </trkpt>
      <trkpt lat="45.64603" lon="3.18458">
        <ele>361.2</ele>
        <time>2026-07-02T11:53:56.000Z</time>
      </trkpt>
      <trkpt lat="45.646" lon="3.18444">
        <ele>361.6</ele>
        <time>2026-07-02T11:53:58.000Z</time>
      </trkpt>
      <trkpt lat="45.64598" lon="3.18429">
        <ele>361.8</ele>
        <time>2026-07-02T11:54:00.000Z</time>
      </trkpt>
      <trkpt lat="45.64596" lon="3.18415">
        <ele>361.8</ele>
        <time>2026-07-02T11:54:02.000Z</time>
      </trkpt>
      <trkpt lat="45.64595" lon="3.184">
        <ele>362</ele>
        <time>2026-07-02T11:54:04.000Z</time>
      </trkpt>
      <trkpt lat="45.64594" lon="3.18385">
        <ele>362.2</ele>
        <time>2026-07-02T11:54:06.000Z</time>
      </trkpt>
      <trkpt lat="45.64593" lon="3.18371">
        <ele>362.2</ele>
        <time>2026-07-02T11:54:08.000Z</time>
      </trkpt>
      <trkpt lat="45.64593" lon="3.18357">
        <ele>362.4</ele>
        <time>2026-07-02T11:54:10.000Z</time>
      </trkpt>
      <trkpt lat="45.64593" lon="3.18342">
        <ele>362.6</ele>
        <time>2026-07-02T11:54:12.000Z</time>
      </trkpt>
      <trkpt lat="45.64592" lon="3.18328">
        <ele>363</ele>
        <time>2026-07-02T11:54:14.000Z</time>
      </trkpt>
      <trkpt lat="45.64592" lon="3.18314">
        <ele>363.2</ele>
        <time>2026-07-02T11:54:16.000Z</time>
      </trkpt>
      <trkpt lat="45.64592" lon="3.183">
        <ele>363.4</ele>
        <time>2026-07-02T11:54:18.000Z</time>
      </trkpt>
      <trkpt lat="45.64592" lon="3.18286">
        <ele>363.6</ele>
        <time>2026-07-02T11:54:20.000Z</time>
      </trkpt>
      <trkpt lat="45.64591" lon="3.18273">
        <ele>364.2</ele>
        <time>2026-07-02T11:54:22.000Z</time>
      </trkpt>
      <trkpt lat="45.64591" lon="3.1826">
        <ele>364.4</ele>
        <time>2026-07-02T11:54:24.000Z</time>
      </trkpt>
      <trkpt lat="45.64591" lon="3.18246">
        <ele>365</ele>
        <time>2026-07-02T11:54:26.000Z</time>
      </trkpt>
      <trkpt lat="45.64591" lon="3.18232">
        <ele>365.2</ele>
        <time>2026-07-02T11:54:28.000Z</time>
      </trkpt>
      <trkpt lat="45.64591" lon="3.18219">
        <ele>365.4</ele>
        <time>2026-07-02T11:54:30.000Z</time>
      </trkpt>
      <trkpt lat="45.6459" lon="3.18206">
        <ele>365.8</ele>
        <time>2026-07-02T11:54:32.000Z</time>
      </trkpt>
      <trkpt lat="45.64589" lon="3.18193">
        <ele>366</ele>
        <time>2026-07-02T11:54:34.000Z</time>
      </trkpt>
      <trkpt lat="45.64589" lon="3.18181">
        <ele>366.4</ele>
        <time>2026-07-02T11:54:36.000Z</time>
      </trkpt>
      <trkpt lat="45.64588" lon="3.18169">
        <ele>366.8</ele>
        <time>2026-07-02T11:54:38.000Z</time>
      </trkpt>
      <trkpt lat="45.64586" lon="3.18157">
        <ele>367.2</ele>
        <time>2026-07-02T11:54:40.000Z</time>
      </trkpt>
      <trkpt lat="45.64585" lon="3.18145">
        <ele>367.4</ele>
        <time>2026-07-02T11:54:42.000Z</time>
      </trkpt>
      <trkpt lat="45.64583" lon="3.18133">
        <ele>367.8</ele>
        <time>2026-07-02T11:54:44.000Z</time>
      </trkpt>
      <trkpt lat="45.64582" lon="3.18121">
        <ele>367.8</ele>
        <time>2026-07-02T11:54:46.000Z</time>
      </trkpt>
      <trkpt lat="45.6458" lon="3.18109">
        <ele>368</ele>
        <time>2026-07-02T11:54:48.000Z</time>
      </trkpt>
      <trkpt lat="45.64578" lon="3.18097">
        <ele>368.2</ele>
        <time>2026-07-02T11:54:50.000Z</time>
      </trkpt>
      <trkpt lat="45.64577" lon="3.18085">
        <ele>368.2</ele>
        <time>2026-07-02T11:54:52.000Z</time>
      </trkpt>
      <trkpt lat="45.64575" lon="3.18072">
        <ele>368.4</ele>
        <time>2026-07-02T11:54:54.000Z</time>
      </trkpt>
      <trkpt lat="45.64573" lon="3.18058">
        <ele>368.4</ele>
        <time>2026-07-02T11:54:56.000Z</time>
      </trkpt>
      <trkpt lat="45.64571" lon="3.18044">
        <ele>368.6</ele>
        <time>2026-07-02T11:54:58.000Z</time>
      </trkpt>
      <trkpt lat="45.64569" lon="3.18027">
        <ele>368.6</ele>
        <time>2026-07-02T11:55:00.000Z</time>
      </trkpt>
      <trkpt lat="45.64567" lon="3.1801">
        <ele>368.6</ele>
        <time>2026-07-02T11:55:02.000Z</time>
      </trkpt>
      <trkpt lat="45.64565" lon="3.17993">
        <ele>368.4</ele>
        <time>2026-07-02T11:55:04.000Z</time>
      </trkpt>
      <trkpt lat="45.64563" lon="3.17975">
        <ele>368.4</ele>
        <time>2026-07-02T11:55:06.000Z</time>
      </trkpt>
      <trkpt lat="45.6456" lon="3.17958">
        <ele>368.2</ele>
        <time>2026-07-02T11:55:08.000Z</time>
      </trkpt>
      <trkpt lat="45.64558" lon="3.1794">
        <ele>368</ele>
        <time>2026-07-02T11:55:10.000Z</time>
      </trkpt>
      <trkpt lat="45.64553" lon="3.17923">
        <ele>367.8</ele>
        <time>2026-07-02T11:55:12.000Z</time>
      </trkpt>
      <trkpt lat="45.64548" lon="3.17907">
        <ele>367.6</ele>
        <time>2026-07-02T11:55:14.000Z</time>
      </trkpt>
      <trkpt lat="45.6454" lon="3.17892">
        <ele>367.2</ele>
        <time>2026-07-02T11:55:16.000Z</time>
      </trkpt>
      <trkpt lat="45.6453" lon="3.17877">
        <ele>367</ele>
        <time>2026-07-02T11:55:18.000Z</time>
      </trkpt>
      <trkpt lat="45.64517" lon="3.17864">
        <ele>366.8</ele>
        <time>2026-07-02T11:55:20.000Z</time>
      </trkpt>
      <trkpt lat="45.64504" lon="3.17854">
        <ele>366.8</ele>
        <time>2026-07-02T11:55:22.000Z</time>
      </trkpt>
      <trkpt lat="45.6449" lon="3.17847">
        <ele>366.8</ele>
        <time>2026-07-02T11:55:24.000Z</time>
      </trkpt>
      <trkpt lat="45.64477" lon="3.17841">
        <ele>366.8</ele>
        <time>2026-07-02T11:55:26.000Z</time>
      </trkpt>
      <trkpt lat="45.64464" lon="3.17835">
        <ele>366.8</ele>
        <time>2026-07-02T11:55:28.000Z</time>
      </trkpt>
      <trkpt lat="45.64451" lon="3.17829">
        <ele>366.8</ele>
        <time>2026-07-02T11:55:30.000Z</time>
      </trkpt>
      <trkpt lat="45.64439" lon="3.17822">
        <ele>366.8</ele>
        <time>2026-07-02T11:55:32.000Z</time>
      </trkpt>
      <trkpt lat="45.6443" lon="3.17812">
        <ele>366.8</ele>
        <time>2026-07-02T11:55:34.000Z</time>
      </trkpt>
      <trkpt lat="45.64422" lon="3.17801">
        <ele>367</ele>
        <time>2026-07-02T11:55:36.000Z</time>
      </trkpt>
      <trkpt lat="45.64416" lon="3.17789">
        <ele>367</ele>
        <time>2026-07-02T11:55:38.000Z</time>
      </trkpt>
      <trkpt lat="45.64411" lon="3.17778">
        <ele>367.2</ele>
        <time>2026-07-02T11:55:40.000Z</time>
      </trkpt>
      <trkpt lat="45.64407" lon="3.17769">
        <ele>367.2</ele>
        <time>2026-07-02T11:55:42.000Z</time>
      </trkpt>
      <trkpt lat="45.64405" lon="3.17761">
        <ele>367.4</ele>
        <time>2026-07-02T11:55:44.000Z</time>
      </trkpt>
      <trkpt lat="45.64402" lon="3.17755">
        <ele>367.4</ele>
        <time>2026-07-02T11:55:46.000Z</time>
      </trkpt>
      <trkpt lat="45.64395" lon="3.17755">
        <ele>367.6</ele>
        <time>2026-07-02T11:55:48.000Z</time>
      </trkpt>
      <trkpt lat="45.64386" lon="3.1776">
        <ele>368.2</ele>
        <time>2026-07-02T11:55:50.000Z</time>
      </trkpt>
      <trkpt lat="45.64377" lon="3.17768">
        <ele>368.4</ele>
        <time>2026-07-02T11:55:52.000Z</time>
      </trkpt>
      <trkpt lat="45.64367" lon="3.17777">
        <ele>368.6</ele>
        <time>2026-07-02T11:55:54.000Z</time>
      </trkpt>
      <trkpt lat="45.64357" lon="3.17786">
        <ele>368.8</ele>
        <time>2026-07-02T11:55:56.000Z</time>
      </trkpt>
      <trkpt lat="45.64346" lon="3.17795">
        <ele>368.8</ele>
        <time>2026-07-02T11:55:58.000Z</time>
      </trkpt>
      <trkpt lat="45.64336" lon="3.17805">
        <ele>368.8</ele>
        <time>2026-07-02T11:56:00.000Z</time>
      </trkpt>
      <trkpt lat="45.64325" lon="3.17815">
        <ele>368.8</ele>
        <time>2026-07-02T11:56:02.000Z</time>
      </trkpt>
      <trkpt lat="45.64314" lon="3.17825">
        <ele>368.8</ele>
        <time>2026-07-02T11:56:04.000Z</time>
      </trkpt>
      <trkpt lat="45.64302" lon="3.17835">
        <ele>368.8</ele>
        <time>2026-07-02T11:56:06.000Z</time>
      </trkpt>
      <trkpt lat="45.64291" lon="3.17845">
        <ele>368.8</ele>
        <time>2026-07-02T11:56:08.000Z</time>
      </trkpt>
      <trkpt lat="45.6428" lon="3.17855">
        <ele>368.8</ele>
        <time>2026-07-02T11:56:10.000Z</time>
      </trkpt>
      <trkpt lat="45.6427" lon="3.17865">
        <ele>369</ele>
        <time>2026-07-02T11:56:12.000Z</time>
      </trkpt>
      <trkpt lat="45.64259" lon="3.17874">
        <ele>369.2</ele>
        <time>2026-07-02T11:56:14.000Z</time>
      </trkpt>
      <trkpt lat="45.64248" lon="3.17884">
        <ele>369.6</ele>
        <time>2026-07-02T11:56:16.000Z</time>
      </trkpt>
      <trkpt lat="45.64237" lon="3.17894">
        <ele>369.6</ele>
        <time>2026-07-02T11:56:18.000Z</time>
      </trkpt>
      <trkpt lat="45.64226" lon="3.17904">
        <ele>369.6</ele>
        <time>2026-07-02T11:56:20.000Z</time>
      </trkpt>
      <trkpt lat="45.64215" lon="3.17914">
        <ele>369.8</ele>
        <time>2026-07-02T11:56:22.000Z</time>
      </trkpt>
      <trkpt lat="45.64205" lon="3.17924">
        <ele>370</ele>
        <time>2026-07-02T11:56:24.000Z</time>
      </trkpt>
      <trkpt lat="45.64194" lon="3.17934">
        <ele>370</ele>
        <time>2026-07-02T11:56:26.000Z</time>
      </trkpt>
      <trkpt lat="45.64183" lon="3.17944">
        <ele>369.8</ele>
        <time>2026-07-02T11:56:28.000Z</time>
      </trkpt>
      <trkpt lat="45.64172" lon="3.17953">
        <ele>370</ele>
        <time>2026-07-02T11:56:30.000Z</time>
      </trkpt>
      <trkpt lat="45.64161" lon="3.17963">
        <ele>369.6</ele>
        <time>2026-07-02T11:56:32.000Z</time>
      </trkpt>
      <trkpt lat="45.64151" lon="3.17972">
        <ele>369.6</ele>
        <time>2026-07-02T11:56:34.000Z</time>
      </trkpt>
      <trkpt lat="45.6414" lon="3.17982">
        <ele>369.8</ele>
        <time>2026-07-02T11:56:36.000Z</time>
      </trkpt>
      <trkpt lat="45.64129" lon="3.17991">
        <ele>369.8</ele>
        <time>2026-07-02T11:56:38.000Z</time>
      </trkpt>
      <trkpt lat="45.64118" lon="3.18001">
        <ele>369.8</ele>
        <time>2026-07-02T11:56:40.000Z</time>
      </trkpt>
      <trkpt lat="45.64107" lon="3.18011">
        <ele>370</ele>
        <time>2026-07-02T11:56:42.000Z</time>
      </trkpt>
      <trkpt lat="45.64097" lon="3.18021">
        <ele>370</ele>
        <time>2026-07-02T11:56:44.000Z</time>
      </trkpt>
      <trkpt lat="45.64086" lon="3.18031">
        <ele>370</ele>
        <time>2026-07-02T11:56:46.000Z</time>
      </trkpt>
      <trkpt lat="45.64074" lon="3.18041">
        <ele>370.2</ele>
        <time>2026-07-02T11:56:48.000Z</time>
      </trkpt>
      <trkpt lat="45.64063" lon="3.1805">
        <ele>370.2</ele>
        <time>2026-07-02T11:56:50.000Z</time>
      </trkpt>
      <trkpt lat="45.64052" lon="3.1806">
        <ele>370.4</ele>
        <time>2026-07-02T11:56:52.000Z</time>
      </trkpt>
      <trkpt lat="45.64041" lon="3.1807">
        <ele>370.6</ele>
        <time>2026-07-02T11:56:54.000Z</time>
      </trkpt>
      <trkpt lat="45.64031" lon="3.18079">
        <ele>370.8</ele>
        <time>2026-07-02T11:56:56.000Z</time>
      </trkpt>
      <trkpt lat="45.64021" lon="3.18088">
        <ele>371.2</ele>
        <time>2026-07-02T11:56:58.000Z</time>
      </trkpt>
      <trkpt lat="45.64011" lon="3.18098">
        <ele>371.4</ele>
        <time>2026-07-02T11:57:00.000Z</time>
      </trkpt>
      <trkpt lat="45.64" lon="3.18107">
        <ele>371.6</ele>
        <time>2026-07-02T11:57:02.000Z</time>
      </trkpt>
      <trkpt lat="45.6399" lon="3.18116">
        <ele>371.6</ele>
        <time>2026-07-02T11:57:04.000Z</time>
      </trkpt>
      <trkpt lat="45.6398" lon="3.18125">
        <ele>371.8</ele>
        <time>2026-07-02T11:57:06.000Z</time>
      </trkpt>
      <trkpt lat="45.63971" lon="3.18133">
        <ele>372</ele>
        <time>2026-07-02T11:57:08.000Z</time>
      </trkpt>
      <trkpt lat="45.63961" lon="3.18142">
        <ele>372.2</ele>
        <time>2026-07-02T11:57:10.000Z</time>
      </trkpt>
      <trkpt lat="45.63952" lon="3.1815">
        <ele>372.4</ele>
        <time>2026-07-02T11:57:12.000Z</time>
      </trkpt>
      <trkpt lat="45.63942" lon="3.18159">
        <ele>372.6</ele>
        <time>2026-07-02T11:57:14.000Z</time>
      </trkpt>
      <trkpt lat="45.63932" lon="3.18167">
        <ele>372.6</ele>
        <time>2026-07-02T11:57:16.000Z</time>
      </trkpt>
      <trkpt lat="45.63923" lon="3.18176">
        <ele>372.8</ele>
        <time>2026-07-02T11:57:18.000Z</time>
      </trkpt>
      <trkpt lat="45.63913" lon="3.18185">
        <ele>372.8</ele>
        <time>2026-07-02T11:57:20.000Z</time>
      </trkpt>
      <trkpt lat="45.63903" lon="3.18194">
        <ele>373</ele>
        <time>2026-07-02T11:57:22.000Z</time>
      </trkpt>
      <trkpt lat="45.63893" lon="3.18202">
        <ele>373.2</ele>
        <time>2026-07-02T11:57:24.000Z</time>
      </trkpt>
      <trkpt lat="45.63884" lon="3.1821">
        <ele>373.4</ele>
        <time>2026-07-02T11:57:26.000Z</time>
      </trkpt>
      <trkpt lat="45.63875" lon="3.18219">
        <ele>373.8</ele>
        <time>2026-07-02T11:57:28.000Z</time>
      </trkpt>
      <trkpt lat="45.63865" lon="3.18227">
        <ele>374</ele>
        <time>2026-07-02T11:57:30.000Z</time>
      </trkpt>
      <trkpt lat="45.63856" lon="3.18236">
        <ele>374.4</ele>
        <time>2026-07-02T11:57:32.000Z</time>
      </trkpt>
      <trkpt lat="45.63846" lon="3.18245">
        <ele>374.8</ele>
        <time>2026-07-02T11:57:34.000Z</time>
      </trkpt>
      <trkpt lat="45.63836" lon="3.18253">
        <ele>375.2</ele>
        <time>2026-07-02T11:57:36.000Z</time>
      </trkpt>
      <trkpt lat="45.63826" lon="3.18262">
        <ele>375.6</ele>
        <time>2026-07-02T11:57:38.000Z</time>
      </trkpt>
      <trkpt lat="45.63816" lon="3.18271">
        <ele>375.8</ele>
        <time>2026-07-02T11:57:40.000Z</time>
      </trkpt>
      <trkpt lat="45.63806" lon="3.1828">
        <ele>376</ele>
        <time>2026-07-02T11:57:42.000Z</time>
      </trkpt>
      <trkpt lat="45.63797" lon="3.18288">
        <ele>376.4</ele>
        <time>2026-07-02T11:57:44.000Z</time>
      </trkpt>
      <trkpt lat="45.63788" lon="3.18297">
        <ele>376.6</ele>
        <time>2026-07-02T11:57:46.000Z</time>
      </trkpt>
      <trkpt lat="45.63778" lon="3.18305">
        <ele>376.8</ele>
        <time>2026-07-02T11:57:48.000Z</time>
      </trkpt>
      <trkpt lat="45.63769" lon="3.18314">
        <ele>376.8</ele>
        <time>2026-07-02T11:57:50.000Z</time>
      </trkpt>
      <trkpt lat="45.63759" lon="3.18322">
        <ele>377</ele>
        <time>2026-07-02T11:57:52.000Z</time>
      </trkpt>
      <trkpt lat="45.63749" lon="3.18331">
        <ele>377.2</ele>
        <time>2026-07-02T11:57:54.000Z</time>
      </trkpt>
      <trkpt lat="45.63739" lon="3.1834">
        <ele>377.6</ele>
        <time>2026-07-02T11:57:56.000Z</time>
      </trkpt>
      <trkpt lat="45.6373" lon="3.18349">
        <ele>377.8</ele>
        <time>2026-07-02T11:57:58.000Z</time>
      </trkpt>
      <trkpt lat="45.6372" lon="3.18358">
        <ele>377.8</ele>
        <time>2026-07-02T11:58:00.000Z</time>
      </trkpt>
      <trkpt lat="45.63711" lon="3.18366">
        <ele>378</ele>
        <time>2026-07-02T11:58:02.000Z</time>
      </trkpt>
      <trkpt lat="45.63702" lon="3.18373">
        <ele>378.2</ele>
        <time>2026-07-02T11:58:04.000Z</time>
      </trkpt>
      <trkpt lat="45.63694" lon="3.18381">
        <ele>378.4</ele>
        <time>2026-07-02T11:58:06.000Z</time>
      </trkpt>
      <trkpt lat="45.63685" lon="3.18389">
        <ele>378.6</ele>
        <time>2026-07-02T11:58:08.000Z</time>
      </trkpt>
      <trkpt lat="45.63677" lon="3.18396">
        <ele>379</ele>
        <time>2026-07-02T11:58:10.000Z</time>
      </trkpt>
      <trkpt lat="45.63669" lon="3.18404">
        <ele>379.2</ele>
        <time>2026-07-02T11:58:12.000Z</time>
      </trkpt>
      <trkpt lat="45.63661" lon="3.18412">
        <ele>379.6</ele>
        <time>2026-07-02T11:58:14.000Z</time>
      </trkpt>
      <trkpt lat="45.63654" lon="3.1842">
        <ele>379.8</ele>
        <time>2026-07-02T11:58:16.000Z</time>
      </trkpt>
      <trkpt lat="45.63646" lon="3.18425">
        <ele>380.2</ele>
        <time>2026-07-02T11:58:18.000Z</time>
      </trkpt>
      <trkpt lat="45.63638" lon="3.1843">
        <ele>380.6</ele>
        <time>2026-07-02T11:58:20.000Z</time>
      </trkpt>
      <trkpt lat="45.63631" lon="3.18437">
        <ele>381</ele>
        <time>2026-07-02T11:58:22.000Z</time>
      </trkpt>
      <trkpt lat="45.63624" lon="3.18443">
        <ele>381.4</ele>
        <time>2026-07-02T11:58:24.000Z</time>
      </trkpt>
      <trkpt lat="45.63617" lon="3.18449">
        <ele>382</ele>
        <time>2026-07-02T11:58:26.000Z</time>
      </trkpt>
      <trkpt lat="45.6361" lon="3.18456">
        <ele>382.2</ele>
        <time>2026-07-02T11:58:28.000Z</time>
      </trkpt>
      <trkpt lat="45.63604" lon="3.18462">
        <ele>382.8</ele>
        <time>2026-07-02T11:58:30.000Z</time>
      </trkpt>
      <trkpt lat="45.63597" lon="3.18467">
        <ele>383.2</ele>
        <time>2026-07-02T11:58:32.000Z</time>
      </trkpt>
      <trkpt lat="45.63591" lon="3.18473">
        <ele>383.8</ele>
        <time>2026-07-02T11:58:34.000Z</time>
      </trkpt>
      <trkpt lat="45.63584" lon="3.18479">
        <ele>384.2</ele>
        <time>2026-07-02T11:58:36.000Z</time>
      </trkpt>
      <trkpt lat="45.63577" lon="3.18485">
        <ele>385</ele>
        <time>2026-07-02T11:58:38.000Z</time>
      </trkpt>
      <trkpt lat="45.6357" lon="3.18491">
        <ele>385.4</ele>
        <time>2026-07-02T11:58:40.000Z</time>
      </trkpt>
      <trkpt lat="45.63564" lon="3.18497">
        <ele>385.8</ele>
        <time>2026-07-02T11:58:42.000Z</time>
      </trkpt>
      <trkpt lat="45.63557" lon="3.18503">
        <ele>386</ele>
        <time>2026-07-02T11:58:44.000Z</time>
      </trkpt>
      <trkpt lat="45.6355" lon="3.18509">
        <ele>386.2</ele>
        <time>2026-07-02T11:58:46.000Z</time>
      </trkpt>
      <trkpt lat="45.63542" lon="3.18515">
        <ele>386.6</ele>
        <time>2026-07-02T11:58:48.000Z</time>
      </trkpt>
      <trkpt lat="45.63535" lon="3.18521">
        <ele>386.8</ele>
        <time>2026-07-02T11:58:50.000Z</time>
      </trkpt>
      <trkpt lat="45.63528" lon="3.18527">
        <ele>387</ele>
        <time>2026-07-02T11:58:52.000Z</time>
      </trkpt>
      <trkpt lat="45.63521" lon="3.18534">
        <ele>387.2</ele>
        <time>2026-07-02T11:58:54.000Z</time>
      </trkpt>
      <trkpt lat="45.63514" lon="3.1854">
        <ele>387.4</ele>
        <time>2026-07-02T11:58:56.000Z</time>
      </trkpt>
      <trkpt lat="45.63507" lon="3.18547">
        <ele>387.6</ele>
        <time>2026-07-02T11:58:58.000Z</time>
      </trkpt>
      <trkpt lat="45.635" lon="3.18553">
        <ele>387.8</ele>
        <time>2026-07-02T11:59:00.000Z</time>
      </trkpt>
      <trkpt lat="45.63493" lon="3.18559">
        <ele>388</ele>
        <time>2026-07-02T11:59:02.000Z</time>
      </trkpt>
      <trkpt lat="45.63486" lon="3.18566">
        <ele>388.2</ele>
        <time>2026-07-02T11:59:04.000Z</time>
      </trkpt>
      <trkpt lat="45.63479" lon="3.18572">
        <ele>388.4</ele>
        <time>2026-07-02T11:59:06.000Z</time>
      </trkpt>
      <trkpt lat="45.63472" lon="3.18578">
        <ele>388.8</ele>
        <time>2026-07-02T11:59:08.000Z</time>
      </trkpt>
      <trkpt lat="45.63464" lon="3.18585">
        <ele>389</ele>
        <time>2026-07-02T11:59:10.000Z</time>
      </trkpt>
      <trkpt lat="45.63457" lon="3.18592">
        <ele>389.2</ele>
        <time>2026-07-02T11:59:12.000Z</time>
      </trkpt>
      <trkpt lat="45.63449" lon="3.18599">
        <ele>389.4</ele>
        <time>2026-07-02T11:59:14.000Z</time>
      </trkpt>
      <trkpt lat="45.63442" lon="3.18605">
        <ele>389.6</ele>
        <time>2026-07-02T11:59:16.000Z</time>
      </trkpt>
      <trkpt lat="45.63435" lon="3.18612">
        <ele>389.8</ele>
        <time>2026-07-02T11:59:18.000Z</time>
      </trkpt>
      <trkpt lat="45.63427" lon="3.18619">
        <ele>390.2</ele>
        <time>2026-07-02T11:59:20.000Z</time>
      </trkpt>
      <trkpt lat="45.63419" lon="3.18626">
        <ele>390.4</ele>
        <time>2026-07-02T11:59:22.000Z</time>
      </trkpt>
      <trkpt lat="45.63412" lon="3.18632">
        <ele>390.6</ele>
        <time>2026-07-02T11:59:24.000Z</time>
      </trkpt>
      <trkpt lat="45.63404" lon="3.18639">
        <ele>390.8</ele>
        <time>2026-07-02T11:59:26.000Z</time>
      </trkpt>
      <trkpt lat="45.63397" lon="3.18645">
        <ele>391</ele>
        <time>2026-07-02T11:59:28.000Z</time>
      </trkpt>
      <trkpt lat="45.63389" lon="3.18652">
        <ele>391.4</ele>
        <time>2026-07-02T11:59:30.000Z</time>
      </trkpt>
      <trkpt lat="45.63381" lon="3.18659">
        <ele>391.6</ele>
        <time>2026-07-02T11:59:32.000Z</time>
      </trkpt>
      <trkpt lat="45.63373" lon="3.18666">
        <ele>392</ele>
        <time>2026-07-02T11:59:34.000Z</time>
      </trkpt>
      <trkpt lat="45.63365" lon="3.18673">
        <ele>392</ele>
        <time>2026-07-02T11:59:36.000Z</time>
      </trkpt>
      <trkpt lat="45.63358" lon="3.1868">
        <ele>392.2</ele>
        <time>2026-07-02T11:59:38.000Z</time>
      </trkpt>
      <trkpt lat="45.63351" lon="3.18682">
        <ele>392.4</ele>
        <time>2026-07-02T11:59:40.000Z</time>
      </trkpt>
      <trkpt lat="45.63346" lon="3.18676">
        <ele>392.6</ele>
        <time>2026-07-02T11:59:42.000Z</time>
      </trkpt>
      <trkpt lat="45.63341" lon="3.18665">
        <ele>392.8</ele>
        <time>2026-07-02T11:59:44.000Z</time>
      </trkpt>
      <trkpt lat="45.63337" lon="3.18655">
        <ele>392.8</ele>
        <time>2026-07-02T11:59:46.000Z</time>
      </trkpt>
      <trkpt lat="45.63331" lon="3.18645">
        <ele>393.2</ele>
        <time>2026-07-02T11:59:48.000Z</time>
      </trkpt>
      <trkpt lat="45.63325" lon="3.18634">
        <ele>393.2</ele>
        <time>2026-07-02T11:59:50.000Z</time>
      </trkpt>
      <trkpt lat="45.63317" lon="3.18623">
        <ele>393.2</ele>
        <time>2026-07-02T11:59:52.000Z</time>
      </trkpt>
      <trkpt lat="45.63308" lon="3.18613">
        <ele>392.8</ele>
        <time>2026-07-02T11:59:54.000Z</time>
      </trkpt>
      <trkpt lat="45.63297" lon="3.18602">
        <ele>392.4</ele>
        <time>2026-07-02T11:59:56.000Z</time>
      </trkpt>
      <trkpt lat="45.63286" lon="3.18592">
        <ele>391.8</ele>
        <time>2026-07-02T11:59:58.000Z</time>
      </trkpt>
      <trkpt lat="45.63274" lon="3.18582">
        <ele>391.2</ele>
        <time>2026-07-02T12:00:00.000Z</time>
      </trkpt>
      <trkpt lat="45.63262" lon="3.18572">
        <ele>390.8</ele>
        <time>2026-07-02T12:00:02.000Z</time>
      </trkpt>
      <trkpt lat="45.63251" lon="3.18564">
        <ele>390.4</ele>
        <time>2026-07-02T12:00:04.000Z</time>
      </trkpt>
      <trkpt lat="45.63238" lon="3.18557">
        <ele>390.2</ele>
        <time>2026-07-02T12:00:06.000Z</time>
      </trkpt>
      <trkpt lat="45.63226" lon="3.18549">
        <ele>389.8</ele>
        <time>2026-07-02T12:00:08.000Z</time>
      </trkpt>
      <trkpt lat="45.63213" lon="3.18543">
        <ele>389.6</ele>
        <time>2026-07-02T12:00:10.000Z</time>
      </trkpt>
      <trkpt lat="45.632" lon="3.18537">
        <ele>389.2</ele>
        <time>2026-07-02T12:00:12.000Z</time>
      </trkpt>
      <trkpt lat="45.63188" lon="3.1853">
        <ele>389.2</ele>
        <time>2026-07-02T12:00:14.000Z</time>
      </trkpt>
      <trkpt lat="45.63177" lon="3.18521">
        <ele>389.2</ele>
        <time>2026-07-02T12:00:16.000Z</time>
      </trkpt>
      <trkpt lat="45.63166" lon="3.18512">
        <ele>389</ele>
        <time>2026-07-02T12:00:18.000Z</time>
      </trkpt>
      <trkpt lat="45.63156" lon="3.18504">
        <ele>389</ele>
        <time>2026-07-02T12:00:20.000Z</time>
      </trkpt>
      <trkpt lat="45.63147" lon="3.18495">
        <ele>389.2</ele>
        <time>2026-07-02T12:00:22.000Z</time>
      </trkpt>
      <trkpt lat="45.63138" lon="3.18484">
        <ele>389.2</ele>
        <time>2026-07-02T12:00:24.000Z</time>
      </trkpt>
      <trkpt lat="45.63128" lon="3.18473">
        <ele>389.4</ele>
        <time>2026-07-02T12:00:26.000Z</time>
      </trkpt>
      <trkpt lat="45.63118" lon="3.18463">
        <ele>389.6</ele>
        <time>2026-07-02T12:00:28.000Z</time>
      </trkpt>
      <trkpt lat="45.63109" lon="3.18452">
        <ele>389.6</ele>
        <time>2026-07-02T12:00:30.000Z</time>
      </trkpt>
      <trkpt lat="45.63102" lon="3.18441">
        <ele>389.8</ele>
        <time>2026-07-02T12:00:32.000Z</time>
      </trkpt>
      <trkpt lat="45.63096" lon="3.18429">
        <ele>389.8</ele>
        <time>2026-07-02T12:00:34.000Z</time>
      </trkpt>
      <trkpt lat="45.63091" lon="3.18417">
        <ele>389.8</ele>
        <time>2026-07-02T12:00:36.000Z</time>
      </trkpt>
      <trkpt lat="45.63089" lon="3.18401">
        <ele>389.8</ele>
        <time>2026-07-02T12:00:38.000Z</time>
      </trkpt>
      <trkpt lat="45.63087" lon="3.18384">
        <ele>389.8</ele>
        <time>2026-07-02T12:00:40.000Z</time>
      </trkpt>
      <trkpt lat="45.63085" lon="3.18366">
        <ele>389.8</ele>
        <time>2026-07-02T12:00:42.000Z</time>
      </trkpt>
      <trkpt lat="45.63084" lon="3.18348">
        <ele>390</ele>
        <time>2026-07-02T12:00:44.000Z</time>
      </trkpt>
      <trkpt lat="45.63082" lon="3.18331">
        <ele>390</ele>
        <time>2026-07-02T12:00:46.000Z</time>
      </trkpt>
      <trkpt lat="45.63083" lon="3.18314">
        <ele>390</ele>
        <time>2026-07-02T12:00:48.000Z</time>
      </trkpt>
      <trkpt lat="45.63086" lon="3.18296">
        <ele>390</ele>
        <time>2026-07-02T12:00:50.000Z</time>
      </trkpt>
      <trkpt lat="45.63085" lon="3.18277">
        <ele>389.8</ele>
        <time>2026-07-02T12:00:52.000Z</time>
      </trkpt>
      <trkpt lat="45.6308" lon="3.18259">
        <ele>389.6</ele>
        <time>2026-07-02T12:00:54.000Z</time>
      </trkpt>
      <trkpt lat="45.63077" lon="3.18241">
        <ele>389.6</ele>
        <time>2026-07-02T12:00:56.000Z</time>
      </trkpt>
      <trkpt lat="45.63076" lon="3.18222">
        <ele>389.4</ele>
        <time>2026-07-02T12:00:58.000Z</time>
      </trkpt>
      <trkpt lat="45.63075" lon="3.18203">
        <ele>389.4</ele>
        <time>2026-07-02T12:01:00.000Z</time>
      </trkpt>
      <trkpt lat="45.63074" lon="3.18183">
        <ele>389.4</ele>
        <time>2026-07-02T12:01:02.000Z</time>
      </trkpt>
      <trkpt lat="45.63074" lon="3.18163">
        <ele>389.2</ele>
        <time>2026-07-02T12:01:04.000Z</time>
      </trkpt>
      <trkpt lat="45.63073" lon="3.18144">
        <ele>389.2</ele>
        <time>2026-07-02T12:01:06.000Z</time>
      </trkpt>
      <trkpt lat="45.63072" lon="3.18126">
        <ele>389.2</ele>
        <time>2026-07-02T12:01:08.000Z</time>
      </trkpt>
      <trkpt lat="45.63071" lon="3.18108">
        <ele>389.4</ele>
        <time>2026-07-02T12:01:10.000Z</time>
      </trkpt>
      <trkpt lat="45.63069" lon="3.18091">
        <ele>389.4</ele>
        <time>2026-07-02T12:01:12.000Z</time>
      </trkpt>
      <trkpt lat="45.63067" lon="3.18075">
        <ele>389.2</ele>
        <time>2026-07-02T12:01:14.000Z</time>
      </trkpt>
      <trkpt lat="45.63064" lon="3.18058">
        <ele>389</ele>
        <time>2026-07-02T12:01:16.000Z</time>
      </trkpt>
      <trkpt lat="45.6306" lon="3.1804">
        <ele>389</ele>
        <time>2026-07-02T12:01:18.000Z</time>
      </trkpt>
      <trkpt lat="45.63057" lon="3.18023">
        <ele>388.8</ele>
        <time>2026-07-02T12:01:20.000Z</time>
      </trkpt>
      <trkpt lat="45.63053" lon="3.18005">
        <ele>388.8</ele>
        <time>2026-07-02T12:01:22.000Z</time>
      </trkpt>
      <trkpt lat="45.6305" lon="3.17988">
        <ele>388.8</ele>
        <time>2026-07-02T12:01:24.000Z</time>
      </trkpt>
      <trkpt lat="45.63046" lon="3.1797">
        <ele>388.6</ele>
        <time>2026-07-02T12:01:26.000Z</time>
      </trkpt>
      <trkpt lat="45.63043" lon="3.17953">
        <ele>388.8</ele>
        <time>2026-07-02T12:01:28.000Z</time>
      </trkpt>
      <trkpt lat="45.6304" lon="3.17936">
        <ele>388.8</ele>
        <time>2026-07-02T12:01:30.000Z</time>
      </trkpt>
      <trkpt lat="45.63037" lon="3.17918">
        <ele>388.8</ele>
        <time>2026-07-02T12:01:32.000Z</time>
      </trkpt>
      <trkpt lat="45.63035" lon="3.179">
        <ele>389</ele>
        <time>2026-07-02T12:01:34.000Z</time>
      </trkpt>
      <trkpt lat="45.63033" lon="3.17882">
        <ele>389.4</ele>
        <time>2026-07-02T12:01:36.000Z</time>
      </trkpt>
      <trkpt lat="45.63031" lon="3.17864">
        <ele>389.6</ele>
        <time>2026-07-02T12:01:38.000Z</time>
      </trkpt>
      <trkpt lat="45.63028" lon="3.17845">
        <ele>389.6</ele>
        <time>2026-07-02T12:01:40.000Z</time>
      </trkpt>
      <trkpt lat="45.63026" lon="3.17827">
        <ele>389.8</ele>
        <time>2026-07-02T12:01:42.000Z</time>
      </trkpt>
      <trkpt lat="45.63023" lon="3.17808">
        <ele>389.4</ele>
        <time>2026-07-02T12:01:44.000Z</time>
      </trkpt>
      <trkpt lat="45.6302" lon="3.1779">
        <ele>389.4</ele>
        <time>2026-07-02T12:01:46.000Z</time>
      </trkpt>
      <trkpt lat="45.63017" lon="3.17772">
        <ele>389.4</ele>
        <time>2026-07-02T12:01:48.000Z</time>
      </trkpt>
      <trkpt lat="45.63014" lon="3.17755">
        <ele>389.4</ele>
        <time>2026-07-02T12:01:50.000Z</time>
      </trkpt>
      <trkpt lat="45.63011" lon="3.17738">
        <ele>389.4</ele>
        <time>2026-07-02T12:01:52.000Z</time>
      </trkpt>
      <trkpt lat="45.63008" lon="3.1772">
        <ele>389.4</ele>
        <time>2026-07-02T12:01:54.000Z</time>
      </trkpt>
      <trkpt lat="45.63005" lon="3.17703">
        <ele>389</ele>
        <time>2026-07-02T12:01:56.000Z</time>
      </trkpt>
      <trkpt lat="45.63001" lon="3.17685">
        <ele>389</ele>
        <time>2026-07-02T12:01:58.000Z</time>
      </trkpt>
      <trkpt lat="45.62998" lon="3.17668">
        <ele>389</ele>
        <time>2026-07-02T12:02:00.000Z</time>
      </trkpt>
      <trkpt lat="45.62995" lon="3.17651">
        <ele>389.2</ele>
        <time>2026-07-02T12:02:02.000Z</time>
      </trkpt>
      <trkpt lat="45.62992" lon="3.17634">
        <ele>389.4</ele>
        <time>2026-07-02T12:02:04.000Z</time>
      </trkpt>
      <trkpt lat="45.62989" lon="3.17617">
        <ele>389.6</ele>
        <time>2026-07-02T12:02:06.000Z</time>
      </trkpt>
      <trkpt lat="45.62986" lon="3.176">
        <ele>389.6</ele>
        <time>2026-07-02T12:02:08.000Z</time>
      </trkpt>
      <trkpt lat="45.62982" lon="3.17584">
        <ele>389.6</ele>
        <time>2026-07-02T12:02:10.000Z</time>
      </trkpt>
      <trkpt lat="45.62979" lon="3.17568">
        <ele>389.6</ele>
        <time>2026-07-02T12:02:12.000Z</time>
      </trkpt>
      <trkpt lat="45.62976" lon="3.17551">
        <ele>389.8</ele>
        <time>2026-07-02T12:02:14.000Z</time>
      </trkpt>
      <trkpt lat="45.62973" lon="3.17536">
        <ele>389.8</ele>
        <time>2026-07-02T12:02:16.000Z</time>
      </trkpt>
      <trkpt lat="45.62968" lon="3.17521">
        <ele>390</ele>
        <time>2026-07-02T12:02:18.000Z</time>
      </trkpt>
      <trkpt lat="45.62963" lon="3.17506">
        <ele>390</ele>
        <time>2026-07-02T12:02:20.000Z</time>
      </trkpt>
      <trkpt lat="45.62959" lon="3.17491">
        <ele>390</ele>
        <time>2026-07-02T12:02:22.000Z</time>
      </trkpt>
      <trkpt lat="45.62954" lon="3.17477">
        <ele>390.2</ele>
        <time>2026-07-02T12:02:24.000Z</time>
      </trkpt>
      <trkpt lat="45.62949" lon="3.17462">
        <ele>390.2</ele>
        <time>2026-07-02T12:02:26.000Z</time>
      </trkpt>
      <trkpt lat="45.62944" lon="3.17448">
        <ele>390.4</ele>
        <time>2026-07-02T12:02:28.000Z</time>
      </trkpt>
      <trkpt lat="45.6294" lon="3.17434">
        <ele>390.6</ele>
        <time>2026-07-02T12:02:30.000Z</time>
      </trkpt>
      <trkpt lat="45.62936" lon="3.1742">
        <ele>390.8</ele>
        <time>2026-07-02T12:02:32.000Z</time>
      </trkpt>
      <trkpt lat="45.62932" lon="3.17405">
        <ele>391</ele>
        <time>2026-07-02T12:02:34.000Z</time>
      </trkpt>
      <trkpt lat="45.62929" lon="3.17392">
        <ele>391.2</ele>
        <time>2026-07-02T12:02:36.000Z</time>
      </trkpt>
      <trkpt lat="45.62927" lon="3.17379">
        <ele>391.2</ele>
        <time>2026-07-02T12:02:38.000Z</time>
      </trkpt>
      <trkpt lat="45.62924" lon="3.17366">
        <ele>391.4</ele>
        <time>2026-07-02T12:02:40.000Z</time>
      </trkpt>
      <trkpt lat="45.62922" lon="3.17353">
        <ele>391.4</ele>
        <time>2026-07-02T12:02:42.000Z</time>
      </trkpt>
      <trkpt lat="45.62919" lon="3.1734">
        <ele>391.6</ele>
        <time>2026-07-02T12:02:44.000Z</time>
      </trkpt>
      <trkpt lat="45.62917" lon="3.17326">
        <ele>391.8</ele>
        <time>2026-07-02T12:02:46.000Z</time>
      </trkpt>
      <trkpt lat="45.62916" lon="3.17313">
        <ele>392</ele>
        <time>2026-07-02T12:02:48.000Z</time>
      </trkpt>
      <trkpt lat="45.62914" lon="3.173">
        <ele>392.6</ele>
        <time>2026-07-02T12:02:50.000Z</time>
      </trkpt>
      <trkpt lat="45.62913" lon="3.17287">
        <ele>393</ele>
        <time>2026-07-02T12:02:52.000Z</time>
      </trkpt>
      <trkpt lat="45.62911" lon="3.17275">
        <ele>393.4</ele>
        <time>2026-07-02T12:02:54.000Z</time>
      </trkpt>
      <trkpt lat="45.6291" lon="3.17263">
        <ele>393.6</ele>
        <time>2026-07-02T12:02:56.000Z</time>
      </trkpt>
      <trkpt lat="45.62908" lon="3.1725">
        <ele>393.6</ele>
        <time>2026-07-02T12:02:58.000Z</time>
      </trkpt>
      <trkpt lat="45.62907" lon="3.17237">
        <ele>393.6</ele>
        <time>2026-07-02T12:03:00.000Z</time>
      </trkpt>
      <trkpt lat="45.62906" lon="3.17225">
        <ele>393.6</ele>
        <time>2026-07-02T12:03:02.000Z</time>
      </trkpt>
      <trkpt lat="45.62904" lon="3.17213">
        <ele>394</ele>
        <time>2026-07-02T12:03:04.000Z</time>
      </trkpt>
      <trkpt lat="45.62903" lon="3.17201">
        <ele>394.4</ele>
        <time>2026-07-02T12:03:06.000Z</time>
      </trkpt>
      <trkpt lat="45.62902" lon="3.17188">
        <ele>394.6</ele>
        <time>2026-07-02T12:03:08.000Z</time>
      </trkpt>
      <trkpt lat="45.629" lon="3.17176">
        <ele>395</ele>
        <time>2026-07-02T12:03:10.000Z</time>
      </trkpt>
      <trkpt lat="45.62899" lon="3.17164">
        <ele>395.2</ele>
        <time>2026-07-02T12:03:12.000Z</time>
      </trkpt>
      <trkpt lat="45.62898" lon="3.17151">
        <ele>395.6</ele>
        <time>2026-07-02T12:03:14.000Z</time>
      </trkpt>
      <trkpt lat="45.62896" lon="3.17138">
        <ele>395.8</ele>
        <time>2026-07-02T12:03:16.000Z</time>
      </trkpt>
      <trkpt lat="45.62895" lon="3.17126">
        <ele>396</ele>
        <time>2026-07-02T12:03:18.000Z</time>
      </trkpt>
      <trkpt lat="45.62893" lon="3.17113">
        <ele>396.2</ele>
        <time>2026-07-02T12:03:20.000Z</time>
      </trkpt>
      <trkpt lat="45.62892" lon="3.171">
        <ele>396.4</ele>
        <time>2026-07-02T12:03:22.000Z</time>
      </trkpt>
      <trkpt lat="45.6289" lon="3.17087">
        <ele>396.8</ele>
        <time>2026-07-02T12:03:24.000Z</time>
      </trkpt>
      <trkpt lat="45.62889" lon="3.17074">
        <ele>397</ele>
        <time>2026-07-02T12:03:26.000Z</time>
      </trkpt>
      <trkpt lat="45.62888" lon="3.17061">
        <ele>397.2</ele>
        <time>2026-07-02T12:03:28.000Z</time>
      </trkpt>
      <trkpt lat="45.62886" lon="3.17048">
        <ele>397.6</ele>
        <time>2026-07-02T12:03:30.000Z</time>
      </trkpt>
      <trkpt lat="45.62885" lon="3.17035">
        <ele>398</ele>
        <time>2026-07-02T12:03:32.000Z</time>
      </trkpt>
      <trkpt lat="45.62884" lon="3.17023">
        <ele>398.2</ele>
        <time>2026-07-02T12:03:34.000Z</time>
      </trkpt>
      <trkpt lat="45.62882" lon="3.1701">
        <ele>398.6</ele>
        <time>2026-07-02T12:03:36.000Z</time>
      </trkpt>
      <trkpt lat="45.62881" lon="3.16997">
        <ele>398.8</ele>
        <time>2026-07-02T12:03:38.000Z</time>
      </trkpt>
      <trkpt lat="45.62879" lon="3.16985">
        <ele>399</ele>
        <time>2026-07-02T12:03:40.000Z</time>
      </trkpt>
      <trkpt lat="45.62878" lon="3.16972">
        <ele>399.2</ele>
        <time>2026-07-02T12:03:42.000Z</time>
      </trkpt>
      <trkpt lat="45.62876" lon="3.1696">
        <ele>399.4</ele>
        <time>2026-07-02T12:03:44.000Z</time>
      </trkpt>
      <trkpt lat="45.62875" lon="3.16948">
        <ele>399.6</ele>
        <time>2026-07-02T12:03:46.000Z</time>
      </trkpt>
      <trkpt lat="45.62873" lon="3.16937">
        <ele>399.8</ele>
        <time>2026-07-02T12:03:48.000Z</time>
      </trkpt>
      <trkpt lat="45.62871" lon="3.16925">
        <ele>400</ele>
        <time>2026-07-02T12:03:50.000Z</time>
      </trkpt>
      <trkpt lat="45.62869" lon="3.16913">
        <ele>400.4</ele>
        <time>2026-07-02T12:03:52.000Z</time>
      </trkpt>
      <trkpt lat="45.62867" lon="3.169">
        <ele>400.6</ele>
        <time>2026-07-02T12:03:54.000Z</time>
      </trkpt>
      <trkpt lat="45.62864" lon="3.16888">
        <ele>400.8</ele>
        <time>2026-07-02T12:03:56.000Z</time>
      </trkpt>
      <trkpt lat="45.62862" lon="3.16875">
        <ele>401</ele>
        <time>2026-07-02T12:03:58.000Z</time>
      </trkpt>
      <trkpt lat="45.62859" lon="3.16862">
        <ele>401.2</ele>
        <time>2026-07-02T12:04:00.000Z</time>
      </trkpt>
      <trkpt lat="45.62857" lon="3.16849">
        <ele>401.2</ele>
        <time>2026-07-02T12:04:02.000Z</time>
      </trkpt>
      <trkpt lat="45.62854" lon="3.16836">
        <ele>401.4</ele>
        <time>2026-07-02T12:04:04.000Z</time>
      </trkpt>
      <trkpt lat="45.62852" lon="3.16823">
        <ele>401.6</ele>
        <time>2026-07-02T12:04:06.000Z</time>
      </trkpt>
      <trkpt lat="45.62849" lon="3.1681">
        <ele>401.8</ele>
        <time>2026-07-02T12:04:08.000Z</time>
      </trkpt>
      <trkpt lat="45.62847" lon="3.16797">
        <ele>402.2</ele>
        <time>2026-07-02T12:04:10.000Z</time>
      </trkpt>
      <trkpt lat="45.62844" lon="3.16784">
        <ele>402.4</ele>
        <time>2026-07-02T12:04:12.000Z</time>
      </trkpt>
      <trkpt lat="45.6284" lon="3.16771">
        <ele>402.4</ele>
        <time>2026-07-02T12:04:14.000Z</time>
      </trkpt>
      <trkpt lat="45.62837" lon="3.16758">
        <ele>402.6</ele>
        <time>2026-07-02T12:04:16.000Z</time>
      </trkpt>
      <trkpt lat="45.62832" lon="3.16745">
        <ele>402.4</ele>
        <time>2026-07-02T12:04:18.000Z</time>
      </trkpt>
      <trkpt lat="45.62827" lon="3.16731">
        <ele>402.2</ele>
        <time>2026-07-02T12:04:20.000Z</time>
      </trkpt>
      <trkpt lat="45.62822" lon="3.16716">
        <ele>402.2</ele>
        <time>2026-07-02T12:04:22.000Z</time>
      </trkpt>
      <trkpt lat="45.62817" lon="3.16701">
        <ele>401.8</ele>
        <time>2026-07-02T12:04:24.000Z</time>
      </trkpt>
      <trkpt lat="45.62811" lon="3.16685">
        <ele>401.8</ele>
        <time>2026-07-02T12:04:26.000Z</time>
      </trkpt>
      <trkpt lat="45.62805" lon="3.16668">
        <ele>401.4</ele>
        <time>2026-07-02T12:04:28.000Z</time>
      </trkpt>
      <trkpt lat="45.62799" lon="3.1665">
        <ele>401.2</ele>
        <time>2026-07-02T12:04:30.000Z</time>
      </trkpt>
      <trkpt lat="45.62793" lon="3.16633">
        <ele>401</ele>
        <time>2026-07-02T12:04:32.000Z</time>
      </trkpt>
      <trkpt lat="45.62786" lon="3.16615">
        <ele>400.8</ele>
        <time>2026-07-02T12:04:34.000Z</time>
      </trkpt>
      <trkpt lat="45.6278" lon="3.16596">
        <ele>400.6</ele>
        <time>2026-07-02T12:04:36.000Z</time>
      </trkpt>
      <trkpt lat="45.62773" lon="3.16577">
        <ele>400.4</ele>
        <time>2026-07-02T12:04:38.000Z</time>
      </trkpt>
      <trkpt lat="45.62766" lon="3.16558">
        <ele>400.2</ele>
        <time>2026-07-02T12:04:40.000Z</time>
      </trkpt>
      <trkpt lat="45.6276" lon="3.16539">
        <ele>399.8</ele>
        <time>2026-07-02T12:04:42.000Z</time>
      </trkpt>
      <trkpt lat="45.62753" lon="3.1652">
        <ele>399.4</ele>
        <time>2026-07-02T12:04:44.000Z</time>
      </trkpt>
      <trkpt lat="45.62746" lon="3.165">
        <ele>398.8</ele>
        <time>2026-07-02T12:04:46.000Z</time>
      </trkpt>
      <trkpt lat="45.62739" lon="3.1648">
        <ele>398.6</ele>
        <time>2026-07-02T12:04:48.000Z</time>
      </trkpt>
      <trkpt lat="45.62733" lon="3.16459">
        <ele>398.2</ele>
        <time>2026-07-02T12:04:50.000Z</time>
      </trkpt>
      <trkpt lat="45.62729" lon="3.16438">
        <ele>397.8</ele>
        <time>2026-07-02T12:04:52.000Z</time>
      </trkpt>
      <trkpt lat="45.62725" lon="3.16416">
        <ele>397.4</ele>
        <time>2026-07-02T12:04:54.000Z</time>
      </trkpt>
      <trkpt lat="45.62721" lon="3.16394">
        <ele>397.2</ele>
        <time>2026-07-02T12:04:56.000Z</time>
      </trkpt>
      <trkpt lat="45.62717" lon="3.16372">
        <ele>397</ele>
        <time>2026-07-02T12:04:58.000Z</time>
      </trkpt>
      <trkpt lat="45.62714" lon="3.1635">
        <ele>396.8</ele>
        <time>2026-07-02T12:05:00.000Z</time>
      </trkpt>
      <trkpt lat="45.62709" lon="3.16329">
        <ele>396.6</ele>
        <time>2026-07-02T12:05:02.000Z</time>
      </trkpt>
      <trkpt lat="45.62703" lon="3.16309">
        <ele>396.4</ele>
        <time>2026-07-02T12:05:04.000Z</time>
      </trkpt>
      <trkpt lat="45.62695" lon="3.1629">
        <ele>396.4</ele>
        <time>2026-07-02T12:05:06.000Z</time>
      </trkpt>
      <trkpt lat="45.62686" lon="3.16272">
        <ele>396.4</ele>
        <time>2026-07-02T12:05:08.000Z</time>
      </trkpt>
      <trkpt lat="45.62677" lon="3.16256">
        <ele>396.2</ele>
        <time>2026-07-02T12:05:10.000Z</time>
      </trkpt>
      <trkpt lat="45.62668" lon="3.1624">
        <ele>396</ele>
        <time>2026-07-02T12:05:12.000Z</time>
      </trkpt>
      <trkpt lat="45.62659" lon="3.16224">
        <ele>396.2</ele>
        <time>2026-07-02T12:05:14.000Z</time>
      </trkpt>
      <trkpt lat="45.6265" lon="3.16209">
        <ele>396</ele>
        <time>2026-07-02T12:05:17.000Z</time>
      </trkpt>
      <trkpt lat="45.62642" lon="3.16194">
        <ele>396</ele>
        <time>2026-07-02T12:05:19.000Z</time>
      </trkpt>
      <trkpt lat="45.62634" lon="3.16179">
        <ele>396</ele>
        <time>2026-07-02T12:05:21.000Z</time>
      </trkpt>
      <trkpt lat="45.62626" lon="3.16163">
        <ele>396.2</ele>
        <time>2026-07-02T12:05:23.000Z</time>
      </trkpt>
      <trkpt lat="45.6262" lon="3.16146">
        <ele>396.2</ele>
        <time>2026-07-02T12:05:25.000Z</time>
      </trkpt>
      <trkpt lat="45.62614" lon="3.16118">
        <ele>396.6</ele>
        <time>2026-07-02T12:05:27.000Z</time>
      </trkpt>
      <trkpt lat="45.62612" lon="3.16089">
        <ele>397</ele>
        <time>2026-07-02T12:05:30.000Z</time>
      </trkpt>
      <trkpt lat="45.6261" lon="3.16061">
        <ele>397.2</ele>
        <time>2026-07-02T12:05:33.000Z</time>
      </trkpt>
      <trkpt lat="45.62608" lon="3.16042">
        <ele>397.2</ele>
        <time>2026-07-02T12:05:35.000Z</time>
      </trkpt>
      <trkpt lat="45.62606" lon="3.16022">
        <ele>397</ele>
        <time>2026-07-02T12:05:37.000Z</time>
      </trkpt>
      <trkpt lat="45.62604" lon="3.16002">
        <ele>396.8</ele>
        <time>2026-07-02T12:05:39.000Z</time>
      </trkpt>
      <trkpt lat="45.62602" lon="3.15982">
        <ele>396.8</ele>
        <time>2026-07-02T12:05:41.000Z</time>
      </trkpt>
      <trkpt lat="45.62599" lon="3.15962">
        <ele>397</ele>
        <time>2026-07-02T12:05:43.000Z</time>
      </trkpt>
      <trkpt lat="45.62594" lon="3.15943">
        <ele>397.2</ele>
        <time>2026-07-02T12:05:45.000Z</time>
      </trkpt>
      <trkpt lat="45.62588" lon="3.15925">
        <ele>397.2</ele>
        <time>2026-07-02T12:05:47.000Z</time>
      </trkpt>
      <trkpt lat="45.62581" lon="3.15908">
        <ele>397.2</ele>
        <time>2026-07-02T12:05:49.000Z</time>
      </trkpt>
      <trkpt lat="45.62575" lon="3.15891">
        <ele>397.2</ele>
        <time>2026-07-02T12:05:51.000Z</time>
      </trkpt>
      <trkpt lat="45.62569" lon="3.15874">
        <ele>397.4</ele>
        <time>2026-07-02T12:05:53.000Z</time>
      </trkpt>
      <trkpt lat="45.62564" lon="3.15856">
        <ele>397.6</ele>
        <time>2026-07-02T12:05:55.000Z</time>
      </trkpt>
      <trkpt lat="45.62559" lon="3.15839">
        <ele>397.6</ele>
        <time>2026-07-02T12:05:57.000Z</time>
      </trkpt>
      <trkpt lat="45.62555" lon="3.15821">
        <ele>397.6</ele>
        <time>2026-07-02T12:05:59.000Z</time>
      </trkpt>
      <trkpt lat="45.62551" lon="3.15804">
        <ele>397.6</ele>
        <time>2026-07-02T12:06:01.000Z</time>
      </trkpt>
      <trkpt lat="45.62548" lon="3.15788">
        <ele>397.6</ele>
        <time>2026-07-02T12:06:03.000Z</time>
      </trkpt>
      <trkpt lat="45.62544" lon="3.15772">
        <ele>397.8</ele>
        <time>2026-07-02T12:06:05.000Z</time>
      </trkpt>
      <trkpt lat="45.62541" lon="3.15755">
        <ele>398</ele>
        <time>2026-07-02T12:06:07.000Z</time>
      </trkpt>
      <trkpt lat="45.62538" lon="3.15739">
        <ele>398</ele>
        <time>2026-07-02T12:06:09.000Z</time>
      </trkpt>
      <trkpt lat="45.62536" lon="3.15723">
        <ele>398.4</ele>
        <time>2026-07-02T12:06:11.000Z</time>
      </trkpt>
      <trkpt lat="45.62534" lon="3.15707">
        <ele>398.4</ele>
        <time>2026-07-02T12:06:13.000Z</time>
      </trkpt>
      <trkpt lat="45.62532" lon="3.15691">
        <ele>398.6</ele>
        <time>2026-07-02T12:06:15.000Z</time>
      </trkpt>
      <trkpt lat="45.6253" lon="3.15676">
        <ele>399</ele>
        <time>2026-07-02T12:06:17.000Z</time>
      </trkpt>
      <trkpt lat="45.62529" lon="3.1566">
        <ele>399.2</ele>
        <time>2026-07-02T12:06:19.000Z</time>
      </trkpt>
      <trkpt lat="45.62528" lon="3.15645">
        <ele>399.4</ele>
        <time>2026-07-02T12:06:21.000Z</time>
      </trkpt>
      <trkpt lat="45.62527" lon="3.1563">
        <ele>399.6</ele>
        <time>2026-07-02T12:06:23.000Z</time>
      </trkpt>
      <trkpt lat="45.62526" lon="3.15615">
        <ele>399.8</ele>
        <time>2026-07-02T12:06:25.000Z</time>
      </trkpt>
      <trkpt lat="45.62525" lon="3.15601">
        <ele>400</ele>
        <time>2026-07-02T12:06:27.000Z</time>
      </trkpt>
      <trkpt lat="45.62523" lon="3.15586">
        <ele>400.4</ele>
        <time>2026-07-02T12:06:29.000Z</time>
      </trkpt>
      <trkpt lat="45.62522" lon="3.15572">
        <ele>400.6</ele>
        <time>2026-07-02T12:06:31.000Z</time>
      </trkpt>
      <trkpt lat="45.62521" lon="3.15559">
        <ele>400.8</ele>
        <time>2026-07-02T12:06:33.000Z</time>
      </trkpt>
      <trkpt lat="45.6252" lon="3.15546">
        <ele>401</ele>
        <time>2026-07-02T12:06:35.000Z</time>
      </trkpt>
      <trkpt lat="45.62519" lon="3.15533">
        <ele>401</ele>
        <time>2026-07-02T12:06:37.000Z</time>
      </trkpt>
      <trkpt lat="45.62518" lon="3.15521">
        <ele>401.4</ele>
        <time>2026-07-02T12:06:39.000Z</time>
      </trkpt>
      <trkpt lat="45.62516" lon="3.15509">
        <ele>401.6</ele>
        <time>2026-07-02T12:06:41.000Z</time>
      </trkpt>
      <trkpt lat="45.62516" lon="3.15498">
        <ele>401.8</ele>
        <time>2026-07-02T12:06:43.000Z</time>
      </trkpt>
      <trkpt lat="45.62516" lon="3.15486">
        <ele>402.2</ele>
        <time>2026-07-02T12:06:45.000Z</time>
      </trkpt>
      <trkpt lat="45.62518" lon="3.15477">
        <ele>402.4</ele>
        <time>2026-07-02T12:06:47.000Z</time>
      </trkpt>
      <trkpt lat="45.62522" lon="3.15473">
        <ele>402.8</ele>
        <time>2026-07-02T12:06:49.000Z</time>
      </trkpt>
      <trkpt lat="45.62527" lon="3.1547">
        <ele>403</ele>
        <time>2026-07-02T12:06:51.000Z</time>
      </trkpt>
      <trkpt lat="45.62529" lon="3.15463">
        <ele>403</ele>
        <time>2026-07-02T12:06:53.000Z</time>
      </trkpt>
      <trkpt lat="45.62525" lon="3.15455">
        <ele>403.2</ele>
        <time>2026-07-02T12:06:55.000Z</time>
      </trkpt>
      <trkpt lat="45.6252" lon="3.15447">
        <ele>403.4</ele>
        <time>2026-07-02T12:06:57.000Z</time>
      </trkpt>
      <trkpt lat="45.62516" lon="3.15438">
        <ele>403.6</ele>
        <time>2026-07-02T12:06:59.000Z</time>
      </trkpt>
      <trkpt lat="45.62511" lon="3.15429">
        <ele>404</ele>
        <time>2026-07-02T12:07:01.000Z</time>
      </trkpt>
      <trkpt lat="45.62506" lon="3.1542">
        <ele>404.2</ele>
        <time>2026-07-02T12:07:03.000Z</time>
      </trkpt>
      <trkpt lat="45.62502" lon="3.15412">
        <ele>404.4</ele>
        <time>2026-07-02T12:07:05.000Z</time>
      </trkpt>
      <trkpt lat="45.62498" lon="3.15403">
        <ele>404.8</ele>
        <time>2026-07-02T12:07:07.000Z</time>
      </trkpt>
      <trkpt lat="45.62493" lon="3.15395">
        <ele>405</ele>
        <time>2026-07-02T12:07:09.000Z</time>
      </trkpt>
      <trkpt lat="45.62489" lon="3.15386">
        <ele>405.4</ele>
        <time>2026-07-02T12:07:11.000Z</time>
      </trkpt>
      <trkpt lat="45.62485" lon="3.15378">
        <ele>405.6</ele>
        <time>2026-07-02T12:07:13.000Z</time>
      </trkpt>
      <trkpt lat="45.6248" lon="3.1537">
        <ele>406</ele>
        <time>2026-07-02T12:07:15.000Z</time>
      </trkpt>
      <trkpt lat="45.62476" lon="3.15361">
        <ele>406.2</ele>
        <time>2026-07-02T12:07:17.000Z</time>
      </trkpt>
      <trkpt lat="45.62472" lon="3.15353">
        <ele>406.4</ele>
        <time>2026-07-02T12:07:19.000Z</time>
      </trkpt>
      <trkpt lat="45.62467" lon="3.15345">
        <ele>406.8</ele>
        <time>2026-07-02T12:07:21.000Z</time>
      </trkpt>
      <trkpt lat="45.62463" lon="3.15337">
        <ele>407</ele>
        <time>2026-07-02T12:07:23.000Z</time>
      </trkpt>
      <trkpt lat="45.62458" lon="3.15328">
        <ele>407.2</ele>
        <time>2026-07-02T12:07:25.000Z</time>
      </trkpt>
      <trkpt lat="45.62453" lon="3.1532">
        <ele>407.6</ele>
        <time>2026-07-02T12:07:27.000Z</time>
      </trkpt>
      <trkpt lat="45.62449" lon="3.15312">
        <ele>407.8</ele>
        <time>2026-07-02T12:07:29.000Z</time>
      </trkpt>
      <trkpt lat="45.62444" lon="3.15304">
        <ele>408.2</ele>
        <time>2026-07-02T12:07:31.000Z</time>
      </trkpt>
      <trkpt lat="45.6244" lon="3.15296">
        <ele>408.4</ele>
        <time>2026-07-02T12:07:33.000Z</time>
      </trkpt>
      <trkpt lat="45.62436" lon="3.15288">
        <ele>408.8</ele>
        <time>2026-07-02T12:07:35.000Z</time>
      </trkpt>
      <trkpt lat="45.62431" lon="3.1528">
        <ele>409</ele>
        <time>2026-07-02T12:07:37.000Z</time>
      </trkpt>
      <trkpt lat="45.62427" lon="3.15271">
        <ele>409.4</ele>
        <time>2026-07-02T12:07:39.000Z</time>
      </trkpt>
      <trkpt lat="45.62422" lon="3.15262">
        <ele>409.8</ele>
        <time>2026-07-02T12:07:41.000Z</time>
      </trkpt>
      <trkpt lat="45.62418" lon="3.15254">
        <ele>410.2</ele>
        <time>2026-07-02T12:07:43.000Z</time>
      </trkpt>
      <trkpt lat="45.62413" lon="3.15245">
        <ele>410.6</ele>
        <time>2026-07-02T12:07:45.000Z</time>
      </trkpt>
      <trkpt lat="45.62409" lon="3.15236">
        <ele>411</ele>
        <time>2026-07-02T12:07:47.000Z</time>
      </trkpt>
      <trkpt lat="45.62404" lon="3.15228">
        <ele>411.4</ele>
        <time>2026-07-02T12:07:49.000Z</time>
      </trkpt>
      <trkpt lat="45.624" lon="3.15219">
        <ele>411.6</ele>
        <time>2026-07-02T12:07:51.000Z</time>
      </trkpt>
      <trkpt lat="45.62395" lon="3.1521">
        <ele>412</ele>
        <time>2026-07-02T12:07:53.000Z</time>
      </trkpt>
      <trkpt lat="45.6239" lon="3.15201">
        <ele>412.2</ele>
        <time>2026-07-02T12:07:55.000Z</time>
      </trkpt>
      <trkpt lat="45.62385" lon="3.15193">
        <ele>412.4</ele>
        <time>2026-07-02T12:07:57.000Z</time>
      </trkpt>
      <trkpt lat="45.62381" lon="3.15184">
        <ele>412.6</ele>
        <time>2026-07-02T12:07:59.000Z</time>
      </trkpt>
      <trkpt lat="45.62376" lon="3.15175">
        <ele>412.8</ele>
        <time>2026-07-02T12:08:01.000Z</time>
      </trkpt>
      <trkpt lat="45.62372" lon="3.15167">
        <ele>413</ele>
        <time>2026-07-02T12:08:03.000Z</time>
      </trkpt>
      <trkpt lat="45.62367" lon="3.15159">
        <ele>413.4</ele>
        <time>2026-07-02T12:08:05.000Z</time>
      </trkpt>
      <trkpt lat="45.62362" lon="3.1515">
        <ele>413.6</ele>
        <time>2026-07-02T12:08:07.000Z</time>
      </trkpt>
      <trkpt lat="45.62358" lon="3.15142">
        <ele>413.8</ele>
        <time>2026-07-02T12:08:09.000Z</time>
      </trkpt>
      <trkpt lat="45.62354" lon="3.15134">
        <ele>414.2</ele>
        <time>2026-07-02T12:08:11.000Z</time>
      </trkpt>
      <trkpt lat="45.62349" lon="3.15127">
        <ele>414.4</ele>
        <time>2026-07-02T12:08:13.000Z</time>
      </trkpt>
      <trkpt lat="45.62348" lon="3.1512">
        <ele>414.6</ele>
        <time>2026-07-02T12:08:15.000Z</time>
      </trkpt>
      <trkpt lat="45.62348" lon="3.15114">
        <ele>415</ele>
        <time>2026-07-02T12:08:17.000Z</time>
      </trkpt>
      <trkpt lat="45.62349" lon="3.15111">
        <ele>415.2</ele>
        <time>2026-07-02T12:08:19.000Z</time>
      </trkpt>
      <trkpt lat="45.6235" lon="3.15108">
        <ele>415.4</ele>
        <time>2026-07-02T12:08:21.000Z</time>
      </trkpt>
      <trkpt lat="45.62352" lon="3.15104">
        <ele>415.8</ele>
        <time>2026-07-02T12:08:23.000Z</time>
      </trkpt>
      <trkpt lat="45.6235" lon="3.15096">
        <ele>415.8</ele>
        <time>2026-07-02T12:08:25.000Z</time>
      </trkpt>
      <trkpt lat="45.62344" lon="3.15091">
        <ele>415.8</ele>
        <time>2026-07-02T12:08:27.000Z</time>
      </trkpt>
      <trkpt lat="45.62338" lon="3.15085">
        <ele>416</ele>
        <time>2026-07-02T12:08:29.000Z</time>
      </trkpt>
      <trkpt lat="45.62335" lon="3.15075">
        <ele>416.2</ele>
        <time>2026-07-02T12:08:31.000Z</time>
      </trkpt>
      <trkpt lat="45.62333" lon="3.15064">
        <ele>416.2</ele>
        <time>2026-07-02T12:08:33.000Z</time>
      </trkpt>
      <trkpt lat="45.62334" lon="3.15053">
        <ele>416.4</ele>
        <time>2026-07-02T12:08:35.000Z</time>
      </trkpt>
      <trkpt lat="45.62337" lon="3.15044">
        <ele>416.6</ele>
        <time>2026-07-02T12:08:37.000Z</time>
      </trkpt>
      <trkpt lat="45.62342" lon="3.15038">
        <ele>416.6</ele>
        <time>2026-07-02T12:08:39.000Z</time>
      </trkpt>
      <trkpt lat="45.62348" lon="3.15032">
        <ele>416.6</ele>
        <time>2026-07-02T12:08:41.000Z</time>
      </trkpt>
      <trkpt lat="45.62353" lon="3.15026">
        <ele>416.6</ele>
        <time>2026-07-02T12:08:43.000Z</time>
      </trkpt>
      <trkpt lat="45.62359" lon="3.15021">
        <ele>416.6</ele>
        <time>2026-07-02T12:08:45.000Z</time>
      </trkpt>
      <trkpt lat="45.62365" lon="3.15016">
        <ele>416.6</ele>
        <time>2026-07-02T12:08:47.000Z</time>
      </trkpt>
      <trkpt lat="45.6237" lon="3.15011">
        <ele>416.4</ele>
        <time>2026-07-02T12:08:49.000Z</time>
      </trkpt>
      <trkpt lat="45.62376" lon="3.15006">
        <ele>416.2</ele>
        <time>2026-07-02T12:08:51.000Z</time>
      </trkpt>
      <trkpt lat="45.62381" lon="3.14999">
        <ele>416.2</ele>
        <time>2026-07-02T12:08:53.000Z</time>
      </trkpt>
      <trkpt lat="45.62386" lon="3.14992">
        <ele>416.2</ele>
        <time>2026-07-02T12:08:55.000Z</time>
      </trkpt>
      <trkpt lat="45.62391" lon="3.14986">
        <ele>416.4</ele>
        <time>2026-07-02T12:08:57.000Z</time>
      </trkpt>
      <trkpt lat="45.62397" lon="3.1498">
        <ele>416.6</ele>
        <time>2026-07-02T12:08:59.000Z</time>
      </trkpt>
      <trkpt lat="45.62403" lon="3.14974">
        <ele>416.6</ele>
        <time>2026-07-02T12:09:01.000Z</time>
      </trkpt>
      <trkpt lat="45.62408" lon="3.14967">
        <ele>416.8</ele>
        <time>2026-07-02T12:09:03.000Z</time>
      </trkpt>
      <trkpt lat="45.62413" lon="3.14961">
        <ele>417</ele>
        <time>2026-07-02T12:09:05.000Z</time>
      </trkpt>
      <trkpt lat="45.62418" lon="3.14956">
        <ele>417.2</ele>
        <time>2026-07-02T12:09:07.000Z</time>
      </trkpt>
      <trkpt lat="45.62423" lon="3.1495">
        <ele>417.2</ele>
        <time>2026-07-02T12:09:09.000Z</time>
      </trkpt>
      <trkpt lat="45.62429" lon="3.14943">
        <ele>417.2</ele>
        <time>2026-07-02T12:09:11.000Z</time>
      </trkpt>
      <trkpt lat="45.62436" lon="3.14935">
        <ele>417.4</ele>
        <time>2026-07-02T12:09:13.000Z</time>
      </trkpt>
      <trkpt lat="45.62444" lon="3.14927">
        <ele>417.2</ele>
        <time>2026-07-02T12:09:15.000Z</time>
      </trkpt>
      <trkpt lat="45.62452" lon="3.14919">
        <ele>417.2</ele>
        <time>2026-07-02T12:09:17.000Z</time>
      </trkpt>
      <trkpt lat="45.62461" lon="3.1491">
        <ele>417</ele>
        <time>2026-07-02T12:09:19.000Z</time>
      </trkpt>
      <trkpt lat="45.62471" lon="3.14899">
        <ele>416.8</ele>
        <time>2026-07-02T12:09:21.000Z</time>
      </trkpt>
      <trkpt lat="45.6248" lon="3.14889">
        <ele>416.8</ele>
        <time>2026-07-02T12:09:23.000Z</time>
      </trkpt>
      <trkpt lat="45.6249" lon="3.14879">
        <ele>416.6</ele>
        <time>2026-07-02T12:09:25.000Z</time>
      </trkpt>
      <trkpt lat="45.62499" lon="3.14869">
        <ele>416.6</ele>
        <time>2026-07-02T12:09:27.000Z</time>
      </trkpt>
      <trkpt lat="45.62509" lon="3.14859">
        <ele>416.4</ele>
        <time>2026-07-02T12:09:29.000Z</time>
      </trkpt>
      <trkpt lat="45.62518" lon="3.1485">
        <ele>416.2</ele>
        <time>2026-07-02T12:09:31.000Z</time>
      </trkpt>
      <trkpt lat="45.62528" lon="3.14842">
        <ele>416</ele>
        <time>2026-07-02T12:09:33.000Z</time>
      </trkpt>
      <trkpt lat="45.62537" lon="3.14836">
        <ele>415.8</ele>
        <time>2026-07-02T12:09:35.000Z</time>
      </trkpt>
      <trkpt lat="45.62547" lon="3.1483">
        <ele>415.8</ele>
        <time>2026-07-02T12:09:37.000Z</time>
      </trkpt>
      <trkpt lat="45.62557" lon="3.14826">
        <ele>415.8</ele>
        <time>2026-07-02T12:09:39.000Z</time>
      </trkpt>
      <trkpt lat="45.62567" lon="3.14824">
        <ele>415.6</ele>
        <time>2026-07-02T12:09:41.000Z</time>
      </trkpt>
      <trkpt lat="45.62578" lon="3.14822">
        <ele>415.6</ele>
        <time>2026-07-02T12:09:43.000Z</time>
      </trkpt>
      <trkpt lat="45.62587" lon="3.14821">
        <ele>415.6</ele>
        <time>2026-07-02T12:09:45.000Z</time>
      </trkpt>
      <trkpt lat="45.62596" lon="3.14819">
        <ele>415.6</ele>
        <time>2026-07-02T12:09:47.000Z</time>
      </trkpt>
      <trkpt lat="45.62605" lon="3.14815">
        <ele>415.6</ele>
        <time>2026-07-02T12:09:49.000Z</time>
      </trkpt>
      <trkpt lat="45.62612" lon="3.14812">
        <ele>416</ele>
        <time>2026-07-02T12:09:51.000Z</time>
      </trkpt>
      <trkpt lat="45.6262" lon="3.1481">
        <ele>416.2</ele>
        <time>2026-07-02T12:09:53.000Z</time>
      </trkpt>
      <trkpt lat="45.62627" lon="3.14807">
        <ele>416.6</ele>
        <time>2026-07-02T12:09:55.000Z</time>
      </trkpt>
      <trkpt lat="45.62634" lon="3.14804">
        <ele>417.2</ele>
        <time>2026-07-02T12:09:57.000Z</time>
      </trkpt>
      <trkpt lat="45.62642" lon="3.14801">
        <ele>417.8</ele>
        <time>2026-07-02T12:09:59.000Z</time>
      </trkpt>
      <trkpt lat="45.6265" lon="3.14799">
        <ele>418.4</ele>
        <time>2026-07-02T12:10:01.000Z</time>
      </trkpt>
      <trkpt lat="45.62657" lon="3.14796">
        <ele>419</ele>
        <time>2026-07-02T12:10:03.000Z</time>
      </trkpt>
      <trkpt lat="45.62665" lon="3.14793">
        <ele>419.6</ele>
        <time>2026-07-02T12:10:05.000Z</time>
      </trkpt>
      <trkpt lat="45.62672" lon="3.14791">
        <ele>420.2</ele>
        <time>2026-07-02T12:10:07.000Z</time>
      </trkpt>
      <trkpt lat="45.62679" lon="3.14789">
        <ele>420.6</ele>
        <time>2026-07-02T12:10:09.000Z</time>
      </trkpt>
      <trkpt lat="45.62686" lon="3.14786">
        <ele>421.2</ele>
        <time>2026-07-02T12:10:11.000Z</time>
      </trkpt>
      <trkpt lat="45.62693" lon="3.14784">
        <ele>421.6</ele>
        <time>2026-07-02T12:10:13.000Z</time>
      </trkpt>
      <trkpt lat="45.627" lon="3.14781">
        <ele>422.4</ele>
        <time>2026-07-02T12:10:15.000Z</time>
      </trkpt>
      <trkpt lat="45.62707" lon="3.14779">
        <ele>422.8</ele>
        <time>2026-07-02T12:10:17.000Z</time>
      </trkpt>
      <trkpt lat="45.62713" lon="3.14778">
        <ele>423.6</ele>
        <time>2026-07-02T12:10:19.000Z</time>
      </trkpt>
      <trkpt lat="45.62719" lon="3.14776">
        <ele>424.2</ele>
        <time>2026-07-02T12:10:21.000Z</time>
      </trkpt>
      <trkpt lat="45.62725" lon="3.14775">
        <ele>424.8</ele>
        <time>2026-07-02T12:10:23.000Z</time>
      </trkpt>
      <trkpt lat="45.62731" lon="3.14774">
        <ele>425.4</ele>
        <time>2026-07-02T12:10:25.000Z</time>
      </trkpt>
      <trkpt lat="45.62736" lon="3.14774">
        <ele>425.8</ele>
        <time>2026-07-02T12:10:27.000Z</time>
      </trkpt>
      <trkpt lat="45.62741" lon="3.14774">
        <ele>426.4</ele>
        <time>2026-07-02T12:10:29.000Z</time>
      </trkpt>
      <trkpt lat="45.62747" lon="3.14773">
        <ele>426.8</ele>
        <time>2026-07-02T12:10:31.000Z</time>
      </trkpt>
      <trkpt lat="45.62752" lon="3.14773">
        <ele>427</ele>
        <time>2026-07-02T12:10:33.000Z</time>
      </trkpt>
      <trkpt lat="45.62758" lon="3.14772">
        <ele>427.4</ele>
        <time>2026-07-02T12:10:35.000Z</time>
      </trkpt>
      <trkpt lat="45.62765" lon="3.14771">
        <ele>427.6</ele>
        <time>2026-07-02T12:10:37.000Z</time>
      </trkpt>
      <trkpt lat="45.62772" lon="3.14771">
        <ele>428</ele>
        <time>2026-07-02T12:10:39.000Z</time>
      </trkpt>
      <trkpt lat="45.62778" lon="3.14769">
        <ele>428.4</ele>
        <time>2026-07-02T12:10:41.000Z</time>
      </trkpt>
      <trkpt lat="45.62786" lon="3.14769">
        <ele>428.6</ele>
        <time>2026-07-02T12:10:43.000Z</time>
      </trkpt>
      <trkpt lat="45.62794" lon="3.14768">
        <ele>428.6</ele>
        <time>2026-07-02T12:10:45.000Z</time>
      </trkpt>
      <trkpt lat="45.62802" lon="3.14766">
        <ele>428.4</ele>
        <time>2026-07-02T12:10:47.000Z</time>
      </trkpt>
      <trkpt lat="45.62812" lon="3.14765">
        <ele>428.2</ele>
        <time>2026-07-02T12:10:49.000Z</time>
      </trkpt>
      <trkpt lat="45.62822" lon="3.14763">
        <ele>427.6</ele>
        <time>2026-07-02T12:10:51.000Z</time>
      </trkpt>
      <trkpt lat="45.62833" lon="3.1476">
        <ele>427.4</ele>
        <time>2026-07-02T12:10:53.000Z</time>
      </trkpt>
      <trkpt lat="45.62845" lon="3.14757">
        <ele>427</ele>
        <time>2026-07-02T12:10:55.000Z</time>
      </trkpt>
      <trkpt lat="45.62857" lon="3.14753">
        <ele>427</ele>
        <time>2026-07-02T12:10:57.000Z</time>
      </trkpt>
      <trkpt lat="45.62869" lon="3.14749">
        <ele>426.6</ele>
        <time>2026-07-02T12:10:59.000Z</time>
      </trkpt>
      <trkpt lat="45.62881" lon="3.14744">
        <ele>426.2</ele>
        <time>2026-07-02T12:11:01.000Z</time>
      </trkpt>
      <trkpt lat="45.62894" lon="3.1474">
        <ele>425.8</ele>
        <time>2026-07-02T12:11:03.000Z</time>
      </trkpt>
      <trkpt lat="45.62907" lon="3.14735">
        <ele>425.2</ele>
        <time>2026-07-02T12:11:05.000Z</time>
      </trkpt>
      <trkpt lat="45.62921" lon="3.14731">
        <ele>425</ele>
        <time>2026-07-02T12:11:07.000Z</time>
      </trkpt>
      <trkpt lat="45.62934" lon="3.14726">
        <ele>424.8</ele>
        <time>2026-07-02T12:11:09.000Z</time>
      </trkpt>
      <trkpt lat="45.62948" lon="3.14721">
        <ele>424.4</ele>
        <time>2026-07-02T12:11:11.000Z</time>
      </trkpt>
      <trkpt lat="45.62962" lon="3.14717">
        <ele>424.2</ele>
        <time>2026-07-02T12:11:13.000Z</time>
      </trkpt>
      <trkpt lat="45.62975" lon="3.14712">
        <ele>423.8</ele>
        <time>2026-07-02T12:11:15.000Z</time>
      </trkpt>
      <trkpt lat="45.62989" lon="3.14707">
        <ele>423.4</ele>
        <time>2026-07-02T12:11:17.000Z</time>
      </trkpt>
      <trkpt lat="45.63002" lon="3.14703">
        <ele>423.2</ele>
        <time>2026-07-02T12:11:19.000Z</time>
      </trkpt>
      <trkpt lat="45.63016" lon="3.14698">
        <ele>422.8</ele>
        <time>2026-07-02T12:11:21.000Z</time>
      </trkpt>
      <trkpt lat="45.6303" lon="3.14694">
        <ele>422.6</ele>
        <time>2026-07-02T12:11:23.000Z</time>
      </trkpt>
      <trkpt lat="45.63043" lon="3.14689">
        <ele>422.2</ele>
        <time>2026-07-02T12:11:25.000Z</time>
      </trkpt>
      <trkpt lat="45.63058" lon="3.14684">
        <ele>421.8</ele>
        <time>2026-07-02T12:11:27.000Z</time>
      </trkpt>
      <trkpt lat="45.63072" lon="3.14678">
        <ele>421.2</ele>
        <time>2026-07-02T12:11:29.000Z</time>
      </trkpt>
      <trkpt lat="45.63087" lon="3.14674">
        <ele>421</ele>
        <time>2026-07-02T12:11:31.000Z</time>
      </trkpt>
      <trkpt lat="45.63101" lon="3.14669">
        <ele>420.6</ele>
        <time>2026-07-02T12:11:33.000Z</time>
      </trkpt>
      <trkpt lat="45.63115" lon="3.14664">
        <ele>420</ele>
        <time>2026-07-02T12:11:35.000Z</time>
      </trkpt>
      <trkpt lat="45.6313" lon="3.14659">
        <ele>419.8</ele>
        <time>2026-07-02T12:11:37.000Z</time>
      </trkpt>
      <trkpt lat="45.63145" lon="3.14655">
        <ele>419.4</ele>
        <time>2026-07-02T12:11:39.000Z</time>
      </trkpt>
      <trkpt lat="45.6316" lon="3.14651">
        <ele>419</ele>
        <time>2026-07-02T12:11:41.000Z</time>
      </trkpt>
      <trkpt lat="45.63175" lon="3.14647">
        <ele>418.6</ele>
        <time>2026-07-02T12:11:43.000Z</time>
      </trkpt>
      <trkpt lat="45.63191" lon="3.14644">
        <ele>418</ele>
        <time>2026-07-02T12:11:45.000Z</time>
      </trkpt>
      <trkpt lat="45.63207" lon="3.1464">
        <ele>417.6</ele>
        <time>2026-07-02T12:11:47.000Z</time>
      </trkpt>
      <trkpt lat="45.63223" lon="3.14637">
        <ele>417.2</ele>
        <time>2026-07-02T12:11:49.000Z</time>
      </trkpt>
      <trkpt lat="45.6324" lon="3.14633">
        <ele>416.2</ele>
        <time>2026-07-02T12:11:51.000Z</time>
      </trkpt>
      <trkpt lat="45.63257" lon="3.14629">
        <ele>414.8</ele>
        <time>2026-07-02T12:11:53.000Z</time>
      </trkpt>
      <trkpt lat="45.63274" lon="3.14626">
        <ele>414</ele>
        <time>2026-07-02T12:11:55.000Z</time>
      </trkpt>
      <trkpt lat="45.6329" lon="3.14622">
        <ele>413</ele>
        <time>2026-07-02T12:11:57.000Z</time>
      </trkpt>
      <trkpt lat="45.63306" lon="3.14618">
        <ele>412.8</ele>
        <time>2026-07-02T12:11:59.000Z</time>
      </trkpt>
      <trkpt lat="45.63322" lon="3.14615">
        <ele>412.2</ele>
        <time>2026-07-02T12:12:01.000Z</time>
      </trkpt>
      <trkpt lat="45.63338" lon="3.14611">
        <ele>411.8</ele>
        <time>2026-07-02T12:12:03.000Z</time>
      </trkpt>
      <trkpt lat="45.63355" lon="3.14608">
        <ele>411.4</ele>
        <time>2026-07-02T12:12:05.000Z</time>
      </trkpt>
      <trkpt lat="45.63371" lon="3.14603">
        <ele>410.6</ele>
        <time>2026-07-02T12:12:07.000Z</time>
      </trkpt>
      <trkpt lat="45.63388" lon="3.14597">
        <ele>410</ele>
        <time>2026-07-02T12:12:09.000Z</time>
      </trkpt>
      <trkpt lat="45.63405" lon="3.14591">
        <ele>409.4</ele>
        <time>2026-07-02T12:12:11.000Z</time>
      </trkpt>
      <trkpt lat="45.63421" lon="3.14584">
        <ele>408.6</ele>
        <time>2026-07-02T12:12:13.000Z</time>
      </trkpt>
      <trkpt lat="45.63438" lon="3.14577">
        <ele>408.2</ele>
        <time>2026-07-02T12:12:15.000Z</time>
      </trkpt>
      <trkpt lat="45.63455" lon="3.14571">
        <ele>407.8</ele>
        <time>2026-07-02T12:12:17.000Z</time>
      </trkpt>
      <trkpt lat="45.63472" lon="3.14565">
        <ele>407.2</ele>
        <time>2026-07-02T12:12:19.000Z</time>
      </trkpt>
      <trkpt lat="45.6349" lon="3.14562">
        <ele>406.8</ele>
        <time>2026-07-02T12:12:21.000Z</time>
      </trkpt>
      <trkpt lat="45.63507" lon="3.1456">
        <ele>406.4</ele>
        <time>2026-07-02T12:12:23.000Z</time>
      </trkpt>
      <trkpt lat="45.63525" lon="3.14558">
        <ele>405.8</ele>
        <time>2026-07-02T12:12:25.000Z</time>
      </trkpt>
      <trkpt lat="45.63542" lon="3.14556">
        <ele>405.4</ele>
        <time>2026-07-02T12:12:27.000Z</time>
      </trkpt>
      <trkpt lat="45.63559" lon="3.14554">
        <ele>404.8</ele>
        <time>2026-07-02T12:12:29.000Z</time>
      </trkpt>
      <trkpt lat="45.63576" lon="3.14552">
        <ele>404.2</ele>
        <time>2026-07-02T12:12:31.000Z</time>
      </trkpt>
      <trkpt lat="45.63593" lon="3.14549">
        <ele>403.8</ele>
        <time>2026-07-02T12:12:33.000Z</time>
      </trkpt>
      <trkpt lat="45.6361" lon="3.14548">
        <ele>403</ele>
        <time>2026-07-02T12:12:35.000Z</time>
      </trkpt>
      <trkpt lat="45.63627" lon="3.14546">
        <ele>402.4</ele>
        <time>2026-07-02T12:12:37.000Z</time>
      </trkpt>
      <trkpt lat="45.63644" lon="3.14544">
        <ele>401.8</ele>
        <time>2026-07-02T12:12:39.000Z</time>
      </trkpt>
      <trkpt lat="45.63661" lon="3.1454">
        <ele>401.2</ele>
        <time>2026-07-02T12:12:41.000Z</time>
      </trkpt>
      <trkpt lat="45.63678" lon="3.14534">
        <ele>400.8</ele>
        <time>2026-07-02T12:12:43.000Z</time>
      </trkpt>
      <trkpt lat="45.63696" lon="3.14526">
        <ele>400.2</ele>
        <time>2026-07-02T12:12:45.000Z</time>
      </trkpt>
      <trkpt lat="45.63712" lon="3.14515">
        <ele>399.8</ele>
        <time>2026-07-02T12:12:47.000Z</time>
      </trkpt>
      <trkpt lat="45.63728" lon="3.14504">
        <ele>399.2</ele>
        <time>2026-07-02T12:12:49.000Z</time>
      </trkpt>
      <trkpt lat="45.63743" lon="3.14493">
        <ele>398.8</ele>
        <time>2026-07-02T12:12:51.000Z</time>
      </trkpt>
      <trkpt lat="45.63758" lon="3.14481">
        <ele>398.4</ele>
        <time>2026-07-02T12:12:53.000Z</time>
      </trkpt>
      <trkpt lat="45.63772" lon="3.14471">
        <ele>398.2</ele>
        <time>2026-07-02T12:12:55.000Z</time>
      </trkpt>
      <trkpt lat="45.63786" lon="3.14461">
        <ele>397.8</ele>
        <time>2026-07-02T12:12:57.000Z</time>
      </trkpt>
      <trkpt lat="45.638" lon="3.14451">
        <ele>397.4</ele>
        <time>2026-07-02T12:12:59.000Z</time>
      </trkpt>
      <trkpt lat="45.63813" lon="3.14441">
        <ele>397.2</ele>
        <time>2026-07-02T12:13:01.000Z</time>
      </trkpt>
      <trkpt lat="45.63827" lon="3.14431">
        <ele>396.6</ele>
        <time>2026-07-02T12:13:03.000Z</time>
      </trkpt>
      <trkpt lat="45.6384" lon="3.14421">
        <ele>396.6</ele>
        <time>2026-07-02T12:13:05.000Z</time>
      </trkpt>
      <trkpt lat="45.63854" lon="3.14411">
        <ele>396.2</ele>
        <time>2026-07-02T12:13:07.000Z</time>
      </trkpt>
      <trkpt lat="45.63868" lon="3.14401">
        <ele>396</ele>
        <time>2026-07-02T12:13:09.000Z</time>
      </trkpt>
      <trkpt lat="45.63882" lon="3.14391">
        <ele>395.8</ele>
        <time>2026-07-02T12:13:11.000Z</time>
      </trkpt>
      <trkpt lat="45.63896" lon="3.14381">
        <ele>395.2</ele>
        <time>2026-07-02T12:13:13.000Z</time>
      </trkpt>
      <trkpt lat="45.6391" lon="3.14372">
        <ele>395</ele>
        <time>2026-07-02T12:13:15.000Z</time>
      </trkpt>
      <trkpt lat="45.63923" lon="3.14362">
        <ele>394.8</ele>
        <time>2026-07-02T12:13:17.000Z</time>
      </trkpt>
      <trkpt lat="45.63936" lon="3.14353">
        <ele>394.6</ele>
        <time>2026-07-02T12:13:19.000Z</time>
      </trkpt>
      <trkpt lat="45.63948" lon="3.14343">
        <ele>394.6</ele>
        <time>2026-07-02T12:13:21.000Z</time>
      </trkpt>
      <trkpt lat="45.6396" lon="3.14332">
        <ele>394.6</ele>
        <time>2026-07-02T12:13:23.000Z</time>
      </trkpt>
      <trkpt lat="45.63971" lon="3.14321">
        <ele>394.6</ele>
        <time>2026-07-02T12:13:25.000Z</time>
      </trkpt>
      <trkpt lat="45.63981" lon="3.1431">
        <ele>394.8</ele>
        <time>2026-07-02T12:13:27.000Z</time>
      </trkpt>
      <trkpt lat="45.63991" lon="3.14299">
        <ele>394.8</ele>
        <time>2026-07-02T12:13:29.000Z</time>
      </trkpt>
      <trkpt lat="45.64001" lon="3.14289">
        <ele>395</ele>
        <time>2026-07-02T12:13:31.000Z</time>
      </trkpt>
      <trkpt lat="45.64011" lon="3.14278">
        <ele>395</ele>
        <time>2026-07-02T12:13:33.000Z</time>
      </trkpt>
      <trkpt lat="45.6402" lon="3.14268">
        <ele>395</ele>
        <time>2026-07-02T12:13:35.000Z</time>
      </trkpt>
      <trkpt lat="45.6403" lon="3.14258">
        <ele>395.2</ele>
        <time>2026-07-02T12:13:37.000Z</time>
      </trkpt>
      <trkpt lat="45.6404" lon="3.14247">
        <ele>395.2</ele>
        <time>2026-07-02T12:13:39.000Z</time>
      </trkpt>
      <trkpt lat="45.6405" lon="3.14237">
        <ele>395.4</ele>
        <time>2026-07-02T12:13:41.000Z</time>
      </trkpt>
      <trkpt lat="45.6406" lon="3.14226">
        <ele>395.6</ele>
        <time>2026-07-02T12:13:43.000Z</time>
      </trkpt>
      <trkpt lat="45.6407" lon="3.14217">
        <ele>395.8</ele>
        <time>2026-07-02T12:13:45.000Z</time>
      </trkpt>
      <trkpt lat="45.64079" lon="3.14207">
        <ele>396</ele>
        <time>2026-07-02T12:13:47.000Z</time>
      </trkpt>
      <trkpt lat="45.64088" lon="3.14197">
        <ele>396.2</ele>
        <time>2026-07-02T12:13:49.000Z</time>
      </trkpt>
      <trkpt lat="45.64096" lon="3.14188">
        <ele>396.2</ele>
        <time>2026-07-02T12:13:51.000Z</time>
      </trkpt>
      <trkpt lat="45.64104" lon="3.14179">
        <ele>396.4</ele>
        <time>2026-07-02T12:13:53.000Z</time>
      </trkpt>
      <trkpt lat="45.64113" lon="3.1417">
        <ele>396.6</ele>
        <time>2026-07-02T12:13:55.000Z</time>
      </trkpt>
      <trkpt lat="45.6412" lon="3.14161">
        <ele>396.8</ele>
        <time>2026-07-02T12:13:57.000Z</time>
      </trkpt>
      <trkpt lat="45.64128" lon="3.14154">
        <ele>397.4</ele>
        <time>2026-07-02T12:13:59.000Z</time>
      </trkpt>
      <trkpt lat="45.64136" lon="3.14145">
        <ele>397.6</ele>
        <time>2026-07-02T12:14:01.000Z</time>
      </trkpt>
      <trkpt lat="45.64143" lon="3.14137">
        <ele>398</ele>
        <time>2026-07-02T12:14:03.000Z</time>
      </trkpt>
      <trkpt lat="45.64151" lon="3.1413">
        <ele>398.2</ele>
        <time>2026-07-02T12:14:05.000Z</time>
      </trkpt>
      <trkpt lat="45.64158" lon="3.14122">
        <ele>398.4</ele>
        <time>2026-07-02T12:14:07.000Z</time>
      </trkpt>
      <trkpt lat="45.64164" lon="3.14116">
        <ele>398.8</ele>
        <time>2026-07-02T12:14:09.000Z</time>
      </trkpt>
      <trkpt lat="45.6417" lon="3.14109">
        <ele>399</ele>
        <time>2026-07-02T12:14:11.000Z</time>
      </trkpt>
      <trkpt lat="45.64177" lon="3.14103">
        <ele>399.2</ele>
        <time>2026-07-02T12:14:13.000Z</time>
      </trkpt>
      <trkpt lat="45.64183" lon="3.14097">
        <ele>399.4</ele>
        <time>2026-07-02T12:14:15.000Z</time>
      </trkpt>
      <trkpt lat="45.6419" lon="3.14092">
        <ele>399.6</ele>
        <time>2026-07-02T12:14:17.000Z</time>
      </trkpt>
      <trkpt lat="45.64195" lon="3.14086">
        <ele>399.8</ele>
        <time>2026-07-02T12:14:19.000Z</time>
      </trkpt>
      <trkpt lat="45.64202" lon="3.14082">
        <ele>400.4</ele>
        <time>2026-07-02T12:14:21.000Z</time>
      </trkpt>
      <trkpt lat="45.64208" lon="3.14077">
        <ele>400.6</ele>
        <time>2026-07-02T12:14:23.000Z</time>
      </trkpt>
      <trkpt lat="45.64214" lon="3.14073">
        <ele>400.8</ele>
        <time>2026-07-02T12:14:25.000Z</time>
      </trkpt>
      <trkpt lat="45.6422" lon="3.14069">
        <ele>401</ele>
        <time>2026-07-02T12:14:27.000Z</time>
      </trkpt>
      <trkpt lat="45.64226" lon="3.14064">
        <ele>401.2</ele>
        <time>2026-07-02T12:14:29.000Z</time>
      </trkpt>
      <trkpt lat="45.64232" lon="3.1406">
        <ele>401.6</ele>
        <time>2026-07-02T12:14:31.000Z</time>
      </trkpt>
      <trkpt lat="45.64238" lon="3.14056">
        <ele>402</ele>
        <time>2026-07-02T12:14:33.000Z</time>
      </trkpt>
      <trkpt lat="45.64244" lon="3.14052">
        <ele>402.4</ele>
        <time>2026-07-02T12:14:35.000Z</time>
      </trkpt>
      <trkpt lat="45.64251" lon="3.14048">
        <ele>402.8</ele>
        <time>2026-07-02T12:14:37.000Z</time>
      </trkpt>
      <trkpt lat="45.64257" lon="3.14044">
        <ele>403</ele>
        <time>2026-07-02T12:14:39.000Z</time>
      </trkpt>
      <trkpt lat="45.64264" lon="3.14039">
        <ele>403.4</ele>
        <time>2026-07-02T12:14:41.000Z</time>
      </trkpt>
      <trkpt lat="45.6427" lon="3.14035">
        <ele>403.4</ele>
        <time>2026-07-02T12:14:43.000Z</time>
      </trkpt>
      <trkpt lat="45.64277" lon="3.1403">
        <ele>403.6</ele>
        <time>2026-07-02T12:14:45.000Z</time>
      </trkpt>
      <trkpt lat="45.64284" lon="3.14025">
        <ele>403.6</ele>
        <time>2026-07-02T12:14:47.000Z</time>
      </trkpt>
      <trkpt lat="45.64291" lon="3.1402">
        <ele>403.6</ele>
        <time>2026-07-02T12:14:49.000Z</time>
      </trkpt>
      <trkpt lat="45.64299" lon="3.14014">
        <ele>403.8</ele>
        <time>2026-07-02T12:14:51.000Z</time>
      </trkpt>
      <trkpt lat="45.64306" lon="3.14008">
        <ele>403.8</ele>
        <time>2026-07-02T12:14:53.000Z</time>
      </trkpt>
      <trkpt lat="45.64314" lon="3.14001">
        <ele>403.8</ele>
        <time>2026-07-02T12:14:55.000Z</time>
      </trkpt>
      <trkpt lat="45.64321" lon="3.13993">
        <ele>404</ele>
        <time>2026-07-02T12:14:57.000Z</time>
      </trkpt>
      <trkpt lat="45.64328" lon="3.13985">
        <ele>403.8</ele>
        <time>2026-07-02T12:14:59.000Z</time>
      </trkpt>
      <trkpt lat="45.64335" lon="3.13977">
        <ele>403.8</ele>
        <time>2026-07-02T12:15:01.000Z</time>
      </trkpt>
      <trkpt lat="45.64342" lon="3.13969">
        <ele>403.8</ele>
        <time>2026-07-02T12:15:03.000Z</time>
      </trkpt>
      <trkpt lat="45.64349" lon="3.1396">
        <ele>403.8</ele>
        <time>2026-07-02T12:15:05.000Z</time>
      </trkpt>
      <trkpt lat="45.64357" lon="3.13951">
        <ele>404</ele>
        <time>2026-07-02T12:15:07.000Z</time>
      </trkpt>
      <trkpt lat="45.64364" lon="3.13943">
        <ele>403.8</ele>
        <time>2026-07-02T12:15:09.000Z</time>
      </trkpt>
      <trkpt lat="45.64372" lon="3.13934">
        <ele>403.6</ele>
        <time>2026-07-02T12:15:11.000Z</time>
      </trkpt>
      <trkpt lat="45.64379" lon="3.13925">
        <ele>403.6</ele>
        <time>2026-07-02T12:15:13.000Z</time>
      </trkpt>
      <trkpt lat="45.64386" lon="3.13916">
        <ele>403.6</ele>
        <time>2026-07-02T12:15:15.000Z</time>
      </trkpt>
      <trkpt lat="45.64394" lon="3.13907">
        <ele>403.4</ele>
        <time>2026-07-02T12:15:17.000Z</time>
      </trkpt>
      <trkpt lat="45.64402" lon="3.13898">
        <ele>403.6</ele>
        <time>2026-07-02T12:15:19.000Z</time>
      </trkpt>
      <trkpt lat="45.6441" lon="3.13889">
        <ele>403.8</ele>
        <time>2026-07-02T12:15:21.000Z</time>
      </trkpt>
      <trkpt lat="45.64417" lon="3.1388">
        <ele>403.8</ele>
        <time>2026-07-02T12:15:23.000Z</time>
      </trkpt>
      <trkpt lat="45.64425" lon="3.13871">
        <ele>403.6</ele>
        <time>2026-07-02T12:15:25.000Z</time>
      </trkpt>
      <trkpt lat="45.64432" lon="3.13862">
        <ele>403.4</ele>
        <time>2026-07-02T12:15:27.000Z</time>
      </trkpt>
      <trkpt lat="45.6444" lon="3.13853">
        <ele>403</ele>
        <time>2026-07-02T12:15:29.000Z</time>
      </trkpt>
      <trkpt lat="45.64448" lon="3.13844">
        <ele>403</ele>
        <time>2026-07-02T12:15:31.000Z</time>
      </trkpt>
      <trkpt lat="45.64456" lon="3.13835">
        <ele>403</ele>
        <time>2026-07-02T12:15:33.000Z</time>
      </trkpt>
      <trkpt lat="45.64464" lon="3.13826">
        <ele>403</ele>
        <time>2026-07-02T12:15:35.000Z</time>
      </trkpt>
      <trkpt lat="45.64472" lon="3.13817">
        <ele>403</ele>
        <time>2026-07-02T12:15:37.000Z</time>
      </trkpt>
      <trkpt lat="45.6448" lon="3.13807">
        <ele>403</ele>
        <time>2026-07-02T12:15:39.000Z</time>
      </trkpt>
      <trkpt lat="45.64488" lon="3.13798">
        <ele>403</ele>
        <time>2026-07-02T12:15:41.000Z</time>
      </trkpt>
      <trkpt lat="45.64496" lon="3.13788">
        <ele>403</ele>
        <time>2026-07-02T12:15:43.000Z</time>
      </trkpt>
      <trkpt lat="45.64504" lon="3.13779">
        <ele>403</ele>
        <time>2026-07-02T12:15:45.000Z</time>
      </trkpt>
      <trkpt lat="45.64512" lon="3.13769">
        <ele>403</ele>
        <time>2026-07-02T12:15:47.000Z</time>
      </trkpt>
      <trkpt lat="45.64521" lon="3.13759">
        <ele>403</ele>
        <time>2026-07-02T12:15:49.000Z</time>
      </trkpt>
      <trkpt lat="45.64529" lon="3.13748">
        <ele>403</ele>
        <time>2026-07-02T12:15:51.000Z</time>
      </trkpt>
      <trkpt lat="45.64538" lon="3.13737">
        <ele>402.8</ele>
        <time>2026-07-02T12:15:53.000Z</time>
      </trkpt>
      <trkpt lat="45.64545" lon="3.13728">
        <ele>402.8</ele>
        <time>2026-07-02T12:15:55.000Z</time>
      </trkpt>
      <trkpt lat="45.64552" lon="3.1372">
        <ele>402.6</ele>
        <time>2026-07-02T12:15:57.000Z</time>
      </trkpt>
      <trkpt lat="45.64558" lon="3.13714">
        <ele>402.6</ele>
        <time>2026-07-02T12:15:59.000Z</time>
      </trkpt>
      <trkpt lat="45.64564" lon="3.13707">
        <ele>402.4</ele>
        <time>2026-07-02T12:16:01.000Z</time>
      </trkpt>
      <trkpt lat="45.64569" lon="3.13701">
        <ele>402.2</ele>
        <time>2026-07-02T12:16:03.000Z</time>
      </trkpt>
      <trkpt lat="45.64575" lon="3.13695">
        <ele>402</ele>
        <time>2026-07-02T12:16:05.000Z</time>
      </trkpt>
      <trkpt lat="45.6458" lon="3.1369">
        <ele>402</ele>
        <time>2026-07-02T12:16:07.000Z</time>
      </trkpt>
      <trkpt lat="45.64584" lon="3.13686">
        <ele>402</ele>
        <time>2026-07-02T12:16:09.000Z</time>
      </trkpt>
      <trkpt lat="45.64587" lon="3.13684">
        <ele>401.8</ele>
        <time>2026-07-02T12:16:11.000Z</time>
      </trkpt>
      <trkpt lat="45.64588" lon="3.13683">
        <ele>401.8</ele>
        <time>2026-07-02T12:16:13.000Z</time>
      </trkpt>
      <trkpt lat="45.64589" lon="3.13682">
        <ele>401.8</ele>
        <time>2026-07-02T12:16:15.000Z</time>
      </trkpt>
      <trkpt lat="45.64592" lon="3.13673">
        <ele>402</ele>
        <time>2026-07-02T12:18:51.000Z</time>
      </trkpt>
      <trkpt lat="45.64595" lon="3.13671">
        <ele>402</ele>
        <time>2026-07-02T12:18:53.000Z</time>
      </trkpt>
      <trkpt lat="45.64599" lon="3.13668">
        <ele>402</ele>
        <time>2026-07-02T12:18:55.000Z</time>
      </trkpt>
      <trkpt lat="45.64603" lon="3.13662">
        <ele>402</ele>
        <time>2026-07-02T12:18:57.000Z</time>
      </trkpt>
      <trkpt lat="45.64609" lon="3.13655">
        <ele>402.2</ele>
        <time>2026-07-02T12:18:59.000Z</time>
      </trkpt>
      <trkpt lat="45.64615" lon="3.13647">
        <ele>402.2</ele>
        <time>2026-07-02T12:19:01.000Z</time>
      </trkpt>
      <trkpt lat="45.64621" lon="3.1364">
        <ele>402.2</ele>
        <time>2026-07-02T12:19:03.000Z</time>
      </trkpt>
      <trkpt lat="45.64627" lon="3.13633">
        <ele>402.4</ele>
        <time>2026-07-02T12:19:05.000Z</time>
      </trkpt>
      <trkpt lat="45.64634" lon="3.13626">
        <ele>402.6</ele>
        <time>2026-07-02T12:19:07.000Z</time>
      </trkpt>
      <trkpt lat="45.6464" lon="3.13619">
        <ele>402.8</ele>
        <time>2026-07-02T12:19:09.000Z</time>
      </trkpt>
      <trkpt lat="45.64646" lon="3.13611">
        <ele>403</ele>
        <time>2026-07-02T12:19:11.000Z</time>
      </trkpt>
      <trkpt lat="45.64653" lon="3.13604">
        <ele>403.4</ele>
        <time>2026-07-02T12:19:13.000Z</time>
      </trkpt>
      <trkpt lat="45.64659" lon="3.13596">
        <ele>403.6</ele>
        <time>2026-07-02T12:19:15.000Z</time>
      </trkpt>
      <trkpt lat="45.64666" lon="3.13589">
        <ele>403.6</ele>
        <time>2026-07-02T12:19:17.000Z</time>
      </trkpt>
      <trkpt lat="45.64673" lon="3.13582">
        <ele>403.8</ele>
        <time>2026-07-02T12:19:19.000Z</time>
      </trkpt>
      <trkpt lat="45.6468" lon="3.13578">
        <ele>403.8</ele>
        <time>2026-07-02T12:19:21.000Z</time>
      </trkpt>
      <trkpt lat="45.64689" lon="3.13575">
        <ele>404</ele>
        <time>2026-07-02T12:19:23.000Z</time>
      </trkpt>
      <trkpt lat="45.64698" lon="3.13574">
        <ele>404.2</ele>
        <time>2026-07-02T12:19:26.000Z</time>
      </trkpt>
      <trkpt lat="45.64707" lon="3.13574">
        <ele>404.4</ele>
        <time>2026-07-02T12:19:28.000Z</time>
      </trkpt>
      <trkpt lat="45.64715" lon="3.13576">
        <ele>404.6</ele>
        <time>2026-07-02T12:19:30.000Z</time>
      </trkpt>
      <trkpt lat="45.64723" lon="3.13577">
        <ele>404.8</ele>
        <time>2026-07-02T12:19:32.000Z</time>
      </trkpt>
      <trkpt lat="45.64731" lon="3.13578">
        <ele>405</ele>
        <time>2026-07-02T12:19:34.000Z</time>
      </trkpt>
      <trkpt lat="45.64739" lon="3.13579">
        <ele>405</ele>
        <time>2026-07-02T12:19:36.000Z</time>
      </trkpt>
      <trkpt lat="45.64748" lon="3.1358">
        <ele>405.2</ele>
        <time>2026-07-02T12:19:38.000Z</time>
      </trkpt>
      <trkpt lat="45.64756" lon="3.13582">
        <ele>405.4</ele>
        <time>2026-07-02T12:19:40.000Z</time>
      </trkpt>
      <trkpt lat="45.64764" lon="3.13583">
        <ele>405.6</ele>
        <time>2026-07-02T12:19:42.000Z</time>
      </trkpt>
      <trkpt lat="45.64773" lon="3.13584">
        <ele>405.8</ele>
        <time>2026-07-02T12:19:44.000Z</time>
      </trkpt>
      <trkpt lat="45.64781" lon="3.13585">
        <ele>406.2</ele>
        <time>2026-07-02T12:19:46.000Z</time>
      </trkpt>
      <trkpt lat="45.64789" lon="3.13586">
        <ele>406.6</ele>
        <time>2026-07-02T12:19:48.000Z</time>
      </trkpt>
      <trkpt lat="45.64798" lon="3.13588">
        <ele>406.8</ele>
        <time>2026-07-02T12:19:50.000Z</time>
      </trkpt>
      <trkpt lat="45.64807" lon="3.13589">
        <ele>406.8</ele>
        <time>2026-07-02T12:19:52.000Z</time>
      </trkpt>
      <trkpt lat="45.64815" lon="3.13591">
        <ele>406.8</ele>
        <time>2026-07-02T12:19:54.000Z</time>
      </trkpt>
      <trkpt lat="45.64824" lon="3.13592">
        <ele>406.8</ele>
        <time>2026-07-02T12:19:56.000Z</time>
      </trkpt>
      <trkpt lat="45.64832" lon="3.13593">
        <ele>406.8</ele>
        <time>2026-07-02T12:19:58.000Z</time>
      </trkpt>
      <trkpt lat="45.64841" lon="3.13594">
        <ele>407</ele>
        <time>2026-07-02T12:20:00.000Z</time>
      </trkpt>
      <trkpt lat="45.64849" lon="3.13595">
        <ele>407</ele>
        <time>2026-07-02T12:20:02.000Z</time>
      </trkpt>
      <trkpt lat="45.64858" lon="3.13596">
        <ele>407.2</ele>
        <time>2026-07-02T12:20:04.000Z</time>
      </trkpt>
      <trkpt lat="45.64866" lon="3.13597">
        <ele>407.4</ele>
        <time>2026-07-02T12:20:06.000Z</time>
      </trkpt>
      <trkpt lat="45.64873" lon="3.13598">
        <ele>407.4</ele>
        <time>2026-07-02T12:20:08.000Z</time>
      </trkpt>
      <trkpt lat="45.64881" lon="3.13599">
        <ele>407.6</ele>
        <time>2026-07-02T12:20:10.000Z</time>
      </trkpt>
      <trkpt lat="45.64889" lon="3.13599">
        <ele>407.8</ele>
        <time>2026-07-02T12:20:12.000Z</time>
      </trkpt>
      <trkpt lat="45.64897" lon="3.13599">
        <ele>408</ele>
        <time>2026-07-02T12:20:14.000Z</time>
      </trkpt>
      <trkpt lat="45.64904" lon="3.13598">
        <ele>408.4</ele>
        <time>2026-07-02T12:20:16.000Z</time>
      </trkpt>
      <trkpt lat="45.64912" lon="3.13597">
        <ele>409</ele>
        <time>2026-07-02T12:20:18.000Z</time>
      </trkpt>
      <trkpt lat="45.6492" lon="3.13596">
        <ele>409.4</ele>
        <time>2026-07-02T12:20:20.000Z</time>
      </trkpt>
      <trkpt lat="45.64928" lon="3.13594">
        <ele>409.6</ele>
        <time>2026-07-02T12:20:22.000Z</time>
      </trkpt>
      <trkpt lat="45.64936" lon="3.13592">
        <ele>409.6</ele>
        <time>2026-07-02T12:20:24.000Z</time>
      </trkpt>
      <trkpt lat="45.64944" lon="3.1359">
        <ele>409.8</ele>
        <time>2026-07-02T12:20:26.000Z</time>
      </trkpt>
      <trkpt lat="45.64957" lon="3.13585">
        <ele>409.8</ele>
        <time>2026-07-02T12:20:28.000Z</time>
      </trkpt>
      <trkpt lat="45.64965" lon="3.13582">
        <ele>410</ele>
        <time>2026-07-02T12:20:30.000Z</time>
      </trkpt>
      <trkpt lat="45.64976" lon="3.13576">
        <ele>410.2</ele>
        <time>2026-07-02T12:20:33.000Z</time>
      </trkpt>
      <trkpt lat="45.64984" lon="3.13572">
        <ele>410.6</ele>
        <time>2026-07-02T12:20:35.000Z</time>
      </trkpt>
      <trkpt lat="45.64991" lon="3.13568">
        <ele>410.8</ele>
        <time>2026-07-02T12:20:37.000Z</time>
      </trkpt>
      <trkpt lat="45.64999" lon="3.13564">
        <ele>411</ele>
        <time>2026-07-02T12:20:39.000Z</time>
      </trkpt>
      <trkpt lat="45.65007" lon="3.13561">
        <ele>411.2</ele>
        <time>2026-07-02T12:20:41.000Z</time>
      </trkpt>
      <trkpt lat="45.65014" lon="3.13557">
        <ele>411.6</ele>
        <time>2026-07-02T12:20:43.000Z</time>
      </trkpt>
      <trkpt lat="45.65022" lon="3.13554">
        <ele>411.8</ele>
        <time>2026-07-02T12:20:45.000Z</time>
      </trkpt>
      <trkpt lat="45.65029" lon="3.1355">
        <ele>412.2</ele>
        <time>2026-07-02T12:20:47.000Z</time>
      </trkpt>
      <trkpt lat="45.65036" lon="3.13546">
        <ele>412.4</ele>
        <time>2026-07-02T12:20:49.000Z</time>
      </trkpt>
      <trkpt lat="45.65044" lon="3.13542">
        <ele>412.4</ele>
        <time>2026-07-02T12:20:51.000Z</time>
      </trkpt>
      <trkpt lat="45.65051" lon="3.13538">
        <ele>412.4</ele>
        <time>2026-07-02T12:20:53.000Z</time>
      </trkpt>
      <trkpt lat="45.65059" lon="3.13535">
        <ele>412.2</ele>
        <time>2026-07-02T12:20:55.000Z</time>
      </trkpt>
      <trkpt lat="45.65066" lon="3.13531">
        <ele>412.2</ele>
        <time>2026-07-02T12:20:57.000Z</time>
      </trkpt>
      <trkpt lat="45.65073" lon="3.13527">
        <ele>412.4</ele>
        <time>2026-07-02T12:20:59.000Z</time>
      </trkpt>
      <trkpt lat="45.6508" lon="3.13524">
        <ele>412.6</ele>
        <time>2026-07-02T12:21:01.000Z</time>
      </trkpt>
      <trkpt lat="45.65088" lon="3.13522">
        <ele>412.8</ele>
        <time>2026-07-02T12:21:03.000Z</time>
      </trkpt>
      <trkpt lat="45.65095" lon="3.1352">
        <ele>413</ele>
        <time>2026-07-02T12:21:05.000Z</time>
      </trkpt>
      <trkpt lat="45.65103" lon="3.13518">
        <ele>413.2</ele>
        <time>2026-07-02T12:21:07.000Z</time>
      </trkpt>
      <trkpt lat="45.65111" lon="3.13515">
        <ele>413.2</ele>
        <time>2026-07-02T12:21:09.000Z</time>
      </trkpt>
      <trkpt lat="45.65118" lon="3.13514">
        <ele>413.6</ele>
        <time>2026-07-02T12:21:11.000Z</time>
      </trkpt>
      <trkpt lat="45.65126" lon="3.13512">
        <ele>413.8</ele>
        <time>2026-07-02T12:21:13.000Z</time>
      </trkpt>
      <trkpt lat="45.65133" lon="3.1351">
        <ele>414.2</ele>
        <time>2026-07-02T12:21:15.000Z</time>
      </trkpt>
      <trkpt lat="45.6514" lon="3.13509">
        <ele>414.4</ele>
        <time>2026-07-02T12:21:17.000Z</time>
      </trkpt>
      <trkpt lat="45.65147" lon="3.13507">
        <ele>414.6</ele>
        <time>2026-07-02T12:21:19.000Z</time>
      </trkpt>
      <trkpt lat="45.65155" lon="3.13505">
        <ele>414.6</ele>
        <time>2026-07-02T12:21:21.000Z</time>
      </trkpt>
      <trkpt lat="45.65162" lon="3.13504">
        <ele>415</ele>
        <time>2026-07-02T12:21:23.000Z</time>
      </trkpt>
      <trkpt lat="45.6517" lon="3.13502">
        <ele>415.2</ele>
        <time>2026-07-02T12:21:25.000Z</time>
      </trkpt>
      <trkpt lat="45.65177" lon="3.135">
        <ele>415.4</ele>
        <time>2026-07-02T12:21:27.000Z</time>
      </trkpt>
      <trkpt lat="45.65184" lon="3.13499">
        <ele>415.6</ele>
        <time>2026-07-02T12:21:29.000Z</time>
      </trkpt>
      <trkpt lat="45.65192" lon="3.13498">
        <ele>415.8</ele>
        <time>2026-07-02T12:21:31.000Z</time>
      </trkpt>
      <trkpt lat="45.65199" lon="3.13496">
        <ele>416</ele>
        <time>2026-07-02T12:21:33.000Z</time>
      </trkpt>
      <trkpt lat="45.65206" lon="3.13494">
        <ele>416.2</ele>
        <time>2026-07-02T12:21:35.000Z</time>
      </trkpt>
      <trkpt lat="45.65213" lon="3.13493">
        <ele>416.6</ele>
        <time>2026-07-02T12:21:37.000Z</time>
      </trkpt>
      <trkpt lat="45.6522" lon="3.13491">
        <ele>416.8</ele>
        <time>2026-07-02T12:21:39.000Z</time>
      </trkpt>
      <trkpt lat="45.65227" lon="3.1349">
        <ele>417.2</ele>
        <time>2026-07-02T12:21:41.000Z</time>
      </trkpt>
      <trkpt lat="45.65234" lon="3.13488">
        <ele>417.4</ele>
        <time>2026-07-02T12:21:43.000Z</time>
      </trkpt>
      <trkpt lat="45.65241" lon="3.13487">
        <ele>417.8</ele>
        <time>2026-07-02T12:21:45.000Z</time>
      </trkpt>
      <trkpt lat="45.65249" lon="3.13485">
        <ele>418</ele>
        <time>2026-07-02T12:21:47.000Z</time>
      </trkpt>
      <trkpt lat="45.65256" lon="3.13483">
        <ele>418.2</ele>
        <time>2026-07-02T12:21:49.000Z</time>
      </trkpt>
      <trkpt lat="45.65263" lon="3.13482">
        <ele>418.6</ele>
        <time>2026-07-02T12:21:51.000Z</time>
      </trkpt>
      <trkpt lat="45.65271" lon="3.1348">
        <ele>418.8</ele>
        <time>2026-07-02T12:21:53.000Z</time>
      </trkpt>
      <trkpt lat="45.65278" lon="3.13478">
        <ele>419</ele>
        <time>2026-07-02T12:21:55.000Z</time>
      </trkpt>
      <trkpt lat="45.65287" lon="3.13476">
        <ele>419</ele>
        <time>2026-07-02T12:21:57.000Z</time>
      </trkpt>
      <trkpt lat="45.65295" lon="3.13474">
        <ele>419</ele>
        <time>2026-07-02T12:21:59.000Z</time>
      </trkpt>
      <trkpt lat="45.65304" lon="3.13471">
        <ele>419</ele>
        <time>2026-07-02T12:22:01.000Z</time>
      </trkpt>
      <trkpt lat="45.65313" lon="3.13469">
        <ele>418.8</ele>
        <time>2026-07-02T12:22:03.000Z</time>
      </trkpt>
      <trkpt lat="45.65323" lon="3.13466">
        <ele>418.6</ele>
        <time>2026-07-02T12:22:05.000Z</time>
      </trkpt>
      <trkpt lat="45.65335" lon="3.13463">
        <ele>418.4</ele>
        <time>2026-07-02T12:22:07.000Z</time>
      </trkpt>
      <trkpt lat="45.65347" lon="3.13461">
        <ele>418.6</ele>
        <time>2026-07-02T12:22:09.000Z</time>
      </trkpt>
      <trkpt lat="45.6536" lon="3.13458">
        <ele>418.2</ele>
        <time>2026-07-02T12:22:11.000Z</time>
      </trkpt>
      <trkpt lat="45.65373" lon="3.13455">
        <ele>417.8</ele>
        <time>2026-07-02T12:22:13.000Z</time>
      </trkpt>
      <trkpt lat="45.65387" lon="3.13451">
        <ele>417.6</ele>
        <time>2026-07-02T12:22:15.000Z</time>
      </trkpt>
      <trkpt lat="45.654" lon="3.13448">
        <ele>417.2</ele>
        <time>2026-07-02T12:22:17.000Z</time>
      </trkpt>
      <trkpt lat="45.65413" lon="3.13445">
        <ele>416.8</ele>
        <time>2026-07-02T12:22:19.000Z</time>
      </trkpt>
      <trkpt lat="45.65426" lon="3.13442">
        <ele>416.6</ele>
        <time>2026-07-02T12:22:21.000Z</time>
      </trkpt>
      <trkpt lat="45.65439" lon="3.13438">
        <ele>416.4</ele>
        <time>2026-07-02T12:22:23.000Z</time>
      </trkpt>
      <trkpt lat="45.65452" lon="3.13434">
        <ele>416</ele>
        <time>2026-07-02T12:22:25.000Z</time>
      </trkpt>
      <trkpt lat="45.65466" lon="3.13432">
        <ele>415.4</ele>
        <time>2026-07-02T12:22:27.000Z</time>
      </trkpt>
      <trkpt lat="45.65479" lon="3.13431">
        <ele>415</ele>
        <time>2026-07-02T12:22:29.000Z</time>
      </trkpt>
      <trkpt lat="45.65492" lon="3.1343">
        <ele>414.8</ele>
        <time>2026-07-02T12:22:31.000Z</time>
      </trkpt>
      <trkpt lat="45.65506" lon="3.13431">
        <ele>414.6</ele>
        <time>2026-07-02T12:22:33.000Z</time>
      </trkpt>
      <trkpt lat="45.65519" lon="3.13432">
        <ele>414.6</ele>
        <time>2026-07-02T12:22:35.000Z</time>
      </trkpt>
      <trkpt lat="45.65533" lon="3.13434">
        <ele>414.4</ele>
        <time>2026-07-02T12:22:37.000Z</time>
      </trkpt>
      <trkpt lat="45.65547" lon="3.13436">
        <ele>414.4</ele>
        <time>2026-07-02T12:22:39.000Z</time>
      </trkpt>
      <trkpt lat="45.65561" lon="3.13439">
        <ele>414.4</ele>
        <time>2026-07-02T12:22:41.000Z</time>
      </trkpt>
      <trkpt lat="45.65574" lon="3.13442">
        <ele>414.4</ele>
        <time>2026-07-02T12:22:43.000Z</time>
      </trkpt>
      <trkpt lat="45.65586" lon="3.13444">
        <ele>414.6</ele>
        <time>2026-07-02T12:22:45.000Z</time>
      </trkpt>
      <trkpt lat="45.65599" lon="3.13446">
        <ele>414.6</ele>
        <time>2026-07-02T12:22:47.000Z</time>
      </trkpt>
      <trkpt lat="45.65611" lon="3.13447">
        <ele>414.8</ele>
        <time>2026-07-02T12:22:49.000Z</time>
      </trkpt>
      <trkpt lat="45.65623" lon="3.13448">
        <ele>414.8</ele>
        <time>2026-07-02T12:22:51.000Z</time>
      </trkpt>
      <trkpt lat="45.65635" lon="3.13448">
        <ele>414.8</ele>
        <time>2026-07-02T12:22:53.000Z</time>
      </trkpt>
      <trkpt lat="45.65647" lon="3.13446">
        <ele>415</ele>
        <time>2026-07-02T12:22:55.000Z</time>
      </trkpt>
      <trkpt lat="45.65658" lon="3.13443">
        <ele>415</ele>
        <time>2026-07-02T12:22:57.000Z</time>
      </trkpt>
      <trkpt lat="45.65669" lon="3.13439">
        <ele>415</ele>
        <time>2026-07-02T12:22:59.000Z</time>
      </trkpt>
      <trkpt lat="45.65681" lon="3.13434">
        <ele>415</ele>
        <time>2026-07-02T12:23:01.000Z</time>
      </trkpt>
      <trkpt lat="45.65693" lon="3.13428">
        <ele>414.8</ele>
        <time>2026-07-02T12:23:03.000Z</time>
      </trkpt>
      <trkpt lat="45.65705" lon="3.13423">
        <ele>414.6</ele>
        <time>2026-07-02T12:23:05.000Z</time>
      </trkpt>
      <trkpt lat="45.65718" lon="3.13417">
        <ele>414.4</ele>
        <time>2026-07-02T12:23:07.000Z</time>
      </trkpt>
      <trkpt lat="45.65731" lon="3.13412">
        <ele>414</ele>
        <time>2026-07-02T12:23:09.000Z</time>
      </trkpt>
      <trkpt lat="45.65744" lon="3.13406">
        <ele>413.8</ele>
        <time>2026-07-02T12:23:11.000Z</time>
      </trkpt>
      <trkpt lat="45.65757" lon="3.13401">
        <ele>413.6</ele>
        <time>2026-07-02T12:23:13.000Z</time>
      </trkpt>
      <trkpt lat="45.65769" lon="3.13397">
        <ele>413.4</ele>
        <time>2026-07-02T12:23:15.000Z</time>
      </trkpt>
      <trkpt lat="45.65781" lon="3.13394">
        <ele>413.4</ele>
        <time>2026-07-02T12:23:17.000Z</time>
      </trkpt>
      <trkpt lat="45.65792" lon="3.13391">
        <ele>413.4</ele>
        <time>2026-07-02T12:23:19.000Z</time>
      </trkpt>
      <trkpt lat="45.65803" lon="3.13388">
        <ele>413.4</ele>
        <time>2026-07-02T12:23:21.000Z</time>
      </trkpt>
      <trkpt lat="45.65813" lon="3.13385">
        <ele>413.4</ele>
        <time>2026-07-02T12:23:23.000Z</time>
      </trkpt>
      <trkpt lat="45.65823" lon="3.13383">
        <ele>413.6</ele>
        <time>2026-07-02T12:23:25.000Z</time>
      </trkpt>
      <trkpt lat="45.65832" lon="3.1338">
        <ele>413.8</ele>
        <time>2026-07-02T12:23:27.000Z</time>
      </trkpt>
      <trkpt lat="45.65842" lon="3.13377">
        <ele>414</ele>
        <time>2026-07-02T12:23:29.000Z</time>
      </trkpt>
      <trkpt lat="45.65851" lon="3.13375">
        <ele>414.4</ele>
        <time>2026-07-02T12:23:31.000Z</time>
      </trkpt>
      <trkpt lat="45.65861" lon="3.13372">
        <ele>414.6</ele>
        <time>2026-07-02T12:23:33.000Z</time>
      </trkpt>
      <trkpt lat="45.6587" lon="3.13369">
        <ele>415</ele>
        <time>2026-07-02T12:23:35.000Z</time>
      </trkpt>
      <trkpt lat="45.65879" lon="3.13366">
        <ele>415.4</ele>
        <time>2026-07-02T12:23:37.000Z</time>
      </trkpt>
      <trkpt lat="45.65888" lon="3.13363">
        <ele>415.6</ele>
        <time>2026-07-02T12:23:39.000Z</time>
      </trkpt>
      <trkpt lat="45.65897" lon="3.1336">
        <ele>415.8</ele>
        <time>2026-07-02T12:23:41.000Z</time>
      </trkpt>
      <trkpt lat="45.65906" lon="3.13357">
        <ele>416.2</ele>
        <time>2026-07-02T12:23:43.000Z</time>
      </trkpt>
      <trkpt lat="45.65914" lon="3.13354">
        <ele>416.4</ele>
        <time>2026-07-02T12:23:45.000Z</time>
      </trkpt>
      <trkpt lat="45.65924" lon="3.1335">
        <ele>416.6</ele>
        <time>2026-07-02T12:23:47.000Z</time>
      </trkpt>
      <trkpt lat="45.65933" lon="3.13346">
        <ele>416.6</ele>
        <time>2026-07-02T12:23:49.000Z</time>
      </trkpt>
      <trkpt lat="45.65943" lon="3.13342">
        <ele>416.6</ele>
        <time>2026-07-02T12:23:51.000Z</time>
      </trkpt>
      <trkpt lat="45.65952" lon="3.13339">
        <ele>416.4</ele>
        <time>2026-07-02T12:23:53.000Z</time>
      </trkpt>
      <trkpt lat="45.65962" lon="3.13334">
        <ele>416.2</ele>
        <time>2026-07-02T12:23:55.000Z</time>
      </trkpt>
      <trkpt lat="45.65972" lon="3.1333">
        <ele>416.2</ele>
        <time>2026-07-02T12:23:57.000Z</time>
      </trkpt>
      <trkpt lat="45.65982" lon="3.13326">
        <ele>416</ele>
        <time>2026-07-02T12:23:59.000Z</time>
      </trkpt>
      <trkpt lat="45.65991" lon="3.13323">
        <ele>416.2</ele>
        <time>2026-07-02T12:24:01.000Z</time>
      </trkpt>
      <trkpt lat="45.66001" lon="3.13318">
        <ele>416.2</ele>
        <time>2026-07-02T12:24:03.000Z</time>
      </trkpt>
      <trkpt lat="45.66012" lon="3.13315">
        <ele>416</ele>
        <time>2026-07-02T12:24:05.000Z</time>
      </trkpt>
      <trkpt lat="45.66023" lon="3.13315">
        <ele>416</ele>
        <time>2026-07-02T12:24:07.000Z</time>
      </trkpt>
      <trkpt lat="45.66035" lon="3.13318">
        <ele>415.8</ele>
        <time>2026-07-02T12:24:09.000Z</time>
      </trkpt>
      <trkpt lat="45.66047" lon="3.13322">
        <ele>415.4</ele>
        <time>2026-07-02T12:24:11.000Z</time>
      </trkpt>
      <trkpt lat="45.66058" lon="3.13315">
        <ele>415</ele>
        <time>2026-07-02T12:24:13.000Z</time>
      </trkpt>
      <trkpt lat="45.66066" lon="3.13302">
        <ele>414.8</ele>
        <time>2026-07-02T12:24:15.000Z</time>
      </trkpt>
      <trkpt lat="45.66072" lon="3.13288">
        <ele>414.4</ele>
        <time>2026-07-02T12:24:17.000Z</time>
      </trkpt>
      <trkpt lat="45.66079" lon="3.13273">
        <ele>414.4</ele>
        <time>2026-07-02T12:24:19.000Z</time>
      </trkpt>
      <trkpt lat="45.66088" lon="3.13259">
        <ele>414.2</ele>
        <time>2026-07-02T12:24:21.000Z</time>
      </trkpt>
      <trkpt lat="45.66098" lon="3.13245">
        <ele>413.6</ele>
        <time>2026-07-02T12:24:23.000Z</time>
      </trkpt>
      <trkpt lat="45.6611" lon="3.13232">
        <ele>413.2</ele>
        <time>2026-07-02T12:24:25.000Z</time>
      </trkpt>
      <trkpt lat="45.66122" lon="3.13218">
        <ele>412.8</ele>
        <time>2026-07-02T12:24:27.000Z</time>
      </trkpt>
      <trkpt lat="45.66135" lon="3.13204">
        <ele>411.6</ele>
        <time>2026-07-02T12:24:29.000Z</time>
      </trkpt>
      <trkpt lat="45.66148" lon="3.13187">
        <ele>410.8</ele>
        <time>2026-07-02T12:24:31.000Z</time>
      </trkpt>
      <trkpt lat="45.66161" lon="3.13169">
        <ele>409.8</ele>
        <time>2026-07-02T12:24:33.000Z</time>
      </trkpt>
      <trkpt lat="45.66171" lon="3.13148">
        <ele>408.6</ele>
        <time>2026-07-02T12:24:35.000Z</time>
      </trkpt>
      <trkpt lat="45.66182" lon="3.13125">
        <ele>407.4</ele>
        <time>2026-07-02T12:24:37.000Z</time>
      </trkpt>
      <trkpt lat="45.66193" lon="3.13101">
        <ele>406.2</ele>
        <time>2026-07-02T12:24:39.000Z</time>
      </trkpt>
      <trkpt lat="45.66205" lon="3.13077">
        <ele>405</ele>
        <time>2026-07-02T12:24:41.000Z</time>
      </trkpt>
      <trkpt lat="45.66219" lon="3.13053">
        <ele>404</ele>
        <time>2026-07-02T12:24:43.000Z</time>
      </trkpt>
      <trkpt lat="45.66234" lon="3.13031">
        <ele>403</ele>
        <time>2026-07-02T12:24:45.000Z</time>
      </trkpt>
      <trkpt lat="45.66249" lon="3.13009">
        <ele>401.8</ele>
        <time>2026-07-02T12:24:47.000Z</time>
      </trkpt>
      <trkpt lat="45.66264" lon="3.12988">
        <ele>400.8</ele>
        <time>2026-07-02T12:24:49.000Z</time>
      </trkpt>
      <trkpt lat="45.66279" lon="3.12969">
        <ele>400</ele>
        <time>2026-07-02T12:24:51.000Z</time>
      </trkpt>
      <trkpt lat="45.66294" lon="3.12951">
        <ele>399.2</ele>
        <time>2026-07-02T12:24:53.000Z</time>
      </trkpt>
      <trkpt lat="45.66309" lon="3.12933">
        <ele>398.6</ele>
        <time>2026-07-02T12:24:55.000Z</time>
      </trkpt>
      <trkpt lat="45.66322" lon="3.12915">
        <ele>398</ele>
        <time>2026-07-02T12:24:57.000Z</time>
      </trkpt>
      <trkpt lat="45.66334" lon="3.12894">
        <ele>397.4</ele>
        <time>2026-07-02T12:24:59.000Z</time>
      </trkpt>
      <trkpt lat="45.66346" lon="3.12873">
        <ele>396.8</ele>
        <time>2026-07-02T12:25:01.000Z</time>
      </trkpt>
      <trkpt lat="45.66357" lon="3.1285">
        <ele>396.4</ele>
        <time>2026-07-02T12:25:03.000Z</time>
      </trkpt>
      <trkpt lat="45.66369" lon="3.12829">
        <ele>396</ele>
        <time>2026-07-02T12:25:05.000Z</time>
      </trkpt>
      <trkpt lat="45.66379" lon="3.12807">
        <ele>395.8</ele>
        <time>2026-07-02T12:25:07.000Z</time>
      </trkpt>
      <trkpt lat="45.66388" lon="3.12784">
        <ele>395.6</ele>
        <time>2026-07-02T12:25:09.000Z</time>
      </trkpt>
      <trkpt lat="45.66395" lon="3.12763">
        <ele>395.6</ele>
        <time>2026-07-02T12:25:11.000Z</time>
      </trkpt>
      <trkpt lat="45.66403" lon="3.12743">
        <ele>396</ele>
        <time>2026-07-02T12:25:13.000Z</time>
      </trkpt>
      <trkpt lat="45.66409" lon="3.12724">
        <ele>396.2</ele>
        <time>2026-07-02T12:25:15.000Z</time>
      </trkpt>
      <trkpt lat="45.66415" lon="3.12706">
        <ele>396.2</ele>
        <time>2026-07-02T12:25:17.000Z</time>
      </trkpt>
      <trkpt lat="45.66422" lon="3.12688">
        <ele>396.6</ele>
        <time>2026-07-02T12:25:19.000Z</time>
      </trkpt>
      <trkpt lat="45.66428" lon="3.1267">
        <ele>396.6</ele>
        <time>2026-07-02T12:25:21.000Z</time>
      </trkpt>
      <trkpt lat="45.66434" lon="3.12652">
        <ele>396.8</ele>
        <time>2026-07-02T12:25:23.000Z</time>
      </trkpt>
      <trkpt lat="45.6644" lon="3.12635">
        <ele>397</ele>
        <time>2026-07-02T12:25:25.000Z</time>
      </trkpt>
      <trkpt lat="45.66446" lon="3.1262">
        <ele>397.2</ele>
        <time>2026-07-02T12:25:27.000Z</time>
      </trkpt>
      <trkpt lat="45.66452" lon="3.12605">
        <ele>397.4</ele>
        <time>2026-07-02T12:25:29.000Z</time>
      </trkpt>
      <trkpt lat="45.6646" lon="3.12591">
        <ele>397.6</ele>
        <time>2026-07-02T12:25:31.000Z</time>
      </trkpt>
      <trkpt lat="45.66469" lon="3.12579">
        <ele>398</ele>
        <time>2026-07-02T12:25:33.000Z</time>
      </trkpt>
      <trkpt lat="45.66479" lon="3.12569">
        <ele>398.2</ele>
        <time>2026-07-02T12:25:35.000Z</time>
      </trkpt>
      <trkpt lat="45.6649" lon="3.12561">
        <ele>398.6</ele>
        <time>2026-07-02T12:25:37.000Z</time>
      </trkpt>
      <trkpt lat="45.66502" lon="3.12555">
        <ele>398.8</ele>
        <time>2026-07-02T12:25:39.000Z</time>
      </trkpt>
      <trkpt lat="45.66513" lon="3.1255">
        <ele>399</ele>
        <time>2026-07-02T12:25:41.000Z</time>
      </trkpt>
      <trkpt lat="45.66526" lon="3.12546">
        <ele>399.2</ele>
        <time>2026-07-02T12:25:43.000Z</time>
      </trkpt>
      <trkpt lat="45.66538" lon="3.12541">
        <ele>399.2</ele>
        <time>2026-07-02T12:25:45.000Z</time>
      </trkpt>
      <trkpt lat="45.6655" lon="3.12537">
        <ele>399.4</ele>
        <time>2026-07-02T12:25:47.000Z</time>
      </trkpt>
      <trkpt lat="45.66563" lon="3.12532">
        <ele>399.4</ele>
        <time>2026-07-02T12:25:49.000Z</time>
      </trkpt>
      <trkpt lat="45.66576" lon="3.12528">
        <ele>399.4</ele>
        <time>2026-07-02T12:25:51.000Z</time>
      </trkpt>
      <trkpt lat="45.66589" lon="3.12524">
        <ele>399.4</ele>
        <time>2026-07-02T12:25:53.000Z</time>
      </trkpt>
      <trkpt lat="45.66602" lon="3.12519">
        <ele>399.4</ele>
        <time>2026-07-02T12:25:55.000Z</time>
      </trkpt>
      <trkpt lat="45.66615" lon="3.12515">
        <ele>399.4</ele>
        <time>2026-07-02T12:25:57.000Z</time>
      </trkpt>
      <trkpt lat="45.66628" lon="3.1251">
        <ele>399.4</ele>
        <time>2026-07-02T12:25:59.000Z</time>
      </trkpt>
      <trkpt lat="45.66641" lon="3.12505">
        <ele>399</ele>
        <time>2026-07-02T12:26:01.000Z</time>
      </trkpt>
      <trkpt lat="45.66654" lon="3.12501">
        <ele>399</ele>
        <time>2026-07-02T12:26:03.000Z</time>
      </trkpt>
      <trkpt lat="45.66668" lon="3.12497">
        <ele>398.8</ele>
        <time>2026-07-02T12:26:05.000Z</time>
      </trkpt>
      <trkpt lat="45.6668" lon="3.12492">
        <ele>398.8</ele>
        <time>2026-07-02T12:26:07.000Z</time>
      </trkpt>
      <trkpt lat="45.66693" lon="3.12489">
        <ele>398.8</ele>
        <time>2026-07-02T12:26:09.000Z</time>
      </trkpt>
      <trkpt lat="45.66707" lon="3.12488">
        <ele>398.6</ele>
        <time>2026-07-02T12:26:11.000Z</time>
      </trkpt>
      <trkpt lat="45.6672" lon="3.12485">
        <ele>398.4</ele>
        <time>2026-07-02T12:26:13.000Z</time>
      </trkpt>
      <trkpt lat="45.66733" lon="3.1248">
        <ele>398.4</ele>
        <time>2026-07-02T12:26:15.000Z</time>
      </trkpt>
      <trkpt lat="45.66745" lon="3.12471">
        <ele>398.2</ele>
        <time>2026-07-02T12:26:17.000Z</time>
      </trkpt>
      <trkpt lat="45.66755" lon="3.12457">
        <ele>398.2</ele>
        <time>2026-07-02T12:26:19.000Z</time>
      </trkpt>
      <trkpt lat="45.66763" lon="3.12442">
        <ele>398</ele>
        <time>2026-07-02T12:26:21.000Z</time>
      </trkpt>
      <trkpt lat="45.66768" lon="3.12426">
        <ele>397.8</ele>
        <time>2026-07-02T12:26:23.000Z</time>
      </trkpt>
      <trkpt lat="45.66774" lon="3.12411">
        <ele>397.6</ele>
        <time>2026-07-02T12:26:25.000Z</time>
      </trkpt>
      <trkpt lat="45.66785" lon="3.12402">
        <ele>397.6</ele>
        <time>2026-07-02T12:26:27.000Z</time>
      </trkpt>
      <trkpt lat="45.66796" lon="3.12401">
        <ele>397.2</ele>
        <time>2026-07-02T12:26:29.000Z</time>
      </trkpt>
      <trkpt lat="45.66807" lon="3.1241">
        <ele>397.2</ele>
        <time>2026-07-02T12:26:31.000Z</time>
      </trkpt>
      <trkpt lat="45.66815" lon="3.12422">
        <ele>397</ele>
        <time>2026-07-02T12:26:33.000Z</time>
      </trkpt>
      <trkpt lat="45.66824" lon="3.12432">
        <ele>397</ele>
        <time>2026-07-02T12:26:35.000Z</time>
      </trkpt>
      <trkpt lat="45.66835" lon="3.12436">
        <ele>397.2</ele>
        <time>2026-07-02T12:26:37.000Z</time>
      </trkpt>
      <trkpt lat="45.66846" lon="3.12437">
        <ele>397.4</ele>
        <time>2026-07-02T12:26:39.000Z</time>
      </trkpt>
      <trkpt lat="45.66857" lon="3.12435">
        <ele>397.4</ele>
        <time>2026-07-02T12:26:41.000Z</time>
      </trkpt>
      <trkpt lat="45.66868" lon="3.12433">
        <ele>397.6</ele>
        <time>2026-07-02T12:26:43.000Z</time>
      </trkpt>
      <trkpt lat="45.66879" lon="3.12431">
        <ele>397.8</ele>
        <time>2026-07-02T12:26:45.000Z</time>
      </trkpt>
      <trkpt lat="45.66888" lon="3.12434">
        <ele>397.8</ele>
        <time>2026-07-02T12:26:47.000Z</time>
      </trkpt>
      <trkpt lat="45.66893" lon="3.12443">
        <ele>397.8</ele>
        <time>2026-07-02T12:26:49.000Z</time>
      </trkpt>
      <trkpt lat="45.66894" lon="3.12456">
        <ele>397.8</ele>
        <time>2026-07-02T12:26:51.000Z</time>
      </trkpt>
      <trkpt lat="45.66896" lon="3.1247">
        <ele>397.6</ele>
        <time>2026-07-02T12:26:53.000Z</time>
      </trkpt>
      <trkpt lat="45.66901" lon="3.12482">
        <ele>397.6</ele>
        <time>2026-07-02T12:26:55.000Z</time>
      </trkpt>
      <trkpt lat="45.66909" lon="3.12491">
        <ele>397.6</ele>
        <time>2026-07-02T12:26:57.000Z</time>
      </trkpt>
      <trkpt lat="45.66918" lon="3.12498">
        <ele>397.6</ele>
        <time>2026-07-02T12:26:59.000Z</time>
      </trkpt>
      <trkpt lat="45.66927" lon="3.12504">
        <ele>397.8</ele>
        <time>2026-07-02T12:27:01.000Z</time>
      </trkpt>
      <trkpt lat="45.66937" lon="3.12508">
        <ele>397.8</ele>
        <time>2026-07-02T12:27:03.000Z</time>
      </trkpt>
      <trkpt lat="45.66948" lon="3.12509">
        <ele>398</ele>
        <time>2026-07-02T12:27:05.000Z</time>
      </trkpt>
      <trkpt lat="45.66958" lon="3.12512">
        <ele>398.2</ele>
        <time>2026-07-02T12:27:07.000Z</time>
      </trkpt>
      <trkpt lat="45.66967" lon="3.12514">
        <ele>398.4</ele>
        <time>2026-07-02T12:27:09.000Z</time>
      </trkpt>
      <trkpt lat="45.66976" lon="3.12518">
        <ele>398.6</ele>
        <time>2026-07-02T12:27:11.000Z</time>
      </trkpt>
      <trkpt lat="45.66983" lon="3.12521">
        <ele>399</ele>
        <time>2026-07-02T12:27:13.000Z</time>
      </trkpt>
      <trkpt lat="45.66989" lon="3.12524">
        <ele>399.6</ele>
        <time>2026-07-02T12:27:15.000Z</time>
      </trkpt>
      <trkpt lat="45.66996" lon="3.12527">
        <ele>400</ele>
        <time>2026-07-02T12:27:17.000Z</time>
      </trkpt>
      <trkpt lat="45.67002" lon="3.1253">
        <ele>400.4</ele>
        <time>2026-07-02T12:27:19.000Z</time>
      </trkpt>
      <trkpt lat="45.67008" lon="3.12532">
        <ele>400.8</ele>
        <time>2026-07-02T12:27:21.000Z</time>
      </trkpt>
      <trkpt lat="45.67014" lon="3.12534">
        <ele>401.2</ele>
        <time>2026-07-02T12:27:23.000Z</time>
      </trkpt>
      <trkpt lat="45.67019" lon="3.12538">
        <ele>401.8</ele>
        <time>2026-07-02T12:27:25.000Z</time>
      </trkpt>
      <trkpt lat="45.67025" lon="3.12543">
        <ele>402.2</ele>
        <time>2026-07-02T12:27:27.000Z</time>
      </trkpt>
      <trkpt lat="45.67028" lon="3.1255">
        <ele>402.8</ele>
        <time>2026-07-02T12:27:29.000Z</time>
      </trkpt>
      <trkpt lat="45.6703" lon="3.12559">
        <ele>403.4</ele>
        <time>2026-07-02T12:27:31.000Z</time>
      </trkpt>
      <trkpt lat="45.67031" lon="3.12569">
        <ele>403.8</ele>
        <time>2026-07-02T12:27:33.000Z</time>
      </trkpt>
      <trkpt lat="45.67031" lon="3.1258">
        <ele>404</ele>
        <time>2026-07-02T12:27:35.000Z</time>
      </trkpt>
      <trkpt lat="45.67031" lon="3.12591">
        <ele>404.2</ele>
        <time>2026-07-02T12:27:37.000Z</time>
      </trkpt>
      <trkpt lat="45.67032" lon="3.12602">
        <ele>404.2</ele>
        <time>2026-07-02T12:27:39.000Z</time>
      </trkpt>
      <trkpt lat="45.67033" lon="3.12615">
        <ele>404</ele>
        <time>2026-07-02T12:27:41.000Z</time>
      </trkpt>
      <trkpt lat="45.67033" lon="3.12629">
        <ele>403.8</ele>
        <time>2026-07-02T12:27:43.000Z</time>
      </trkpt>
      <trkpt lat="45.67034" lon="3.12643">
        <ele>403.6</ele>
        <time>2026-07-02T12:27:45.000Z</time>
      </trkpt>
      <trkpt lat="45.67035" lon="3.12656">
        <ele>403.4</ele>
        <time>2026-07-02T12:27:47.000Z</time>
      </trkpt>
      <trkpt lat="45.67039" lon="3.12668">
        <ele>403</ele>
        <time>2026-07-02T12:27:49.000Z</time>
      </trkpt>
      <trkpt lat="45.67047" lon="3.12673">
        <ele>402.6</ele>
        <time>2026-07-02T12:27:51.000Z</time>
      </trkpt>
      <trkpt lat="45.67054" lon="3.12674">
        <ele>402.4</ele>
        <time>2026-07-02T12:27:53.000Z</time>
      </trkpt>
      <trkpt lat="45.6706" lon="3.12675">
        <ele>402.4</ele>
        <time>2026-07-02T12:27:55.000Z</time>
      </trkpt>
      <trkpt lat="45.67064" lon="3.12681">
        <ele>402.6</ele>
        <time>2026-07-02T12:27:57.000Z</time>
      </trkpt>
      <trkpt lat="45.67067" lon="3.1269">
        <ele>402.8</ele>
        <time>2026-07-02T12:27:59.000Z</time>
      </trkpt>
      <trkpt lat="45.67068" lon="3.12701">
        <ele>403</ele>
        <time>2026-07-02T12:28:01.000Z</time>
      </trkpt>
      <trkpt lat="45.67069" lon="3.12713">
        <ele>403</ele>
        <time>2026-07-02T12:28:03.000Z</time>
      </trkpt>
      <trkpt lat="45.6707" lon="3.12726">
        <ele>403</ele>
        <time>2026-07-02T12:28:05.000Z</time>
      </trkpt>
      <trkpt lat="45.67069" lon="3.12739">
        <ele>402.8</ele>
        <time>2026-07-02T12:28:07.000Z</time>
      </trkpt>
      <trkpt lat="45.67068" lon="3.12752">
        <ele>402.4</ele>
        <time>2026-07-02T12:28:09.000Z</time>
      </trkpt>
      <trkpt lat="45.67067" lon="3.12766">
        <ele>402.2</ele>
        <time>2026-07-02T12:28:11.000Z</time>
      </trkpt>
      <trkpt lat="45.67064" lon="3.12782">
        <ele>401.6</ele>
        <time>2026-07-02T12:28:13.000Z</time>
      </trkpt>
      <trkpt lat="45.6706" lon="3.12798">
        <ele>401.2</ele>
        <time>2026-07-02T12:28:15.000Z</time>
      </trkpt>
      <trkpt lat="45.67056" lon="3.12815">
        <ele>401</ele>
        <time>2026-07-02T12:28:17.000Z</time>
      </trkpt>
      <trkpt lat="45.67055" lon="3.1283">
        <ele>400.6</ele>
        <time>2026-07-02T12:28:19.000Z</time>
      </trkpt>
      <trkpt lat="45.67056" lon="3.12846">
        <ele>400.6</ele>
        <time>2026-07-02T12:28:21.000Z</time>
      </trkpt>
      <trkpt lat="45.67057" lon="3.1286">
        <ele>400.6</ele>
        <time>2026-07-02T12:28:23.000Z</time>
      </trkpt>
      <trkpt lat="45.67058" lon="3.12875">
        <ele>400.6</ele>
        <time>2026-07-02T12:28:25.000Z</time>
      </trkpt>
      <trkpt lat="45.6706" lon="3.12888">
        <ele>400.6</ele>
        <time>2026-07-02T12:28:27.000Z</time>
      </trkpt>
      <trkpt lat="45.67061" lon="3.12902">
        <ele>400.4</ele>
        <time>2026-07-02T12:28:29.000Z</time>
      </trkpt>
      <trkpt lat="45.67061" lon="3.12917">
        <ele>400.4</ele>
        <time>2026-07-02T12:28:31.000Z</time>
      </trkpt>
      <trkpt lat="45.67061" lon="3.12932">
        <ele>400.4</ele>
        <time>2026-07-02T12:28:33.000Z</time>
      </trkpt>
      <trkpt lat="45.67061" lon="3.12947">
        <ele>400.4</ele>
        <time>2026-07-02T12:28:35.000Z</time>
      </trkpt>
      <trkpt lat="45.67061" lon="3.12962">
        <ele>400.6</ele>
        <time>2026-07-02T12:28:37.000Z</time>
      </trkpt>
      <trkpt lat="45.6706" lon="3.12975">
        <ele>400.4</ele>
        <time>2026-07-02T12:28:39.000Z</time>
      </trkpt>
      <trkpt lat="45.67061" lon="3.12987">
        <ele>400.6</ele>
        <time>2026-07-02T12:28:41.000Z</time>
      </trkpt>
      <trkpt lat="45.67061" lon="3.13001">
        <ele>400.6</ele>
        <time>2026-07-02T12:28:43.000Z</time>
      </trkpt>
      <trkpt lat="45.67057" lon="3.13015">
        <ele>400.4</ele>
        <time>2026-07-02T12:28:45.000Z</time>
      </trkpt>
      <trkpt lat="45.6705" lon="3.1303">
        <ele>400.2</ele>
        <time>2026-07-02T12:28:47.000Z</time>
      </trkpt>
      <trkpt lat="45.67043" lon="3.13046">
        <ele>400</ele>
        <time>2026-07-02T12:28:49.000Z</time>
      </trkpt>
      <trkpt lat="45.67034" lon="3.13062">
        <ele>399.6</ele>
        <time>2026-07-02T12:28:51.000Z</time>
      </trkpt>
      <trkpt lat="45.67024" lon="3.1308">
        <ele>399.4</ele>
        <time>2026-07-02T12:28:53.000Z</time>
      </trkpt>
      <trkpt lat="45.67014" lon="3.131">
        <ele>399</ele>
        <time>2026-07-02T12:28:55.000Z</time>
      </trkpt>
      <trkpt lat="45.67005" lon="3.13122">
        <ele>398.6</ele>
        <time>2026-07-02T12:28:57.000Z</time>
      </trkpt>
      <trkpt lat="45.66997" lon="3.13144">
        <ele>398.4</ele>
        <time>2026-07-02T12:28:59.000Z</time>
      </trkpt>
      <trkpt lat="45.6699" lon="3.13167">
        <ele>397.8</ele>
        <time>2026-07-02T12:29:01.000Z</time>
      </trkpt>
      <trkpt lat="45.66983" lon="3.13189">
        <ele>397.4</ele>
        <time>2026-07-02T12:29:03.000Z</time>
      </trkpt>
      <trkpt lat="45.66978" lon="3.13212">
        <ele>396.8</ele>
        <time>2026-07-02T12:29:05.000Z</time>
      </trkpt>
      <trkpt lat="45.66974" lon="3.13235">
        <ele>396.4</ele>
        <time>2026-07-02T12:29:07.000Z</time>
      </trkpt>
      <trkpt lat="45.6697" lon="3.13257">
        <ele>395.8</ele>
        <time>2026-07-02T12:29:09.000Z</time>
      </trkpt>
      <trkpt lat="45.66967" lon="3.1328">
        <ele>395.4</ele>
        <time>2026-07-02T12:29:11.000Z</time>
      </trkpt>
      <trkpt lat="45.66965" lon="3.13302">
        <ele>395.2</ele>
        <time>2026-07-02T12:29:13.000Z</time>
      </trkpt>
      <trkpt lat="45.66964" lon="3.13323">
        <ele>395</ele>
        <time>2026-07-02T12:29:15.000Z</time>
      </trkpt>
      <trkpt lat="45.66962" lon="3.13344">
        <ele>394.8</ele>
        <time>2026-07-02T12:29:17.000Z</time>
      </trkpt>
      <trkpt lat="45.66959" lon="3.13364">
        <ele>394.6</ele>
        <time>2026-07-02T12:29:19.000Z</time>
      </trkpt>
      <trkpt lat="45.66954" lon="3.13384">
        <ele>394.4</ele>
        <time>2026-07-02T12:29:21.000Z</time>
      </trkpt>
      <trkpt lat="45.66947" lon="3.13404">
        <ele>394.4</ele>
        <time>2026-07-02T12:29:23.000Z</time>
      </trkpt>
      <trkpt lat="45.6694" lon="3.13424">
        <ele>394.2</ele>
        <time>2026-07-02T12:29:25.000Z</time>
      </trkpt>
      <trkpt lat="45.66932" lon="3.13446">
        <ele>394</ele>
        <time>2026-07-02T12:29:27.000Z</time>
      </trkpt>
      <trkpt lat="45.66925" lon="3.13468">
        <ele>393.6</ele>
        <time>2026-07-02T12:29:29.000Z</time>
      </trkpt>
      <trkpt lat="45.66919" lon="3.13492">
        <ele>393.2</ele>
        <time>2026-07-02T12:29:31.000Z</time>
      </trkpt>
      <trkpt lat="45.66912" lon="3.13516">
        <ele>392.6</ele>
        <time>2026-07-02T12:29:33.000Z</time>
      </trkpt>
      <trkpt lat="45.66906" lon="3.1354">
        <ele>392.4</ele>
        <time>2026-07-02T12:29:35.000Z</time>
      </trkpt>
      <trkpt lat="45.669" lon="3.13564">
        <ele>392</ele>
        <time>2026-07-02T12:29:37.000Z</time>
      </trkpt>
      <trkpt lat="45.66895" lon="3.13587">
        <ele>392</ele>
        <time>2026-07-02T12:29:39.000Z</time>
      </trkpt>
      <trkpt lat="45.6689" lon="3.1361">
        <ele>391.8</ele>
        <time>2026-07-02T12:29:41.000Z</time>
      </trkpt>
      <trkpt lat="45.66885" lon="3.13632">
        <ele>391.6</ele>
        <time>2026-07-02T12:29:43.000Z</time>
      </trkpt>
      <trkpt lat="45.6688" lon="3.13654">
        <ele>391</ele>
        <time>2026-07-02T12:29:45.000Z</time>
      </trkpt>
      <trkpt lat="45.66875" lon="3.13676">
        <ele>390.6</ele>
        <time>2026-07-02T12:29:47.000Z</time>
      </trkpt>
      <trkpt lat="45.6687" lon="3.13697">
        <ele>390</ele>
        <time>2026-07-02T12:29:49.000Z</time>
      </trkpt>
      <trkpt lat="45.66864" lon="3.1372">
        <ele>389.4</ele>
        <time>2026-07-02T12:29:51.000Z</time>
      </trkpt>
      <trkpt lat="45.66857" lon="3.13743">
        <ele>389.2</ele>
        <time>2026-07-02T12:29:53.000Z</time>
      </trkpt>
      <trkpt lat="45.66851" lon="3.13766">
        <ele>388.8</ele>
        <time>2026-07-02T12:29:55.000Z</time>
      </trkpt>
      <trkpt lat="45.66845" lon="3.1379">
        <ele>388.8</ele>
        <time>2026-07-02T12:29:57.000Z</time>
      </trkpt>
      <trkpt lat="45.66841" lon="3.13814">
        <ele>388.6</ele>
        <time>2026-07-02T12:29:59.000Z</time>
      </trkpt>
      <trkpt lat="45.66837" lon="3.13838">
        <ele>388.8</ele>
        <time>2026-07-02T12:30:01.000Z</time>
      </trkpt>
      <trkpt lat="45.66835" lon="3.13861">
        <ele>389</ele>
        <time>2026-07-02T12:30:03.000Z</time>
      </trkpt>
      <trkpt lat="45.66833" lon="3.13884">
        <ele>388.8</ele>
        <time>2026-07-02T12:30:05.000Z</time>
      </trkpt>
      <trkpt lat="45.66833" lon="3.13907">
        <ele>388.6</ele>
        <time>2026-07-02T12:30:07.000Z</time>
      </trkpt>
      <trkpt lat="45.66832" lon="3.13931">
        <ele>388.2</ele>
        <time>2026-07-02T12:30:09.000Z</time>
      </trkpt>
      <trkpt lat="45.66832" lon="3.13955">
        <ele>388.2</ele>
        <time>2026-07-02T12:30:11.000Z</time>
      </trkpt>
      <trkpt lat="45.66832" lon="3.13978">
        <ele>387.6</ele>
        <time>2026-07-02T12:30:13.000Z</time>
      </trkpt>
      <trkpt lat="45.66831" lon="3.14002">
        <ele>387.6</ele>
        <time>2026-07-02T12:30:15.000Z</time>
      </trkpt>
      <trkpt lat="45.6683" lon="3.14025">
        <ele>387.4</ele>
        <time>2026-07-02T12:30:17.000Z</time>
      </trkpt>
      <trkpt lat="45.66829" lon="3.14048">
        <ele>387.4</ele>
        <time>2026-07-02T12:30:19.000Z</time>
      </trkpt>
      <trkpt lat="45.66827" lon="3.1407">
        <ele>387</ele>
        <time>2026-07-02T12:30:21.000Z</time>
      </trkpt>
      <trkpt lat="45.66826" lon="3.14092">
        <ele>386.8</ele>
        <time>2026-07-02T12:30:23.000Z</time>
      </trkpt>
      <trkpt lat="45.66825" lon="3.14115">
        <ele>386.6</ele>
        <time>2026-07-02T12:30:25.000Z</time>
      </trkpt>
      <trkpt lat="45.66824" lon="3.14137">
        <ele>386.4</ele>
        <time>2026-07-02T12:30:27.000Z</time>
      </trkpt>
      <trkpt lat="45.66822" lon="3.14158">
        <ele>386.8</ele>
        <time>2026-07-02T12:30:29.000Z</time>
      </trkpt>
      <trkpt lat="45.66821" lon="3.14178">
        <ele>386.8</ele>
        <time>2026-07-02T12:30:31.000Z</time>
      </trkpt>
      <trkpt lat="45.66821" lon="3.14198">
        <ele>387</ele>
        <time>2026-07-02T12:30:33.000Z</time>
      </trkpt>
      <trkpt lat="45.6682" lon="3.14217">
        <ele>387</ele>
        <time>2026-07-02T12:30:35.000Z</time>
      </trkpt>
      <trkpt lat="45.66819" lon="3.14236">
        <ele>387</ele>
        <time>2026-07-02T12:30:37.000Z</time>
      </trkpt>
      <trkpt lat="45.66819" lon="3.14255">
        <ele>387</ele>
        <time>2026-07-02T12:30:39.000Z</time>
      </trkpt>
      <trkpt lat="45.66819" lon="3.14274">
        <ele>387.2</ele>
        <time>2026-07-02T12:30:41.000Z</time>
      </trkpt>
      <trkpt lat="45.66818" lon="3.14292">
        <ele>387.4</ele>
        <time>2026-07-02T12:30:43.000Z</time>
      </trkpt>
      <trkpt lat="45.66818" lon="3.14311">
        <ele>387.6</ele>
        <time>2026-07-02T12:30:45.000Z</time>
      </trkpt>
      <trkpt lat="45.66818" lon="3.14329">
        <ele>388</ele>
        <time>2026-07-02T12:30:47.000Z</time>
      </trkpt>
      <trkpt lat="45.66817" lon="3.14346">
        <ele>388.2</ele>
        <time>2026-07-02T12:30:49.000Z</time>
      </trkpt>
      <trkpt lat="45.66816" lon="3.14364">
        <ele>388.4</ele>
        <time>2026-07-02T12:30:51.000Z</time>
      </trkpt>
      <trkpt lat="45.66816" lon="3.14382">
        <ele>388.4</ele>
        <time>2026-07-02T12:30:53.000Z</time>
      </trkpt>
      <trkpt lat="45.66815" lon="3.14402">
        <ele>388.4</ele>
        <time>2026-07-02T12:30:55.000Z</time>
      </trkpt>
      <trkpt lat="45.66814" lon="3.14421">
        <ele>388.2</ele>
        <time>2026-07-02T12:30:57.000Z</time>
      </trkpt>
      <trkpt lat="45.66812" lon="3.14441">
        <ele>387.8</ele>
        <time>2026-07-02T12:30:59.000Z</time>
      </trkpt>
      <trkpt lat="45.66808" lon="3.14462">
        <ele>387.4</ele>
        <time>2026-07-02T12:31:01.000Z</time>
      </trkpt>
      <trkpt lat="45.66802" lon="3.14483">
        <ele>387</ele>
        <time>2026-07-02T12:31:03.000Z</time>
      </trkpt>
      <trkpt lat="45.66794" lon="3.14504">
        <ele>386.4</ele>
        <time>2026-07-02T12:31:05.000Z</time>
      </trkpt>
      <trkpt lat="45.66785" lon="3.14525">
        <ele>385.8</ele>
        <time>2026-07-02T12:31:07.000Z</time>
      </trkpt>
      <trkpt lat="45.66775" lon="3.14547">
        <ele>385</ele>
        <time>2026-07-02T12:31:09.000Z</time>
      </trkpt>
      <trkpt lat="45.66765" lon="3.14569">
        <ele>384.4</ele>
        <time>2026-07-02T12:31:11.000Z</time>
      </trkpt>
      <trkpt lat="45.66754" lon="3.14591">
        <ele>383.6</ele>
        <time>2026-07-02T12:31:13.000Z</time>
      </trkpt>
      <trkpt lat="45.66743" lon="3.14614">
        <ele>382.8</ele>
        <time>2026-07-02T12:31:15.000Z</time>
      </trkpt>
      <trkpt lat="45.66732" lon="3.14638">
        <ele>382</ele>
        <time>2026-07-02T12:31:17.000Z</time>
      </trkpt>
      <trkpt lat="45.66722" lon="3.14662">
        <ele>381.4</ele>
        <time>2026-07-02T12:31:19.000Z</time>
      </trkpt>
      <trkpt lat="45.66713" lon="3.14687">
        <ele>380.6</ele>
        <time>2026-07-02T12:31:21.000Z</time>
      </trkpt>
      <trkpt lat="45.66708" lon="3.14713">
        <ele>379.8</ele>
        <time>2026-07-02T12:31:23.000Z</time>
      </trkpt>
      <trkpt lat="45.66706" lon="3.1474">
        <ele>379</ele>
        <time>2026-07-02T12:31:25.000Z</time>
      </trkpt>
      <trkpt lat="45.66706" lon="3.14766">
        <ele>377.8</ele>
        <time>2026-07-02T12:31:27.000Z</time>
      </trkpt>
      <trkpt lat="45.66709" lon="3.14791">
        <ele>377.2</ele>
        <time>2026-07-02T12:31:29.000Z</time>
      </trkpt>
      <trkpt lat="45.66712" lon="3.14814">
        <ele>376.8</ele>
        <time>2026-07-02T12:31:31.000Z</time>
      </trkpt>
      <trkpt lat="45.66714" lon="3.14837">
        <ele>376.4</ele>
        <time>2026-07-02T12:31:33.000Z</time>
      </trkpt>
      <trkpt lat="45.66715" lon="3.14859">
        <ele>376</ele>
        <time>2026-07-02T12:31:35.000Z</time>
      </trkpt>
      <trkpt lat="45.66715" lon="3.14881">
        <ele>375.4</ele>
        <time>2026-07-02T12:31:37.000Z</time>
      </trkpt>
      <trkpt lat="45.66715" lon="3.14903">
        <ele>375.4</ele>
        <time>2026-07-02T12:31:39.000Z</time>
      </trkpt>
      <trkpt lat="45.66715" lon="3.14924">
        <ele>375.4</ele>
        <time>2026-07-02T12:31:41.000Z</time>
      </trkpt>
      <trkpt lat="45.66716" lon="3.14944">
        <ele>375.4</ele>
        <time>2026-07-02T12:31:43.000Z</time>
      </trkpt>
      <trkpt lat="45.66717" lon="3.14964">
        <ele>375.6</ele>
        <time>2026-07-02T12:31:45.000Z</time>
      </trkpt>
      <trkpt lat="45.66718" lon="3.14986">
        <ele>375.6</ele>
        <time>2026-07-02T12:31:47.000Z</time>
      </trkpt>
      <trkpt lat="45.66719" lon="3.15007">
        <ele>375.8</ele>
        <time>2026-07-02T12:31:49.000Z</time>
      </trkpt>
      <trkpt lat="45.66721" lon="3.15028">
        <ele>375.8</ele>
        <time>2026-07-02T12:31:51.000Z</time>
      </trkpt>
      <trkpt lat="45.66721" lon="3.15049">
        <ele>376.2</ele>
        <time>2026-07-02T12:31:53.000Z</time>
      </trkpt>
      <trkpt lat="45.66721" lon="3.1507">
        <ele>376.4</ele>
        <time>2026-07-02T12:31:55.000Z</time>
      </trkpt>
      <trkpt lat="45.66721" lon="3.15091">
        <ele>376.4</ele>
        <time>2026-07-02T12:31:57.000Z</time>
      </trkpt>
      <trkpt lat="45.6672" lon="3.15113">
        <ele>376.2</ele>
        <time>2026-07-02T12:31:59.000Z</time>
      </trkpt>
      <trkpt lat="45.66719" lon="3.15135">
        <ele>376.2</ele>
        <time>2026-07-02T12:32:01.000Z</time>
      </trkpt>
      <trkpt lat="45.6672" lon="3.15157">
        <ele>376</ele>
        <time>2026-07-02T12:32:03.000Z</time>
      </trkpt>
      <trkpt lat="45.66722" lon="3.15178">
        <ele>375.8</ele>
        <time>2026-07-02T12:32:05.000Z</time>
      </trkpt>
      <trkpt lat="45.66725" lon="3.15198">
        <ele>376</ele>
        <time>2026-07-02T12:32:07.000Z</time>
      </trkpt>
      <trkpt lat="45.6673" lon="3.15218">
        <ele>376.2</ele>
        <time>2026-07-02T12:32:09.000Z</time>
      </trkpt>
      <trkpt lat="45.66735" lon="3.15237">
        <ele>376.2</ele>
        <time>2026-07-02T12:32:11.000Z</time>
      </trkpt>
      <trkpt lat="45.6674" lon="3.15258">
        <ele>376.4</ele>
        <time>2026-07-02T12:32:13.000Z</time>
      </trkpt>
      <trkpt lat="45.66744" lon="3.15277">
        <ele>376.6</ele>
        <time>2026-07-02T12:32:15.000Z</time>
      </trkpt>
      <trkpt lat="45.66749" lon="3.15297">
        <ele>376.6</ele>
        <time>2026-07-02T12:32:17.000Z</time>
      </trkpt>
      <trkpt lat="45.66753" lon="3.15316">
        <ele>376.6</ele>
        <time>2026-07-02T12:32:19.000Z</time>
      </trkpt>
      <trkpt lat="45.66756" lon="3.15336">
        <ele>376.8</ele>
        <time>2026-07-02T12:32:21.000Z</time>
      </trkpt>
      <trkpt lat="45.66759" lon="3.15355">
        <ele>376.8</ele>
        <time>2026-07-02T12:32:23.000Z</time>
      </trkpt>
      <trkpt lat="45.66761" lon="3.15375">
        <ele>376.8</ele>
        <time>2026-07-02T12:32:25.000Z</time>
      </trkpt>
      <trkpt lat="45.66762" lon="3.15395">
        <ele>377</ele>
        <time>2026-07-02T12:32:27.000Z</time>
      </trkpt>
      <trkpt lat="45.66764" lon="3.15415">
        <ele>377</ele>
        <time>2026-07-02T12:32:29.000Z</time>
      </trkpt>
      <trkpt lat="45.66766" lon="3.15434">
        <ele>377</ele>
        <time>2026-07-02T12:32:31.000Z</time>
      </trkpt>
      <trkpt lat="45.66768" lon="3.15453">
        <ele>377</ele>
        <time>2026-07-02T12:32:33.000Z</time>
      </trkpt>
      <trkpt lat="45.66772" lon="3.15472">
        <ele>377</ele>
        <time>2026-07-02T12:32:35.000Z</time>
      </trkpt>
      <trkpt lat="45.66778" lon="3.15489">
        <ele>377</ele>
        <time>2026-07-02T12:32:37.000Z</time>
      </trkpt>
      <trkpt lat="45.66784" lon="3.15506">
        <ele>377</ele>
        <time>2026-07-02T12:32:39.000Z</time>
      </trkpt>
      <trkpt lat="45.66791" lon="3.15523">
        <ele>377.2</ele>
        <time>2026-07-02T12:32:41.000Z</time>
      </trkpt>
      <trkpt lat="45.66797" lon="3.15541">
        <ele>377.2</ele>
        <time>2026-07-02T12:32:43.000Z</time>
      </trkpt>
      <trkpt lat="45.66801" lon="3.1556">
        <ele>377.2</ele>
        <time>2026-07-02T12:32:45.000Z</time>
      </trkpt>
      <trkpt lat="45.66804" lon="3.15578">
        <ele>377.2</ele>
        <time>2026-07-02T12:32:47.000Z</time>
      </trkpt>
      <trkpt lat="45.66807" lon="3.15597">
        <ele>377</ele>
        <time>2026-07-02T12:32:49.000Z</time>
      </trkpt>
      <trkpt lat="45.66809" lon="3.15617">
        <ele>377.2</ele>
        <time>2026-07-02T12:32:51.000Z</time>
      </trkpt>
      <trkpt lat="45.66812" lon="3.15636">
        <ele>377.2</ele>
        <time>2026-07-02T12:32:53.000Z</time>
      </trkpt>
      <trkpt lat="45.66814" lon="3.15655">
        <ele>377.2</ele>
        <time>2026-07-02T12:32:55.000Z</time>
      </trkpt>
      <trkpt lat="45.66816" lon="3.15673">
        <ele>377.2</ele>
        <time>2026-07-02T12:32:57.000Z</time>
      </trkpt>
      <trkpt lat="45.66819" lon="3.15691">
        <ele>377.2</ele>
        <time>2026-07-02T12:32:59.000Z</time>
      </trkpt>
      <trkpt lat="45.6682" lon="3.15709">
        <ele>377.2</ele>
        <time>2026-07-02T12:33:01.000Z</time>
      </trkpt>
      <trkpt lat="45.66821" lon="3.15728">
        <ele>377.2</ele>
        <time>2026-07-02T12:33:03.000Z</time>
      </trkpt>
      <trkpt lat="45.66823" lon="3.15746">
        <ele>377.2</ele>
        <time>2026-07-02T12:33:05.000Z</time>
      </trkpt>
      <trkpt lat="45.66824" lon="3.15765">
        <ele>377.2</ele>
        <time>2026-07-02T12:33:07.000Z</time>
      </trkpt>
      <trkpt lat="45.66827" lon="3.15783">
        <ele>377</ele>
        <time>2026-07-02T12:33:09.000Z</time>
      </trkpt>
      <trkpt lat="45.6683" lon="3.15802">
        <ele>376.8</ele>
        <time>2026-07-02T12:33:11.000Z</time>
      </trkpt>
      <trkpt lat="45.66836" lon="3.15819">
        <ele>376.8</ele>
        <time>2026-07-02T12:33:13.000Z</time>
      </trkpt>
      <trkpt lat="45.66842" lon="3.15834">
        <ele>377</ele>
        <time>2026-07-02T12:33:15.000Z</time>
      </trkpt>
      <trkpt lat="45.66848" lon="3.1585">
        <ele>377.2</ele>
        <time>2026-07-02T12:33:17.000Z</time>
      </trkpt>
      <trkpt lat="45.66854" lon="3.15865">
        <ele>377.2</ele>
        <time>2026-07-02T12:33:19.000Z</time>
      </trkpt>
      <trkpt lat="45.6686" lon="3.15881">
        <ele>377.2</ele>
        <time>2026-07-02T12:33:21.000Z</time>
      </trkpt>
      <trkpt lat="45.66864" lon="3.15898">
        <ele>377.2</ele>
        <time>2026-07-02T12:33:23.000Z</time>
      </trkpt>
      <trkpt lat="45.66868" lon="3.15914">
        <ele>377.2</ele>
        <time>2026-07-02T12:33:25.000Z</time>
      </trkpt>
      <trkpt lat="45.66873" lon="3.15931">
        <ele>377.2</ele>
        <time>2026-07-02T12:33:27.000Z</time>
      </trkpt>
      <trkpt lat="45.66878" lon="3.15947">
        <ele>377.2</ele>
        <time>2026-07-02T12:33:29.000Z</time>
      </trkpt>
      <trkpt lat="45.66884" lon="3.15962">
        <ele>377</ele>
        <time>2026-07-02T12:33:31.000Z</time>
      </trkpt>
      <trkpt lat="45.66891" lon="3.15976">
        <ele>376.8</ele>
        <time>2026-07-02T12:33:34.000Z</time>
      </trkpt>
      <trkpt lat="45.66899" lon="3.1599">
        <ele>376.8</ele>
        <time>2026-07-02T12:33:36.000Z</time>
      </trkpt>
      <trkpt lat="45.66906" lon="3.16003">
        <ele>376.8</ele>
        <time>2026-07-02T12:33:38.000Z</time>
      </trkpt>
      <trkpt lat="45.66913" lon="3.16017">
        <ele>377</ele>
        <time>2026-07-02T12:33:40.000Z</time>
      </trkpt>
      <trkpt lat="45.6692" lon="3.1603">
        <ele>377</ele>
        <time>2026-07-02T12:33:42.000Z</time>
      </trkpt>
      <trkpt lat="45.66928" lon="3.16042">
        <ele>376.8</ele>
        <time>2026-07-02T12:33:44.000Z</time>
      </trkpt>
      <trkpt lat="45.66938" lon="3.16053">
        <ele>376.8</ele>
        <time>2026-07-02T12:33:46.000Z</time>
      </trkpt>
      <trkpt lat="45.66948" lon="3.16061">
        <ele>376.8</ele>
        <time>2026-07-02T12:33:48.000Z</time>
      </trkpt>
      <trkpt lat="45.66959" lon="3.16069">
        <ele>376.8</ele>
        <time>2026-07-02T12:33:50.000Z</time>
      </trkpt>
      <trkpt lat="45.6697" lon="3.16078">
        <ele>376.8</ele>
        <time>2026-07-02T12:33:52.000Z</time>
      </trkpt>
      <trkpt lat="45.66979" lon="3.16088">
        <ele>377</ele>
        <time>2026-07-02T12:33:54.000Z</time>
      </trkpt>
      <trkpt lat="45.66987" lon="3.16102">
        <ele>377</ele>
        <time>2026-07-02T12:33:56.000Z</time>
      </trkpt>
      <trkpt lat="45.66992" lon="3.16118">
        <ele>377</ele>
        <time>2026-07-02T12:33:58.000Z</time>
      </trkpt>
      <trkpt lat="45.66996" lon="3.16136">
        <ele>376.8</ele>
        <time>2026-07-02T12:34:00.000Z</time>
      </trkpt>
      <trkpt lat="45.66996" lon="3.16154">
        <ele>376.8</ele>
        <time>2026-07-02T12:34:02.000Z</time>
      </trkpt>
      <trkpt lat="45.66995" lon="3.16171">
        <ele>376.8</ele>
        <time>2026-07-02T12:34:04.000Z</time>
      </trkpt>
      <trkpt lat="45.66995" lon="3.16188">
        <ele>376.8</ele>
        <time>2026-07-02T12:34:06.000Z</time>
      </trkpt>
      <trkpt lat="45.66996" lon="3.16205">
        <ele>376.6</ele>
        <time>2026-07-02T12:34:08.000Z</time>
      </trkpt>
      <trkpt lat="45.66998" lon="3.16224">
        <ele>376.6</ele>
        <time>2026-07-02T12:34:10.000Z</time>
      </trkpt>
      <trkpt lat="45.67" lon="3.16245">
        <ele>376.2</ele>
        <time>2026-07-02T12:34:12.000Z</time>
      </trkpt>
      <trkpt lat="45.67003" lon="3.16265">
        <ele>375.4</ele>
        <time>2026-07-02T12:34:14.000Z</time>
      </trkpt>
      <trkpt lat="45.67005" lon="3.16285">
        <ele>374.4</ele>
        <time>2026-07-02T12:34:16.000Z</time>
      </trkpt>
      <trkpt lat="45.67009" lon="3.16306">
        <ele>373.6</ele>
        <time>2026-07-02T12:34:18.000Z</time>
      </trkpt>
      <trkpt lat="45.67012" lon="3.16329">
        <ele>372.8</ele>
        <time>2026-07-02T12:34:20.000Z</time>
      </trkpt>
      <trkpt lat="45.67015" lon="3.16353">
        <ele>372</ele>
        <time>2026-07-02T12:34:22.000Z</time>
      </trkpt>
      <trkpt lat="45.67019" lon="3.16378">
        <ele>371.2</ele>
        <time>2026-07-02T12:34:24.000Z</time>
      </trkpt>
      <trkpt lat="45.67026" lon="3.16402">
        <ele>370.4</ele>
        <time>2026-07-02T12:34:26.000Z</time>
      </trkpt>
      <trkpt lat="45.67033" lon="3.16426">
        <ele>369.4</ele>
        <time>2026-07-02T12:34:28.000Z</time>
      </trkpt>
      <trkpt lat="45.67042" lon="3.16447">
        <ele>368.8</ele>
        <time>2026-07-02T12:34:30.000Z</time>
      </trkpt>
      <trkpt lat="45.6705" lon="3.16469">
        <ele>368.2</ele>
        <time>2026-07-02T12:34:32.000Z</time>
      </trkpt>
      <trkpt lat="45.67055" lon="3.16491">
        <ele>367.6</ele>
        <time>2026-07-02T12:34:34.000Z</time>
      </trkpt>
      <trkpt lat="45.67058" lon="3.16514">
        <ele>367.4</ele>
        <time>2026-07-02T12:34:36.000Z</time>
      </trkpt>
      <trkpt lat="45.67061" lon="3.16536">
        <ele>367</ele>
        <time>2026-07-02T12:34:38.000Z</time>
      </trkpt>
      <trkpt lat="45.67063" lon="3.16557">
        <ele>366.8</ele>
        <time>2026-07-02T12:34:40.000Z</time>
      </trkpt>
      <trkpt lat="45.67066" lon="3.16578">
        <ele>366.4</ele>
        <time>2026-07-02T12:34:42.000Z</time>
      </trkpt>
      <trkpt lat="45.6707" lon="3.16598">
        <ele>366.2</ele>
        <time>2026-07-02T12:34:44.000Z</time>
      </trkpt>
      <trkpt lat="45.67074" lon="3.16618">
        <ele>366</ele>
        <time>2026-07-02T12:34:46.000Z</time>
      </trkpt>
      <trkpt lat="45.67079" lon="3.16637">
        <ele>365.8</ele>
        <time>2026-07-02T12:34:48.000Z</time>
      </trkpt>
      <trkpt lat="45.67086" lon="3.16656">
        <ele>365.6</ele>
        <time>2026-07-02T12:34:50.000Z</time>
      </trkpt>
      <trkpt lat="45.67092" lon="3.16675">
        <ele>365.4</ele>
        <time>2026-07-02T12:34:52.000Z</time>
      </trkpt>
      <trkpt lat="45.67099" lon="3.16695">
        <ele>365.2</ele>
        <time>2026-07-02T12:34:54.000Z</time>
      </trkpt>
      <trkpt lat="45.67105" lon="3.16715">
        <ele>365</ele>
        <time>2026-07-02T12:34:56.000Z</time>
      </trkpt>
      <trkpt lat="45.67112" lon="3.16735">
        <ele>364.6</ele>
        <time>2026-07-02T12:34:58.000Z</time>
      </trkpt>
      <trkpt lat="45.67118" lon="3.16755">
        <ele>364.4</ele>
        <time>2026-07-02T12:35:00.000Z</time>
      </trkpt>
      <trkpt lat="45.67123" lon="3.16774">
        <ele>364.2</ele>
        <time>2026-07-02T12:35:02.000Z</time>
      </trkpt>
      <trkpt lat="45.67128" lon="3.16794">
        <ele>363.8</ele>
        <time>2026-07-02T12:35:04.000Z</time>
      </trkpt>
      <trkpt lat="45.67133" lon="3.16813">
        <ele>363.6</ele>
        <time>2026-07-02T12:35:06.000Z</time>
      </trkpt>
      <trkpt lat="45.67137" lon="3.16832">
        <ele>363.2</ele>
        <time>2026-07-02T12:35:08.000Z</time>
      </trkpt>
      <trkpt lat="45.67141" lon="3.16852">
        <ele>362.8</ele>
        <time>2026-07-02T12:35:10.000Z</time>
      </trkpt>
      <trkpt lat="45.67145" lon="3.16871">
        <ele>362.4</ele>
        <time>2026-07-02T12:35:12.000Z</time>
      </trkpt>
      <trkpt lat="45.67149" lon="3.1689">
        <ele>362.2</ele>
        <time>2026-07-02T12:35:14.000Z</time>
      </trkpt>
      <trkpt lat="45.67152" lon="3.16909">
        <ele>362</ele>
        <time>2026-07-02T12:35:16.000Z</time>
      </trkpt>
      <trkpt lat="45.67156" lon="3.16927">
        <ele>361.8</ele>
        <time>2026-07-02T12:35:18.000Z</time>
      </trkpt>
      <trkpt lat="45.6716" lon="3.16945">
        <ele>361.6</ele>
        <time>2026-07-02T12:35:20.000Z</time>
      </trkpt>
      <trkpt lat="45.67172" lon="3.16976">
        <ele>361.4</ele>
        <time>2026-07-02T12:35:24.000Z</time>
      </trkpt>
      <trkpt lat="45.67178" lon="3.16997">
        <ele>361.4</ele>
        <time>2026-07-02T12:35:27.000Z</time>
      </trkpt>
      <trkpt lat="45.67175" lon="3.17017">
        <ele>361.4</ele>
        <time>2026-07-02T12:35:30.000Z</time>
      </trkpt>
      <trkpt lat="45.67166" lon="3.17036">
        <ele>361.2</ele>
        <time>2026-07-02T12:35:32.000Z</time>
      </trkpt>
      <trkpt lat="45.6716" lon="3.17049">
        <ele>361</ele>
        <time>2026-07-02T12:35:34.000Z</time>
      </trkpt>
      <trkpt lat="45.67154" lon="3.17063">
        <ele>360.6</ele>
        <time>2026-07-02T12:35:36.000Z</time>
      </trkpt>
      <trkpt lat="45.67148" lon="3.17076">
        <ele>360.2</ele>
        <time>2026-07-02T12:35:38.000Z</time>
      </trkpt>
      <trkpt lat="45.67144" lon="3.17084">
        <ele>359.8</ele>
        <time>2026-07-02T12:35:40.000Z</time>
      </trkpt>
      <trkpt lat="45.67142" lon="3.17089">
        <ele>359.6</ele>
        <time>2026-07-02T12:35:42.000Z</time>
      </trkpt>
      <trkpt lat="45.67141" lon="3.17092">
        <ele>359.4</ele>
        <time>2026-07-02T12:35:44.000Z</time>
      </trkpt>
      <trkpt lat="45.67142" lon="3.17098">
        <ele>359.2</ele>
        <time>2026-07-02T12:35:46.000Z</time>
      </trkpt>
      <trkpt lat="45.67146" lon="3.17102">
        <ele>359.2</ele>
        <time>2026-07-02T12:35:48.000Z</time>
      </trkpt>
      <trkpt lat="45.67154" lon="3.17105">
        <ele>359</ele>
        <time>2026-07-02T12:35:50.000Z</time>
      </trkpt>
      <trkpt lat="45.67164" lon="3.17108">
        <ele>359</ele>
        <time>2026-07-02T12:35:52.000Z</time>
      </trkpt>
      <trkpt lat="45.67174" lon="3.17112">
        <ele>359</ele>
        <time>2026-07-02T12:35:54.000Z</time>
      </trkpt>
      <trkpt lat="45.67184" lon="3.17116">
        <ele>359.2</ele>
        <time>2026-07-02T12:35:56.000Z</time>
      </trkpt>
      <trkpt lat="45.67194" lon="3.17121">
        <ele>359.4</ele>
        <time>2026-07-02T12:35:58.000Z</time>
      </trkpt>
      <trkpt lat="45.67204" lon="3.17126">
        <ele>359.8</ele>
        <time>2026-07-02T12:36:00.000Z</time>
      </trkpt>
      <trkpt lat="45.67213" lon="3.17132">
        <ele>360.2</ele>
        <time>2026-07-02T12:36:02.000Z</time>
      </trkpt>
      <trkpt lat="45.67222" lon="3.17138">
        <ele>360.4</ele>
        <time>2026-07-02T12:36:04.000Z</time>
      </trkpt>
      <trkpt lat="45.6723" lon="3.17143">
        <ele>360.6</ele>
        <time>2026-07-02T12:36:06.000Z</time>
      </trkpt>
      <trkpt lat="45.67239" lon="3.17148">
        <ele>361</ele>
        <time>2026-07-02T12:36:08.000Z</time>
      </trkpt>
      <trkpt lat="45.67248" lon="3.17153">
        <ele>361.4</ele>
        <time>2026-07-02T12:36:10.000Z</time>
      </trkpt>
      <trkpt lat="45.67258" lon="3.17158">
        <ele>361.8</ele>
        <time>2026-07-02T12:36:12.000Z</time>
      </trkpt>
      <trkpt lat="45.67267" lon="3.17163">
        <ele>362.2</ele>
        <time>2026-07-02T12:36:14.000Z</time>
      </trkpt>
      <trkpt lat="45.67276" lon="3.17169">
        <ele>362.6</ele>
        <time>2026-07-02T12:36:16.000Z</time>
      </trkpt>
      <trkpt lat="45.67285" lon="3.17177">
        <ele>363</ele>
        <time>2026-07-02T12:36:18.000Z</time>
      </trkpt>
      <trkpt lat="45.67294" lon="3.17186">
        <ele>363</ele>
        <time>2026-07-02T12:36:20.000Z</time>
      </trkpt>
      <trkpt lat="45.67303" lon="3.17196">
        <ele>362.8</ele>
        <time>2026-07-02T12:36:22.000Z</time>
      </trkpt>
      <trkpt lat="45.67312" lon="3.17205">
        <ele>362.6</ele>
        <time>2026-07-02T12:36:24.000Z</time>
      </trkpt>
      <trkpt lat="45.6732" lon="3.17218">
        <ele>362.4</ele>
        <time>2026-07-02T12:36:26.000Z</time>
      </trkpt>
      <trkpt lat="45.67327" lon="3.17231">
        <ele>362.2</ele>
        <time>2026-07-02T12:36:28.000Z</time>
      </trkpt>
      <trkpt lat="45.67335" lon="3.17245">
        <ele>362</ele>
        <time>2026-07-02T12:36:30.000Z</time>
      </trkpt>
      <trkpt lat="45.67344" lon="3.1726">
        <ele>361.8</ele>
        <time>2026-07-02T12:36:32.000Z</time>
      </trkpt>
      <trkpt lat="45.67353" lon="3.17275">
        <ele>361.4</ele>
        <time>2026-07-02T12:36:34.000Z</time>
      </trkpt>
      <trkpt lat="45.67362" lon="3.17289">
        <ele>361.2</ele>
        <time>2026-07-02T12:36:36.000Z</time>
      </trkpt>
      <trkpt lat="45.67371" lon="3.17302">
        <ele>360.8</ele>
        <time>2026-07-02T12:36:38.000Z</time>
      </trkpt>
      <trkpt lat="45.6738" lon="3.17314">
        <ele>360.6</ele>
        <time>2026-07-02T12:36:40.000Z</time>
      </trkpt>
      <trkpt lat="45.67389" lon="3.17327">
        <ele>360.4</ele>
        <time>2026-07-02T12:36:42.000Z</time>
      </trkpt>
      <trkpt lat="45.67399" lon="3.1734">
        <ele>360.4</ele>
        <time>2026-07-02T12:36:44.000Z</time>
      </trkpt>
      <trkpt lat="45.67409" lon="3.17353">
        <ele>360.4</ele>
        <time>2026-07-02T12:36:46.000Z</time>
      </trkpt>
      <trkpt lat="45.67419" lon="3.17365">
        <ele>360.4</ele>
        <time>2026-07-02T12:36:48.000Z</time>
      </trkpt>
      <trkpt lat="45.6743" lon="3.17375">
        <ele>360.2</ele>
        <time>2026-07-02T12:36:50.000Z</time>
      </trkpt>
      <trkpt lat="45.67441" lon="3.17385">
        <ele>360.2</ele>
        <time>2026-07-02T12:36:52.000Z</time>
      </trkpt>
      <trkpt lat="45.67453" lon="3.17395">
        <ele>360</ele>
        <time>2026-07-02T12:36:54.000Z</time>
      </trkpt>
      <trkpt lat="45.67465" lon="3.17404">
        <ele>360</ele>
        <time>2026-07-02T12:36:56.000Z</time>
      </trkpt>
      <trkpt lat="45.67477" lon="3.17414">
        <ele>359.8</ele>
        <time>2026-07-02T12:36:58.000Z</time>
      </trkpt>
      <trkpt lat="45.67488" lon="3.17423">
        <ele>359.8</ele>
        <time>2026-07-02T12:37:00.000Z</time>
      </trkpt>
      <trkpt lat="45.675" lon="3.17432">
        <ele>359.6</ele>
        <time>2026-07-02T12:37:02.000Z</time>
      </trkpt>
      <trkpt lat="45.67511" lon="3.1744">
        <ele>359.4</ele>
        <time>2026-07-02T12:37:04.000Z</time>
      </trkpt>
      <trkpt lat="45.67522" lon="3.17449">
        <ele>359.4</ele>
        <time>2026-07-02T12:37:06.000Z</time>
      </trkpt>
      <trkpt lat="45.67534" lon="3.17458">
        <ele>359.4</ele>
        <time>2026-07-02T12:37:08.000Z</time>
      </trkpt>
      <trkpt lat="45.67545" lon="3.17466">
        <ele>359.2</ele>
        <time>2026-07-02T12:37:10.000Z</time>
      </trkpt>
      <trkpt lat="45.67556" lon="3.17475">
        <ele>359.4</ele>
        <time>2026-07-02T12:37:12.000Z</time>
      </trkpt>
      <trkpt lat="45.67567" lon="3.17484">
        <ele>359.4</ele>
        <time>2026-07-02T12:37:14.000Z</time>
      </trkpt>
      <trkpt lat="45.67579" lon="3.17493">
        <ele>359.4</ele>
        <time>2026-07-02T12:37:16.000Z</time>
      </trkpt>
      <trkpt lat="45.67591" lon="3.17503">
        <ele>359.2</ele>
        <time>2026-07-02T12:37:18.000Z</time>
      </trkpt>
      <trkpt lat="45.67604" lon="3.17513">
        <ele>359.2</ele>
        <time>2026-07-02T12:37:20.000Z</time>
      </trkpt>
      <trkpt lat="45.67615" lon="3.17525">
        <ele>359</ele>
        <time>2026-07-02T12:37:22.000Z</time>
      </trkpt>
      <trkpt lat="45.67626" lon="3.17537">
        <ele>358.8</ele>
        <time>2026-07-02T12:37:24.000Z</time>
      </trkpt>
      <trkpt lat="45.67637" lon="3.1755">
        <ele>358.6</ele>
        <time>2026-07-02T12:37:26.000Z</time>
      </trkpt>
      <trkpt lat="45.67647" lon="3.17563">
        <ele>358.2</ele>
        <time>2026-07-02T12:37:28.000Z</time>
      </trkpt>
      <trkpt lat="45.67658" lon="3.17577">
        <ele>358</ele>
        <time>2026-07-02T12:37:30.000Z</time>
      </trkpt>
      <trkpt lat="45.6767" lon="3.1759">
        <ele>357.6</ele>
        <time>2026-07-02T12:37:32.000Z</time>
      </trkpt>
      <trkpt lat="45.67681" lon="3.17601">
        <ele>357.4</ele>
        <time>2026-07-02T12:37:34.000Z</time>
      </trkpt>
      <trkpt lat="45.67693" lon="3.17612">
        <ele>357.2</ele>
        <time>2026-07-02T12:37:36.000Z</time>
      </trkpt>
      <trkpt lat="45.67705" lon="3.17622">
        <ele>357</ele>
        <time>2026-07-02T12:37:38.000Z</time>
      </trkpt>
      <trkpt lat="45.67718" lon="3.17633">
        <ele>356.8</ele>
        <time>2026-07-02T12:37:40.000Z</time>
      </trkpt>
      <trkpt lat="45.67731" lon="3.17642">
        <ele>356.6</ele>
        <time>2026-07-02T12:37:42.000Z</time>
      </trkpt>
      <trkpt lat="45.67742" lon="3.17652">
        <ele>356.4</ele>
        <time>2026-07-02T12:37:44.000Z</time>
      </trkpt>
      <trkpt lat="45.67754" lon="3.17661">
        <ele>356.4</ele>
        <time>2026-07-02T12:37:46.000Z</time>
      </trkpt>
      <trkpt lat="45.67766" lon="3.1767">
        <ele>356.2</ele>
        <time>2026-07-02T12:37:48.000Z</time>
      </trkpt>
      <trkpt lat="45.67778" lon="3.17679">
        <ele>356.2</ele>
        <time>2026-07-02T12:37:50.000Z</time>
      </trkpt>
      <trkpt lat="45.6779" lon="3.17688">
        <ele>356</ele>
        <time>2026-07-02T12:37:52.000Z</time>
      </trkpt>
      <trkpt lat="45.67802" lon="3.17698">
        <ele>356</ele>
        <time>2026-07-02T12:37:54.000Z</time>
      </trkpt>
      <trkpt lat="45.67814" lon="3.17708">
        <ele>355.8</ele>
        <time>2026-07-02T12:37:56.000Z</time>
      </trkpt>
      <trkpt lat="45.67825" lon="3.17718">
        <ele>355.6</ele>
        <time>2026-07-02T12:37:58.000Z</time>
      </trkpt>
      <trkpt lat="45.67836" lon="3.17729">
        <ele>355.6</ele>
        <time>2026-07-02T12:38:00.000Z</time>
      </trkpt>
      <trkpt lat="45.67847" lon="3.1774">
        <ele>355.4</ele>
        <time>2026-07-02T12:38:02.000Z</time>
      </trkpt>
      <trkpt lat="45.67857" lon="3.17751">
        <ele>355.4</ele>
        <time>2026-07-02T12:38:04.000Z</time>
      </trkpt>
      <trkpt lat="45.67867" lon="3.17763">
        <ele>355.4</ele>
        <time>2026-07-02T12:38:06.000Z</time>
      </trkpt>
      <trkpt lat="45.67877" lon="3.17776">
        <ele>355.2</ele>
        <time>2026-07-02T12:38:08.000Z</time>
      </trkpt>
      <trkpt lat="45.67887" lon="3.17788">
        <ele>355.2</ele>
        <time>2026-07-02T12:38:10.000Z</time>
      </trkpt>
      <trkpt lat="45.67897" lon="3.17801">
        <ele>355.2</ele>
        <time>2026-07-02T12:38:12.000Z</time>
      </trkpt>
      <trkpt lat="45.67906" lon="3.17814">
        <ele>355</ele>
        <time>2026-07-02T12:38:14.000Z</time>
      </trkpt>
      <trkpt lat="45.67915" lon="3.17826">
        <ele>355.2</ele>
        <time>2026-07-02T12:38:16.000Z</time>
      </trkpt>
      <trkpt lat="45.67924" lon="3.17839">
        <ele>355.2</ele>
        <time>2026-07-02T12:38:18.000Z</time>
      </trkpt>
      <trkpt lat="45.67934" lon="3.17851">
        <ele>355</ele>
        <time>2026-07-02T12:38:20.000Z</time>
      </trkpt>
      <trkpt lat="45.67943" lon="3.17863">
        <ele>355</ele>
        <time>2026-07-02T12:38:22.000Z</time>
      </trkpt>
      <trkpt lat="45.67952" lon="3.17875">
        <ele>354.8</ele>
        <time>2026-07-02T12:38:24.000Z</time>
      </trkpt>
      <trkpt lat="45.67961" lon="3.17888">
        <ele>354.8</ele>
        <time>2026-07-02T12:38:26.000Z</time>
      </trkpt>
      <trkpt lat="45.6797" lon="3.17901">
        <ele>354.8</ele>
        <time>2026-07-02T12:38:28.000Z</time>
      </trkpt>
      <trkpt lat="45.67978" lon="3.17914">
        <ele>354.6</ele>
        <time>2026-07-02T12:38:30.000Z</time>
      </trkpt>
      <trkpt lat="45.67987" lon="3.17927">
        <ele>354.4</ele>
        <time>2026-07-02T12:38:32.000Z</time>
      </trkpt>
      <trkpt lat="45.67995" lon="3.17941">
        <ele>354.2</ele>
        <time>2026-07-02T12:38:34.000Z</time>
      </trkpt>
      <trkpt lat="45.68003" lon="3.17955">
        <ele>354</ele>
        <time>2026-07-02T12:38:36.000Z</time>
      </trkpt>
      <trkpt lat="45.68011" lon="3.17968">
        <ele>353.8</ele>
        <time>2026-07-02T12:38:38.000Z</time>
      </trkpt>
      <trkpt lat="45.6802" lon="3.17982">
        <ele>353.8</ele>
        <time>2026-07-02T12:38:40.000Z</time>
      </trkpt>
      <trkpt lat="45.68028" lon="3.17995">
        <ele>353.8</ele>
        <time>2026-07-02T12:38:42.000Z</time>
      </trkpt>
      <trkpt lat="45.68035" lon="3.1801">
        <ele>353.6</ele>
        <time>2026-07-02T12:38:44.000Z</time>
      </trkpt>
      <trkpt lat="45.68044" lon="3.18025">
        <ele>353.6</ele>
        <time>2026-07-02T12:38:46.000Z</time>
      </trkpt>
      <trkpt lat="45.68052" lon="3.1804">
        <ele>353.6</ele>
        <time>2026-07-02T12:38:48.000Z</time>
      </trkpt>
      <trkpt lat="45.68059" lon="3.18054">
        <ele>353.2</ele>
        <time>2026-07-02T12:38:50.000Z</time>
      </trkpt>
      <trkpt lat="45.68067" lon="3.18068">
        <ele>353.2</ele>
        <time>2026-07-02T12:38:52.000Z</time>
      </trkpt>
      <trkpt lat="45.68074" lon="3.18083">
        <ele>353</ele>
        <time>2026-07-02T12:38:54.000Z</time>
      </trkpt>
      <trkpt lat="45.68082" lon="3.18098">
        <ele>353</ele>
        <time>2026-07-02T12:38:56.000Z</time>
      </trkpt>
      <trkpt lat="45.6809" lon="3.18112">
        <ele>353</ele>
        <time>2026-07-02T12:38:58.000Z</time>
      </trkpt>
      <trkpt lat="45.68097" lon="3.18127">
        <ele>353</ele>
        <time>2026-07-02T12:39:00.000Z</time>
      </trkpt>
      <trkpt lat="45.68104" lon="3.18142">
        <ele>352.8</ele>
        <time>2026-07-02T12:39:02.000Z</time>
      </trkpt>
      <trkpt lat="45.68112" lon="3.18157">
        <ele>352.8</ele>
        <time>2026-07-02T12:39:04.000Z</time>
      </trkpt>
      <trkpt lat="45.68119" lon="3.18171">
        <ele>352.4</ele>
        <time>2026-07-02T12:39:06.000Z</time>
      </trkpt>
      <trkpt lat="45.68127" lon="3.18185">
        <ele>352.2</ele>
        <time>2026-07-02T12:39:08.000Z</time>
      </trkpt>
      <trkpt lat="45.68134" lon="3.18199">
        <ele>352.2</ele>
        <time>2026-07-02T12:39:10.000Z</time>
      </trkpt>
      <trkpt lat="45.68142" lon="3.18214">
        <ele>352.2</ele>
        <time>2026-07-02T12:39:12.000Z</time>
      </trkpt>
      <trkpt lat="45.68149" lon="3.18228">
        <ele>352.2</ele>
        <time>2026-07-02T12:39:14.000Z</time>
      </trkpt>
      <trkpt lat="45.68156" lon="3.18243">
        <ele>352.2</ele>
        <time>2026-07-02T12:39:16.000Z</time>
      </trkpt>
      <trkpt lat="45.68163" lon="3.18256">
        <ele>352.2</ele>
        <time>2026-07-02T12:39:18.000Z</time>
      </trkpt>
      <trkpt lat="45.68169" lon="3.18269">
        <ele>352.2</ele>
        <time>2026-07-02T12:39:20.000Z</time>
      </trkpt>
      <trkpt lat="45.68176" lon="3.18283">
        <ele>352.2</ele>
        <time>2026-07-02T12:39:22.000Z</time>
      </trkpt>
      <trkpt lat="45.68184" lon="3.18296">
        <ele>352</ele>
        <time>2026-07-02T12:39:24.000Z</time>
      </trkpt>
      <trkpt lat="45.68191" lon="3.1831">
        <ele>352</ele>
        <time>2026-07-02T12:39:26.000Z</time>
      </trkpt>
      <trkpt lat="45.68197" lon="3.18322">
        <ele>352</ele>
        <time>2026-07-02T12:39:28.000Z</time>
      </trkpt>
      <trkpt lat="45.68205" lon="3.18335">
        <ele>352</ele>
        <time>2026-07-02T12:39:30.000Z</time>
      </trkpt>
      <trkpt lat="45.68211" lon="3.18348">
        <ele>352</ele>
        <time>2026-07-02T12:39:32.000Z</time>
      </trkpt>
      <trkpt lat="45.68218" lon="3.18361">
        <ele>352</ele>
        <time>2026-07-02T12:39:34.000Z</time>
      </trkpt>
      <trkpt lat="45.68224" lon="3.18374">
        <ele>352.2</ele>
        <time>2026-07-02T12:39:36.000Z</time>
      </trkpt>
      <trkpt lat="45.6823" lon="3.18386">
        <ele>352.4</ele>
        <time>2026-07-02T12:39:38.000Z</time>
      </trkpt>
      <trkpt lat="45.68234" lon="3.18397">
        <ele>352.4</ele>
        <time>2026-07-02T12:39:40.000Z</time>
      </trkpt>
      <trkpt lat="45.68239" lon="3.18407">
        <ele>352.2</ele>
        <time>2026-07-02T12:39:42.000Z</time>
      </trkpt>
      <trkpt lat="45.68243" lon="3.18416">
        <ele>352.2</ele>
        <time>2026-07-02T12:39:44.000Z</time>
      </trkpt>
      <trkpt lat="45.68246" lon="3.18423">
        <ele>352.2</ele>
        <time>2026-07-02T12:39:46.000Z</time>
      </trkpt>
      <trkpt lat="45.68249" lon="3.18428">
        <ele>352.2</ele>
        <time>2026-07-02T12:39:48.000Z</time>
      </trkpt>
      <trkpt lat="45.68251" lon="3.18433">
        <ele>352.2</ele>
        <time>2026-07-02T12:39:50.000Z</time>
      </trkpt>
      <trkpt lat="45.68252" lon="3.18442">
        <ele>352.2</ele>
        <time>2026-07-02T12:39:52.000Z</time>
      </trkpt>
      <trkpt lat="45.68252" lon="3.18454">
        <ele>352.2</ele>
        <time>2026-07-02T12:39:54.000Z</time>
      </trkpt>
      <trkpt lat="45.68251" lon="3.18466">
        <ele>352.2</ele>
        <time>2026-07-02T12:39:56.000Z</time>
      </trkpt>
      <trkpt lat="45.68252" lon="3.1848">
        <ele>352</ele>
        <time>2026-07-02T12:39:58.000Z</time>
      </trkpt>
      <trkpt lat="45.68253" lon="3.18495">
        <ele>351.8</ele>
        <time>2026-07-02T12:40:00.000Z</time>
      </trkpt>
      <trkpt lat="45.68254" lon="3.1851">
        <ele>351.6</ele>
        <time>2026-07-02T12:40:02.000Z</time>
      </trkpt>
      <trkpt lat="45.68254" lon="3.18527">
        <ele>351.2</ele>
        <time>2026-07-02T12:40:04.000Z</time>
      </trkpt>
      <trkpt lat="45.68255" lon="3.18545">
        <ele>351</ele>
        <time>2026-07-02T12:40:06.000Z</time>
      </trkpt>
      <trkpt lat="45.68257" lon="3.18562">
        <ele>351</ele>
        <time>2026-07-02T12:40:08.000Z</time>
      </trkpt>
      <trkpt lat="45.68258" lon="3.1858">
        <ele>350.8</ele>
        <time>2026-07-02T12:40:10.000Z</time>
      </trkpt>
      <trkpt lat="45.68259" lon="3.18597">
        <ele>350.8</ele>
        <time>2026-07-02T12:40:12.000Z</time>
      </trkpt>
      <trkpt lat="45.68259" lon="3.18613">
        <ele>350.6</ele>
        <time>2026-07-02T12:40:14.000Z</time>
      </trkpt>
      <trkpt lat="45.68256" lon="3.18631">
        <ele>350.4</ele>
        <time>2026-07-02T12:40:16.000Z</time>
      </trkpt>
      <trkpt lat="45.68252" lon="3.1865">
        <ele>350</ele>
        <time>2026-07-02T12:40:18.000Z</time>
      </trkpt>
      <trkpt lat="45.68246" lon="3.18668">
        <ele>349.6</ele>
        <time>2026-07-02T12:40:20.000Z</time>
      </trkpt>
      <trkpt lat="45.68239" lon="3.18687">
        <ele>349.2</ele>
        <time>2026-07-02T12:40:22.000Z</time>
      </trkpt>
      <trkpt lat="45.68231" lon="3.18704">
        <ele>348.8</ele>
        <time>2026-07-02T12:40:24.000Z</time>
      </trkpt>
      <trkpt lat="45.68224" lon="3.18722">
        <ele>348.6</ele>
        <time>2026-07-02T12:40:26.000Z</time>
      </trkpt>
      <trkpt lat="45.68217" lon="3.1874">
        <ele>348.4</ele>
        <time>2026-07-02T12:40:28.000Z</time>
      </trkpt>
      <trkpt lat="45.68209" lon="3.18758">
        <ele>348.2</ele>
        <time>2026-07-02T12:40:30.000Z</time>
      </trkpt>
      <trkpt lat="45.68202" lon="3.18776">
        <ele>348</ele>
        <time>2026-07-02T12:40:32.000Z</time>
      </trkpt>
      <trkpt lat="45.68195" lon="3.18793">
        <ele>348.2</ele>
        <time>2026-07-02T12:40:34.000Z</time>
      </trkpt>
      <trkpt lat="45.68189" lon="3.1881">
        <ele>348.2</ele>
        <time>2026-07-02T12:40:36.000Z</time>
      </trkpt>
      <trkpt lat="45.68182" lon="3.18826">
        <ele>348.2</ele>
        <time>2026-07-02T12:40:38.000Z</time>
      </trkpt>
      <trkpt lat="45.68176" lon="3.18843">
        <ele>348.2</ele>
        <time>2026-07-02T12:40:40.000Z</time>
      </trkpt>
      <trkpt lat="45.6817" lon="3.1886">
        <ele>348</ele>
        <time>2026-07-02T12:40:42.000Z</time>
      </trkpt>
      <trkpt lat="45.68166" lon="3.18877">
        <ele>347.8</ele>
        <time>2026-07-02T12:40:44.000Z</time>
      </trkpt>
      <trkpt lat="45.68161" lon="3.18893">
        <ele>347.8</ele>
        <time>2026-07-02T12:40:46.000Z</time>
      </trkpt>
      <trkpt lat="45.68157" lon="3.18908">
        <ele>347.8</ele>
        <time>2026-07-02T12:40:48.000Z</time>
      </trkpt>
      <trkpt lat="45.68152" lon="3.18924">
        <ele>347.8</ele>
        <time>2026-07-02T12:40:50.000Z</time>
      </trkpt>
      <trkpt lat="45.68148" lon="3.18939">
        <ele>348</ele>
        <time>2026-07-02T12:40:52.000Z</time>
      </trkpt>
      <trkpt lat="45.68143" lon="3.18955">
        <ele>348.2</ele>
        <time>2026-07-02T12:40:54.000Z</time>
      </trkpt>
      <trkpt lat="45.68139" lon="3.1897">
        <ele>348.2</ele>
        <time>2026-07-02T12:40:56.000Z</time>
      </trkpt>
      <trkpt lat="45.68135" lon="3.18986">
        <ele>348.2</ele>
        <time>2026-07-02T12:40:58.000Z</time>
      </trkpt>
      <trkpt lat="45.68131" lon="3.19001">
        <ele>348.2</ele>
        <time>2026-07-02T12:41:00.000Z</time>
      </trkpt>
      <trkpt lat="45.68127" lon="3.19016">
        <ele>348.4</ele>
        <time>2026-07-02T12:41:02.000Z</time>
      </trkpt>
      <trkpt lat="45.68124" lon="3.19029">
        <ele>348.4</ele>
        <time>2026-07-02T12:41:04.000Z</time>
      </trkpt>
      <trkpt lat="45.68121" lon="3.19042">
        <ele>348.6</ele>
        <time>2026-07-02T12:41:06.000Z</time>
      </trkpt>
      <trkpt lat="45.68118" lon="3.19053">
        <ele>348.6</ele>
        <time>2026-07-02T12:41:08.000Z</time>
      </trkpt>
      <trkpt lat="45.68116" lon="3.19063">
        <ele>348.8</ele>
        <time>2026-07-02T12:41:10.000Z</time>
      </trkpt>
      <trkpt lat="45.68113" lon="3.19072">
        <ele>348.8</ele>
        <time>2026-07-02T12:41:12.000Z</time>
      </trkpt>
      <trkpt lat="45.68112" lon="3.19079">
        <ele>349</ele>
        <time>2026-07-02T12:41:14.000Z</time>
      </trkpt>
      <trkpt lat="45.6811" lon="3.19083">
        <ele>349.2</ele>
        <time>2026-07-02T12:41:16.000Z</time>
      </trkpt>
      <trkpt lat="45.68109" lon="3.19088">
        <ele>349.2</ele>
        <time>2026-07-02T12:41:18.000Z</time>
      </trkpt>
      <trkpt lat="45.68108" lon="3.19092">
        <ele>349.2</ele>
        <time>2026-07-02T12:41:20.000Z</time>
      </trkpt>
      <trkpt lat="45.68107" lon="3.19095">
        <ele>349</ele>
        <time>2026-07-02T12:41:22.000Z</time>
      </trkpt>
      <trkpt lat="45.68107" lon="3.19096">
        <ele>349</ele>
        <time>2026-07-02T12:41:24.000Z</time>
      </trkpt>
      <trkpt lat="45.68105" lon="3.19105">
        <ele>349.2</ele>
        <time>2026-07-02T12:41:45.000Z</time>
      </trkpt>
      <trkpt lat="45.68104" lon="3.19109">
        <ele>349.2</ele>
        <time>2026-07-02T12:41:47.000Z</time>
      </trkpt>
      <trkpt lat="45.68102" lon="3.19115">
        <ele>349.4</ele>
        <time>2026-07-02T12:41:49.000Z</time>
      </trkpt>
      <trkpt lat="45.681" lon="3.19124">
        <ele>349.4</ele>
        <time>2026-07-02T12:41:51.000Z</time>
      </trkpt>
      <trkpt lat="45.68096" lon="3.19136">
        <ele>349.6</ele>
        <time>2026-07-02T12:41:53.000Z</time>
      </trkpt>
      <trkpt lat="45.68093" lon="3.19147">
        <ele>349.8</ele>
        <time>2026-07-02T12:41:55.000Z</time>
      </trkpt>
      <trkpt lat="45.68092" lon="3.19153">
        <ele>349.8</ele>
        <time>2026-07-02T12:41:57.000Z</time>
      </trkpt>
      <trkpt lat="45.6809" lon="3.19158">
        <ele>350</ele>
        <time>2026-07-02T12:41:59.000Z</time>
      </trkpt>
      <trkpt lat="45.68089" lon="3.19162">
        <ele>350</ele>
        <time>2026-07-02T12:42:01.000Z</time>
      </trkpt>
      <trkpt lat="45.68088" lon="3.19167">
        <ele>350.2</ele>
        <time>2026-07-02T12:42:03.000Z</time>
      </trkpt>
      <trkpt lat="45.68089" lon="3.19174">
        <ele>350.2</ele>
        <time>2026-07-02T12:42:05.000Z</time>
      </trkpt>
      <trkpt lat="45.68092" lon="3.19183">
        <ele>350.4</ele>
        <time>2026-07-02T12:42:07.000Z</time>
      </trkpt>
      <trkpt lat="45.68099" lon="3.19188">
        <ele>350.4</ele>
        <time>2026-07-02T12:42:09.000Z</time>
      </trkpt>
      <trkpt lat="45.6811" lon="3.19193">
        <ele>350.6</ele>
        <time>2026-07-02T12:42:11.000Z</time>
      </trkpt>
      <trkpt lat="45.68121" lon="3.19198">
        <ele>350.6</ele>
        <time>2026-07-02T12:42:13.000Z</time>
      </trkpt>
      <trkpt lat="45.68132" lon="3.19204">
        <ele>350.6</ele>
        <time>2026-07-02T12:42:15.000Z</time>
      </trkpt>
      <trkpt lat="45.68144" lon="3.19209">
        <ele>350.6</ele>
        <time>2026-07-02T12:42:17.000Z</time>
      </trkpt>
      <trkpt lat="45.68156" lon="3.19216">
        <ele>350.6</ele>
        <time>2026-07-02T12:42:19.000Z</time>
      </trkpt>
      <trkpt lat="45.68167" lon="3.19223">
        <ele>350.6</ele>
        <time>2026-07-02T12:42:21.000Z</time>
      </trkpt>
      <trkpt lat="45.68178" lon="3.19229">
        <ele>350.6</ele>
        <time>2026-07-02T12:42:23.000Z</time>
      </trkpt>
      <trkpt lat="45.68189" lon="3.19236">
        <ele>350.6</ele>
        <time>2026-07-02T12:42:25.000Z</time>
      </trkpt>
      <trkpt lat="45.682" lon="3.19242">
        <ele>350.6</ele>
        <time>2026-07-02T12:42:27.000Z</time>
      </trkpt>
      <trkpt lat="45.68211" lon="3.19249">
        <ele>350.6</ele>
        <time>2026-07-02T12:42:29.000Z</time>
      </trkpt>
      <trkpt lat="45.68222" lon="3.19256">
        <ele>350.4</ele>
        <time>2026-07-02T12:42:31.000Z</time>
      </trkpt>
      <trkpt lat="45.68233" lon="3.19262">
        <ele>350.6</ele>
        <time>2026-07-02T12:42:33.000Z</time>
      </trkpt>
      <trkpt lat="45.68244" lon="3.19268">
        <ele>350.6</ele>
        <time>2026-07-02T12:42:35.000Z</time>
      </trkpt>
      <trkpt lat="45.68255" lon="3.19275">
        <ele>350.6</ele>
        <time>2026-07-02T12:42:37.000Z</time>
      </trkpt>
      <trkpt lat="45.68267" lon="3.19283">
        <ele>350.6</ele>
        <time>2026-07-02T12:42:39.000Z</time>
      </trkpt>
      <trkpt lat="45.68279" lon="3.1929">
        <ele>350.6</ele>
        <time>2026-07-02T12:42:41.000Z</time>
      </trkpt>
      <trkpt lat="45.68291" lon="3.19297">
        <ele>350.4</ele>
        <time>2026-07-02T12:42:43.000Z</time>
      </trkpt>
      <trkpt lat="45.68304" lon="3.19304">
        <ele>350.2</ele>
        <time>2026-07-02T12:42:45.000Z</time>
      </trkpt>
      <trkpt lat="45.68316" lon="3.19311">
        <ele>350</ele>
        <time>2026-07-02T12:42:47.000Z</time>
      </trkpt>
      <trkpt lat="45.68329" lon="3.19319">
        <ele>349.6</ele>
        <time>2026-07-02T12:42:49.000Z</time>
      </trkpt>
      <trkpt lat="45.68341" lon="3.19326">
        <ele>349.4</ele>
        <time>2026-07-02T12:42:51.000Z</time>
      </trkpt>
      <trkpt lat="45.68353" lon="3.19333">
        <ele>349</ele>
        <time>2026-07-02T12:42:53.000Z</time>
      </trkpt>
      <trkpt lat="45.68366" lon="3.19341">
        <ele>348.6</ele>
        <time>2026-07-02T12:42:55.000Z</time>
      </trkpt>
      <trkpt lat="45.68379" lon="3.19349">
        <ele>348.4</ele>
        <time>2026-07-02T12:42:57.000Z</time>
      </trkpt>
      <trkpt lat="45.68393" lon="3.19357">
        <ele>348.2</ele>
        <time>2026-07-02T12:42:59.000Z</time>
      </trkpt>
      <trkpt lat="45.68405" lon="3.19365">
        <ele>348</ele>
        <time>2026-07-02T12:43:01.000Z</time>
      </trkpt>
      <trkpt lat="45.68418" lon="3.19372">
        <ele>347.8</ele>
        <time>2026-07-02T12:43:03.000Z</time>
      </trkpt>
      <trkpt lat="45.68431" lon="3.1938">
        <ele>347.4</ele>
        <time>2026-07-02T12:43:05.000Z</time>
      </trkpt>
      <trkpt lat="45.68445" lon="3.19388">
        <ele>347</ele>
        <time>2026-07-02T12:43:07.000Z</time>
      </trkpt>
      <trkpt lat="45.68459" lon="3.19396">
        <ele>346.6</ele>
        <time>2026-07-02T12:43:09.000Z</time>
      </trkpt>
      <trkpt lat="45.68472" lon="3.19405">
        <ele>346</ele>
        <time>2026-07-02T12:43:11.000Z</time>
      </trkpt>
      <trkpt lat="45.68486" lon="3.19413">
        <ele>345.6</ele>
        <time>2026-07-02T12:43:13.000Z</time>
      </trkpt>
      <trkpt lat="45.685" lon="3.1942">
        <ele>345.2</ele>
        <time>2026-07-02T12:43:15.000Z</time>
      </trkpt>
      <trkpt lat="45.68513" lon="3.19427">
        <ele>345</ele>
        <time>2026-07-02T12:43:17.000Z</time>
      </trkpt>
      <trkpt lat="45.68526" lon="3.19432">
        <ele>345</ele>
        <time>2026-07-02T12:43:19.000Z</time>
      </trkpt>
      <trkpt lat="45.68538" lon="3.19438">
        <ele>344.8</ele>
        <time>2026-07-02T12:43:21.000Z</time>
      </trkpt>
      <trkpt lat="45.68548" lon="3.19445">
        <ele>344.6</ele>
        <time>2026-07-02T12:43:23.000Z</time>
      </trkpt>
      <trkpt lat="45.68558" lon="3.19454">
        <ele>344.6</ele>
        <time>2026-07-02T12:43:25.000Z</time>
      </trkpt>
      <trkpt lat="45.68568" lon="3.19462">
        <ele>344.4</ele>
        <time>2026-07-02T12:43:27.000Z</time>
      </trkpt>
      <trkpt lat="45.6858" lon="3.19466">
        <ele>344.4</ele>
        <time>2026-07-02T12:43:29.000Z</time>
      </trkpt>
      <trkpt lat="45.68592" lon="3.19474">
        <ele>344.4</ele>
        <time>2026-07-02T12:43:31.000Z</time>
      </trkpt>
      <trkpt lat="45.68603" lon="3.19484">
        <ele>344.6</ele>
        <time>2026-07-02T12:43:33.000Z</time>
      </trkpt>
      <trkpt lat="45.68613" lon="3.19498">
        <ele>344.4</ele>
        <time>2026-07-02T12:43:35.000Z</time>
      </trkpt>
      <trkpt lat="45.68621" lon="3.19513">
        <ele>344.6</ele>
        <time>2026-07-02T12:43:37.000Z</time>
      </trkpt>
      <trkpt lat="45.68626" lon="3.1953">
        <ele>344.6</ele>
        <time>2026-07-02T12:43:39.000Z</time>
      </trkpt>
      <trkpt lat="45.68629" lon="3.19547">
        <ele>344.6</ele>
        <time>2026-07-02T12:43:41.000Z</time>
      </trkpt>
      <trkpt lat="45.68632" lon="3.19565">
        <ele>344.8</ele>
        <time>2026-07-02T12:43:43.000Z</time>
      </trkpt>
      <trkpt lat="45.68633" lon="3.19582">
        <ele>345</ele>
        <time>2026-07-02T12:43:45.000Z</time>
      </trkpt>
      <trkpt lat="45.68634" lon="3.196">
        <ele>345</ele>
        <time>2026-07-02T12:43:47.000Z</time>
      </trkpt>
      <trkpt lat="45.68634" lon="3.19617">
        <ele>345</ele>
        <time>2026-07-02T12:43:49.000Z</time>
      </trkpt>
      <trkpt lat="45.68635" lon="3.19634">
        <ele>345.2</ele>
        <time>2026-07-02T12:43:51.000Z</time>
      </trkpt>
      <trkpt lat="45.68636" lon="3.19652">
        <ele>345.2</ele>
        <time>2026-07-02T12:43:53.000Z</time>
      </trkpt>
      <trkpt lat="45.68637" lon="3.1967">
        <ele>345.2</ele>
        <time>2026-07-02T12:43:55.000Z</time>
      </trkpt>
      <trkpt lat="45.68639" lon="3.19688">
        <ele>345.2</ele>
        <time>2026-07-02T12:43:57.000Z</time>
      </trkpt>
      <trkpt lat="45.6864" lon="3.19705">
        <ele>345.4</ele>
        <time>2026-07-02T12:43:59.000Z</time>
      </trkpt>
      <trkpt lat="45.68643" lon="3.19723">
        <ele>345.4</ele>
        <time>2026-07-02T12:44:01.000Z</time>
      </trkpt>
      <trkpt lat="45.68646" lon="3.1974">
        <ele>345.6</ele>
        <time>2026-07-02T12:44:03.000Z</time>
      </trkpt>
      <trkpt lat="45.6865" lon="3.19757">
        <ele>345.8</ele>
        <time>2026-07-02T12:44:05.000Z</time>
      </trkpt>
      <trkpt lat="45.68654" lon="3.19772">
        <ele>346</ele>
        <time>2026-07-02T12:44:07.000Z</time>
      </trkpt>
      <trkpt lat="45.68659" lon="3.19786">
        <ele>346</ele>
        <time>2026-07-02T12:44:09.000Z</time>
      </trkpt>
      <trkpt lat="45.68665" lon="3.19801">
        <ele>346.2</ele>
        <time>2026-07-02T12:44:11.000Z</time>
      </trkpt>
      <trkpt lat="45.68672" lon="3.19815">
        <ele>346</ele>
        <time>2026-07-02T12:44:13.000Z</time>
      </trkpt>
      <trkpt lat="45.68679" lon="3.19828">
        <ele>345.8</ele>
        <time>2026-07-02T12:44:15.000Z</time>
      </trkpt>
      <trkpt lat="45.68686" lon="3.19841">
        <ele>345.8</ele>
        <time>2026-07-02T12:44:17.000Z</time>
      </trkpt>
      <trkpt lat="45.68695" lon="3.19853">
        <ele>345.8</ele>
        <time>2026-07-02T12:44:19.000Z</time>
      </trkpt>
      <trkpt lat="45.68705" lon="3.19865">
        <ele>345.8</ele>
        <time>2026-07-02T12:44:21.000Z</time>
      </trkpt>
      <trkpt lat="45.68716" lon="3.19877">
        <ele>345.4</ele>
        <time>2026-07-02T12:44:23.000Z</time>
      </trkpt>
      <trkpt lat="45.68727" lon="3.19888">
        <ele>345.2</ele>
        <time>2026-07-02T12:44:25.000Z</time>
      </trkpt>
      <trkpt lat="45.68738" lon="3.19899">
        <ele>344.8</ele>
        <time>2026-07-02T12:44:27.000Z</time>
      </trkpt>
      <trkpt lat="45.68749" lon="3.19912">
        <ele>344.6</ele>
        <time>2026-07-02T12:44:29.000Z</time>
      </trkpt>
      <trkpt lat="45.68761" lon="3.19924">
        <ele>344.2</ele>
        <time>2026-07-02T12:44:31.000Z</time>
      </trkpt>
      <trkpt lat="45.68772" lon="3.19936">
        <ele>343.8</ele>
        <time>2026-07-02T12:44:33.000Z</time>
      </trkpt>
      <trkpt lat="45.68784" lon="3.19948">
        <ele>343.4</ele>
        <time>2026-07-02T12:44:35.000Z</time>
      </trkpt>
      <trkpt lat="45.68797" lon="3.19961">
        <ele>342.8</ele>
        <time>2026-07-02T12:44:37.000Z</time>
      </trkpt>
      <trkpt lat="45.68809" lon="3.19973">
        <ele>342.2</ele>
        <time>2026-07-02T12:44:39.000Z</time>
      </trkpt>
      <trkpt lat="45.68821" lon="3.19986">
        <ele>341.8</ele>
        <time>2026-07-02T12:44:41.000Z</time>
      </trkpt>
      <trkpt lat="45.68834" lon="3.19998">
        <ele>341</ele>
        <time>2026-07-02T12:44:43.000Z</time>
      </trkpt>
      <trkpt lat="45.68846" lon="3.20008">
        <ele>340.6</ele>
        <time>2026-07-02T12:44:45.000Z</time>
      </trkpt>
      <trkpt lat="45.68859" lon="3.20016">
        <ele>340.4</ele>
        <time>2026-07-02T12:44:47.000Z</time>
      </trkpt>
      <trkpt lat="45.68872" lon="3.20022">
        <ele>340.2</ele>
        <time>2026-07-02T12:44:49.000Z</time>
      </trkpt>
      <trkpt lat="45.68885" lon="3.20026">
        <ele>340</ele>
        <time>2026-07-02T12:44:51.000Z</time>
      </trkpt>
      <trkpt lat="45.68899" lon="3.2003">
        <ele>340</ele>
        <time>2026-07-02T12:44:53.000Z</time>
      </trkpt>
      <trkpt lat="45.68912" lon="3.20034">
        <ele>339.8</ele>
        <time>2026-07-02T12:44:55.000Z</time>
      </trkpt>
      <trkpt lat="45.68925" lon="3.20039">
        <ele>339.6</ele>
        <time>2026-07-02T12:44:57.000Z</time>
      </trkpt>
      <trkpt lat="45.68939" lon="3.20047">
        <ele>339.6</ele>
        <time>2026-07-02T12:44:59.000Z</time>
      </trkpt>
      <trkpt lat="45.6895" lon="3.20058">
        <ele>339.4</ele>
        <time>2026-07-02T12:45:01.000Z</time>
      </trkpt>
      <trkpt lat="45.6896" lon="3.2007">
        <ele>339.6</ele>
        <time>2026-07-02T12:45:03.000Z</time>
      </trkpt>
      <trkpt lat="45.68972" lon="3.20075">
        <ele>339.6</ele>
        <time>2026-07-02T12:45:05.000Z</time>
      </trkpt>
      <trkpt lat="45.68984" lon="3.20073">
        <ele>339.6</ele>
        <time>2026-07-02T12:45:07.000Z</time>
      </trkpt>
      <trkpt lat="45.68993" lon="3.20063">
        <ele>339.6</ele>
        <time>2026-07-02T12:45:09.000Z</time>
      </trkpt>
      <trkpt lat="45.68997" lon="3.20047">
        <ele>339.6</ele>
        <time>2026-07-02T12:45:11.000Z</time>
      </trkpt>
      <trkpt lat="45.69001" lon="3.20028">
        <ele>339.4</ele>
        <time>2026-07-02T12:45:13.000Z</time>
      </trkpt>
      <trkpt lat="45.69008" lon="3.20011">
        <ele>339.2</ele>
        <time>2026-07-02T12:45:15.000Z</time>
      </trkpt>
      <trkpt lat="45.69019" lon="3.19996">
        <ele>339.2</ele>
        <time>2026-07-02T12:45:17.000Z</time>
      </trkpt>
      <trkpt lat="45.69031" lon="3.19983">
        <ele>339.2</ele>
        <time>2026-07-02T12:45:19.000Z</time>
      </trkpt>
      <trkpt lat="45.69043" lon="3.19971">
        <ele>339</ele>
        <time>2026-07-02T12:45:21.000Z</time>
      </trkpt>
      <trkpt lat="45.69056" lon="3.1996">
        <ele>338.8</ele>
        <time>2026-07-02T12:45:23.000Z</time>
      </trkpt>
      <trkpt lat="45.69069" lon="3.1995">
        <ele>338.6</ele>
        <time>2026-07-02T12:45:25.000Z</time>
      </trkpt>
      <trkpt lat="45.69081" lon="3.19942">
        <ele>338.2</ele>
        <time>2026-07-02T12:45:27.000Z</time>
      </trkpt>
      <trkpt lat="45.69094" lon="3.19933">
        <ele>337.8</ele>
        <time>2026-07-02T12:45:29.000Z</time>
      </trkpt>
      <trkpt lat="45.69106" lon="3.19924">
        <ele>337.6</ele>
        <time>2026-07-02T12:45:31.000Z</time>
      </trkpt>
      <trkpt lat="45.69118" lon="3.19916">
        <ele>337.6</ele>
        <time>2026-07-02T12:45:33.000Z</time>
      </trkpt>
      <trkpt lat="45.69131" lon="3.19908">
        <ele>337.6</ele>
        <time>2026-07-02T12:45:35.000Z</time>
      </trkpt>
      <trkpt lat="45.69143" lon="3.199">
        <ele>337.6</ele>
        <time>2026-07-02T12:45:37.000Z</time>
      </trkpt>
      <trkpt lat="45.69156" lon="3.19893">
        <ele>337.6</ele>
        <time>2026-07-02T12:45:39.000Z</time>
      </trkpt>
      <trkpt lat="45.69168" lon="3.19887">
        <ele>337.2</ele>
        <time>2026-07-02T12:45:41.000Z</time>
      </trkpt>
      <trkpt lat="45.6918" lon="3.19883">
        <ele>337</ele>
        <time>2026-07-02T12:45:43.000Z</time>
      </trkpt>
      <trkpt lat="45.69193" lon="3.19879">
        <ele>337</ele>
        <time>2026-07-02T12:45:45.000Z</time>
      </trkpt>
      <trkpt lat="45.69205" lon="3.19877">
        <ele>336.6</ele>
        <time>2026-07-02T12:45:47.000Z</time>
      </trkpt>
      <trkpt lat="45.69217" lon="3.19875">
        <ele>336.6</ele>
        <time>2026-07-02T12:45:49.000Z</time>
      </trkpt>
      <trkpt lat="45.6923" lon="3.19873">
        <ele>336.8</ele>
        <time>2026-07-02T12:45:51.000Z</time>
      </trkpt>
      <trkpt lat="45.69242" lon="3.19874">
        <ele>336.6</ele>
        <time>2026-07-02T12:45:53.000Z</time>
      </trkpt>
      <trkpt lat="45.69254" lon="3.19875">
        <ele>336.4</ele>
        <time>2026-07-02T12:45:55.000Z</time>
      </trkpt>
      <trkpt lat="45.69265" lon="3.19877">
        <ele>336.4</ele>
        <time>2026-07-02T12:45:57.000Z</time>
      </trkpt>
      <trkpt lat="45.69277" lon="3.1988">
        <ele>336.2</ele>
        <time>2026-07-02T12:45:59.000Z</time>
      </trkpt>
      <trkpt lat="45.69287" lon="3.19883">
        <ele>336</ele>
        <time>2026-07-02T12:46:01.000Z</time>
      </trkpt>
      <trkpt lat="45.69298" lon="3.19887">
        <ele>336</ele>
        <time>2026-07-02T12:46:03.000Z</time>
      </trkpt>
      <trkpt lat="45.69309" lon="3.19891">
        <ele>335.8</ele>
        <time>2026-07-02T12:46:05.000Z</time>
      </trkpt>
      <trkpt lat="45.69319" lon="3.19895">
        <ele>335.8</ele>
        <time>2026-07-02T12:46:07.000Z</time>
      </trkpt>
      <trkpt lat="45.6933" lon="3.19899">
        <ele>335.8</ele>
        <time>2026-07-02T12:46:09.000Z</time>
      </trkpt>
      <trkpt lat="45.69341" lon="3.19902">
        <ele>335.8</ele>
        <time>2026-07-02T12:46:11.000Z</time>
      </trkpt>
      <trkpt lat="45.69351" lon="3.19905">
        <ele>336</ele>
        <time>2026-07-02T12:46:13.000Z</time>
      </trkpt>
      <trkpt lat="45.69362" lon="3.19907">
        <ele>336.2</ele>
        <time>2026-07-02T12:46:15.000Z</time>
      </trkpt>
      <trkpt lat="45.69373" lon="3.19909">
        <ele>336.2</ele>
        <time>2026-07-02T12:46:17.000Z</time>
      </trkpt>
      <trkpt lat="45.69385" lon="3.19908">
        <ele>336.4</ele>
        <time>2026-07-02T12:46:19.000Z</time>
      </trkpt>
      <trkpt lat="45.69396" lon="3.19907">
        <ele>336.4</ele>
        <time>2026-07-02T12:46:21.000Z</time>
      </trkpt>
      <trkpt lat="45.69406" lon="3.19904">
        <ele>336.4</ele>
        <time>2026-07-02T12:46:23.000Z</time>
      </trkpt>
      <trkpt lat="45.69417" lon="3.199">
        <ele>336.4</ele>
        <time>2026-07-02T12:46:25.000Z</time>
      </trkpt>
      <trkpt lat="45.69428" lon="3.19894">
        <ele>336.4</ele>
        <time>2026-07-02T12:46:27.000Z</time>
      </trkpt>
      <trkpt lat="45.69438" lon="3.19887">
        <ele>336.4</ele>
        <time>2026-07-02T12:46:29.000Z</time>
      </trkpt>
      <trkpt lat="45.69448" lon="3.19879">
        <ele>336.4</ele>
        <time>2026-07-02T12:46:31.000Z</time>
      </trkpt>
      <trkpt lat="45.69457" lon="3.19869">
        <ele>336.6</ele>
        <time>2026-07-02T12:46:33.000Z</time>
      </trkpt>
      <trkpt lat="45.69465" lon="3.19859">
        <ele>336.8</ele>
        <time>2026-07-02T12:46:35.000Z</time>
      </trkpt>
      <trkpt lat="45.69474" lon="3.19848">
        <ele>336.8</ele>
        <time>2026-07-02T12:46:37.000Z</time>
      </trkpt>
      <trkpt lat="45.69482" lon="3.19836">
        <ele>336.8</ele>
        <time>2026-07-02T12:46:39.000Z</time>
      </trkpt>
      <trkpt lat="45.69489" lon="3.19824">
        <ele>336.8</ele>
        <time>2026-07-02T12:46:41.000Z</time>
      </trkpt>
      <trkpt lat="45.69497" lon="3.19812">
        <ele>337</ele>
        <time>2026-07-02T12:46:43.000Z</time>
      </trkpt>
      <trkpt lat="45.69505" lon="3.198">
        <ele>337</ele>
        <time>2026-07-02T12:46:45.000Z</time>
      </trkpt>
      <trkpt lat="45.69513" lon="3.19787">
        <ele>337.2</ele>
        <time>2026-07-02T12:46:47.000Z</time>
      </trkpt>
      <trkpt lat="45.69521" lon="3.19775">
        <ele>337.2</ele>
        <time>2026-07-02T12:46:49.000Z</time>
      </trkpt>
      <trkpt lat="45.6953" lon="3.19763">
        <ele>337</ele>
        <time>2026-07-02T12:46:51.000Z</time>
      </trkpt>
      <trkpt lat="45.69539" lon="3.19752">
        <ele>336.8</ele>
        <time>2026-07-02T12:46:53.000Z</time>
      </trkpt>
      <trkpt lat="45.69549" lon="3.19741">
        <ele>336.4</ele>
        <time>2026-07-02T12:46:55.000Z</time>
      </trkpt>
      <trkpt lat="45.6956" lon="3.19731">
        <ele>336.2</ele>
        <time>2026-07-02T12:46:57.000Z</time>
      </trkpt>
      <trkpt lat="45.6957" lon="3.19722">
        <ele>336</ele>
        <time>2026-07-02T12:46:59.000Z</time>
      </trkpt>
      <trkpt lat="45.69582" lon="3.19714">
        <ele>336</ele>
        <time>2026-07-02T12:47:01.000Z</time>
      </trkpt>
      <trkpt lat="45.69593" lon="3.19707">
        <ele>335.8</ele>
        <time>2026-07-02T12:47:03.000Z</time>
      </trkpt>
      <trkpt lat="45.69604" lon="3.19701">
        <ele>336</ele>
        <time>2026-07-02T12:47:05.000Z</time>
      </trkpt>
      <trkpt lat="45.69615" lon="3.19696">
        <ele>336</ele>
        <time>2026-07-02T12:47:07.000Z</time>
      </trkpt>
      <trkpt lat="45.69625" lon="3.1969">
        <ele>336</ele>
        <time>2026-07-02T12:47:09.000Z</time>
      </trkpt>
      <trkpt lat="45.69636" lon="3.19686">
        <ele>336.2</ele>
        <time>2026-07-02T12:47:11.000Z</time>
      </trkpt>
      <trkpt lat="45.69647" lon="3.19682">
        <ele>336.2</ele>
        <time>2026-07-02T12:47:13.000Z</time>
      </trkpt>
      <trkpt lat="45.69657" lon="3.19679">
        <ele>336.4</ele>
        <time>2026-07-02T12:47:15.000Z</time>
      </trkpt>
      <trkpt lat="45.69668" lon="3.19678">
        <ele>336.4</ele>
        <time>2026-07-02T12:47:17.000Z</time>
      </trkpt>
      <trkpt lat="45.69679" lon="3.19678">
        <ele>336.4</ele>
        <time>2026-07-02T12:47:19.000Z</time>
      </trkpt>
      <trkpt lat="45.6969" lon="3.19682">
        <ele>336.4</ele>
        <time>2026-07-02T12:47:21.000Z</time>
      </trkpt>
      <trkpt lat="45.697" lon="3.19688">
        <ele>336.4</ele>
        <time>2026-07-02T12:47:23.000Z</time>
      </trkpt>
      <trkpt lat="45.69711" lon="3.19687">
        <ele>336.4</ele>
        <time>2026-07-02T12:47:25.000Z</time>
      </trkpt>
      <trkpt lat="45.69721" lon="3.19679">
        <ele>336.4</ele>
        <time>2026-07-02T12:47:27.000Z</time>
      </trkpt>
      <trkpt lat="45.69725" lon="3.19665">
        <ele>336.4</ele>
        <time>2026-07-02T12:47:29.000Z</time>
      </trkpt>
      <trkpt lat="45.69724" lon="3.1965">
        <ele>336.4</ele>
        <time>2026-07-02T12:47:31.000Z</time>
      </trkpt>
      <trkpt lat="45.69718" lon="3.19638">
        <ele>336.4</ele>
        <time>2026-07-02T12:47:33.000Z</time>
      </trkpt>
      <trkpt lat="45.69708" lon="3.1963">
        <ele>336.4</ele>
        <time>2026-07-02T12:47:35.000Z</time>
      </trkpt>
      <trkpt lat="45.69698" lon="3.19622">
        <ele>336.2</ele>
        <time>2026-07-02T12:47:37.000Z</time>
      </trkpt>
      <trkpt lat="45.69687" lon="3.19616">
        <ele>336.2</ele>
        <time>2026-07-02T12:47:39.000Z</time>
      </trkpt>
      <trkpt lat="45.69676" lon="3.19612">
        <ele>336.2</ele>
        <time>2026-07-02T12:47:42.000Z</time>
      </trkpt>
      <trkpt lat="45.69664" lon="3.19613">
        <ele>336.2</ele>
        <time>2026-07-02T12:47:44.000Z</time>
      </trkpt>
      <trkpt lat="45.69652" lon="3.19616">
        <ele>336.4</ele>
        <time>2026-07-02T12:47:46.000Z</time>
      </trkpt>
      <trkpt lat="45.69642" lon="3.19609">
        <ele>336.4</ele>
        <time>2026-07-02T12:47:48.000Z</time>
      </trkpt>
      <trkpt lat="45.69636" lon="3.19595">
        <ele>336.8</ele>
        <time>2026-07-02T12:47:50.000Z</time>
      </trkpt>
      <trkpt lat="45.69631" lon="3.19581">
        <ele>336.8</ele>
        <time>2026-07-02T12:47:52.000Z</time>
      </trkpt>
      <trkpt lat="45.69629" lon="3.19566">
        <ele>336.8</ele>
        <time>2026-07-02T12:47:54.000Z</time>
      </trkpt>
      <trkpt lat="45.69628" lon="3.1955">
        <ele>336.8</ele>
        <time>2026-07-02T12:47:56.000Z</time>
      </trkpt>
      <trkpt lat="45.69627" lon="3.19534">
        <ele>336.6</ele>
        <time>2026-07-02T12:47:58.000Z</time>
      </trkpt>
      <trkpt lat="45.69627" lon="3.19518">
        <ele>336.4</ele>
        <time>2026-07-02T12:48:00.000Z</time>
      </trkpt>
      <trkpt lat="45.69626" lon="3.19502">
        <ele>336.4</ele>
        <time>2026-07-02T12:48:02.000Z</time>
      </trkpt>
      <trkpt lat="45.69624" lon="3.19487">
        <ele>336.4</ele>
        <time>2026-07-02T12:48:04.000Z</time>
      </trkpt>
      <trkpt lat="45.69621" lon="3.19471">
        <ele>336.6</ele>
        <time>2026-07-02T12:48:06.000Z</time>
      </trkpt>
      <trkpt lat="45.69615" lon="3.19458">
        <ele>336.6</ele>
        <time>2026-07-02T12:48:08.000Z</time>
      </trkpt>
      <trkpt lat="45.69607" lon="3.19447">
        <ele>336.6</ele>
        <time>2026-07-02T12:48:10.000Z</time>
      </trkpt>
      <trkpt lat="45.69598" lon="3.19438">
        <ele>336.6</ele>
        <time>2026-07-02T12:48:12.000Z</time>
      </trkpt>
      <trkpt lat="45.69588" lon="3.19431">
        <ele>336.6</ele>
        <time>2026-07-02T12:48:14.000Z</time>
      </trkpt>
      <trkpt lat="45.69577" lon="3.19423">
        <ele>336.6</ele>
        <time>2026-07-02T12:48:16.000Z</time>
      </trkpt>
      <trkpt lat="45.69567" lon="3.19416">
        <ele>336.6</ele>
        <time>2026-07-02T12:48:18.000Z</time>
      </trkpt>
      <trkpt lat="45.69556" lon="3.1941">
        <ele>336.6</ele>
        <time>2026-07-02T12:48:20.000Z</time>
      </trkpt>
      <trkpt lat="45.69546" lon="3.19404">
        <ele>336.6</ele>
        <time>2026-07-02T12:48:22.000Z</time>
      </trkpt>
      <trkpt lat="45.69536" lon="3.19397">
        <ele>337</ele>
        <time>2026-07-02T12:48:24.000Z</time>
      </trkpt>
      <trkpt lat="45.69525" lon="3.19391">
        <ele>337</ele>
        <time>2026-07-02T12:48:26.000Z</time>
      </trkpt>
      <trkpt lat="45.69515" lon="3.19385">
        <ele>337.2</ele>
        <time>2026-07-02T12:48:28.000Z</time>
      </trkpt>
      <trkpt lat="45.69505" lon="3.19379">
        <ele>337.4</ele>
        <time>2026-07-02T12:48:30.000Z</time>
      </trkpt>
      <trkpt lat="45.69495" lon="3.19371">
        <ele>337.4</ele>
        <time>2026-07-02T12:48:32.000Z</time>
      </trkpt>
      <trkpt lat="45.69486" lon="3.19364">
        <ele>337.4</ele>
        <time>2026-07-02T12:48:34.000Z</time>
      </trkpt>
      <trkpt lat="45.69476" lon="3.19358">
        <ele>337.6</ele>
        <time>2026-07-02T12:48:36.000Z</time>
      </trkpt>
      <trkpt lat="45.69466" lon="3.19351">
        <ele>337.6</ele>
        <time>2026-07-02T12:48:38.000Z</time>
      </trkpt>
      <trkpt lat="45.69458" lon="3.19345">
        <ele>337.8</ele>
        <time>2026-07-02T12:48:40.000Z</time>
      </trkpt>
      <trkpt lat="45.69449" lon="3.19339">
        <ele>338</ele>
        <time>2026-07-02T12:48:42.000Z</time>
      </trkpt>
      <trkpt lat="45.69443" lon="3.19333">
        <ele>338</ele>
        <time>2026-07-02T12:48:44.000Z</time>
      </trkpt>
      <trkpt lat="45.69438" lon="3.19331">
        <ele>338.2</ele>
        <time>2026-07-02T12:48:46.000Z</time>
      </trkpt>
      <trkpt lat="45.69432" lon="3.19335">
        <ele>338.2</ele>
        <time>2026-07-02T12:48:48.000Z</time>
      </trkpt>
      <trkpt lat="45.69426" lon="3.19344">
        <ele>338.2</ele>
        <time>2026-07-02T12:48:50.000Z</time>
      </trkpt>
      <trkpt lat="45.6942" lon="3.19356">
        <ele>338.2</ele>
        <time>2026-07-02T12:48:52.000Z</time>
      </trkpt>
      <trkpt lat="45.69415" lon="3.19369">
        <ele>338.2</ele>
        <time>2026-07-02T12:48:54.000Z</time>
      </trkpt>
      <trkpt lat="45.69409" lon="3.19382">
        <ele>338.2</ele>
        <time>2026-07-02T12:48:56.000Z</time>
      </trkpt>
      <trkpt lat="45.69403" lon="3.19396">
        <ele>338</ele>
        <time>2026-07-02T12:48:58.000Z</time>
      </trkpt>
      <trkpt lat="45.69396" lon="3.19409">
        <ele>337.8</ele>
        <time>2026-07-02T12:49:00.000Z</time>
      </trkpt>
      <trkpt lat="45.69391" lon="3.19424">
        <ele>337.6</ele>
        <time>2026-07-02T12:49:02.000Z</time>
      </trkpt>
      <trkpt lat="45.69385" lon="3.19439">
        <ele>337.4</ele>
        <time>2026-07-02T12:49:04.000Z</time>
      </trkpt>
      <trkpt lat="45.69379" lon="3.19453">
        <ele>337.2</ele>
        <time>2026-07-02T12:49:06.000Z</time>
      </trkpt>
      <trkpt lat="45.69372" lon="3.19468">
        <ele>337.2</ele>
        <time>2026-07-02T12:49:08.000Z</time>
      </trkpt>
      <trkpt lat="45.69365" lon="3.19482">
        <ele>337</ele>
        <time>2026-07-02T12:49:10.000Z</time>
      </trkpt>
      <trkpt lat="45.69355" lon="3.19488">
        <ele>337</ele>
        <time>2026-07-02T12:49:12.000Z</time>
      </trkpt>
      <trkpt lat="45.69344" lon="3.19485">
        <ele>337</ele>
        <time>2026-07-02T12:49:14.000Z</time>
      </trkpt>
      <trkpt lat="45.69333" lon="3.19477">
        <ele>337</ele>
        <time>2026-07-02T12:49:16.000Z</time>
      </trkpt>
      <trkpt lat="45.69323" lon="3.1947">
        <ele>336.8</ele>
        <time>2026-07-02T12:49:18.000Z</time>
      </trkpt>
      <trkpt lat="45.69313" lon="3.19464">
        <ele>336.8</ele>
        <time>2026-07-02T12:49:20.000Z</time>
      </trkpt>
      <trkpt lat="45.69305" lon="3.19459">
        <ele>336.8</ele>
        <time>2026-07-02T12:49:22.000Z</time>
      </trkpt>
      <trkpt lat="45.69297" lon="3.19454">
        <ele>337</ele>
        <time>2026-07-02T12:49:24.000Z</time>
      </trkpt>
      <trkpt lat="45.69295" lon="3.19446">
        <ele>337.2</ele>
        <time>2026-07-02T12:49:26.000Z</time>
      </trkpt>
      <trkpt lat="45.69298" lon="3.19437">
        <ele>337.4</ele>
        <time>2026-07-02T12:49:28.000Z</time>
      </trkpt>
      <trkpt lat="45.69301" lon="3.19428">
        <ele>337.8</ele>
        <time>2026-07-02T12:49:30.000Z</time>
      </trkpt>
      <trkpt lat="45.69303" lon="3.19419">
        <ele>338</ele>
        <time>2026-07-02T12:49:32.000Z</time>
      </trkpt>
      <trkpt lat="45.69305" lon="3.1941">
        <ele>338.2</ele>
        <time>2026-07-02T12:49:34.000Z</time>
      </trkpt>
      <trkpt lat="45.69304" lon="3.19403">
        <ele>338.6</ele>
        <time>2026-07-02T12:49:36.000Z</time>
      </trkpt>
      <trkpt lat="45.69301" lon="3.19401">
        <ele>338.4</ele>
        <time>2026-07-02T12:49:38.000Z</time>
      </trkpt>
    </trkseg>
  </trk>
</gpx>